<?xml version='1.0' encoding='UTF-8'?><gpx version="1.1" creator="JPX - https://github.com/jenetics/jpx" xmlns="http://www.topografix.com/GPX/1/1"><trk><trkseg><trkpt lat="43.39100220612221" lon="6.706696120156109"><ele>62.00000000000001</ele><time>2026-04-12T06:28:39.004Z</time></trkpt><trkpt lat="43.39106445014077" lon="6.706729987617877"><ele>62.0</ele><time>2026-04-12T06:29:39Z</time></trkpt><trkpt lat="43.391137956398964" lon="6.70666872473926"><ele>62.0</ele><time>2026-04-12T06:30:05Z</time></trkpt><trkpt lat="43.39120253270704" lon="6.706557197300312"><ele>62.0</ele><time>2026-04-12T06:30:08Z</time></trkpt><trkpt lat="43.391253764175296" lon="6.70647653816048"><ele>62.00000000000001</ele><time>2026-04-12T06:30:10Z</time></trkpt><trkpt lat="43.391367802007736" lon="6.706479176883895"><ele>62.0</ele><time>2026-04-12T06:30:12Z</time></trkpt><trkpt lat="43.39142721315505" lon="6.706528270100942"><ele>59.8</ele><time>2026-04-12T06:30:13Z</time></trkpt><trkpt lat="43.39149345876343" lon="6.706607999529303"><ele>57.6</ele><time>2026-04-12T06:30:14Z</time></trkpt><trkpt lat="43.39157602001621" lon="6.706685684051715"><ele>55.4</ele><time>2026-04-12T06:30:15Z</time></trkpt><trkpt lat="43.39164855339247" lon="6.706739554232555"><ele>53.199999999999996</ele><time>2026-04-12T06:30:15.998Z</time></trkpt><trkpt lat="43.391768977849345" lon="6.70676144933192"><ele>51.0</ele><time>2026-04-12T06:30:17.998Z</time></trkpt><trkpt lat="43.39183549316213" lon="6.706763560888844"><ele>51.0</ele><time>2026-04-12T06:30:18.998Z</time></trkpt><trkpt lat="43.391952214740954" lon="6.706831950502782"><ele>51.0</ele><time>2026-04-12T06:30:20.998Z</time></trkpt><trkpt lat="43.39203504805647" lon="6.706846904968645"><ele>51.0</ele><time>2026-04-12T06:30:21.998Z</time></trkpt><trkpt lat="43.39210755425863" lon="6.7068640646590305"><ele>51.0</ele><time>2026-04-12T06:30:22.998Z</time></trkpt><trkpt lat="43.392182180794734" lon="6.706888052433323"><ele>51.0</ele><time>2026-04-12T06:30:23.998Z</time></trkpt><trkpt lat="43.39225551792551" lon="6.706917579189706"><ele>51.0</ele><time>2026-04-12T06:30:24.998Z</time></trkpt><trkpt lat="43.39231589504494" lon="6.706948951457557"><ele>51.333333333333336</ele><time>2026-04-12T06:30:25.998Z</time></trkpt><trkpt lat="43.39238099001777" lon="6.7069887464247255"><ele>51.66666666666667</ele><time>2026-04-12T06:30:27.999Z</time></trkpt><trkpt lat="43.392493835542126" lon="6.7069784031571285"><ele>52.0</ele><time>2026-04-12T06:30:30.999Z</time></trkpt><trkpt lat="43.392574691791815" lon="6.706992459735467"><ele>52.333333333333336</ele><time>2026-04-12T06:30:32.999Z</time></trkpt><trkpt lat="43.39264210719651" lon="6.706974224048545"><ele>52.66666666666667</ele><time>2026-04-12T06:30:34.999Z</time></trkpt><trkpt lat="43.392651391241316" lon="6.706879824436766"><ele>53.0</ele><time>2026-04-12T06:30:39.999Z</time></trkpt><trkpt lat="43.39261366448378" lon="6.706808058730707"><ele>51.50000000000001</ele><time>2026-04-12T06:30:41.999Z</time></trkpt><trkpt lat="43.392546043210295" lon="6.706727801300325"><ele>50.0</ele><time>2026-04-12T06:30:43.999Z</time></trkpt><trkpt lat="43.39258067465665" lon="6.706630982899341"><ele>48.5</ele><time>2026-04-12T06:30:51Z</time></trkpt><trkpt lat="43.39259762897554" lon="6.7065326228218325"><ele>47.0</ele><time>2026-04-12T06:30:53Z</time></trkpt><trkpt lat="43.39260194199291" lon="6.706437855289316"><ele>45.5</ele><time>2026-04-12T06:30:55Z</time></trkpt><trkpt lat="43.39254152754307" lon="6.706340898747571"><ele>44.0</ele><time>2026-04-12T06:30:57Z</time></trkpt><trkpt lat="43.39247060861441" lon="6.706271727598933"><ele>44.0</ele><time>2026-04-12T06:30:59Z</time></trkpt><trkpt lat="43.39241263514396" lon="6.70611857728141"><ele>44.0</ele><time>2026-04-12T06:31:01Z</time></trkpt><trkpt lat="43.392386504336635" lon="6.706035235445852"><ele>44.0</ele><time>2026-04-12T06:31:03Z</time></trkpt><trkpt lat="43.39236166123769" lon="6.705926582292352"><ele>44.0</ele><time>2026-04-12T06:31:06Z</time></trkpt><trkpt lat="43.39230172044233" lon="6.705813457738955"><ele>44.0</ele><time>2026-04-12T06:31:08Z</time></trkpt><trkpt lat="43.39226716417838" lon="6.705691284295945"><ele>45.0</ele><time>2026-04-12T06:31:10Z</time></trkpt><trkpt lat="43.392287993977725" lon="6.70558162945283"><ele>46.0</ele><time>2026-04-12T06:31:12Z</time></trkpt><trkpt lat="43.39229233351689" lon="6.705468335505156"><ele>47.0</ele><time>2026-04-12T06:31:14Z</time></trkpt><trkpt lat="43.39226351747233" lon="6.705319285534351"><ele>48.0</ele><time>2026-04-12T06:31:16Z</time></trkpt><trkpt lat="43.392269649858214" lon="6.705185792728778"><ele>49.0</ele><time>2026-04-12T06:31:18Z</time></trkpt><trkpt lat="43.392260204189355" lon="6.705052494635768"><ele>51.0</ele><time>2026-04-12T06:31:20Z</time></trkpt><trkpt lat="43.392173056530964" lon="6.704975630887335"><ele>53.0</ele><time>2026-04-12T06:31:22Z</time></trkpt><trkpt lat="43.39211209188034" lon="6.704904116000442"><ele>55.00000000000001</ele><time>2026-04-12T06:31:24Z</time></trkpt><trkpt lat="43.39202846911528" lon="6.704786508186756"><ele>57.0</ele><time>2026-04-12T06:31:26Z</time></trkpt><trkpt lat="43.39198858429946" lon="6.704668773685655"><ele>59.0</ele><time>2026-04-12T06:31:28Z</time></trkpt><trkpt lat="43.391954594709475" lon="6.704536913540318"><ele>59.00000000000001</ele><time>2026-04-12T06:31:30Z</time></trkpt><trkpt lat="43.391927833132925" lon="6.704427074969536"><ele>59.0</ele><time>2026-04-12T06:31:31Z</time></trkpt><trkpt lat="43.39188537940384" lon="6.704333488086746"><ele>59.0</ele><time>2026-04-12T06:31:32Z</time></trkpt><trkpt lat="43.391845127390106" lon="6.704261405658631"><ele>59.0</ele><time>2026-04-12T06:31:33Z</time></trkpt><trkpt lat="43.39182104348051" lon="6.704093850997849"><ele>59.00000000000001</ele><time>2026-04-12T06:31:35Z</time></trkpt><trkpt lat="43.39178198347002" lon="6.703984526687184"><ele>59.0</ele><time>2026-04-12T06:31:36Z</time></trkpt><trkpt lat="43.39172336714843" lon="6.703874399946978"><ele>60.333333333333336</ele><time>2026-04-12T06:31:37Z</time></trkpt><trkpt lat="43.391682275009636" lon="6.703782441812326"><ele>61.66666666666667</ele><time>2026-04-12T06:31:38Z</time></trkpt><trkpt lat="43.3915955049406" lon="6.7037117741198395"><ele>63.0</ele><time>2026-04-12T06:31:40Z</time></trkpt><trkpt lat="43.391523287816845" lon="6.7035729331506815"><ele>64.33333333333333</ele><time>2026-04-12T06:31:42Z</time></trkpt><trkpt lat="43.39148104391274" lon="6.703489745101988"><ele>65.66666666666666</ele><time>2026-04-12T06:31:43Z</time></trkpt><trkpt lat="43.39142961628771" lon="6.703431944507916"><ele>67.0</ele><time>2026-04-12T06:31:44Z</time></trkpt><trkpt lat="43.39135517694554" lon="6.703363960279996"><ele>67.2</ele><time>2026-04-12T06:31:45Z</time></trkpt><trkpt lat="43.391288624444584" lon="6.703283363373218"><ele>67.4</ele><time>2026-04-12T06:31:46Z</time></trkpt><trkpt lat="43.39122748756721" lon="6.703213844619424"><ele>67.6</ele><time>2026-04-12T06:31:47Z</time></trkpt><trkpt lat="43.39114569146539" lon="6.703137653572997"><ele>67.8</ele><time>2026-04-12T06:31:49Z</time></trkpt><trkpt lat="43.391074806368" lon="6.703005227670146"><ele>68.0</ele><time>2026-04-12T06:31:51Z</time></trkpt><trkpt lat="43.39100820349471" lon="6.702865741608695"><ele>68.0</ele><time>2026-04-12T06:31:53Z</time></trkpt><trkpt lat="43.390932652036014" lon="6.702755197597638"><ele>68.0</ele><time>2026-04-12T06:31:55Z</time></trkpt><trkpt lat="43.3908870650868" lon="6.70263542795985"><ele>68.0</ele><time>2026-04-12T06:31:57Z</time></trkpt><trkpt lat="43.390845713911204" lon="6.70254109185146"><ele>68.0</ele><time>2026-04-12T06:31:59Z</time></trkpt><trkpt lat="43.39082628717119" lon="6.702394428615544"><ele>68.0</ele><time>2026-04-12T06:32:01Z</time></trkpt><trkpt lat="43.390834392285484" lon="6.702286271736698"><ele>69.8</ele><time>2026-04-12T06:32:02Z</time></trkpt><trkpt lat="43.39082327347432" lon="6.702158967852804"><ele>71.6</ele><time>2026-04-12T06:32:03Z</time></trkpt><trkpt lat="43.39077323749216" lon="6.701994823205172"><ele>73.4</ele><time>2026-04-12T06:32:04Z</time></trkpt><trkpt lat="43.39072239244367" lon="6.701835840206849"><ele>75.2</ele><time>2026-04-12T06:32:05.001Z</time></trkpt><trkpt lat="43.39070739367681" lon="6.701720847406019"><ele>77.0</ele><time>2026-04-12T06:32:06.001Z</time></trkpt><trkpt lat="43.39069245364799" lon="6.701629364186876"><ele>77.5</ele><time>2026-04-12T06:32:07.001Z</time></trkpt><trkpt lat="43.39066977689468" lon="6.701541065109056"><ele>78.0</ele><time>2026-04-12T06:32:08.001Z</time></trkpt><trkpt lat="43.39061839573437" lon="6.701465547203615"><ele>78.5</ele><time>2026-04-12T06:32:10.001Z</time></trkpt><trkpt lat="43.39051160550837" lon="6.701419025763354"><ele>79.0</ele><time>2026-04-12T06:32:12.001Z</time></trkpt><trkpt lat="43.39043812192644" lon="6.701347315530249"><ele>79.5</ele><time>2026-04-12T06:32:14.001Z</time></trkpt><trkpt lat="43.39038247353596" lon="6.701266815912198"><ele>80.0</ele><time>2026-04-12T06:32:16.001Z</time></trkpt><trkpt lat="43.39035175720657" lon="6.701140625126411"><ele>82.16666666666667</ele><time>2026-04-12T06:32:18.001Z</time></trkpt><trkpt lat="43.39030832185708" lon="6.701058446982608"><ele>84.33333333333334</ele><time>2026-04-12T06:32:20.001Z</time></trkpt><trkpt lat="43.39022487428698" lon="6.700940427694779"><ele>86.5</ele><time>2026-04-12T06:32:21.999Z</time></trkpt><trkpt lat="43.390184104434034" lon="6.700866036049089"><ele>88.66666666666667</ele><time>2026-04-12T06:32:22.999Z</time></trkpt><trkpt lat="43.390108056701045" lon="6.700738136560219"><ele>90.83333333333333</ele><time>2026-04-12T06:32:24.999Z</time></trkpt><trkpt lat="43.390074129759185" lon="6.700660817718106"><ele>93.0</ele><time>2026-04-12T06:32:25.999Z</time></trkpt><trkpt lat="43.39003697256372" lon="6.700497912503452"><ele>93.0</ele><time>2026-04-12T06:32:27.999Z</time></trkpt><trkpt lat="43.39000672029452" lon="6.700413786974061"><ele>93.0</ele><time>2026-04-12T06:32:28.999Z</time></trkpt><trkpt lat="43.38996000358679" lon="6.700326401024828"><ele>93.0</ele><time>2026-04-12T06:32:29.999Z</time></trkpt><trkpt lat="43.389954068303425" lon="6.700153255241642"><ele>93.0</ele><time>2026-04-12T06:32:31.999Z</time></trkpt><trkpt lat="43.38994373115894" lon="6.7000461956914865"><ele>93.0</ele><time>2026-04-12T06:32:32.999Z</time></trkpt><trkpt lat="43.38992115722453" lon="6.699884665663492"><ele>93.60000000000001</ele><time>2026-04-12T06:32:34.999Z</time></trkpt><trkpt lat="43.38987768373546" lon="6.699770528495439"><ele>94.2</ele><time>2026-04-12T06:32:35.999Z</time></trkpt><trkpt lat="43.389852806085" lon="6.699620329583493"><ele>94.8</ele><time>2026-04-12T06:32:36.999Z</time></trkpt><trkpt lat="43.38986166416207" lon="6.69948641402196"><ele>95.4</ele><time>2026-04-12T06:32:38Z</time></trkpt><trkpt lat="43.38986342572937" lon="6.699357990706015"><ele>96.0</ele><time>2026-04-12T06:32:39Z</time></trkpt><trkpt lat="43.38985337838719" lon="6.699256137146778"><ele>96.42857142857142</ele><time>2026-04-12T06:32:40Z</time></trkpt><trkpt lat="43.38984932676971" lon="6.699161076149906"><ele>96.85714285714286</ele><time>2026-04-12T06:32:41Z</time></trkpt><trkpt lat="43.389873308765274" lon="6.6990751646933155"><ele>97.28571428571428</ele><time>2026-04-12T06:32:42Z</time></trkpt><trkpt lat="43.38991772901057" lon="6.698993941729304"><ele>97.71428571428571</ele><time>2026-04-12T06:32:43Z</time></trkpt><trkpt lat="43.389939788277786" lon="6.698906348289261"><ele>98.14285714285714</ele><time>2026-04-12T06:32:44Z</time></trkpt><trkpt lat="43.38996041919198" lon="6.69881734094957"><ele>98.57142857142857</ele><time>2026-04-12T06:32:45Z</time></trkpt><trkpt lat="43.38998879612242" lon="6.6987102366626505"><ele>99.0</ele><time>2026-04-12T06:32:46Z</time></trkpt><trkpt lat="43.38998479850505" lon="6.698556777896832"><ele>99.83333333333333</ele><time>2026-04-12T06:32:48Z</time></trkpt><trkpt lat="43.38996068286194" lon="6.698467255341545"><ele>100.66666666666666</ele><time>2026-04-12T06:32:49Z</time></trkpt><trkpt lat="43.38995775402732" lon="6.698375080314273"><ele>101.5</ele><time>2026-04-12T06:32:50Z</time></trkpt><trkpt lat="43.389996252869025" lon="6.6982740520083714"><ele>102.33333333333333</ele><time>2026-04-12T06:32:51Z</time></trkpt><trkpt lat="43.390050193706976" lon="6.698133920838406"><ele>103.16666666666666</ele><time>2026-04-12T06:32:52Z</time></trkpt><trkpt lat="43.39007966450099" lon="6.697986511221188"><ele>104.0</ele><time>2026-04-12T06:32:53Z</time></trkpt><trkpt lat="43.390109901522614" lon="6.6978565169887565"><ele>104.4</ele><time>2026-04-12T06:32:54Z</time></trkpt><trkpt lat="43.390168927245156" lon="6.697750891192961"><ele>104.80000000000001</ele><time>2026-04-12T06:32:55Z</time></trkpt><trkpt lat="43.390250554803224" lon="6.697666830661311"><ele>105.19999999999999</ele><time>2026-04-12T06:32:56Z</time></trkpt><trkpt lat="43.39034244267068" lon="6.697581101945993"><ele>105.6</ele><time>2026-04-12T06:32:57Z</time></trkpt><trkpt lat="43.390432870617936" lon="6.697492444025964"><ele>106.0</ele><time>2026-04-12T06:32:58Z</time></trkpt><trkpt lat="43.39051704225763" lon="6.697420884329374"><ele>107.16666666666667</ele><time>2026-04-12T06:32:59Z</time></trkpt><trkpt lat="43.39060070555939" lon="6.697343800600327"><ele>108.33333333333334</ele><time>2026-04-12T06:33:00Z</time></trkpt><trkpt lat="43.390653317757234" lon="6.697265331192737"><ele>109.5</ele><time>2026-04-12T06:33:01Z</time></trkpt><trkpt lat="43.39071075368046" lon="6.697165811793564"><ele>110.66666666666666</ele><time>2026-04-12T06:33:02Z</time></trkpt><trkpt lat="43.390772291064984" lon="6.697079608258491"><ele>111.83333333333333</ele><time>2026-04-12T06:33:03Z</time></trkpt><trkpt lat="43.390830926632624" lon="6.696984211129686"><ele>113.0</ele><time>2026-04-12T06:33:04Z</time></trkpt><trkpt lat="43.390886918130015" lon="6.696901885682013"><ele>114.66666666666666</ele><time>2026-04-12T06:33:05Z</time></trkpt><trkpt lat="43.39093260870845" lon="6.696814355852382"><ele>116.33333333333333</ele><time>2026-04-12T06:33:06Z</time></trkpt><trkpt lat="43.39097179255977" lon="6.696714119437701"><ele>118.0</ele><time>2026-04-12T06:33:07Z</time></trkpt><trkpt lat="43.39101479434776" lon="6.696613149168572"><ele>119.66666666666666</ele><time>2026-04-12T06:33:08Z</time></trkpt><trkpt lat="43.391065102902175" lon="6.6965226339984305"><ele>121.33333333333333</ele><time>2026-04-12T06:33:09Z</time></trkpt><trkpt lat="43.3911302841428" lon="6.696424937151603"><ele>123.0</ele><time>2026-04-12T06:33:11Z</time></trkpt><trkpt lat="43.39120772121297" lon="6.69633490631617"><ele>123.0</ele><time>2026-04-12T06:33:13Z</time></trkpt><trkpt lat="43.39126448108135" lon="6.696216376292686"><ele>123.0</ele><time>2026-04-12T06:33:15Z</time></trkpt><trkpt lat="43.391290421944845" lon="6.696128992097891"><ele>123.0</ele><time>2026-04-12T06:33:17Z</time></trkpt><trkpt lat="43.39132864784497" lon="6.695988429813414"><ele>123.0</ele><time>2026-04-12T06:33:19Z</time></trkpt><trkpt lat="43.391309487501815" lon="6.695886569182307"><ele>123.0</ele><time>2026-04-12T06:33:20Z</time></trkpt><trkpt lat="43.39126714406578" lon="6.695802283566455"><ele>123.0</ele><time>2026-04-12T06:33:21Z</time></trkpt><trkpt lat="43.3911841748406" lon="6.695685955125186"><ele>124.85714285714288</ele><time>2026-04-12T06:33:23Z</time></trkpt><trkpt lat="43.391142573720586" lon="6.695615169414496"><ele>126.71428571428572</ele><time>2026-04-12T06:33:24Z</time></trkpt><trkpt lat="43.3910994976278" lon="6.695540697951217"><ele>128.57142857142856</ele><time>2026-04-12T06:33:25Z</time></trkpt><trkpt lat="43.39105492695714" lon="6.695473923623291"><ele>130.42857142857144</ele><time>2026-04-12T06:33:26Z</time></trkpt><trkpt lat="43.3910115763754" lon="6.695408181803874"><ele>132.28571428571428</ele><time>2026-04-12T06:33:27Z</time></trkpt><trkpt lat="43.39091370816484" lon="6.6953346156261455"><ele>134.14285714285714</ele><time>2026-04-12T06:33:29Z</time></trkpt><trkpt lat="43.39085331646354" lon="6.695302059030364"><ele>136.0</ele><time>2026-04-12T06:33:30Z</time></trkpt><trkpt lat="43.390778635226006" lon="6.695254380455728"><ele>137.66666666666669</ele><time>2026-04-12T06:33:31Z</time></trkpt><trkpt lat="43.390703656006096" lon="6.695197686273373"><ele>139.33333333333334</ele><time>2026-04-12T06:33:32Z</time></trkpt><trkpt lat="43.39064410197618" lon="6.6951293497416335"><ele>141.0</ele><time>2026-04-12T06:33:33Z</time></trkpt><trkpt lat="43.39057761639636" lon="6.695058111758725"><ele>142.66666666666666</ele><time>2026-04-12T06:33:34Z</time></trkpt><trkpt lat="43.39050883401838" lon="6.694996563787543"><ele>144.33333333333331</ele><time>2026-04-12T06:33:35Z</time></trkpt><trkpt lat="43.390442259064216" lon="6.694940129387233"><ele>146.0</ele><time>2026-04-12T06:33:36Z</time></trkpt><trkpt lat="43.39038482112854" lon="6.694877243156677"><ele>146.8</ele><time>2026-04-12T06:33:37Z</time></trkpt><trkpt lat="43.39031090621864" lon="6.694793372543328"><ele>147.6</ele><time>2026-04-12T06:33:38.001Z</time></trkpt><trkpt lat="43.39022311427982" lon="6.6946873051035505"><ele>148.4</ele><time>2026-04-12T06:33:39.001Z</time></trkpt><trkpt lat="43.390129025362484" lon="6.69458340550036"><ele>149.2</ele><time>2026-04-12T06:33:40.001Z</time></trkpt><trkpt lat="43.39005453619839" lon="6.694491092501136"><ele>150.0</ele><time>2026-04-12T06:33:41.001Z</time></trkpt><trkpt lat="43.389996667547095" lon="6.694413639710063"><ele>152.4</ele><time>2026-04-12T06:33:42.001Z</time></trkpt><trkpt lat="43.389953894396925" lon="6.694337452279991"><ele>154.8</ele><time>2026-04-12T06:33:43.001Z</time></trkpt><trkpt lat="43.38992470518012" lon="6.694215251001869"><ele>157.2</ele><time>2026-04-12T06:33:44.001Z</time></trkpt><trkpt lat="43.389917662342874" lon="6.694072599498369"><ele>159.6</ele><time>2026-04-12T06:33:45.001Z</time></trkpt><trkpt lat="43.389903013964734" lon="6.693933964224311"><ele>162.0</ele><time>2026-04-12T06:33:46.001Z</time></trkpt><trkpt lat="43.389866031835275" lon="6.693823558505649"><ele>162.0</ele><time>2026-04-12T06:33:47.001Z</time></trkpt><trkpt lat="43.38980194016585" lon="6.6937183402365115"><ele>162.0</ele><time>2026-04-12T06:33:48.001Z</time></trkpt><trkpt lat="43.389726483643095" lon="6.693623504151806"><ele>162.0</ele><time>2026-04-12T06:33:49.001Z</time></trkpt><trkpt lat="43.389645508665744" lon="6.6935451771039105"><ele>162.0</ele><time>2026-04-12T06:33:50.001Z</time></trkpt><trkpt lat="43.389551756105426" lon="6.693470814431431"><ele>162.0</ele><time>2026-04-12T06:33:51.001Z</time></trkpt><trkpt lat="43.38946247154659" lon="6.6934336636715805"><ele>164.33333333333334</ele><time>2026-04-12T06:33:52.001Z</time></trkpt><trkpt lat="43.38938129035053" lon="6.693373501060907"><ele>166.66666666666666</ele><time>2026-04-12T06:33:53.001Z</time></trkpt><trkpt lat="43.3893169527997" lon="6.693281654014893"><ele>169.0</ele><time>2026-04-12T06:33:54.001Z</time></trkpt><trkpt lat="43.389274230348065" lon="6.693182232638151"><ele>171.33333333333331</ele><time>2026-04-12T06:33:55.001Z</time></trkpt><trkpt lat="43.38925340562051" lon="6.693080373119623"><ele>173.66666666666666</ele><time>2026-04-12T06:33:56.001Z</time></trkpt><trkpt lat="43.38923490727679" lon="6.692976131063955"><ele>176.0</ele><time>2026-04-12T06:33:57.001Z</time></trkpt><trkpt lat="43.389198525259665" lon="6.692881330621941"><ele>176.0</ele><time>2026-04-12T06:33:58.001Z</time></trkpt><trkpt lat="43.389138244130145" lon="6.692775591622948"><ele>176.0</ele><time>2026-04-12T06:33:59.001Z</time></trkpt><trkpt lat="43.38908173639379" lon="6.692673319039006"><ele>176.0</ele><time>2026-04-12T06:34:00.001Z</time></trkpt><trkpt lat="43.38903000267914" lon="6.692587631242654"><ele>176.0</ele><time>2026-04-12T06:34:01.001Z</time></trkpt><trkpt lat="43.388985526473434" lon="6.69251171254853"><ele>176.0</ele><time>2026-04-12T06:34:02.001Z</time></trkpt><trkpt lat="43.388963584025475" lon="6.692416032966006"><ele>176.0</ele><time>2026-04-12T06:34:03.001Z</time></trkpt><trkpt lat="43.38897253983937" lon="6.692311102321836"><ele>177.83333333333331</ele><time>2026-04-12T06:34:04.001Z</time></trkpt><trkpt lat="43.3889845080049" lon="6.692201467312089"><ele>179.66666666666666</ele><time>2026-04-12T06:34:05.001Z</time></trkpt><trkpt lat="43.38896498810766" lon="6.692108298743247"><ele>181.5</ele><time>2026-04-12T06:34:06.001Z</time></trkpt><trkpt lat="43.38892826962982" lon="6.691990632353066"><ele>183.33333333333334</ele><time>2026-04-12T06:34:07.001Z</time></trkpt><trkpt lat="43.3888846937632" lon="6.691870585360291"><ele>185.16666666666669</ele><time>2026-04-12T06:34:08.001Z</time></trkpt><trkpt lat="43.38884418821012" lon="6.6917655952747825"><ele>187.0</ele><time>2026-04-12T06:34:09.001Z</time></trkpt><trkpt lat="43.38880536430001" lon="6.691691584380512"><ele>192.0</ele><time>2026-04-12T06:34:10.001Z</time></trkpt><trkpt lat="43.38871572512222" lon="6.691655918395277"><ele>197.0</ele><time>2026-04-12T06:34:12.001Z</time></trkpt><trkpt lat="43.38861598255674" lon="6.691619613004915"><ele>202.0</ele><time>2026-04-12T06:34:14.001Z</time></trkpt><trkpt lat="43.388494108183025" lon="6.691523285255619"><ele>207.0</ele><time>2026-04-12T06:34:16.001Z</time></trkpt><trkpt lat="43.388416016121006" lon="6.691465404390215"><ele>212.0</ele><time>2026-04-12T06:34:17.001Z</time></trkpt><trkpt lat="43.38834154858645" lon="6.691426850257063"><ele>212.00000000000003</ele><time>2026-04-12T06:34:18.001Z</time></trkpt><trkpt lat="43.38830220541461" lon="6.691302644848963"><ele>212.0</ele><time>2026-04-12T06:34:20.001Z</time></trkpt><trkpt lat="43.388282319763796" lon="6.691121188751638"><ele>212.0</ele><time>2026-04-12T06:34:22.001Z</time></trkpt><trkpt lat="43.38828249093432" lon="6.691034308577022"><ele>212.0</ele><time>2026-04-12T06:34:23.001Z</time></trkpt><trkpt lat="43.38828090890861" lon="6.6909337568377625"><ele>212.00000000000003</ele><time>2026-04-12T06:34:24.001Z</time></trkpt><trkpt lat="43.38825455038942" lon="6.690835260934734"><ele>212.0</ele><time>2026-04-12T06:34:25.001Z</time></trkpt><trkpt lat="43.388228160291405" lon="6.6907142141168086"><ele>214.00000000000003</ele><time>2026-04-12T06:34:26.001Z</time></trkpt><trkpt lat="43.38820694575406" lon="6.690591772594439"><ele>216.0</ele><time>2026-04-12T06:34:27.001Z</time></trkpt><trkpt lat="43.3881918111698" lon="6.690491131351588"><ele>218.0</ele><time>2026-04-12T06:34:28Z</time></trkpt><trkpt lat="43.388162252549044" lon="6.690411614070406"><ele>220.0</ele><time>2026-04-12T06:34:29Z</time></trkpt><trkpt lat="43.38812069585915" lon="6.690319539097529"><ele>222.00000000000003</ele><time>2026-04-12T06:34:30Z</time></trkpt><trkpt lat="43.38809954462502" lon="6.690234123228984"><ele>224.0</ele><time>2026-04-12T06:34:31Z</time></trkpt><trkpt lat="43.38807207880147" lon="6.690139301536926"><ele>224.33333333333334</ele><time>2026-04-12T06:34:32Z</time></trkpt><trkpt lat="43.3880511825197" lon="6.6900373949621805"><ele>224.66666666666669</ele><time>2026-04-12T06:34:33Z</time></trkpt><trkpt lat="43.38805143935218" lon="6.689947313763263"><ele>225.0</ele><time>2026-04-12T06:34:34Z</time></trkpt><trkpt lat="43.388077846370166" lon="6.689774998119637"><ele>225.33333333333331</ele><time>2026-04-12T06:34:36Z</time></trkpt><trkpt lat="43.38810349377976" lon="6.689684835058391"><ele>225.66666666666666</ele><time>2026-04-12T06:34:37Z</time></trkpt><trkpt lat="43.38810053928263" lon="6.689544660760552"><ele>226.0</ele><time>2026-04-12T06:34:39Z</time></trkpt><trkpt lat="43.38811640637548" lon="6.689426333767308"><ele>224.0</ele><time>2026-04-12T06:34:41Z</time></trkpt><trkpt lat="43.38812404048888" lon="6.689297169885021"><ele>222.00000000000003</ele><time>2026-04-12T06:34:43Z</time></trkpt><trkpt lat="43.38822372588275" lon="6.68920606150375"><ele>220.00000000000003</ele><time>2026-04-12T06:34:45Z</time></trkpt><trkpt lat="43.3883133139569" lon="6.6891328396109335"><ele>218.0</ele><time>2026-04-12T06:34:46Z</time></trkpt><trkpt lat="43.38840625826507" lon="6.689010158865922"><ele>216.0</ele><time>2026-04-12T06:34:47Z</time></trkpt><trkpt lat="43.38847294323116" lon="6.688868501171765"><ele>216.0</ele><time>2026-04-12T06:34:48Z</time></trkpt><trkpt lat="43.38852029347942" lon="6.68874639508866"><ele>216.00000000000003</ele><time>2026-04-12T06:34:49Z</time></trkpt><trkpt lat="43.38854099514176" lon="6.688650135136619"><ele>216.00000000000003</ele><time>2026-04-12T06:34:50Z</time></trkpt><trkpt lat="43.38851840805887" lon="6.688450510879227"><ele>216.0</ele><time>2026-04-12T06:34:52Z</time></trkpt><trkpt lat="43.38850449133036" lon="6.688313541486054"><ele>216.0</ele><time>2026-04-12T06:34:53Z</time></trkpt><trkpt lat="43.38850073749328" lon="6.68817356004273"><ele>212.4</ele><time>2026-04-12T06:34:54Z</time></trkpt><trkpt lat="43.38848827831701" lon="6.6880404635863195"><ele>208.8</ele><time>2026-04-12T06:34:55Z</time></trkpt><trkpt lat="43.38846910485347" lon="6.68791061114472"><ele>205.20000000000002</ele><time>2026-04-12T06:34:56Z</time></trkpt><trkpt lat="43.3884814762022" lon="6.687722299560646"><ele>201.60000000000002</ele><time>2026-04-12T06:34:58Z</time></trkpt><trkpt lat="43.388513880068295" lon="6.6875854601511975"><ele>198.0</ele><time>2026-04-12T06:34:59Z</time></trkpt><trkpt lat="43.38854268300533" lon="6.687469662134017"><ele>195.83333333333334</ele><time>2026-04-12T06:35:00Z</time></trkpt><trkpt lat="43.38854363987096" lon="6.6873696778653855"><ele>193.66666666666666</ele><time>2026-04-12T06:35:01Z</time></trkpt><trkpt lat="43.388529878043855" lon="6.687265773215304"><ele>191.5</ele><time>2026-04-12T06:35:02Z</time></trkpt><trkpt lat="43.38850078223986" lon="6.687156338256076"><ele>189.33333333333331</ele><time>2026-04-12T06:35:03Z</time></trkpt><trkpt lat="43.38845320443838" lon="6.687042969288759"><ele>187.16666666666666</ele><time>2026-04-12T06:35:04Z</time></trkpt><trkpt lat="43.3884389358709" lon="6.686939734917722"><ele>185.0</ele><time>2026-04-12T06:35:05Z</time></trkpt><trkpt lat="43.38845753357687" lon="6.686805911036884"><ele>181.8</ele><time>2026-04-12T06:35:06Z</time></trkpt><trkpt lat="43.38848407087552" lon="6.686634649584221"><ele>178.6</ele><time>2026-04-12T06:35:07Z</time></trkpt><trkpt lat="43.38850935002106" lon="6.686470336424663"><ele>175.39999999999998</ele><time>2026-04-12T06:35:08Z</time></trkpt><trkpt lat="43.38852636277886" lon="6.686347930076842"><ele>172.2</ele><time>2026-04-12T06:35:09Z</time></trkpt><trkpt lat="43.38853785600771" lon="6.68624786451409"><ele>169.0</ele><time>2026-04-12T06:35:10Z</time></trkpt><trkpt lat="43.38857495448486" lon="6.686140692173295"><ele>167.33333333333334</ele><time>2026-04-12T06:35:11Z</time></trkpt><trkpt lat="43.38862217253086" lon="6.6860340693914715"><ele>165.66666666666669</ele><time>2026-04-12T06:35:12Z</time></trkpt><trkpt lat="43.388642761435484" lon="6.685920758200285"><ele>164.0</ele><time>2026-04-12T06:35:13Z</time></trkpt><trkpt lat="43.38865561446819" lon="6.685823382032783"><ele>162.33333333333334</ele><time>2026-04-12T06:35:14Z</time></trkpt><trkpt lat="43.38866675198359" lon="6.685708884461521"><ele>160.66666666666666</ele><time>2026-04-12T06:35:15Z</time></trkpt><trkpt lat="43.388687648128275" lon="6.685618159844295"><ele>159.0</ele><time>2026-04-12T06:35:16Z</time></trkpt><trkpt lat="43.38872501532518" lon="6.685540463634987"><ele>159.0</ele><time>2026-04-12T06:35:17Z</time></trkpt><trkpt lat="43.388779557592215" lon="6.685464521464005"><ele>159.0</ele><time>2026-04-12T06:35:18Z</time></trkpt><trkpt lat="43.38885044789182" lon="6.6853911270029664"><ele>159.0</ele><time>2026-04-12T06:35:19Z</time></trkpt><trkpt lat="43.38892997114339" lon="6.685281819711586"><ele>159.0</ele><time>2026-04-12T06:35:20Z</time></trkpt><trkpt lat="43.389010451949616" lon="6.685197200596218"><ele>159.0</ele><time>2026-04-12T06:35:21Z</time></trkpt><trkpt lat="43.38906464593237" lon="6.685091402790174"><ele>155.8</ele><time>2026-04-12T06:35:22.001Z</time></trkpt><trkpt lat="43.389098644922214" lon="6.684991054472302"><ele>152.60000000000002</ele><time>2026-04-12T06:35:23.001Z</time></trkpt><trkpt lat="43.38913894853618" lon="6.68484085367906"><ele>149.4</ele><time>2026-04-12T06:35:24.001Z</time></trkpt><trkpt lat="43.38918064071935" lon="6.684702453940683"><ele>146.20000000000002</ele><time>2026-04-12T06:35:25.001Z</time></trkpt><trkpt lat="43.3892255728983" lon="6.684589261019717"><ele>143.0</ele><time>2026-04-12T06:35:26.001Z</time></trkpt><trkpt lat="43.389284219995254" lon="6.684494153785556"><ele>141.33333333333331</ele><time>2026-04-12T06:35:27.001Z</time></trkpt><trkpt lat="43.389341320571695" lon="6.684391631109466"><ele>139.66666666666666</ele><time>2026-04-12T06:35:28.001Z</time></trkpt><trkpt lat="43.389379297299094" lon="6.684286234589959"><ele>138.0</ele><time>2026-04-12T06:35:29.001Z</time></trkpt><trkpt lat="43.389385527169566" lon="6.684190664082721"><ele>136.33333333333334</ele><time>2026-04-12T06:35:30.001Z</time></trkpt><trkpt lat="43.38938347481216" lon="6.6840723662843216"><ele>134.66666666666669</ele><time>2026-04-12T06:35:31.001Z</time></trkpt><trkpt lat="43.389386419244794" lon="6.68396151562729"><ele>133.0</ele><time>2026-04-12T06:35:32.001Z</time></trkpt><trkpt lat="43.38939248457633" lon="6.683837870574693"><ele>133.0</ele><time>2026-04-12T06:35:33.001Z</time></trkpt><trkpt lat="43.38943123766337" lon="6.683748321998421"><ele>133.0</ele><time>2026-04-12T06:35:34.001Z</time></trkpt><trkpt lat="43.389503657554336" lon="6.6836517745734705"><ele>133.0</ele><time>2026-04-12T06:35:35.001Z</time></trkpt><trkpt lat="43.389572816332795" lon="6.683585400904514"><ele>133.0</ele><time>2026-04-12T06:35:36.001Z</time></trkpt><trkpt lat="43.38963592861578" lon="6.683553189088125"><ele>133.0</ele><time>2026-04-12T06:35:37.001Z</time></trkpt><trkpt lat="43.38971546884242" lon="6.6835519920480575"><ele>133.0</ele><time>2026-04-12T06:35:38.001Z</time></trkpt><trkpt lat="43.389806350040644" lon="6.683610037066031"><ele>130.5</ele><time>2026-04-12T06:35:39.001Z</time></trkpt><trkpt lat="43.389911664404316" lon="6.683615074669914"><ele>128.0</ele><time>2026-04-12T06:35:40.001Z</time></trkpt><trkpt lat="43.3900107730101" lon="6.683589632853047"><ele>125.5</ele><time>2026-04-12T06:35:41.001Z</time></trkpt><trkpt lat="43.390129630825925" lon="6.683541808298855"><ele>123.0</ele><time>2026-04-12T06:35:42.001Z</time></trkpt><trkpt lat="43.39025313797231" lon="6.683495633287301"><ele>122.4</ele><time>2026-04-12T06:35:43.001Z</time></trkpt><trkpt lat="43.39037281381969" lon="6.683483442763478"><ele>121.80000000000001</ele><time>2026-04-12T06:35:44.001Z</time></trkpt><trkpt lat="43.39047693101824" lon="6.683466119032569"><ele>121.2</ele><time>2026-04-12T06:35:45.001Z</time></trkpt><trkpt lat="43.39056156909834" lon="6.683442894101787"><ele>120.6</ele><time>2026-04-12T06:35:46.001Z</time></trkpt><trkpt lat="43.39062625429023" lon="6.683392417598064"><ele>120.0</ele><time>2026-04-12T06:35:47.001Z</time></trkpt><trkpt lat="43.3906920900657" lon="6.683327443115648"><ele>117.83333333333333</ele><time>2026-04-12T06:35:48.001Z</time></trkpt><trkpt lat="43.390761775496976" lon="6.6832461367816"><ele>115.66666666666666</ele><time>2026-04-12T06:35:49.001Z</time></trkpt><trkpt lat="43.390825933732096" lon="6.683193104987125"><ele>113.5</ele><time>2026-04-12T06:35:50.001Z</time></trkpt><trkpt lat="43.39089928818593" lon="6.6831602304601985"><ele>111.33333333333333</ele><time>2026-04-12T06:35:51.001Z</time></trkpt><trkpt lat="43.390976601184946" lon="6.683159135468451"><ele>109.16666666666666</ele><time>2026-04-12T06:35:52.001Z</time></trkpt><trkpt lat="43.39105094722912" lon="6.68320108019863"><ele>107.0</ele><time>2026-04-12T06:35:53.001Z</time></trkpt><trkpt lat="43.39112042790727" lon="6.683234961704959"><ele>106.99999999999999</ele><time>2026-04-12T06:35:54.001Z</time></trkpt><trkpt lat="43.39119224193023" lon="6.683234563023776"><ele>107.0</ele><time>2026-04-12T06:35:55.001Z</time></trkpt><trkpt lat="43.391254188692386" lon="6.6831999948519165"><ele>107.0</ele><time>2026-04-12T06:35:56.001Z</time></trkpt><trkpt lat="43.39131479072326" lon="6.683116944766139"><ele>107.0</ele><time>2026-04-12T06:35:57.001Z</time></trkpt><trkpt lat="43.39138219002197" lon="6.683014565545571"><ele>106.99999999999999</ele><time>2026-04-12T06:35:58.001Z</time></trkpt><trkpt lat="43.3914598150435" lon="6.682945757218844"><ele>107.0</ele><time>2026-04-12T06:35:59.001Z</time></trkpt><trkpt lat="43.39155197459882" lon="6.682894885406765"><ele>104.19999999999999</ele><time>2026-04-12T06:36:00.001Z</time></trkpt><trkpt lat="43.39163376481082" lon="6.6828718436993"><ele>101.39999999999999</ele><time>2026-04-12T06:36:01.001Z</time></trkpt><trkpt lat="43.39171930883485" lon="6.682824620293558"><ele>98.6</ele><time>2026-04-12T06:36:02.001Z</time></trkpt><trkpt lat="43.391818799963595" lon="6.682816948353863"><ele>95.80000000000001</ele><time>2026-04-12T06:36:03.001Z</time></trkpt><trkpt lat="43.39191158605023" lon="6.6828218302438565"><ele>93.0</ele><time>2026-04-12T06:36:04.001Z</time></trkpt><trkpt lat="43.39200462715972" lon="6.68284064344573"><ele>93.0</ele><time>2026-04-12T06:36:05.001Z</time></trkpt><trkpt lat="43.39209221548725" lon="6.6828590447031475"><ele>93.0</ele><time>2026-04-12T06:36:06.001Z</time></trkpt><trkpt lat="43.392174608027275" lon="6.682896598532565"><ele>93.0</ele><time>2026-04-12T06:36:07.001Z</time></trkpt><trkpt lat="43.39225390847969" lon="6.6829142414189855"><ele>93.0</ele><time>2026-04-12T06:36:08.001Z</time></trkpt><trkpt lat="43.39231806777048" lon="6.682892036194743"><ele>93.0</ele><time>2026-04-12T06:36:09.001Z</time></trkpt><trkpt lat="43.39238177774914" lon="6.6827692701601284"><ele>93.0</ele><time>2026-04-12T06:36:11.001Z</time></trkpt><trkpt lat="43.39241794710512" lon="6.682635901495608"><ele>90.0</ele><time>2026-04-12T06:36:12.001Z</time></trkpt><trkpt lat="43.39246924279238" lon="6.682492185702562"><ele>87.0</ele><time>2026-04-12T06:36:13.001Z</time></trkpt><trkpt lat="43.392539544743336" lon="6.682349795596233"><ele>84.0</ele><time>2026-04-12T06:36:14.001Z</time></trkpt><trkpt lat="43.39261071850206" lon="6.682217959456941"><ele>81.0</ele><time>2026-04-12T06:36:15.001Z</time></trkpt><trkpt lat="43.39268392038402" lon="6.6820660245028085"><ele>81.0</ele><time>2026-04-12T06:36:16.001Z</time></trkpt><trkpt lat="43.392744374787675" lon="6.681951482452785"><ele>81.0</ele><time>2026-04-12T06:36:17.001Z</time></trkpt><trkpt lat="43.392782224793415" lon="6.681830373700042"><ele>81.0</ele><time>2026-04-12T06:36:18.001Z</time></trkpt><trkpt lat="43.39281219696061" lon="6.681704771192819"><ele>81.0</ele><time>2026-04-12T06:36:19.001Z</time></trkpt><trkpt lat="43.3928575447681" lon="6.681606230680304"><ele>81.0</ele><time>2026-04-12T06:36:20.001Z</time></trkpt><trkpt lat="43.392903705842" lon="6.681531691879084"><ele>80.33333333333333</ele><time>2026-04-12T06:36:21.001Z</time></trkpt><trkpt lat="43.39294638716264" lon="6.681437739380441"><ele>79.66666666666667</ele><time>2026-04-12T06:36:22.001Z</time></trkpt><trkpt lat="43.3929945859348" lon="6.6813449694425175"><ele>79.0</ele><time>2026-04-12T06:36:23.001Z</time></trkpt><trkpt lat="43.3930561577664" lon="6.681246856250798"><ele>78.33333333333334</ele><time>2026-04-12T06:36:24.001Z</time></trkpt><trkpt lat="43.39313563615428" lon="6.681180249310047"><ele>77.66666666666667</ele><time>2026-04-12T06:36:25.001Z</time></trkpt><trkpt lat="43.39319637681681" lon="6.681109868014826"><ele>77.0</ele><time>2026-04-12T06:36:26.001Z</time></trkpt><trkpt lat="43.39324721391651" lon="6.681037986829902"><ele>77.0</ele><time>2026-04-12T06:36:27.001Z</time></trkpt><trkpt lat="43.39328863855963" lon="6.68095459557028"><ele>77.0</ele><time>2026-04-12T06:36:28.001Z</time></trkpt><trkpt lat="43.3932724671351" lon="6.680797505305558"><ele>77.0</ele><time>2026-04-12T06:36:30.001Z</time></trkpt><trkpt lat="43.3932465954908" lon="6.680708467550864"><ele>77.0</ele><time>2026-04-12T06:36:31.001Z</time></trkpt><trkpt lat="43.39325408836486" lon="6.6806108330841765"><ele>77.0</ele><time>2026-04-12T06:36:32.001Z</time></trkpt><trkpt lat="43.393264168682705" lon="6.680484618472788"><ele>77.0</ele><time>2026-04-12T06:36:33.001Z</time></trkpt><trkpt lat="43.39327606925718" lon="6.680372805175115"><ele>76.83333333333334</ele><time>2026-04-12T06:36:34Z</time></trkpt><trkpt lat="43.3933082271137" lon="6.680240406924739"><ele>76.66666666666667</ele><time>2026-04-12T06:36:36Z</time></trkpt><trkpt lat="43.393353759713435" lon="6.680095288128915"><ele>76.5</ele><time>2026-04-12T06:36:38Z</time></trkpt><trkpt lat="43.39336079538953" lon="6.6799896010332604"><ele>76.33333333333333</ele><time>2026-04-12T06:36:39Z</time></trkpt><trkpt lat="43.39334899303488" lon="6.67989446775897"><ele>76.16666666666666</ele><time>2026-04-12T06:36:40Z</time></trkpt><trkpt lat="43.39334037145617" lon="6.679803779394675"><ele>76.0</ele><time>2026-04-12T06:36:41Z</time></trkpt><trkpt lat="43.39328207226559" lon="6.679650611063548"><ele>76.0</ele><time>2026-04-12T06:36:43Z</time></trkpt><trkpt lat="43.393237344599896" lon="6.679551077008851"><ele>76.0</ele><time>2026-04-12T06:36:44Z</time></trkpt><trkpt lat="43.39319913032176" lon="6.6794662643738265"><ele>76.0</ele><time>2026-04-12T06:36:45Z</time></trkpt><trkpt lat="43.39316690373564" lon="6.679303625174022"><ele>76.0</ele><time>2026-04-12T06:36:47Z</time></trkpt><trkpt lat="43.39315516162588" lon="6.679210047976877"><ele>76.0</ele><time>2026-04-12T06:36:48Z</time></trkpt><trkpt lat="43.39315008568137" lon="6.679107581995498"><ele>76.0</ele><time>2026-04-12T06:36:49Z</time></trkpt><trkpt lat="43.39312261495804" lon="6.679014841993544"><ele>74.2</ele><time>2026-04-12T06:36:50Z</time></trkpt><trkpt lat="43.39307279334489" lon="6.678909145001075"><ele>72.39999999999999</ele><time>2026-04-12T06:36:52Z</time></trkpt><trkpt lat="43.39301630277314" lon="6.678847266098154"><ele>70.6</ele><time>2026-04-12T06:36:54Z</time></trkpt><trkpt lat="43.392999345966835" lon="6.678737896725627"><ele>68.8</ele><time>2026-04-12T06:36:57Z</time></trkpt><trkpt lat="43.39307805038837" lon="6.678606659132836"><ele>67.0</ele><time>2026-04-12T06:36:59Z</time></trkpt><trkpt lat="43.39314824625381" lon="6.67851314823598"><ele>64.33333333333333</ele><time>2026-04-12T06:37:01Z</time></trkpt><trkpt lat="43.39319988058854" lon="6.6784454215076705"><ele>61.666666666666664</ele><time>2026-04-12T06:37:03Z</time></trkpt><trkpt lat="43.39318706875046" lon="6.678320620524335"><ele>59.0</ele><time>2026-04-12T06:37:06Z</time></trkpt><trkpt lat="43.39318497548662" lon="6.678227009748995"><ele>56.33333333333333</ele><time>2026-04-12T06:37:08Z</time></trkpt><trkpt lat="43.39315332044336" lon="6.678133845416471"><ele>53.666666666666664</ele><time>2026-04-12T06:37:10Z</time></trkpt><trkpt lat="43.39310620256977" lon="6.678010579799935"><ele>51.0</ele><time>2026-04-12T06:37:12Z</time></trkpt><trkpt lat="43.39313154456271" lon="6.677922542773675"><ele>51.0</ele><time>2026-04-12T06:37:14Z</time></trkpt><trkpt lat="43.393225110574356" lon="6.6778524942646795"><ele>51.0</ele><time>2026-04-12T06:37:17Z</time></trkpt><trkpt lat="43.393278340145386" lon="6.677787739764034"><ele>51.0</ele><time>2026-04-12T06:37:19Z</time></trkpt><trkpt lat="43.3933026520044" lon="6.677685541504193"><ele>51.0</ele><time>2026-04-12T06:37:21.001Z</time></trkpt><trkpt lat="43.393337579948984" lon="6.677522872663075"><ele>51.0</ele><time>2026-04-12T06:37:23.001Z</time></trkpt><trkpt lat="43.393347138341625" lon="6.6774038216460285"><ele>48.833333333333336</ele><time>2026-04-12T06:37:25.001Z</time></trkpt><trkpt lat="43.393292826849624" lon="6.677334629147547"><ele>46.666666666666664</ele><time>2026-04-12T06:37:27.001Z</time></trkpt><trkpt lat="43.39325526751708" lon="6.677227630525344"><ele>44.5</ele><time>2026-04-12T06:37:29.001Z</time></trkpt><trkpt lat="43.393192007678046" lon="6.677162471354556"><ele>42.33333333333333</ele><time>2026-04-12T06:37:31.001Z</time></trkpt><trkpt lat="43.3931202149667" lon="6.677090156551285"><ele>40.166666666666664</ele><time>2026-04-12T06:37:33.001Z</time></trkpt><trkpt lat="43.39303955228755" lon="6.676998835509375"><ele>38.0</ele><time>2026-04-12T06:37:35.001Z</time></trkpt><trkpt lat="43.39295737929992" lon="6.676924135498659"><ele>35.166666666666664</ele><time>2026-04-12T06:37:37.001Z</time></trkpt><trkpt lat="43.392890211709584" lon="6.67686843682371"><ele>32.33333333333333</ele><time>2026-04-12T06:37:39.001Z</time></trkpt><trkpt lat="43.39281783536332" lon="6.676809695653607"><ele>29.5</ele><time>2026-04-12T06:37:41.001Z</time></trkpt><trkpt lat="43.392737997661335" lon="6.676780136521163"><ele>26.666666666666664</ele><time>2026-04-12T06:37:43.001Z</time></trkpt><trkpt lat="43.39266753150429" lon="6.676757194238596"><ele>23.833333333333332</ele><time>2026-04-12T06:37:45.001Z</time></trkpt><trkpt lat="43.39257438160763" lon="6.676723756811934"><ele>21.0</ele><time>2026-04-12T06:37:47.001Z</time></trkpt><trkpt lat="43.392475662793785" lon="6.676706678155087"><ele>21.0</ele><time>2026-04-12T06:37:49.001Z</time></trkpt><trkpt lat="43.392362942359455" lon="6.676671450759904"><ele>21.0</ele><time>2026-04-12T06:37:51.001Z</time></trkpt><trkpt lat="43.39224476241803" lon="6.676696760631983"><ele>21.0</ele><time>2026-04-12T06:37:53.001Z</time></trkpt><trkpt lat="43.392181470976944" lon="6.676595775516791"><ele>21.0</ele><time>2026-04-12T06:37:55.001Z</time></trkpt><trkpt lat="43.392237897427" lon="6.676524737338681"><ele>21.0</ele><time>2026-04-12T06:38:02.001Z</time></trkpt><trkpt lat="43.3922482932723" lon="6.676419797086931"><ele>21.0</ele><time>2026-04-12T06:38:04.001Z</time></trkpt><trkpt lat="43.39217247792444" lon="6.676413166580455"><ele>21.0</ele><time>2026-04-12T06:38:06.001Z</time></trkpt><trkpt lat="43.392154347338916" lon="6.676273429709833"><ele>21.0</ele><time>2026-04-12T06:38:09.001Z</time></trkpt><trkpt lat="43.39221585394656" lon="6.676226072660422"><ele>21.0</ele><time>2026-04-12T06:38:11.001Z</time></trkpt><trkpt lat="43.392280246640276" lon="6.6762522428761075"><ele>21.0</ele><time>2026-04-12T06:38:12.001Z</time></trkpt><trkpt lat="43.39235620824462" lon="6.67624865538156"><ele>21.0</ele><time>2026-04-12T06:38:13.001Z</time></trkpt><trkpt lat="43.39244957120166" lon="6.6762334636118545"><ele>21.0</ele><time>2026-04-12T06:38:14.001Z</time></trkpt><trkpt lat="43.392523491029365" lon="6.676123077107845"><ele>21.0</ele><time>2026-04-12T06:38:15.001Z</time></trkpt><trkpt lat="43.39264450577863" lon="6.676111825241572"><ele>21.0</ele><time>2026-04-12T06:38:17.001Z</time></trkpt><trkpt lat="43.392716674081804" lon="6.676217686485862"><ele>21.0</ele><time>2026-04-12T06:38:18.001Z</time></trkpt><trkpt lat="43.392808827675076" lon="6.676193401946056"><ele>21.0</ele><time>2026-04-12T06:38:19.001Z</time></trkpt><trkpt lat="43.39290045839201" lon="6.676053940380316"><ele>22.0</ele><time>2026-04-12T06:38:20.001Z</time></trkpt><trkpt lat="43.392992992315314" lon="6.676021397816734"><ele>23.0</ele><time>2026-04-12T06:38:21.001Z</time></trkpt><trkpt lat="43.39309367628473" lon="6.675981929986691"><ele>24.0</ele><time>2026-04-12T06:38:22.001Z</time></trkpt><trkpt lat="43.393183047262255" lon="6.675940729162156"><ele>25.0</ele><time>2026-04-12T06:38:23.001Z</time></trkpt><trkpt lat="43.39331133545418" lon="6.67613923011742"><ele>25.0</ele><time>2026-04-12T06:38:24.001Z</time></trkpt><trkpt lat="43.39338413918435" lon="6.676151296119512"><ele>25.0</ele><time>2026-04-12T06:38:25.001Z</time></trkpt><trkpt lat="43.3935130453134" lon="6.676055635260455"><ele>25.0</ele><time>2026-04-12T06:38:27.001Z</time></trkpt><trkpt lat="43.393628741290755" lon="6.675977740502935"><ele>25.0</ele><time>2026-04-12T06:38:28.001Z</time></trkpt><trkpt lat="43.393740646525764" lon="6.6759347851326405"><ele>25.166666666666668</ele><time>2026-04-12T06:38:29.001Z</time></trkpt><trkpt lat="43.39383124337528" lon="6.675905931483805"><ele>25.333333333333336</ele><time>2026-04-12T06:38:30.001Z</time></trkpt><trkpt lat="43.39390982933338" lon="6.675885891196132"><ele>25.5</ele><time>2026-04-12T06:38:31.001Z</time></trkpt><trkpt lat="43.39397532945206" lon="6.675834077278411"><ele>25.666666666666664</ele><time>2026-04-12T06:38:32.001Z</time></trkpt><trkpt lat="43.394037122506475" lon="6.675744611014711"><ele>25.833333333333332</ele><time>2026-04-12T06:38:34.001Z</time></trkpt><trkpt lat="43.39410501816256" lon="6.67575709802264"><ele>26.0</ele><time>2026-04-12T06:38:35.001Z</time></trkpt><trkpt lat="43.39419097300368" lon="6.675793591972582"><ele>24.8</ele><time>2026-04-12T06:38:36.001Z</time></trkpt><trkpt lat="43.39430105084794" lon="6.675863325601199"><ele>23.6</ele><time>2026-04-12T06:38:38.001Z</time></trkpt><trkpt lat="43.39439246044852" lon="6.675827010109588"><ele>22.4</ele><time>2026-04-12T06:38:40Z</time></trkpt><trkpt lat="43.39446408941079" lon="6.675801404075595"><ele>21.2</ele><time>2026-04-12T06:38:41Z</time></trkpt><trkpt lat="43.39456167796357" lon="6.675844094562418"><ele>20.0</ele><time>2026-04-12T06:38:43Z</time></trkpt><trkpt lat="43.39463110627486" lon="6.675814319385289"><ele>19.8</ele><time>2026-04-12T06:38:44Z</time></trkpt><trkpt lat="43.394716455280886" lon="6.675750935451261"><ele>19.6</ele><time>2026-04-12T06:38:45Z</time></trkpt><trkpt lat="43.39479884382079" lon="6.67564153211126"><ele>19.4</ele><time>2026-04-12T06:38:46Z</time></trkpt><trkpt lat="43.394847671887895" lon="6.675557935045175"><ele>19.2</ele><time>2026-04-12T06:38:47Z</time></trkpt><trkpt lat="43.394923218818384" lon="6.675538197032068"><ele>19.0</ele><time>2026-04-12T06:38:48Z</time></trkpt><trkpt lat="43.39501164951112" lon="6.675538301422947"><ele>19.0</ele><time>2026-04-12T06:38:49Z</time></trkpt><trkpt lat="43.39508671899776" lon="6.675543703797416"><ele>19.0</ele><time>2026-04-12T06:38:50Z</time></trkpt><trkpt lat="43.3951728330297" lon="6.67554330992696"><ele>19.0</ele><time>2026-04-12T06:38:52Z</time></trkpt><trkpt lat="43.39522770693472" lon="6.67538326516073"><ele>19.0</ele><time>2026-04-12T06:38:54Z</time></trkpt><trkpt lat="43.39528160319879" lon="6.675290386070793"><ele>19.0</ele><time>2026-04-12T06:38:55Z</time></trkpt><trkpt lat="43.39537724351465" lon="6.675206289379739"><ele>18.5</ele><time>2026-04-12T06:38:56Z</time></trkpt><trkpt lat="43.39548410443556" lon="6.675129724791199"><ele>18.0</ele><time>2026-04-12T06:38:57Z</time></trkpt><trkpt lat="43.39558709778745" lon="6.675073729581337"><ele>17.5</ele><time>2026-04-12T06:38:58Z</time></trkpt><trkpt lat="43.3957100617562" lon="6.675014672385649"><ele>17.0</ele><time>2026-04-12T06:38:59Z</time></trkpt><trkpt lat="43.39583720308495" lon="6.674970230704712"><ele>17.0</ele><time>2026-04-12T06:39:00Z</time></trkpt><trkpt lat="43.395947783473694" lon="6.674931623451779"><ele>17.0</ele><time>2026-04-12T06:39:01Z</time></trkpt><trkpt lat="43.39605607963487" lon="6.674893966038402"><ele>17.0</ele><time>2026-04-12T06:39:02Z</time></trkpt><trkpt lat="43.39616541771291" lon="6.674857804430937"><ele>17.0</ele><time>2026-04-12T06:39:03Z</time></trkpt><trkpt lat="43.39627337579967" lon="6.674821579286012"><ele>17.0</ele><time>2026-04-12T06:39:04Z</time></trkpt><trkpt lat="43.39638424741711" lon="6.674794318233765"><ele>16.4</ele><time>2026-04-12T06:39:05Z</time></trkpt><trkpt lat="43.396496399575476" lon="6.674771747490435"><ele>15.799999999999999</ele><time>2026-04-12T06:39:06Z</time></trkpt><trkpt lat="43.39659541078842" lon="6.674750742234508"><ele>15.2</ele><time>2026-04-12T06:39:07Z</time></trkpt><trkpt lat="43.39667865821441" lon="6.674741428317849"><ele>14.6</ele><time>2026-04-12T06:39:08Z</time></trkpt><trkpt lat="43.39676156909454" lon="6.674684414305761"><ele>14.0</ele><time>2026-04-12T06:39:10Z</time></trkpt><trkpt lat="43.39678501600807" lon="6.674553696807297"><ele>14.000000000000002</ele><time>2026-04-12T06:39:12Z</time></trkpt><trkpt lat="43.39684377891765" lon="6.67449310350035"><ele>14.0</ele><time>2026-04-12T06:39:15Z</time></trkpt><trkpt lat="43.396923177703265" lon="6.674375418029599"><ele>14.0</ele><time>2026-04-12T06:39:17Z</time></trkpt><trkpt lat="43.396972133739304" lon="6.674310920863559"><ele>14.0</ele><time>2026-04-12T06:39:18Z</time></trkpt><trkpt lat="43.39704967586877" lon="6.674279754764654"><ele>14.000000000000002</ele><time>2026-04-12T06:39:19Z</time></trkpt><trkpt lat="43.39715178862209" lon="6.674313804019122"><ele>14.0</ele><time>2026-04-12T06:39:20Z</time></trkpt><trkpt lat="43.397244351589315" lon="6.674280321704478"><ele>14.2</ele><time>2026-04-12T06:39:21Z</time></trkpt><trkpt lat="43.39732309927745" lon="6.674227397313585"><ele>14.399999999999999</ele><time>2026-04-12T06:39:22Z</time></trkpt><trkpt lat="43.39739043194291" lon="6.6741173403477365"><ele>14.6</ele><time>2026-04-12T06:39:23Z</time></trkpt><trkpt lat="43.397428134723484" lon="6.673974784262447"><ele>14.8</ele><time>2026-04-12T06:39:24Z</time></trkpt><trkpt lat="43.397459468698216" lon="6.673849629453913"><ele>15.0</ele><time>2026-04-12T06:39:25.001Z</time></trkpt><trkpt lat="43.39747909175844" lon="6.673727307961527"><ele>15.0</ele><time>2026-04-12T06:39:26.001Z</time></trkpt><trkpt lat="43.39748629041378" lon="6.673587665970937"><ele>15.0</ele><time>2026-04-12T06:39:27.001Z</time></trkpt><trkpt lat="43.39749878683159" lon="6.673431284903439"><ele>15.0</ele><time>2026-04-12T06:39:28.001Z</time></trkpt><trkpt lat="43.39749826003039" lon="6.673294400059138"><ele>15.0</ele><time>2026-04-12T06:39:29.001Z</time></trkpt><trkpt lat="43.397497938105026" lon="6.673180989956196"><ele>15.0</ele><time>2026-04-12T06:39:30.001Z</time></trkpt><trkpt lat="43.39745799107177" lon="6.673040173770814"><ele>15.0</ele><time>2026-04-12T06:39:31.001Z</time></trkpt><trkpt lat="43.39741317167441" lon="6.672852395157297"><ele>15.0</ele><time>2026-04-12T06:39:32.001Z</time></trkpt><trkpt lat="43.39737056704402" lon="6.672712685698827"><ele>15.0</ele><time>2026-04-12T06:39:33.001Z</time></trkpt><trkpt lat="43.397317706283204" lon="6.672599283741487"><ele>15.0</ele><time>2026-04-12T06:39:34.001Z</time></trkpt><trkpt lat="43.39722827701147" lon="6.672488475038297"><ele>15.8</ele><time>2026-04-12T06:39:35.001Z</time></trkpt><trkpt lat="43.39713668452614" lon="6.6724137747832195"><ele>16.6</ele><time>2026-04-12T06:39:36.001Z</time></trkpt><trkpt lat="43.39705133240253" lon="6.672368732445482"><ele>17.4</ele><time>2026-04-12T06:39:37.001Z</time></trkpt><trkpt lat="43.396963873261484" lon="6.672285828200611"><ele>18.2</ele><time>2026-04-12T06:39:38.001Z</time></trkpt><trkpt lat="43.39688500221633" lon="6.672186751150787"><ele>19.0</ele><time>2026-04-12T06:39:39.001Z</time></trkpt><trkpt lat="43.39680142256935" lon="6.672088041024639"><ele>19.0</ele><time>2026-04-12T06:39:40.001Z</time></trkpt><trkpt lat="43.39673182811819" lon="6.671999383414656"><ele>19.0</ele><time>2026-04-12T06:39:41.001Z</time></trkpt><trkpt lat="43.39665253459466" lon="6.671941270995901"><ele>19.0</ele><time>2026-04-12T06:39:42.001Z</time></trkpt><trkpt lat="43.39656621075497" lon="6.671922646571382"><ele>19.0</ele><time>2026-04-12T06:39:43.001Z</time></trkpt><trkpt lat="43.396462148034495" lon="6.671914810254006"><ele>19.0</ele><time>2026-04-12T06:39:44.001Z</time></trkpt><trkpt lat="43.39634810156075" lon="6.6719822812906235"><ele>19.0</ele><time>2026-04-12T06:39:45.001Z</time></trkpt><trkpt lat="43.39623086426095" lon="6.672043350917153"><ele>19.0</ele><time>2026-04-12T06:39:46.001Z</time></trkpt><trkpt lat="43.39612487899216" lon="6.672108604677761"><ele>19.0</ele><time>2026-04-12T06:39:47.001Z</time></trkpt><trkpt lat="43.39600842458823" lon="6.672174334635761"><ele>19.0</ele><time>2026-04-12T06:39:48.001Z</time></trkpt><trkpt lat="43.39588508092652" lon="6.672228997957606"><ele>19.0</ele><time>2026-04-12T06:39:49.001Z</time></trkpt><trkpt lat="43.395792061726375" lon="6.672268260057843"><ele>19.0</ele><time>2026-04-12T06:39:50.001Z</time></trkpt><trkpt lat="43.39571713062049" lon="6.672267261336708"><ele>19.0</ele><time>2026-04-12T06:39:51.001Z</time></trkpt><trkpt lat="43.39565482016765" lon="6.672230019689591"><ele>19.0</ele><time>2026-04-12T06:39:52.001Z</time></trkpt><trkpt lat="43.3956074121817" lon="6.6721511970078105"><ele>19.0</ele><time>2026-04-12T06:39:53.001Z</time></trkpt><trkpt lat="43.39555729717167" lon="6.672043998194418"><ele>19.0</ele><time>2026-04-12T06:39:54.001Z</time></trkpt><trkpt lat="43.395496568345706" lon="6.671915266844823"><ele>19.2</ele><time>2026-04-12T06:39:55.001Z</time></trkpt><trkpt lat="43.395434076757496" lon="6.67178996422706"><ele>19.4</ele><time>2026-04-12T06:39:56.001Z</time></trkpt><trkpt lat="43.39537238586868" lon="6.671673899997478"><ele>19.6</ele><time>2026-04-12T06:39:57.001Z</time></trkpt><trkpt lat="43.39531558573262" lon="6.671585957631046"><ele>19.8</ele><time>2026-04-12T06:39:58.001Z</time></trkpt><trkpt lat="43.39524896170621" lon="6.671520035533671"><ele>20.0</ele><time>2026-04-12T06:39:59.001Z</time></trkpt><trkpt lat="43.395170568092496" lon="6.671459412723932"><ele>20.0</ele><time>2026-04-12T06:40:00.001Z</time></trkpt><trkpt lat="43.39509151775308" lon="6.671404888983753"><ele>20.0</ele><time>2026-04-12T06:40:01.001Z</time></trkpt><trkpt lat="43.3950273757226" lon="6.671371691233294"><ele>20.0</ele><time>2026-04-12T06:40:02.001Z</time></trkpt><trkpt lat="43.39493862667451" lon="6.671287329883764"><ele>20.0</ele><time>2026-04-12T06:40:04.001Z</time></trkpt><trkpt lat="43.39491952826017" lon="6.67119415691507"><ele>20.0</ele><time>2026-04-12T06:40:05.001Z</time></trkpt><trkpt lat="43.39487751024904" lon="6.671090557049244"><ele>20.0</ele><time>2026-04-12T06:40:06.001Z</time></trkpt><trkpt lat="43.394819578234205" lon="6.670983185662154"><ele>20.333333333333336</ele><time>2026-04-12T06:40:07.001Z</time></trkpt><trkpt lat="43.39478537838055" lon="6.670875356776523"><ele>20.666666666666668</ele><time>2026-04-12T06:40:08.001Z</time></trkpt><trkpt lat="43.39477104865507" lon="6.670780168931566"><ele>21.0</ele><time>2026-04-12T06:40:09.001Z</time></trkpt><trkpt lat="43.394750465717" lon="6.6706738709282885"><ele>21.333333333333332</ele><time>2026-04-12T06:40:10.001Z</time></trkpt><trkpt lat="43.39474965557016" lon="6.670554933008885"><ele>21.666666666666664</ele><time>2026-04-12T06:40:11.001Z</time></trkpt><trkpt lat="43.39474613011841" lon="6.670424455930422"><ele>22.0</ele><time>2026-04-12T06:40:12.001Z</time></trkpt><trkpt lat="43.39476575454788" lon="6.67026905018005"><ele>22.0</ele><time>2026-04-12T06:40:13.001Z</time></trkpt><trkpt lat="43.39478022191343" lon="6.670145608446877"><ele>22.0</ele><time>2026-04-12T06:40:14.001Z</time></trkpt><trkpt lat="43.39482087384509" lon="6.67000375291417"><ele>22.0</ele><time>2026-04-12T06:40:16.001Z</time></trkpt><trkpt lat="43.394765843883256" lon="6.669934603190385"><ele>22.0</ele><time>2026-04-12T06:40:18.001Z</time></trkpt><trkpt lat="43.394694170511876" lon="6.669867439729951"><ele>22.0</ele><time>2026-04-12T06:40:20.001Z</time></trkpt><trkpt lat="43.394704368780026" lon="6.669740913688973"><ele>22.0</ele><time>2026-04-12T06:40:22.001Z</time></trkpt><trkpt lat="43.39467929034821" lon="6.669593724569653"><ele>22.0</ele><time>2026-04-12T06:40:24.001Z</time></trkpt><trkpt lat="43.39466176572161" lon="6.669496790412787"><ele>22.0</ele><time>2026-04-12T06:40:25.001Z</time></trkpt><trkpt lat="43.394648547193555" lon="6.669409269499485"><ele>22.0</ele><time>2026-04-12T06:40:26.001Z</time></trkpt><trkpt lat="43.39463363165703" lon="6.669275679626234"><ele>22.0</ele><time>2026-04-12T06:40:28.001Z</time></trkpt><trkpt lat="43.39462960092261" lon="6.669186784421678"><ele>22.0</ele><time>2026-04-12T06:40:29.001Z</time></trkpt><trkpt lat="43.39461094288742" lon="6.669026290085602"><ele>22.6</ele><time>2026-04-12T06:40:31.001Z</time></trkpt><trkpt lat="43.39456608129698" lon="6.668880397229889"><ele>23.200000000000003</ele><time>2026-04-12T06:40:33.001Z</time></trkpt><trkpt lat="43.39455140106263" lon="6.668742452959503"><ele>23.8</ele><time>2026-04-12T06:40:35.001Z</time></trkpt><trkpt lat="43.39453414137475" lon="6.668642920399686"><ele>24.4</ele><time>2026-04-12T06:40:38.001Z</time></trkpt><trkpt lat="43.394473351237636" lon="6.6685406643299485"><ele>25.0</ele><time>2026-04-12T06:40:40.001Z</time></trkpt><trkpt lat="43.394435578782435" lon="6.668395187600742"><ele>26.833333333333336</ele><time>2026-04-12T06:40:42.001Z</time></trkpt><trkpt lat="43.39440045606819" lon="6.668316029612514"><ele>28.666666666666668</ele><time>2026-04-12T06:40:43.001Z</time></trkpt><trkpt lat="43.39434622573773" lon="6.6682272871919634"><ele>30.5</ele><time>2026-04-12T06:40:44.001Z</time></trkpt><trkpt lat="43.39426899461057" lon="6.668130117625369"><ele>32.333333333333336</ele><time>2026-04-12T06:40:45.001Z</time></trkpt><trkpt lat="43.3942121293967" lon="6.668040468749759"><ele>34.166666666666664</ele><time>2026-04-12T06:40:46Z</time></trkpt><trkpt lat="43.39418255478769" lon="6.667959617812756"><ele>36.0</ele><time>2026-04-12T06:40:47Z</time></trkpt><trkpt lat="43.39415213373906" lon="6.6678327986903145"><ele>37.8</ele><time>2026-04-12T06:40:49Z</time></trkpt><trkpt lat="43.394160088330295" lon="6.667666103314675"><ele>39.6</ele><time>2026-04-12T06:40:51Z</time></trkpt><trkpt lat="43.394157956759216" lon="6.6675233103068345"><ele>41.4</ele><time>2026-04-12T06:40:53Z</time></trkpt><trkpt lat="43.394126830292116" lon="6.667407278856179"><ele>43.2</ele><time>2026-04-12T06:40:55Z</time></trkpt><trkpt lat="43.394081256108734" lon="6.667275733210099"><ele>45.0</ele><time>2026-04-12T06:40:57Z</time></trkpt><trkpt lat="43.3940443245383" lon="6.6671923076329875"><ele>45.0</ele><time>2026-04-12T06:40:58Z</time></trkpt><trkpt lat="43.39400510484721" lon="6.667112692412208"><ele>45.0</ele><time>2026-04-12T06:40:59Z</time></trkpt><trkpt lat="43.39394470366978" lon="6.6670278984597715"><ele>45.0</ele><time>2026-04-12T06:41:00Z</time></trkpt><trkpt lat="43.393896538912394" lon="6.666942879217419"><ele>45.0</ele><time>2026-04-12T06:41:01Z</time></trkpt><trkpt lat="43.39387719117827" lon="6.66684333655828"><ele>45.0</ele><time>2026-04-12T06:41:02Z</time></trkpt><trkpt lat="43.393856328086464" lon="6.666737547837024"><ele>45.0</ele><time>2026-04-12T06:41:03Z</time></trkpt><trkpt lat="43.39383568137104" lon="6.666629841150826"><ele>45.4</ele><time>2026-04-12T06:41:04Z</time></trkpt><trkpt lat="43.39380648836709" lon="6.6665506123152305"><ele>45.8</ele><time>2026-04-12T06:41:05Z</time></trkpt><trkpt lat="43.39380770037863" lon="6.666397834495527"><ele>46.2</ele><time>2026-04-12T06:41:07Z</time></trkpt><trkpt lat="43.39382697257964" lon="6.6662955840939455"><ele>46.6</ele><time>2026-04-12T06:41:08Z</time></trkpt><trkpt lat="43.393864756879125" lon="6.666150464038369"><ele>47.0</ele><time>2026-04-12T06:41:10Z</time></trkpt><trkpt lat="43.39386178537531" lon="6.665998750022144"><ele>47.166666666666664</ele><time>2026-04-12T06:41:12Z</time></trkpt><trkpt lat="43.39391266059967" lon="6.66590384056084"><ele>47.33333333333333</ele><time>2026-04-12T06:41:13Z</time></trkpt><trkpt lat="43.39397789723796" lon="6.665807789693402"><ele>47.5</ele><time>2026-04-12T06:41:14Z</time></trkpt><trkpt lat="43.39399555651291" lon="6.6657147769428935"><ele>47.666666666666664</ele><time>2026-04-12T06:41:15Z</time></trkpt><trkpt lat="43.393989622756024" lon="6.6656181414843925"><ele>47.833333333333336</ele><time>2026-04-12T06:41:16Z</time></trkpt><trkpt lat="43.39395642877401" lon="6.665537319955304"><ele>48.0</ele><time>2026-04-12T06:41:17Z</time></trkpt><trkpt lat="43.393897919270444" lon="6.66546159023079"><ele>48.0</ele><time>2026-04-12T06:41:19Z</time></trkpt><trkpt lat="43.39395688984164" lon="6.6653505835203966"><ele>48.0</ele><time>2026-04-12T06:41:21Z</time></trkpt><trkpt lat="43.39400688934055" lon="6.6652900875235055"><ele>48.0</ele><time>2026-04-12T06:41:22Z</time></trkpt><trkpt lat="43.39411156833105" lon="6.665241226067232"><ele>48.0</ele><time>2026-04-12T06:41:24Z</time></trkpt><trkpt lat="43.39420504537421" lon="6.665230810256957"><ele>48.0</ele><time>2026-04-12T06:41:26Z</time></trkpt><trkpt lat="43.394275440367245" lon="6.6652577465297655"><ele>48.0</ele><time>2026-04-12T06:41:28Z</time></trkpt><trkpt lat="43.3943900254634" lon="6.665265975671063"><ele>48.599999999999994</ele><time>2026-04-12T06:41:30.001Z</time></trkpt><trkpt lat="43.39447533837719" lon="6.6652626491224325"><ele>49.199999999999996</ele><time>2026-04-12T06:41:32.001Z</time></trkpt><trkpt lat="43.39461241844661" lon="6.665218980357715"><ele>49.8</ele><time>2026-04-12T06:41:34.001Z</time></trkpt><trkpt lat="43.394725347457204" lon="6.665208568805521"><ele>50.4</ele><time>2026-04-12T06:41:36.001Z</time></trkpt><trkpt lat="43.39478897195756" lon="6.665145644211245"><ele>51.0</ele><time>2026-04-12T06:41:38.001Z</time></trkpt><trkpt lat="43.39485906944142" lon="6.665080476650545"><ele>51.0</ele><time>2026-04-12T06:41:40.001Z</time></trkpt><trkpt lat="43.39491693762619" lon="6.66504153253956"><ele>51.0</ele><time>2026-04-12T06:41:42.001Z</time></trkpt><trkpt lat="43.39501956980799" lon="6.665048294009856"><ele>51.0</ele><time>2026-04-12T06:41:44.001Z</time></trkpt><trkpt lat="43.39512050529687" lon="6.665043538355664"><ele>51.0</ele><time>2026-04-12T06:41:46.001Z</time></trkpt><trkpt lat="43.39521146318563" lon="6.664978506934803"><ele>51.0</ele><time>2026-04-12T06:41:48.001Z</time></trkpt><trkpt lat="43.39528074225729" lon="6.664953719423261"><ele>51.0</ele><time>2026-04-12T06:41:49.001Z</time></trkpt><trkpt lat="43.39540012351295" lon="6.66496000158723"><ele>51.0</ele><time>2026-04-12T06:41:51.001Z</time></trkpt><trkpt lat="43.395461495415276" lon="6.6649281272101355"><ele>51.0</ele><time>2026-04-12T06:41:52.001Z</time></trkpt><trkpt lat="43.39557439356264" lon="6.66492243605209"><ele>51.0</ele><time>2026-04-12T06:41:54.001Z</time></trkpt><trkpt lat="43.39566259778536" lon="6.664897755723952"><ele>51.0</ele><time>2026-04-12T06:41:56.001Z</time></trkpt><trkpt lat="43.39573360993663" lon="6.6648382036589044"><ele>51.0</ele><time>2026-04-12T06:41:58.001Z</time></trkpt><trkpt lat="43.39576317982298" lon="6.664722905812733"><ele>51.0</ele><time>2026-04-12T06:42:00.001Z</time></trkpt><trkpt lat="43.39577739568167" lon="6.664635192953402"><ele>50.5</ele><time>2026-04-12T06:42:01.001Z</time></trkpt><trkpt lat="43.395807560199835" lon="6.664526991646092"><ele>50.0</ele><time>2026-04-12T06:42:02.001Z</time></trkpt><trkpt lat="43.39583957600834" lon="6.664423618513906"><ele>49.5</ele><time>2026-04-12T06:42:04.001Z</time></trkpt><trkpt lat="43.396029411791154" lon="6.664462061348975"><ele>49.0</ele><time>2026-04-12T06:42:09.001Z</time></trkpt><trkpt lat="43.39614060910647" lon="6.664456355814771"><ele>49.0</ele><time>2026-04-12T06:42:10.001Z</time></trkpt><trkpt lat="43.39625741229052" lon="6.664415586721925"><ele>49.0</ele><time>2026-04-12T06:42:11.001Z</time></trkpt><trkpt lat="43.39637578737402" lon="6.664358260427658"><ele>49.0</ele><time>2026-04-12T06:42:12.001Z</time></trkpt><trkpt lat="43.396489324172386" lon="6.664300597840735"><ele>49.0</ele><time>2026-04-12T06:42:13.001Z</time></trkpt><trkpt lat="43.39658435041424" lon="6.664231183652129"><ele>50.49999999999999</ele><time>2026-04-12T06:42:14.001Z</time></trkpt><trkpt lat="43.39666567324557" lon="6.664188834855991"><ele>52.0</ele><time>2026-04-12T06:42:15.001Z</time></trkpt><trkpt lat="43.39675536314033" lon="6.664170233563424"><ele>53.5</ele><time>2026-04-12T06:42:16.001Z</time></trkpt><trkpt lat="43.396836613077056" lon="6.6642003809789"><ele>55.0</ele><time>2026-04-12T06:42:17.001Z</time></trkpt><trkpt lat="43.39690561792319" lon="6.664237004858897"><ele>56.49999999999999</ele><time>2026-04-12T06:42:18.001Z</time></trkpt><trkpt lat="43.39698899880208" lon="6.66424396829242"><ele>58.0</ele><time>2026-04-12T06:42:20.001Z</time></trkpt><trkpt lat="43.39698154790201" lon="6.664111610626798"><ele>57.99999999999999</ele><time>2026-04-12T06:42:22.001Z</time></trkpt><trkpt lat="43.39697171647226" lon="6.6640187375906"><ele>58.0</ele><time>2026-04-12T06:42:23.001Z</time></trkpt><trkpt lat="43.39699241926209" lon="6.663931364959868"><ele>58.0</ele><time>2026-04-12T06:42:24.001Z</time></trkpt><trkpt lat="43.39711511745561" lon="6.66386862261826"><ele>58.0</ele><time>2026-04-12T06:42:26.001Z</time></trkpt><trkpt lat="43.397201091084014" lon="6.663865825546675"><ele>57.99999999999999</ele><time>2026-04-12T06:42:27.001Z</time></trkpt><trkpt lat="43.39729532820606" lon="6.6638882773844665"><ele>58.0</ele><time>2026-04-12T06:42:28.001Z</time></trkpt><trkpt lat="43.39738932440418" lon="6.663949588475917"><ele>59.4</ele><time>2026-04-12T06:42:29.001Z</time></trkpt><trkpt lat="43.397498966957066" lon="6.664031732586908"><ele>60.8</ele><time>2026-04-12T06:42:30.001Z</time></trkpt><trkpt lat="43.39760217833528" lon="6.664093397294374"><ele>62.2</ele><time>2026-04-12T06:42:31.001Z</time></trkpt><trkpt lat="43.39768840107784" lon="6.664138503008145"><ele>63.6</ele><time>2026-04-12T06:42:32.001Z</time></trkpt><trkpt lat="43.3977600268231" lon="6.664146989350325"><ele>65.0</ele><time>2026-04-12T06:42:33.001Z</time></trkpt><trkpt lat="43.397868354210814" lon="6.66413111261904"><ele>65.0</ele><time>2026-04-12T06:42:35.001Z</time></trkpt><trkpt lat="43.39794321647693" lon="6.6640404318661455"><ele>65.0</ele><time>2026-04-12T06:42:37.001Z</time></trkpt><trkpt lat="43.39799582644839" lon="6.663909448978086"><ele>65.0</ele><time>2026-04-12T06:42:39.001Z</time></trkpt><trkpt lat="43.398091950765526" lon="6.6638353256492815"><ele>65.0</ele><time>2026-04-12T06:42:41.001Z</time></trkpt><trkpt lat="43.39809505383675" lon="6.663683093773706"><ele>65.0</ele><time>2026-04-12T06:42:44.001Z</time></trkpt><trkpt lat="43.398118591616274" lon="6.663540974373868"><ele>66.16666666666667</ele><time>2026-04-12T06:42:46.001Z</time></trkpt><trkpt lat="43.3981130292001" lon="6.663454032187077"><ele>67.33333333333334</ele><time>2026-04-12T06:42:47.001Z</time></trkpt><trkpt lat="43.39810619441176" lon="6.663361033214235"><ele>68.5</ele><time>2026-04-12T06:42:48.001Z</time></trkpt><trkpt lat="43.39808609932679" lon="6.66324361495982"><ele>69.66666666666667</ele><time>2026-04-12T06:42:50.001Z</time></trkpt><trkpt lat="43.39812257655564" lon="6.663114878389769"><ele>70.83333333333333</ele><time>2026-04-12T06:42:53Z</time></trkpt><trkpt lat="43.39805341765907" lon="6.663005628331254"><ele>72.0</ele><time>2026-04-12T06:42:57Z</time></trkpt><trkpt lat="43.39804677822762" lon="6.66290570236231"><ele>72.0</ele><time>2026-04-12T06:43:09Z</time></trkpt><trkpt lat="43.398049110961615" lon="6.662791919215003"><ele>72.0</ele><time>2026-04-12T06:43:13Z</time></trkpt><trkpt lat="43.3979924242719" lon="6.662730219752872"><ele>72.0</ele><time>2026-04-12T06:43:15Z</time></trkpt><trkpt lat="43.39793952782603" lon="6.662624659443335"><ele>72.0</ele><time>2026-04-12T06:43:18Z</time></trkpt><trkpt lat="43.39795290760846" lon="6.6624823836903175"><ele>72.0</ele><time>2026-04-12T06:43:21Z</time></trkpt><trkpt lat="43.39799835374197" lon="6.662378594037382"><ele>72.0</ele><time>2026-04-12T06:43:23Z</time></trkpt><trkpt lat="43.39802090903433" lon="6.662253979099569"><ele>74.75</ele><time>2026-04-12T06:43:25Z</time></trkpt><trkpt lat="43.39805939873074" lon="6.662148804161839"><ele>77.5</ele><time>2026-04-12T06:43:27Z</time></trkpt><trkpt lat="43.39817672159165" lon="6.661847018894167"><ele>80.25</ele><time>2026-04-12T06:43:29Z</time></trkpt><trkpt lat="43.39823747501786" lon="6.661755514309903"><ele>83.0</ele><time>2026-04-12T06:43:30Z</time></trkpt><trkpt lat="43.398283093086036" lon="6.661644370115852"><ele>86.0</ele><time>2026-04-12T06:43:31Z</time></trkpt><trkpt lat="43.39836129346903" lon="6.66155248513352"><ele>89.0</ele><time>2026-04-12T06:43:32Z</time></trkpt><trkpt lat="43.398455046054735" lon="6.661405595285614"><ele>92.0</ele><time>2026-04-12T06:43:33Z</time></trkpt><trkpt lat="43.39855759542948" lon="6.661276434814681"><ele>95.0</ele><time>2026-04-12T06:43:34Z</time></trkpt><trkpt lat="43.39866686336151" lon="6.661166035348021"><ele>95.75</ele><time>2026-04-12T06:43:35Z</time></trkpt><trkpt lat="43.398761023519356" lon="6.661017608980519"><ele>96.5</ele><time>2026-04-12T06:43:36Z</time></trkpt><trkpt lat="43.398809414027426" lon="6.660908447632718"><ele>97.25</ele><time>2026-04-12T06:43:37Z</time></trkpt><trkpt lat="43.39886379103423" lon="6.660771756540217"><ele>98.0</ele><time>2026-04-12T06:43:38Z</time></trkpt><trkpt lat="43.3989432340024" lon="6.660653332731133"><ele>98.0</ele><time>2026-04-12T06:43:39Z</time></trkpt><trkpt lat="43.398985489132016" lon="6.66053576358222"><ele>98.0</ele><time>2026-04-12T06:43:40.001Z</time></trkpt><trkpt lat="43.399020536490156" lon="6.66044401021126"><ele>98.0</ele><time>2026-04-12T06:43:41.001Z</time></trkpt><trkpt lat="43.39904932685216" lon="6.660260270061663"><ele>98.0</ele><time>2026-04-12T06:43:42.001Z</time></trkpt><trkpt lat="43.39908924444695" lon="6.660141485552551"><ele>98.0</ele><time>2026-04-12T06:43:43.001Z</time></trkpt><trkpt lat="43.39912063261834" lon="6.659979145480411"><ele>100.75</ele><time>2026-04-12T06:43:44.001Z</time></trkpt><trkpt lat="43.39914951719832" lon="6.659820492699417"><ele>103.5</ele><time>2026-04-12T06:43:45.001Z</time></trkpt><trkpt lat="43.39915143922033" lon="6.659659611669711"><ele>106.25</ele><time>2026-04-12T06:43:46.001Z</time></trkpt><trkpt lat="43.399152198602835" lon="6.6594942443566"><ele>109.0</ele><time>2026-04-12T06:43:47.001Z</time></trkpt><trkpt lat="43.39915411367259" lon="6.659324410023294"><ele>110.5</ele><time>2026-04-12T06:43:48.001Z</time></trkpt><trkpt lat="43.39913628442152" lon="6.659152496423328"><ele>112.0</ele><time>2026-04-12T06:43:49.001Z</time></trkpt><trkpt lat="43.3991665470075" lon="6.658956025817961"><ele>113.5</ele><time>2026-04-12T06:43:50.001Z</time></trkpt><trkpt lat="43.399123249626676" lon="6.658793034984792"><ele>115.0</ele><time>2026-04-12T06:43:51.001Z</time></trkpt><trkpt lat="43.399089248058864" lon="6.658612701800838"><ele>116.4</ele><time>2026-04-12T06:43:52.001Z</time></trkpt><trkpt lat="43.39906250801636" lon="6.658477729539664"><ele>117.8</ele><time>2026-04-12T06:43:53.001Z</time></trkpt><trkpt lat="43.3990683933187" lon="6.658388524774568"><ele>119.19999999999999</ele><time>2026-04-12T06:43:54.001Z</time></trkpt><trkpt lat="43.399172301790166" lon="6.658287323475901"><ele>120.6</ele><time>2026-04-12T06:43:56.001Z</time></trkpt><trkpt lat="43.3992524635678" lon="6.658247140539609"><ele>122.0</ele><time>2026-04-12T06:43:57.001Z</time></trkpt><trkpt lat="43.399343499990685" lon="6.658190605044542"><ele>122.0</ele><time>2026-04-12T06:43:58.001Z</time></trkpt><trkpt lat="43.39944870307631" lon="6.6580855814962145"><ele>122.0</ele><time>2026-04-12T06:43:59.001Z</time></trkpt><trkpt lat="43.39958196496276" lon="6.658013403103869"><ele>122.0</ele><time>2026-04-12T06:44:00.001Z</time></trkpt><trkpt lat="43.39969999206167" lon="6.657959287106871"><ele>122.0</ele><time>2026-04-12T06:44:01.001Z</time></trkpt><trkpt lat="43.39979738206326" lon="6.6579291199946296"><ele>120.83333333333333</ele><time>2026-04-12T06:44:02.001Z</time></trkpt><trkpt lat="43.3998552221444" lon="6.657881078512975"><ele>119.66666666666666</ele><time>2026-04-12T06:44:03.001Z</time></trkpt><trkpt lat="43.39996073603878" lon="6.657843688165658"><ele>118.5</ele><time>2026-04-12T06:44:04.001Z</time></trkpt><trkpt lat="43.400041169135335" lon="6.657783570006159"><ele>117.33333333333334</ele><time>2026-04-12T06:44:05.001Z</time></trkpt><trkpt lat="43.40010341079592" lon="6.657687684368409"><ele>116.16666666666667</ele><time>2026-04-12T06:44:06.001Z</time></trkpt><trkpt lat="43.400147105832254" lon="6.657583931458078"><ele>115.0</ele><time>2026-04-12T06:44:07.001Z</time></trkpt><trkpt lat="43.400190575869175" lon="6.657446945508616"><ele>119.25</ele><time>2026-04-12T06:44:08.001Z</time></trkpt><trkpt lat="43.40024312122259" lon="6.657298980776244"><ele>123.5</ele><time>2026-04-12T06:44:09.001Z</time></trkpt><trkpt lat="43.400288770743565" lon="6.657126347866537"><ele>127.75</ele><time>2026-04-12T06:44:10.001Z</time></trkpt><trkpt lat="43.40032189063282" lon="6.656950309567125"><ele>132.0</ele><time>2026-04-12T06:44:11.001Z</time></trkpt><trkpt lat="43.40034080165263" lon="6.656785651290434"><ele>133.4</ele><time>2026-04-12T06:44:12.001Z</time></trkpt><trkpt lat="43.40034720455941" lon="6.656643089076296"><ele>134.79999999999998</ele><time>2026-04-12T06:44:13.001Z</time></trkpt><trkpt lat="43.40035095059398" lon="6.656513869898359"><ele>136.2</ele><time>2026-04-12T06:44:14.001Z</time></trkpt><trkpt lat="43.40032781552777" lon="6.656358322275039"><ele>137.6</ele><time>2026-04-12T06:44:15.001Z</time></trkpt><trkpt lat="43.400297294589095" lon="6.656206235032476"><ele>139.0</ele><time>2026-04-12T06:44:16.001Z</time></trkpt><trkpt lat="43.400259500008" lon="6.6560471050507175"><ele>139.8</ele><time>2026-04-12T06:44:17.001Z</time></trkpt><trkpt lat="43.400222095934716" lon="6.65587601994669"><ele>140.60000000000002</ele><time>2026-04-12T06:44:18.001Z</time></trkpt><trkpt lat="43.40019646685586" lon="6.655730692206516"><ele>141.4</ele><time>2026-04-12T06:44:19.001Z</time></trkpt><trkpt lat="43.400172110811" lon="6.655618585943523"><ele>142.20000000000002</ele><time>2026-04-12T06:44:20.001Z</time></trkpt><trkpt lat="43.40011982459257" lon="6.6555176923081465"><ele>143.0</ele><time>2026-04-12T06:44:21.001Z</time></trkpt><trkpt lat="43.4000591919745" lon="6.655407941871682"><ele>145.5</ele><time>2026-04-12T06:44:22.001Z</time></trkpt><trkpt lat="43.40001515558434" lon="6.655261890535099"><ele>148.0</ele><time>2026-04-12T06:44:23.001Z</time></trkpt><trkpt lat="43.39994961513259" lon="6.655138223335671"><ele>150.5</ele><time>2026-04-12T06:44:24.001Z</time></trkpt><trkpt lat="43.39983791759716" lon="6.655043391081742"><ele>153.0</ele><time>2026-04-12T06:44:25.001Z</time></trkpt><trkpt lat="43.39971116198453" lon="6.654954852222686"><ele>152.0</ele><time>2026-04-12T06:44:26.001Z</time></trkpt><trkpt lat="43.399566399589624" lon="6.65488903443915"><ele>151.0</ele><time>2026-04-12T06:44:27.001Z</time></trkpt><trkpt lat="43.39942909118874" lon="6.654829441444828"><ele>150.0</ele><time>2026-04-12T06:44:28.001Z</time></trkpt><trkpt lat="43.39930765972392" lon="6.654774028619068"><ele>149.0</ele><time>2026-04-12T06:44:29.001Z</time></trkpt><trkpt lat="43.39918814660084" lon="6.654739349371307"><ele>149.0</ele><time>2026-04-12T06:44:30.001Z</time></trkpt><trkpt lat="43.399108215514644" lon="6.654697115059176"><ele>149.0</ele><time>2026-04-12T06:44:31.001Z</time></trkpt><trkpt lat="43.39903540756316" lon="6.654622743839558"><ele>149.0</ele><time>2026-04-12T06:44:32.001Z</time></trkpt><trkpt lat="43.39896680207027" lon="6.654522898367615"><ele>149.0</ele><time>2026-04-12T06:44:33.001Z</time></trkpt><trkpt lat="43.398911617583984" lon="6.6544063141037695"><ele>149.0</ele><time>2026-04-12T06:44:34.001Z</time></trkpt><trkpt lat="43.39888430556185" lon="6.65428394002589"><ele>149.6</ele><time>2026-04-12T06:44:35.001Z</time></trkpt><trkpt lat="43.398877452430554" lon="6.654139537923982"><ele>150.2</ele><time>2026-04-12T06:44:36.001Z</time></trkpt><trkpt lat="43.398881248997526" lon="6.653974642940699"><ele>150.79999999999998</ele><time>2026-04-12T06:44:37.001Z</time></trkpt><trkpt lat="43.39886526794293" lon="6.653834489062075"><ele>151.4</ele><time>2026-04-12T06:44:38.001Z</time></trkpt><trkpt lat="43.39882796575783" lon="6.6536936168712035"><ele>152.0</ele><time>2026-04-12T06:44:39.001Z</time></trkpt><trkpt lat="43.39879716742663" lon="6.653576933765923"><ele>155.0</ele><time>2026-04-12T06:44:40.001Z</time></trkpt><trkpt lat="43.39876663125274" lon="6.653490499448469"><ele>158.0</ele><time>2026-04-12T06:44:41.001Z</time></trkpt><trkpt lat="43.39865166893148" lon="6.653431461401976"><ele>161.0</ele><time>2026-04-12T06:44:43.001Z</time></trkpt><trkpt lat="43.39854014424499" lon="6.653427895738387"><ele>164.0</ele><time>2026-04-12T06:44:44.001Z</time></trkpt><trkpt lat="43.39845604345033" lon="6.653403334558447"><ele>167.0</ele><time>2026-04-12T06:44:45.001Z</time></trkpt><trkpt lat="43.39838092803201" lon="6.65336007317354"><ele>167.0</ele><time>2026-04-12T06:44:46.001Z</time></trkpt><trkpt lat="43.398307843102536" lon="6.653284855719583"><ele>167.0</ele><time>2026-04-12T06:44:47.001Z</time></trkpt><trkpt lat="43.39825072580013" lon="6.653189035011996"><ele>167.0</ele><time>2026-04-12T06:44:48.001Z</time></trkpt><trkpt lat="43.39822787514816" lon="6.653107350782886"><ele>167.0</ele><time>2026-04-12T06:44:49.001Z</time></trkpt><trkpt lat="43.39819582484166" lon="6.652994847793005"><ele>167.0</ele><time>2026-04-12T06:44:51.001Z</time></trkpt><trkpt lat="43.39813343421331" lon="6.652904293960409"><ele>167.0</ele><time>2026-04-12T06:44:53.001Z</time></trkpt><trkpt lat="43.39806627810373" lon="6.652789982944815"><ele>169.85714285714286</ele><time>2026-04-12T06:44:55.001Z</time></trkpt><trkpt lat="43.39803413719546" lon="6.652699537548548"><ele>172.71428571428572</ele><time>2026-04-12T06:44:58Z</time></trkpt><trkpt lat="43.39801035736462" lon="6.652619014797556"><ele>175.57142857142856</ele><time>2026-04-12T06:45:05Z</time></trkpt><trkpt lat="43.398013717096916" lon="6.652521716570795"><ele>178.42857142857144</ele><time>2026-04-12T06:45:13Z</time></trkpt><trkpt lat="43.398062253976256" lon="6.652437689096294"><ele>181.2857142857143</ele><time>2026-04-12T06:45:20Z</time></trkpt><trkpt lat="43.39810835290031" lon="6.652349481554272"><ele>184.14285714285714</ele><time>2026-04-12T06:45:25Z</time></trkpt><trkpt lat="43.39815981991716" lon="6.652257084510971"><ele>187.0</ele><time>2026-04-12T06:45:28Z</time></trkpt><trkpt lat="43.39819851921896" lon="6.652157016086371"><ele>187.0</ele><time>2026-04-12T06:45:31Z</time></trkpt><trkpt lat="43.39826320939272" lon="6.652089857141051"><ele>187.0</ele><time>2026-04-12T06:45:34Z</time></trkpt><trkpt lat="43.3983122663491" lon="6.6520129501462675"><ele>187.0</ele><time>2026-04-12T06:45:37Z</time></trkpt><trkpt lat="43.39836132072986" lon="6.651951794352722"><ele>187.0</ele><time>2026-04-12T06:45:40Z</time></trkpt><trkpt lat="43.398401738033634" lon="6.65186142636819"><ele>187.0</ele><time>2026-04-12T06:45:43Z</time></trkpt><trkpt lat="43.39845013823448" lon="6.65174775292354"><ele>187.0</ele><time>2026-04-12T06:45:46Z</time></trkpt><trkpt lat="43.39848020086663" lon="6.651661595531456"><ele>190.6</ele><time>2026-04-12T06:45:48Z</time></trkpt><trkpt lat="43.39853841458446" lon="6.651536170796106"><ele>194.2</ele><time>2026-04-12T06:45:50Z</time></trkpt><trkpt lat="43.398652481207925" lon="6.651355686201892"><ele>197.8</ele><time>2026-04-12T06:45:51Z</time></trkpt><trkpt lat="43.398724231830535" lon="6.651302689686701"><ele>201.4</ele><time>2026-04-12T06:45:54Z</time></trkpt><trkpt lat="43.39879256299376" lon="6.651267223596957"><ele>205.0</ele><time>2026-04-12T06:45:57Z</time></trkpt><trkpt lat="43.398841633580936" lon="6.65120294479059"><ele>208.71428571428572</ele><time>2026-04-12T06:46:00Z</time></trkpt><trkpt lat="43.3988715691232" lon="6.651111184386667"><ele>212.42857142857142</ele><time>2026-04-12T06:46:06.001Z</time></trkpt><trkpt lat="43.39886511090798" lon="6.651023344214757"><ele>216.14285714285714</ele><time>2026-04-12T06:46:09.001Z</time></trkpt><trkpt lat="43.39887739017476" lon="6.650931623762928"><ele>219.85714285714286</ele><time>2026-04-12T06:46:36.001Z</time></trkpt><trkpt lat="43.39886147636263" lon="6.6508317337146"><ele>223.57142857142856</ele><time>2026-04-12T06:46:39.001Z</time></trkpt><trkpt lat="43.39884305590286" lon="6.650721519261363"><ele>227.28571428571428</ele><time>2026-04-12T06:46:43.001Z</time></trkpt><trkpt lat="43.3988586249592" lon="6.650631805247652"><ele>231.0</ele><time>2026-04-12T06:46:45.001Z</time></trkpt><trkpt lat="43.39889568227219" lon="6.6505429008517405"><ele>231.0</ele><time>2026-04-12T06:46:52.001Z</time></trkpt><trkpt lat="43.39893598948876" lon="6.650476326386076"><ele>231.0</ele><time>2026-04-12T06:47:01.001Z</time></trkpt><trkpt lat="43.39897210987732" lon="6.650399862845466"><ele>231.0</ele><time>2026-04-12T06:47:06Z</time></trkpt><trkpt lat="43.39900326533409" lon="6.650301403675602"><ele>231.0</ele><time>2026-04-12T06:47:09Z</time></trkpt><trkpt lat="43.3990418949743" lon="6.6501996043462945"><ele>231.0</ele><time>2026-04-12T06:47:13Z</time></trkpt><trkpt lat="43.399072141382966" lon="6.650088806308889"><ele>231.0</ele><time>2026-04-12T06:47:17Z</time></trkpt><trkpt lat="43.39909144724127" lon="6.649998107692006"><ele>231.0</ele><time>2026-04-12T06:47:30Z</time></trkpt><trkpt lat="43.39911638742356" lon="6.6499103919659674"><ele>234.28571428571428</ele><time>2026-04-12T06:47:45Z</time></trkpt><trkpt lat="43.399120404995664" lon="6.649823005458765"><ele>237.57142857142856</ele><time>2026-04-12T06:47:48Z</time></trkpt><trkpt lat="43.399132258026164" lon="6.649717449886284"><ele>240.85714285714286</ele><time>2026-04-12T06:47:54Z</time></trkpt><trkpt lat="43.399150300500565" lon="6.649625448876314"><ele>244.14285714285714</ele><time>2026-04-12T06:47:59Z</time></trkpt><trkpt lat="43.399163446514265" lon="6.649527179697291"><ele>247.42857142857142</ele><time>2026-04-12T06:48:10Z</time></trkpt><trkpt lat="43.39923118556433" lon="6.649517123839268"><ele>250.71428571428572</ele><time>2026-04-12T06:50:32.001Z</time></trkpt><trkpt lat="43.399299929346974" lon="6.649455913807491"><ele>254.0</ele><time>2026-04-12T06:50:34.001Z</time></trkpt><trkpt lat="43.39939165096877" lon="6.6493834188857255"><ele>258.59999999999997</ele><time>2026-04-12T06:50:36.001Z</time></trkpt><trkpt lat="43.39951244067448" lon="6.649350288639453"><ele>263.2</ele><time>2026-04-12T06:50:38.001Z</time></trkpt><trkpt lat="43.39959816297808" lon="6.649360843331028"><ele>267.79999999999995</ele><time>2026-04-12T06:50:39.001Z</time></trkpt><trkpt lat="43.39969366997134" lon="6.649374537607075"><ele>272.4</ele><time>2026-04-12T06:50:40.001Z</time></trkpt><trkpt lat="43.39977315061828" lon="6.649388277188724"><ele>277.0</ele><time>2026-04-12T06:50:41.001Z</time></trkpt><trkpt lat="43.39985478284654" lon="6.649400080961781"><ele>279.5</ele><time>2026-04-12T06:50:42.001Z</time></trkpt><trkpt lat="43.3999367233901" lon="6.649419483910661"><ele>282.0</ele><time>2026-04-12T06:50:43.001Z</time></trkpt><trkpt lat="43.4000114252183" lon="6.649425970665974"><ele>284.5</ele><time>2026-04-12T06:50:44.001Z</time></trkpt><trkpt lat="43.40008805390046" lon="6.64940636796623"><ele>287.0</ele><time>2026-04-12T06:50:45.001Z</time></trkpt><trkpt lat="43.40016573453454" lon="6.649379791649561"><ele>289.5</ele><time>2026-04-12T06:50:46.001Z</time></trkpt><trkpt lat="43.400240823466206" lon="6.649356991420052"><ele>292.0</ele><time>2026-04-12T06:50:47.001Z</time></trkpt><trkpt lat="43.40030429900944" lon="6.649309499813245"><ele>292.0</ele><time>2026-04-12T06:50:48.001Z</time></trkpt><trkpt lat="43.40037637480182" lon="6.649258823338463"><ele>292.0</ele><time>2026-04-12T06:50:49.001Z</time></trkpt><trkpt lat="43.40043939445247" lon="6.649178185518293"><ele>292.0</ele><time>2026-04-12T06:50:50.001Z</time></trkpt><trkpt lat="43.40050201930051" lon="6.649097155047887"><ele>292.0</ele><time>2026-04-12T06:50:51.001Z</time></trkpt><trkpt lat="43.40056092359028" lon="6.649030012294899"><ele>292.0</ele><time>2026-04-12T06:50:52.001Z</time></trkpt><trkpt lat="43.40062663204696" lon="6.64894891210416"><ele>292.0</ele><time>2026-04-12T06:50:53.001Z</time></trkpt><trkpt lat="43.400717810780456" lon="6.648850642855044"><ele>292.6</ele><time>2026-04-12T06:50:54.001Z</time></trkpt><trkpt lat="43.400784481314176" lon="6.648787964068685"><ele>293.2</ele><time>2026-04-12T06:50:55.001Z</time></trkpt><trkpt lat="43.40086681352629" lon="6.648745048527709"><ele>293.8</ele><time>2026-04-12T06:50:56.001Z</time></trkpt><trkpt lat="43.40096846806755" lon="6.6486965662987"><ele>294.4</ele><time>2026-04-12T06:50:57.001Z</time></trkpt><trkpt lat="43.40106219674919" lon="6.64864682976982"><ele>295.0</ele><time>2026-04-12T06:50:58.001Z</time></trkpt><trkpt lat="43.40114617323367" lon="6.648579171953629"><ele>294.6</ele><time>2026-04-12T06:50:59.001Z</time></trkpt><trkpt lat="43.40121949489121" lon="6.648470994606139"><ele>294.2</ele><time>2026-04-12T06:51:00.001Z</time></trkpt><trkpt lat="43.40128291647724" lon="6.64835818630758"><ele>293.8</ele><time>2026-04-12T06:51:01.001Z</time></trkpt><trkpt lat="43.4013339641346" lon="6.648231604600663"><ele>293.4</ele><time>2026-04-12T06:51:02.001Z</time></trkpt><trkpt lat="43.40138651007363" lon="6.648116973933678"><ele>293.0</ele><time>2026-04-12T06:51:03.001Z</time></trkpt><trkpt lat="43.401439817617316" lon="6.648008178811386"><ele>293.0</ele><time>2026-04-12T06:51:04.001Z</time></trkpt><trkpt lat="43.401510958594315" lon="6.64789037693012"><ele>293.0</ele><time>2026-04-12T06:51:05.001Z</time></trkpt><trkpt lat="43.401586183198894" lon="6.64778510989291"><ele>293.0</ele><time>2026-04-12T06:51:06.001Z</time></trkpt><trkpt lat="43.401667525019526" lon="6.647705504735808"><ele>293.0</ele><time>2026-04-12T06:51:07.001Z</time></trkpt><trkpt lat="43.40174959732822" lon="6.647662237049007"><ele>293.0</ele><time>2026-04-12T06:51:08.001Z</time></trkpt><trkpt lat="43.4018439850356" lon="6.64761061931708"><ele>294.5</ele><time>2026-04-12T06:51:09.001Z</time></trkpt><trkpt lat="43.40194051351808" lon="6.647542031540592"><ele>296.0</ele><time>2026-04-12T06:51:10.001Z</time></trkpt><trkpt lat="43.402047042547736" lon="6.647501479392048"><ele>297.5</ele><time>2026-04-12T06:51:11.001Z</time></trkpt><trkpt lat="43.402152884631235" lon="6.647535719428652"><ele>299.0</ele><time>2026-04-12T06:51:12.001Z</time></trkpt><trkpt lat="43.402278905420104" lon="6.647527090848669"><ele>299.0</ele><time>2026-04-12T06:51:13.001Z</time></trkpt><trkpt lat="43.402381291541126" lon="6.647524772492583"><ele>299.0</ele><time>2026-04-12T06:51:14.001Z</time></trkpt><trkpt lat="43.402478034301716" lon="6.647508424841918"><ele>299.0</ele><time>2026-04-12T06:51:15.001Z</time></trkpt><trkpt lat="43.40260989910411" lon="6.647498797008376"><ele>299.0</ele><time>2026-04-12T06:51:16Z</time></trkpt><trkpt lat="43.40271989143204" lon="6.647472964689502"><ele>299.0</ele><time>2026-04-12T06:51:17Z</time></trkpt><trkpt lat="43.40282866660377" lon="6.647446437621416"><ele>299.0</ele><time>2026-04-12T06:51:18Z</time></trkpt><trkpt lat="43.40293708848298" lon="6.647412701761841"><ele>299.0</ele><time>2026-04-12T06:51:19Z</time></trkpt><trkpt lat="43.403045716842136" lon="6.647388629618904"><ele>299.0</ele><time>2026-04-12T06:51:20Z</time></trkpt><trkpt lat="43.40314409524953" lon="6.647381536895404"><ele>299.0</ele><time>2026-04-12T06:51:21Z</time></trkpt><trkpt lat="43.40324238733268" lon="6.647377545695837"><ele>299.0</ele><time>2026-04-12T06:51:22Z</time></trkpt><trkpt lat="43.403346733492555" lon="6.6473877505554695"><ele>299.0</ele><time>2026-04-12T06:51:23Z</time></trkpt><trkpt lat="43.40346135386919" lon="6.6474303217174295"><ele>299.0</ele><time>2026-04-12T06:51:24Z</time></trkpt><trkpt lat="43.40358384726516" lon="6.647481732998794"><ele>299.0</ele><time>2026-04-12T06:51:25Z</time></trkpt><trkpt lat="43.40368919154844" lon="6.64753117440363"><ele>299.0</ele><time>2026-04-12T06:51:26Z</time></trkpt><trkpt lat="43.40381388884128" lon="6.647581304060956"><ele>299.2</ele><time>2026-04-12T06:51:27Z</time></trkpt><trkpt lat="43.40392363454019" lon="6.647626665403854"><ele>299.4</ele><time>2026-04-12T06:51:28Z</time></trkpt><trkpt lat="43.40402967505761" lon="6.647664250277766"><ele>299.6</ele><time>2026-04-12T06:51:29Z</time></trkpt><trkpt lat="43.40411162789417" lon="6.647703098941059"><ele>299.8</ele><time>2026-04-12T06:51:30Z</time></trkpt><trkpt lat="43.4042030321596" lon="6.6477305873140855"><ele>300.0</ele><time>2026-04-12T06:51:31Z</time></trkpt><trkpt lat="43.40430652471444" lon="6.647750472260749"><ele>300.0</ele><time>2026-04-12T06:51:32Z</time></trkpt><trkpt lat="43.40442188881375" lon="6.647763935036391"><ele>300.0</ele><time>2026-04-12T06:51:33Z</time></trkpt><trkpt lat="43.40453349004005" lon="6.647793604207643"><ele>300.0</ele><time>2026-04-12T06:51:34Z</time></trkpt><trkpt lat="43.404659830969344" lon="6.647820784778875"><ele>300.0</ele><time>2026-04-12T06:51:35Z</time></trkpt><trkpt lat="43.40478148344174" lon="6.647849688373025"><ele>295.0</ele><time>2026-04-12T06:51:36Z</time></trkpt><trkpt lat="43.40489345872185" lon="6.647871324119645"><ele>290.0</ele><time>2026-04-12T06:51:37Z</time></trkpt><trkpt lat="43.405012065586995" lon="6.647885887773517"><ele>285.0</ele><time>2026-04-12T06:51:38Z</time></trkpt><trkpt lat="43.40514947454383" lon="6.64788855909658"><ele>280.0</ele><time>2026-04-12T06:51:39Z</time></trkpt><trkpt lat="43.405272907884644" lon="6.647898799745133"><ele>280.0</ele><time>2026-04-12T06:51:40Z</time></trkpt><trkpt lat="43.405403676065674" lon="6.647908743482804"><ele>280.0</ele><time>2026-04-12T06:51:41Z</time></trkpt><trkpt lat="43.405530817320276" lon="6.647925004446489"><ele>280.0</ele><time>2026-04-12T06:51:42Z</time></trkpt><trkpt lat="43.40565409379883" lon="6.647959952398009"><ele>280.0</ele><time>2026-04-12T06:51:43Z</time></trkpt><trkpt lat="43.40577433494909" lon="6.647994541436983"><ele>280.6</ele><time>2026-04-12T06:51:44Z</time></trkpt><trkpt lat="43.40588204773618" lon="6.648033958818483"><ele>281.2</ele><time>2026-04-12T06:51:45Z</time></trkpt><trkpt lat="43.405988577340224" lon="6.648058153704518"><ele>281.8</ele><time>2026-04-12T06:51:46Z</time></trkpt><trkpt lat="43.40609470495641" lon="6.648093616768319"><ele>282.4</ele><time>2026-04-12T06:51:47Z</time></trkpt><trkpt lat="43.406210620847126" lon="6.648113308943593"><ele>283.0</ele><time>2026-04-12T06:51:48Z</time></trkpt><trkpt lat="43.4063280152346" lon="6.6481298458567"><ele>284.0</ele><time>2026-04-12T06:51:49Z</time></trkpt><trkpt lat="43.40645320546543" lon="6.648141738856572"><ele>285.0</ele><time>2026-04-12T06:51:50Z</time></trkpt><trkpt lat="43.406567684391625" lon="6.648166832146551"><ele>286.0</ele><time>2026-04-12T06:51:51Z</time></trkpt><trkpt lat="43.40667651052235" lon="6.6481984273087305"><ele>287.0</ele><time>2026-04-12T06:51:52Z</time></trkpt><trkpt lat="43.40677806469541" lon="6.648241114711257"><ele>287.0</ele><time>2026-04-12T06:51:53Z</time></trkpt><trkpt lat="43.4068861692831" lon="6.648278990115845"><ele>287.0</ele><time>2026-04-12T06:51:54Z</time></trkpt><trkpt lat="43.40699756632599" lon="6.648324070210681"><ele>287.0</ele><time>2026-04-12T06:51:55Z</time></trkpt><trkpt lat="43.40709360143636" lon="6.648358144561458"><ele>287.0</ele><time>2026-04-12T06:51:56Z</time></trkpt><trkpt lat="43.407192280099466" lon="6.648379086751423"><ele>287.0</ele><time>2026-04-12T06:51:57Z</time></trkpt><trkpt lat="43.40727560725655" lon="6.648407104314708"><ele>287.4</ele><time>2026-04-12T06:51:58Z</time></trkpt><trkpt lat="43.40735514988136" lon="6.648457777442269"><ele>287.79999999999995</ele><time>2026-04-12T06:51:59Z</time></trkpt><trkpt lat="43.407436764966164" lon="6.6485381111481345"><ele>288.2</ele><time>2026-04-12T06:52:00Z</time></trkpt><trkpt lat="43.40750934372826" lon="6.648648589559407"><ele>288.59999999999997</ele><time>2026-04-12T06:52:01Z</time></trkpt><trkpt lat="43.4075768911474" lon="6.648772159898621"><ele>289.0</ele><time>2026-04-12T06:52:02Z</time></trkpt><trkpt lat="43.407637005982664" lon="6.648880947293667"><ele>289.0</ele><time>2026-04-12T06:52:03Z</time></trkpt><trkpt lat="43.407696811401806" lon="6.648988730323288"><ele>289.0</ele><time>2026-04-12T06:52:04Z</time></trkpt><trkpt lat="43.40775561936517" lon="6.64911372550701"><ele>289.0</ele><time>2026-04-12T06:52:05Z</time></trkpt><trkpt lat="43.40780102100345" lon="6.649242908120704"><ele>289.0</ele><time>2026-04-12T06:52:06Z</time></trkpt><trkpt lat="43.40782878963101" lon="6.649369392614167"><ele>289.0</ele><time>2026-04-12T06:52:07Z</time></trkpt><trkpt lat="43.40784631064258" lon="6.649480105739879"><ele>287.8</ele><time>2026-04-12T06:52:08Z</time></trkpt><trkpt lat="43.407866272199335" lon="6.649601600938027"><ele>286.59999999999997</ele><time>2026-04-12T06:52:09Z</time></trkpt><trkpt lat="43.40788246075685" lon="6.649722844130742"><ele>285.4</ele><time>2026-04-12T06:52:10Z</time></trkpt><trkpt lat="43.407889260703584" lon="6.649846320034486"><ele>284.2</ele><time>2026-04-12T06:52:11Z</time></trkpt><trkpt lat="43.40789587278212" lon="6.6499770034817045"><ele>283.0</ele><time>2026-04-12T06:52:12Z</time></trkpt><trkpt lat="43.40789973922903" lon="6.650122379087141"><ele>283.0</ele><time>2026-04-12T06:52:13Z</time></trkpt><trkpt lat="43.407907970637766" lon="6.650266702387398"><ele>283.0</ele><time>2026-04-12T06:52:14Z</time></trkpt><trkpt lat="43.40791613039923" lon="6.650398622122359"><ele>283.0</ele><time>2026-04-12T06:52:15Z</time></trkpt><trkpt lat="43.40792424095612" lon="6.650521122469098"><ele>283.0</ele><time>2026-04-12T06:52:16Z</time></trkpt><trkpt lat="43.40793433852024" lon="6.650638501601358"><ele>283.0</ele><time>2026-04-12T06:52:17Z</time></trkpt><trkpt lat="43.40793893918289" lon="6.65073151971981"><ele>283.0</ele><time>2026-04-12T06:52:18Z</time></trkpt><trkpt lat="43.40794674752181" lon="6.650874648766439"><ele>282.3333333333333</ele><time>2026-04-12T06:52:20Z</time></trkpt><trkpt lat="43.40795170915902" lon="6.65100413112386"><ele>281.66666666666663</ele><time>2026-04-12T06:52:22Z</time></trkpt><trkpt lat="43.407965164918345" lon="6.6511432256629375"><ele>281.0</ele><time>2026-04-12T06:52:24Z</time></trkpt><trkpt lat="43.40797502315509" lon="6.651261403095565"><ele>280.3333333333333</ele><time>2026-04-12T06:52:25Z</time></trkpt><trkpt lat="43.407971615547446" lon="6.651355127984492"><ele>279.6666666666667</ele><time>2026-04-12T06:52:26Z</time></trkpt><trkpt lat="43.407967754399614" lon="6.65144392028774"><ele>279.0</ele><time>2026-04-12T06:52:27Z</time></trkpt><trkpt lat="43.40795924151891" lon="6.651543572025154"><ele>278.1666666666667</ele><time>2026-04-12T06:52:28Z</time></trkpt><trkpt lat="43.407963156960264" lon="6.651635720420416"><ele>277.3333333333333</ele><time>2026-04-12T06:52:29Z</time></trkpt><trkpt lat="43.40798333627133" lon="6.651743305567924"><ele>276.5</ele><time>2026-04-12T06:52:31Z</time></trkpt><trkpt lat="43.408045913041214" lon="6.651803970238921"><ele>275.66666666666663</ele><time>2026-04-12T06:52:33.001Z</time></trkpt><trkpt lat="43.408104293225" lon="6.6518377666168576"><ele>274.8333333333333</ele><time>2026-04-12T06:52:34.001Z</time></trkpt><trkpt lat="43.40819774295032" lon="6.651930370972823"><ele>274.0</ele><time>2026-04-12T06:52:36.001Z</time></trkpt><trkpt lat="43.40829976293182" lon="6.651946728211317"><ele>276.66666666666663</ele><time>2026-04-12T06:52:38.001Z</time></trkpt><trkpt lat="43.408368446818066" lon="6.651929144547391"><ele>279.3333333333333</ele><time>2026-04-12T06:52:39.001Z</time></trkpt><trkpt lat="43.40845932106674" lon="6.6518973407361655"><ele>282.0</ele><time>2026-04-12T06:52:40.001Z</time></trkpt><trkpt lat="43.40853237044197" lon="6.651864869872104"><ele>284.6666666666667</ele><time>2026-04-12T06:52:41.001Z</time></trkpt><trkpt lat="43.40860335739769" lon="6.651882116405845"><ele>287.33333333333337</ele><time>2026-04-12T06:52:42.001Z</time></trkpt><trkpt lat="43.40867630754879" lon="6.651922667103586"><ele>290.0</ele><time>2026-04-12T06:52:43.001Z</time></trkpt><trkpt lat="43.40873999724572" lon="6.651984520399361"><ele>290.0</ele><time>2026-04-12T06:52:44.001Z</time></trkpt><trkpt lat="43.40879177733511" lon="6.652082483092052"><ele>290.0</ele><time>2026-04-12T06:52:45.001Z</time></trkpt><trkpt lat="43.408858534910514" lon="6.652171025906558"><ele>290.0</ele><time>2026-04-12T06:52:46.001Z</time></trkpt><trkpt lat="43.408918022826434" lon="6.65225690862664"><ele>290.0</ele><time>2026-04-12T06:52:47.001Z</time></trkpt><trkpt lat="43.4089878986393" lon="6.652315587266674"><ele>290.0</ele><time>2026-04-12T06:52:48.001Z</time></trkpt><trkpt lat="43.409064813821246" lon="6.65236252153043"><ele>290.0</ele><time>2026-04-12T06:52:49.001Z</time></trkpt><trkpt lat="43.409144267699084" lon="6.652402934931217"><ele>292.4</ele><time>2026-04-12T06:52:50.001Z</time></trkpt><trkpt lat="43.40924108503027" lon="6.652430592246397"><ele>294.8</ele><time>2026-04-12T06:52:51.001Z</time></trkpt><trkpt lat="43.409341521415456" lon="6.652468558048518"><ele>297.2</ele><time>2026-04-12T06:52:52.001Z</time></trkpt><trkpt lat="43.40943389350271" lon="6.652525638143988"><ele>299.6</ele><time>2026-04-12T06:52:53.001Z</time></trkpt><trkpt lat="43.40953287472748" lon="6.652570445984293"><ele>302.0</ele><time>2026-04-12T06:52:54.001Z</time></trkpt><trkpt lat="43.40962694410244" lon="6.652615097428714"><ele>303.1666666666667</ele><time>2026-04-12T06:52:55.001Z</time></trkpt><trkpt lat="43.40972560283097" lon="6.652649971147567"><ele>304.33333333333337</ele><time>2026-04-12T06:52:56.001Z</time></trkpt><trkpt lat="43.40980421758948" lon="6.6526865567387174"><ele>305.5</ele><time>2026-04-12T06:52:57.001Z</time></trkpt><trkpt lat="43.40989122714163" lon="6.652692326131949"><ele>306.6666666666667</ele><time>2026-04-12T06:52:58.001Z</time></trkpt><trkpt lat="43.40993734009593" lon="6.652776898950485"><ele>307.8333333333333</ele><time>2026-04-12T06:52:59.001Z</time></trkpt><trkpt lat="43.4099814367271" lon="6.652848386589023"><ele>309.0</ele><time>2026-04-12T06:53:00.001Z</time></trkpt><trkpt lat="43.410083351544856" lon="6.652923167573853"><ele>306.00000000000006</ele><time>2026-04-12T06:53:02.001Z</time></trkpt><trkpt lat="43.410163168435346" lon="6.652947336931225"><ele>303.0</ele><time>2026-04-12T06:53:03.001Z</time></trkpt><trkpt lat="43.41022831549474" lon="6.652987601053857"><ele>300.0</ele><time>2026-04-12T06:53:04.001Z</time></trkpt><trkpt lat="43.410279588829724" lon="6.653042857391445"><ele>297.0</ele><time>2026-04-12T06:53:05.001Z</time></trkpt><trkpt lat="43.41032641877837" lon="6.653119786420379"><ele>294.0</ele><time>2026-04-12T06:53:06.001Z</time></trkpt><trkpt lat="43.410397818720945" lon="6.6531755201435825"><ele>291.00000000000006</ele><time>2026-04-12T06:53:07.001Z</time></trkpt><trkpt lat="43.41046479295023" lon="6.653216550082496"><ele>288.0</ele><time>2026-04-12T06:53:08.001Z</time></trkpt><trkpt lat="43.41053573352082" lon="6.653217209987781"><ele>286.8333333333333</ele><time>2026-04-12T06:53:09.001Z</time></trkpt><trkpt lat="43.410610423954644" lon="6.653191477655709"><ele>285.6666666666667</ele><time>2026-04-12T06:53:10.001Z</time></trkpt><trkpt lat="43.4106772212343" lon="6.653143962188774"><ele>284.5</ele><time>2026-04-12T06:53:11.001Z</time></trkpt><trkpt lat="43.41075675078188" lon="6.653100781962247"><ele>283.33333333333337</ele><time>2026-04-12T06:53:12.001Z</time></trkpt><trkpt lat="43.41085469314071" lon="6.653091846622446"><ele>282.1666666666667</ele><time>2026-04-12T06:53:13.001Z</time></trkpt><trkpt lat="43.41093874355708" lon="6.653068874137439"><ele>281.0</ele><time>2026-04-12T06:53:14.001Z</time></trkpt><trkpt lat="43.41101696686169" lon="6.653011658755426"><ele>281.0</ele><time>2026-04-12T06:53:15.001Z</time></trkpt><trkpt lat="43.411137992660684" lon="6.652955582729423"><ele>281.0</ele><time>2026-04-12T06:53:17.001Z</time></trkpt><trkpt lat="43.4112076916021" lon="6.652944149067647"><ele>281.0</ele><time>2026-04-12T06:53:18.001Z</time></trkpt><trkpt lat="43.41127183457327" lon="6.652890969917499"><ele>281.0</ele><time>2026-04-12T06:53:19.001Z</time></trkpt><trkpt lat="43.41137368188235" lon="6.652747547124726"><ele>281.0</ele><time>2026-04-12T06:53:21.001Z</time></trkpt><trkpt lat="43.41143728967555" lon="6.652671087194348"><ele>280.6666666666667</ele><time>2026-04-12T06:53:22Z</time></trkpt><trkpt lat="43.4115350387684" lon="6.6526272279578995"><ele>280.33333333333337</ele><time>2026-04-12T06:53:23Z</time></trkpt><trkpt lat="43.41160889433938" lon="6.65259079672635"><ele>280.0</ele><time>2026-04-12T06:53:24Z</time></trkpt><trkpt lat="43.41168983344476" lon="6.652555784795516"><ele>279.6666666666667</ele><time>2026-04-12T06:53:25Z</time></trkpt><trkpt lat="43.411759552319616" lon="6.652538133028154"><ele>279.3333333333333</ele><time>2026-04-12T06:53:26Z</time></trkpt><trkpt lat="43.41183143422122" lon="6.652463972239393"><ele>279.0</ele><time>2026-04-12T06:53:27Z</time></trkpt><trkpt lat="43.41192089436898" lon="6.652435583925816"><ele>279.0</ele><time>2026-04-12T06:53:28Z</time></trkpt><trkpt lat="43.4119588212623" lon="6.652321509834121"><ele>279.0</ele><time>2026-04-12T06:53:31Z</time></trkpt><trkpt lat="43.4120393895002" lon="6.652257401902457"><ele>279.0</ele><time>2026-04-12T06:53:33Z</time></trkpt><trkpt lat="43.41210916406484" lon="6.652215405711002"><ele>279.0</ele><time>2026-04-12T06:53:37Z</time></trkpt><trkpt lat="43.4121349993891" lon="6.652312640028685"><ele>279.0</ele><time>2026-04-12T06:53:39Z</time></trkpt><trkpt lat="43.412187407962236" lon="6.652405630974077"><ele>279.0</ele><time>2026-04-12T06:53:41Z</time></trkpt><trkpt lat="43.41220661227993" lon="6.652528456735498"><ele>274.4</ele><time>2026-04-12T06:53:43Z</time></trkpt><trkpt lat="43.4122682474587" lon="6.652569611514454"><ele>269.79999999999995</ele><time>2026-04-12T06:53:47Z</time></trkpt><trkpt lat="43.412307584079144" lon="6.652692070943093"><ele>265.20000000000005</ele><time>2026-04-12T06:53:51Z</time></trkpt><trkpt lat="43.41231717166002" lon="6.652851455192509"><ele>260.6</ele><time>2026-04-12T06:53:54Z</time></trkpt><trkpt lat="43.41236470378428" lon="6.652947203246842"><ele>256.0</ele><time>2026-04-12T06:53:56Z</time></trkpt><trkpt lat="43.412450122679466" lon="6.652956649174796"><ele>254.16666666666666</ele><time>2026-04-12T06:53:58Z</time></trkpt><trkpt lat="43.41243159516648" lon="6.653071292315991"><ele>252.33333333333331</ele><time>2026-04-12T06:54:00Z</time></trkpt><trkpt lat="43.41246885231162" lon="6.653180799836447"><ele>250.5</ele><time>2026-04-12T06:54:04Z</time></trkpt><trkpt lat="43.41251133439357" lon="6.653262545263769"><ele>248.66666666666669</ele><time>2026-04-12T06:54:06Z</time></trkpt><trkpt lat="43.4125584290065" lon="6.653343329412671"><ele>246.83333333333334</ele><time>2026-04-12T06:54:08Z</time></trkpt><trkpt lat="43.41263004650806" lon="6.653429209206547"><ele>245.0</ele><time>2026-04-12T06:54:10Z</time></trkpt><trkpt lat="43.412664853517384" lon="6.65351515565231"><ele>245.00000000000003</ele><time>2026-04-12T06:54:13Z</time></trkpt><trkpt lat="43.41272534640178" lon="6.653565317537731"><ele>245.0</ele><time>2026-04-12T06:54:16Z</time></trkpt><trkpt lat="43.41276781628497" lon="6.653666642507116"><ele>245.0</ele><time>2026-04-12T06:54:18Z</time></trkpt><trkpt lat="43.41282597657109" lon="6.65372368051641"><ele>245.0</ele><time>2026-04-12T06:54:20Z</time></trkpt><trkpt lat="43.41291331381229" lon="6.653735235096388"><ele>245.00000000000003</ele><time>2026-04-12T06:54:22Z</time></trkpt><trkpt lat="43.41296393556236" lon="6.653791203358321"><ele>245.0</ele><time>2026-04-12T06:54:23Z</time></trkpt><trkpt lat="43.41301353938721" lon="6.653964526691802"><ele>240.6</ele><time>2026-04-12T06:54:25Z</time></trkpt><trkpt lat="43.41308400105959" lon="6.654026933973016"><ele>236.2</ele><time>2026-04-12T06:54:27Z</time></trkpt><trkpt lat="43.4131831012881" lon="6.654021644684744"><ele>231.8</ele><time>2026-04-12T06:54:29Z</time></trkpt><trkpt lat="43.41324519501727" lon="6.654128966873855"><ele>227.4</ele><time>2026-04-12T06:54:30Z</time></trkpt><trkpt lat="43.41330191784522" lon="6.654189306525823"><ele>223.0</ele><time>2026-04-12T06:54:31Z</time></trkpt><trkpt lat="43.41337578295292" lon="6.6543124290906475"><ele>223.0</ele><time>2026-04-12T06:54:33Z</time></trkpt><trkpt lat="43.413431307772306" lon="6.654408469598141"><ele>223.0</ele><time>2026-04-12T06:54:34Z</time></trkpt><trkpt lat="43.41345700512424" lon="6.6545016373623165"><ele>223.0</ele><time>2026-04-12T06:54:35.001Z</time></trkpt><trkpt lat="43.41349246058351" lon="6.654579170034325"><ele>223.0</ele><time>2026-04-12T06:54:36.001Z</time></trkpt><trkpt lat="43.413561668078714" lon="6.654698009918155"><ele>223.0</ele><time>2026-04-12T06:54:37.001Z</time></trkpt><trkpt lat="43.413656920147076" lon="6.654784642751488"><ele>220.60000000000002</ele><time>2026-04-12T06:54:39.001Z</time></trkpt><trkpt lat="43.41364394714518" lon="6.654874618833409"><ele>218.20000000000002</ele><time>2026-04-12T06:54:40.001Z</time></trkpt><trkpt lat="43.41367348932871" lon="6.655062013788145"><ele>215.8</ele><time>2026-04-12T06:54:42.001Z</time></trkpt><trkpt lat="43.41366845625398" lon="6.655203499029175"><ele>213.4</ele><time>2026-04-12T06:54:44.001Z</time></trkpt><trkpt lat="43.413677309842875" lon="6.655295362151854"><ele>211.0</ele><time>2026-04-12T06:54:46.001Z</time></trkpt><trkpt lat="43.41377671503473" lon="6.655362332307693"><ele>208.0</ele><time>2026-04-12T06:54:48.001Z</time></trkpt><trkpt lat="43.41383225043738" lon="6.6554113294734005"><ele>205.0</ele><time>2026-04-12T06:54:50.001Z</time></trkpt><trkpt lat="43.41387983962087" lon="6.65553046823052"><ele>202.0</ele><time>2026-04-12T06:54:52.001Z</time></trkpt><trkpt lat="43.4139582111894" lon="6.655626061285179"><ele>199.0</ele><time>2026-04-12T06:54:55.001Z</time></trkpt><trkpt lat="43.41403253696377" lon="6.655737415593054"><ele>196.0</ele><time>2026-04-12T06:54:57.001Z</time></trkpt><trkpt lat="43.41402460093386" lon="6.655863657245777"><ele>195.99999999999997</ele><time>2026-04-12T06:54:59.001Z</time></trkpt><trkpt lat="43.41397710647563" lon="6.655966830158323"><ele>196.0</ele><time>2026-04-12T06:55:01.001Z</time></trkpt><trkpt lat="43.41400169434353" lon="6.656063970722634"><ele>196.0</ele><time>2026-04-12T06:55:02.001Z</time></trkpt><trkpt lat="43.41405525185088" lon="6.656172863528348"><ele>196.0</ele><time>2026-04-12T06:55:03.001Z</time></trkpt><trkpt lat="43.41410133645732" lon="6.656253006734049"><ele>195.99999999999997</ele><time>2026-04-12T06:55:05.001Z</time></trkpt><trkpt lat="43.414089598780194" lon="6.656386685148542"><ele>196.0</ele><time>2026-04-12T06:55:07.001Z</time></trkpt><trkpt lat="43.41411613539332" lon="6.656483935391069"><ele>192.20000000000002</ele><time>2026-04-12T06:55:09.001Z</time></trkpt><trkpt lat="43.41405432484965" lon="6.656585817148687"><ele>188.4</ele><time>2026-04-12T06:55:12.001Z</time></trkpt><trkpt lat="43.41402397930151" lon="6.656721685613294"><ele>184.6</ele><time>2026-04-12T06:55:14.001Z</time></trkpt><trkpt lat="43.41395579263024" lon="6.656810531366576"><ele>180.8</ele><time>2026-04-12T06:55:16.001Z</time></trkpt><trkpt lat="43.41392193408036" lon="6.656972700003825"><ele>177.0</ele><time>2026-04-12T06:55:18.001Z</time></trkpt><trkpt lat="43.41390034956517" lon="6.657093323170011"><ele>173.6</ele><time>2026-04-12T06:55:20.001Z</time></trkpt><trkpt lat="43.4139859883921" lon="6.657141140312153"><ele>170.2</ele><time>2026-04-12T06:55:22.001Z</time></trkpt><trkpt lat="43.41407615218482" lon="6.657222043122217"><ele>166.8</ele><time>2026-04-12T06:55:24.001Z</time></trkpt><trkpt lat="43.4141210868252" lon="6.6573271622282"><ele>163.4</ele><time>2026-04-12T06:55:26.001Z</time></trkpt><trkpt lat="43.41417086018824" lon="6.6574049557390165"><ele>160.0</ele><time>2026-04-12T06:55:28Z</time></trkpt><trkpt lat="43.414107527249406" lon="6.657503460260364"><ele>160.0</ele><time>2026-04-12T06:55:31Z</time></trkpt><trkpt lat="43.41408697284499" lon="6.6576350397769195"><ele>160.0</ele><time>2026-04-12T06:55:33Z</time></trkpt><trkpt lat="43.414000733253204" lon="6.6577388871467855"><ele>160.0</ele><time>2026-04-12T06:55:35Z</time></trkpt><trkpt lat="43.41392063215231" lon="6.657762868798964"><ele>160.0</ele><time>2026-04-12T06:55:37Z</time></trkpt><trkpt lat="43.4138480699281" lon="6.657763198185296"><ele>160.0</ele><time>2026-04-12T06:55:39Z</time></trkpt><trkpt lat="43.41375325770465" lon="6.657754719010162"><ele>155.83333333333334</ele><time>2026-04-12T06:55:41Z</time></trkpt><trkpt lat="43.41369614166026" lon="6.657805026860813"><ele>151.66666666666669</ele><time>2026-04-12T06:55:43Z</time></trkpt><trkpt lat="43.41374138599496" lon="6.657916189599748"><ele>147.5</ele><time>2026-04-12T06:55:45Z</time></trkpt><trkpt lat="43.41376928596246" lon="6.658048197104297"><ele>143.33333333333334</ele><time>2026-04-12T06:55:47Z</time></trkpt><trkpt lat="43.41379605000729" lon="6.65813618137329"><ele>139.16666666666666</ele><time>2026-04-12T06:55:49Z</time></trkpt><trkpt lat="43.41378086039298" lon="6.658245735378602"><ele>135.0</ele><time>2026-04-12T06:55:51Z</time></trkpt><trkpt lat="43.41378943174562" lon="6.658388414134446"><ele>135.0</ele><time>2026-04-12T06:55:55Z</time></trkpt><trkpt lat="43.41382043761542" lon="6.658526225435052"><ele>135.0</ele><time>2026-04-12T06:55:57Z</time></trkpt><trkpt lat="43.41392228023876" lon="6.658616876997867"><ele>135.0</ele><time>2026-04-12T06:55:59Z</time></trkpt><trkpt lat="43.41397618014009" lon="6.658683183245916"><ele>135.0</ele><time>2026-04-12T06:56:00Z</time></trkpt><trkpt lat="43.41402956779799" lon="6.6587620011734465"><ele>135.0</ele><time>2026-04-12T06:56:01Z</time></trkpt><trkpt lat="43.41410271496631" lon="6.658840681474346"><ele>133.66666666666666</ele><time>2026-04-12T06:56:03Z</time></trkpt><trkpt lat="43.414195574133345" lon="6.658866775070661"><ele>132.33333333333334</ele><time>2026-04-12T06:56:05Z</time></trkpt><trkpt lat="43.41428698874069" lon="6.658851382859015"><ele>131.0</ele><time>2026-04-12T06:56:08Z</time></trkpt><trkpt lat="43.41436188189211" lon="6.658887976328308"><ele>129.66666666666669</ele><time>2026-04-12T06:56:10Z</time></trkpt><trkpt lat="43.414431183771065" lon="6.65893075091722"><ele>128.33333333333334</ele><time>2026-04-12T06:56:12Z</time></trkpt><trkpt lat="43.41448448584898" lon="6.659008489861685"><ele>127.0</ele><time>2026-04-12T06:56:14Z</time></trkpt><trkpt lat="43.414488670643536" lon="6.6591259463972"><ele>127.00000000000001</ele><time>2026-04-12T06:56:16Z</time></trkpt><trkpt lat="43.41453077600136" lon="6.659194885061816"><ele>127.0</ele><time>2026-04-12T06:56:18Z</time></trkpt><trkpt lat="43.41458495423198" lon="6.659350947882342"><ele>127.0</ele><time>2026-04-12T06:56:20Z</time></trkpt><trkpt lat="43.41459539615185" lon="6.659441972430906"><ele>127.0</ele><time>2026-04-12T06:56:21Z</time></trkpt><trkpt lat="43.414617122209904" lon="6.6595555489185285"><ele>127.00000000000001</ele><time>2026-04-12T06:56:23Z</time></trkpt><trkpt lat="43.41465423513504" lon="6.659655923244634"><ele>127.0</ele><time>2026-04-12T06:56:25Z</time></trkpt><trkpt lat="43.41459460746872" lon="6.659739611538249"><ele>124.42857142857143</ele><time>2026-04-12T06:56:27Z</time></trkpt><trkpt lat="43.41452737171612" lon="6.659748371299007"><ele>121.85714285714285</ele><time>2026-04-12T06:56:29Z</time></trkpt><trkpt lat="43.41445502736521" lon="6.659719232052016"><ele>119.28571428571428</ele><time>2026-04-12T06:56:33Z</time></trkpt><trkpt lat="43.41439096984554" lon="6.659777089494031"><ele>116.71428571428572</ele><time>2026-04-12T06:56:36Z</time></trkpt><trkpt lat="43.414361370064036" lon="6.659888393756556"><ele>114.14285714285714</ele><time>2026-04-12T06:56:38Z</time></trkpt><trkpt lat="43.41428917553434" lon="6.659904170306169"><ele>111.57142857142857</ele><time>2026-04-12T06:56:41Z</time></trkpt><trkpt lat="43.41422715981219" lon="6.659944956410316"><ele>109.0</ele><time>2026-04-12T06:56:42Z</time></trkpt><trkpt lat="43.41413041061642" lon="6.660011706506555"><ele>109.0</ele><time>2026-04-12T06:56:44Z</time></trkpt><trkpt lat="43.41399702641035" lon="6.660048887322042"><ele>109.0</ele><time>2026-04-12T06:56:46Z</time></trkpt><trkpt lat="43.413921378555656" lon="6.660083452144727"><ele>109.0</ele><time>2026-04-12T06:56:47.001Z</time></trkpt><trkpt lat="43.413855231035974" lon="6.66011251034415"><ele>109.0</ele><time>2026-04-12T06:56:48.001Z</time></trkpt><trkpt lat="43.41376033191355" lon="6.660219624886291"><ele>109.0</ele><time>2026-04-12T06:56:50.001Z</time></trkpt><trkpt lat="43.4137431259192" lon="6.660338828035325"><ele>105.80000000000001</ele><time>2026-04-12T06:56:52.001Z</time></trkpt><trkpt lat="43.41365952341513" lon="6.660393929266161"><ele>102.60000000000001</ele><time>2026-04-12T06:56:54.001Z</time></trkpt><trkpt lat="43.413600776227874" lon="6.660434267070279"><ele>99.4</ele><time>2026-04-12T06:56:56.001Z</time></trkpt><trkpt lat="43.41353790465345" lon="6.660512214824339"><ele>96.2</ele><time>2026-04-12T06:57:00.001Z</time></trkpt><trkpt lat="43.41357067678727" lon="6.6606769689616545"><ele>93.0</ele><time>2026-04-12T06:57:03.001Z</time></trkpt><trkpt lat="43.41354678940476" lon="6.660930376260205"><ele>93.0</ele><time>2026-04-12T06:57:05.001Z</time></trkpt><trkpt lat="43.41357767886986" lon="6.661021292648593"><ele>93.0</ele><time>2026-04-12T06:57:06.001Z</time></trkpt><trkpt lat="43.413521622900426" lon="6.661152517600678"><ele>93.0</ele><time>2026-04-12T06:57:08.001Z</time></trkpt><trkpt lat="43.41343219982596" lon="6.661192851870431"><ele>93.0</ele><time>2026-04-12T06:57:10.001Z</time></trkpt><trkpt lat="43.413362263696406" lon="6.661274075806823"><ele>93.0</ele><time>2026-04-12T06:57:12.001Z</time></trkpt><trkpt lat="43.41327024119431" lon="6.661262876252708"><ele>91.4</ele><time>2026-04-12T06:57:14.001Z</time></trkpt><trkpt lat="43.41321731996727" lon="6.66132847292404"><ele>89.80000000000001</ele><time>2026-04-12T06:57:16.001Z</time></trkpt><trkpt lat="43.41316286156528" lon="6.661423750705658"><ele>88.2</ele><time>2026-04-12T06:57:18.001Z</time></trkpt><trkpt lat="43.41305543181883" lon="6.6614582270232905"><ele>86.6</ele><time>2026-04-12T06:57:20.001Z</time></trkpt><trkpt lat="43.4129967281736" lon="6.66153935902147"><ele>85.0</ele><time>2026-04-12T06:57:22.001Z</time></trkpt><trkpt lat="43.41290532706571" lon="6.661615381749949"><ele>84.5</ele><time>2026-04-12T06:57:24.001Z</time></trkpt><trkpt lat="43.41288629738207" lon="6.661707982028821"><ele>84.0</ele><time>2026-04-12T06:57:26.001Z</time></trkpt><trkpt lat="43.412845098280094" lon="6.661794567067078"><ele>83.5</ele><time>2026-04-12T06:57:28.001Z</time></trkpt><trkpt lat="43.41278518867599" lon="6.661862123912857"><ele>83.0</ele><time>2026-04-12T06:57:31.001Z</time></trkpt><trkpt lat="43.41269674993211" lon="6.6619278061705485"><ele>82.5</ele><time>2026-04-12T06:57:34Z</time></trkpt><trkpt lat="43.41264209619555" lon="6.661980170557426"><ele>82.0</ele><time>2026-04-12T06:57:37Z</time></trkpt><trkpt lat="43.412572501653806" lon="6.662052079431052"><ele>82.0</ele><time>2026-04-12T06:57:40Z</time></trkpt><trkpt lat="43.412530656368496" lon="6.661979685912915"><ele>82.0</ele><time>2026-04-12T06:57:54Z</time></trkpt><trkpt lat="43.41247216383042" lon="6.661863917500899"><ele>82.0</ele><time>2026-04-12T06:57:57Z</time></trkpt><trkpt lat="43.41240264151806" lon="6.661772480984668"><ele>82.0</ele><time>2026-04-12T06:57:59Z</time></trkpt><trkpt lat="43.412351412555424" lon="6.661694625139207"><ele>82.0</ele><time>2026-04-12T06:58:01Z</time></trkpt><trkpt lat="43.41232274906106" lon="6.6615903421155025"><ele>82.0</ele><time>2026-04-12T06:58:03Z</time></trkpt><trkpt lat="43.412287234511815" lon="6.661429316098785"><ele>82.0</ele><time>2026-04-12T06:58:05Z</time></trkpt><trkpt lat="43.41227334160581" lon="6.661304963069132"><ele>82.0</ele><time>2026-04-12T06:58:07Z</time></trkpt><trkpt lat="43.41223227387994" lon="6.66116490347976"><ele>82.0</ele><time>2026-04-12T06:58:10Z</time></trkpt><trkpt lat="43.41223367358617" lon="6.661059856516653"><ele>82.0</ele><time>2026-04-12T06:58:12Z</time></trkpt><trkpt lat="43.41222832968861" lon="6.660958722289278"><ele>82.0</ele><time>2026-04-12T06:58:14Z</time></trkpt><trkpt lat="43.41221033870075" lon="6.660874304569172"><ele>82.0</ele><time>2026-04-12T06:58:16Z</time></trkpt><trkpt lat="43.41220672561718" lon="6.660764673310705"><ele>85.99999999999999</ele><time>2026-04-12T06:58:19Z</time></trkpt><trkpt lat="43.412153100525956" lon="6.660683488141597"><ele>90.0</ele><time>2026-04-12T06:58:21Z</time></trkpt><trkpt lat="43.4121070906945" lon="6.660612584168252"><ele>94.0</ele><time>2026-04-12T06:58:23Z</time></trkpt><trkpt lat="43.41204936710881" lon="6.660562396278714"><ele>98.0</ele><time>2026-04-12T06:58:27Z</time></trkpt><trkpt lat="43.411997241523636" lon="6.6605001346457255"><ele>102.0</ele><time>2026-04-12T06:58:29Z</time></trkpt><trkpt lat="43.41195213731894" lon="6.660438422239669"><ele>105.99999999999999</ele><time>2026-04-12T06:58:33Z</time></trkpt><trkpt lat="43.41191714259436" lon="6.660329340319217"><ele>110.0</ele><time>2026-04-12T06:58:37Z</time></trkpt><trkpt lat="43.411883803999636" lon="6.660222711569484"><ele>111.99999999999999</ele><time>2026-04-12T06:58:40Z</time></trkpt><trkpt lat="43.411827141020524" lon="6.660125505243347"><ele>114.0</ele><time>2026-04-12T06:58:43Z</time></trkpt><trkpt lat="43.4117621066858" lon="6.660111112081536"><ele>116.0</ele><time>2026-04-12T06:58:45Z</time></trkpt><trkpt lat="43.411691110189174" lon="6.660127961455249"><ele>118.0</ele><time>2026-04-12T06:58:48Z</time></trkpt><trkpt lat="43.41161462076305" lon="6.660138862233555"><ele>119.99999999999999</ele><time>2026-04-12T06:58:50Z</time></trkpt><trkpt lat="43.4115148198221" lon="6.660108769579013"><ele>122.0</ele><time>2026-04-12T06:58:53Z</time></trkpt><trkpt lat="43.41141564956208" lon="6.660110042110494"><ele>121.99999999999999</ele><time>2026-04-12T06:58:56Z</time></trkpt><trkpt lat="43.411335276168664" lon="6.660092030488228"><ele>122.0</ele><time>2026-04-12T06:59:00.001Z</time></trkpt><trkpt lat="43.41128001406497" lon="6.660045860737644"><ele>122.0</ele><time>2026-04-12T06:59:02.001Z</time></trkpt><trkpt lat="43.41122184893337" lon="6.660002595879834"><ele>122.0</ele><time>2026-04-12T06:59:05.001Z</time></trkpt><trkpt lat="43.411137490694976" lon="6.65993641561703"><ele>121.99999999999999</ele><time>2026-04-12T06:59:07.001Z</time></trkpt><trkpt lat="43.41106369098832" lon="6.659877803099619"><ele>122.0</ele><time>2026-04-12T06:59:10.001Z</time></trkpt><trkpt lat="43.41101757414571" lon="6.659816701428005"><ele>125.16666666666666</ele><time>2026-04-12T06:59:12.001Z</time></trkpt><trkpt lat="43.410959900707724" lon="6.659684994149729"><ele>128.33333333333331</ele><time>2026-04-12T06:59:14.001Z</time></trkpt><trkpt lat="43.41092207686022" lon="6.659571996425962"><ele>131.5</ele><time>2026-04-12T06:59:16.001Z</time></trkpt><trkpt lat="43.41088001076889" lon="6.659490646426066"><ele>134.66666666666666</ele><time>2026-04-12T06:59:19.001Z</time></trkpt><trkpt lat="43.410842869284785" lon="6.659396178943093"><ele>137.83333333333334</ele><time>2026-04-12T06:59:23.001Z</time></trkpt><trkpt lat="43.41079410573695" lon="6.659295178150392"><ele>141.0</ele><time>2026-04-12T06:59:26.001Z</time></trkpt><trkpt lat="43.41075347945543" lon="6.659217474431706"><ele>144.5</ele><time>2026-04-12T06:59:29.001Z</time></trkpt><trkpt lat="43.41068894790818" lon="6.659143687212179"><ele>148.0</ele><time>2026-04-12T06:59:32.001Z</time></trkpt><trkpt lat="43.41059284004822" lon="6.659031077401758"><ele>151.5</ele><time>2026-04-12T06:59:35.001Z</time></trkpt><trkpt lat="43.41053161437376" lon="6.658988867225492"><ele>155.0</ele><time>2026-04-12T06:59:37.001Z</time></trkpt><trkpt lat="43.41045671357139" lon="6.658935582227561"><ele>158.5</ele><time>2026-04-12T06:59:39.001Z</time></trkpt><trkpt lat="43.41042505715271" lon="6.658859883078927"><ele>162.0</ele><time>2026-04-12T06:59:41Z</time></trkpt><trkpt lat="43.41042128426023" lon="6.658744504605164"><ele>162.6</ele><time>2026-04-12T06:59:43Z</time></trkpt><trkpt lat="43.4103655403408" lon="6.658628561421934"><ele>163.2</ele><time>2026-04-12T06:59:45Z</time></trkpt><trkpt lat="43.41029876002292" lon="6.658602804576016"><ele>163.8</ele><time>2026-04-12T06:59:47Z</time></trkpt><trkpt lat="43.410273574852624" lon="6.658477724861832"><ele>164.4</ele><time>2026-04-12T06:59:49Z</time></trkpt><trkpt lat="43.4102654950467" lon="6.658373936336734"><ele>165.0</ele><time>2026-04-12T06:59:51Z</time></trkpt><trkpt lat="43.41027176893231" lon="6.658132981658877"><ele>167.5</ele><time>2026-04-12T06:59:53Z</time></trkpt><trkpt lat="43.41026704862772" lon="6.658027022491923"><ele>170.0</ele><time>2026-04-12T06:59:54Z</time></trkpt><trkpt lat="43.410320217259134" lon="6.657857672570993"><ele>172.5</ele><time>2026-04-12T06:59:56Z</time></trkpt><trkpt lat="43.41039877495136" lon="6.657846242659414"><ele>175.0</ele><time>2026-04-12T06:59:57Z</time></trkpt><trkpt lat="43.41042673027364" lon="6.657762575431148"><ele>177.5</ele><time>2026-04-12T06:59:58Z</time></trkpt><trkpt lat="43.41044664122324" lon="6.65767689757035"><ele>180.0</ele><time>2026-04-12T06:59:59Z</time></trkpt><trkpt lat="43.41044171940091" lon="6.657578529845114"><ele>182.0</ele><time>2026-04-12T07:00:00Z</time></trkpt><trkpt lat="43.4104336818515" lon="6.657470020651945"><ele>184.0</ele><time>2026-04-12T07:00:01Z</time></trkpt><trkpt lat="43.41041991088521" lon="6.657327435610193"><ele>186.0</ele><time>2026-04-12T07:00:02Z</time></trkpt><trkpt lat="43.410411295230126" lon="6.657195977967736"><ele>188.0</ele><time>2026-04-12T07:00:03Z</time></trkpt><trkpt lat="43.41041541468947" lon="6.65708572579353"><ele>190.0</ele><time>2026-04-12T07:00:04Z</time></trkpt><trkpt lat="43.41040583738056" lon="6.656969206709942"><ele>192.0</ele><time>2026-04-12T07:00:05Z</time></trkpt><trkpt lat="43.41040408344908" lon="6.656858128524509"><ele>194.0</ele><time>2026-04-12T07:00:06Z</time></trkpt><trkpt lat="43.41039582924683" lon="6.656763655435951"><ele>196.0</ele><time>2026-04-12T07:00:07Z</time></trkpt><trkpt lat="43.41042142128387" lon="6.656585080788162"><ele>198.0</ele><time>2026-04-12T07:00:09Z</time></trkpt><trkpt lat="43.4104217149048" lon="6.6564703823054785"><ele>200.0</ele><time>2026-04-12T07:00:10Z</time></trkpt><trkpt lat="43.410404365347226" lon="6.656367833852168"><ele>202.0</ele><time>2026-04-12T07:00:11Z</time></trkpt><trkpt lat="43.41041434761345" lon="6.656250644589091"><ele>204.0</ele><time>2026-04-12T07:00:13Z</time></trkpt><trkpt lat="43.41048737823454" lon="6.656147137012119"><ele>206.0</ele><time>2026-04-12T07:00:15Z</time></trkpt><trkpt lat="43.41051430319862" lon="6.656017244196841"><ele>208.0</ele><time>2026-04-12T07:00:17Z</time></trkpt><trkpt lat="43.410482276048576" lon="6.655914753722346"><ele>210.0</ele><time>2026-04-12T07:00:18Z</time></trkpt><trkpt lat="43.410433610161846" lon="6.655803231149558"><ele>212.0</ele><time>2026-04-12T07:00:19Z</time></trkpt><trkpt lat="43.41040330484999" lon="6.655708180753583"><ele>214.0</ele><time>2026-04-12T07:00:20Z</time></trkpt><trkpt lat="43.41036801276768" lon="6.6555969304383416"><ele>216.0</ele><time>2026-04-12T07:00:21Z</time></trkpt><trkpt lat="43.41033841895964" lon="6.655486308847569"><ele>216.5</ele><time>2026-04-12T07:00:22Z</time></trkpt><trkpt lat="43.4103115980707" lon="6.655374834222724"><ele>217.0</ele><time>2026-04-12T07:00:23Z</time></trkpt><trkpt lat="43.4103218971218" lon="6.655264508275276"><ele>217.5</ele><time>2026-04-12T07:00:25Z</time></trkpt><trkpt lat="43.41033951531441" lon="6.655177806946883"><ele>218.0</ele><time>2026-04-12T07:00:26Z</time></trkpt><trkpt lat="43.41035820920988" lon="6.655081068179381"><ele>218.5</ele><time>2026-04-12T07:00:27Z</time></trkpt><trkpt lat="43.41034613459881" lon="6.654929721245968"><ele>219.0</ele><time>2026-04-12T07:00:29Z</time></trkpt><trkpt lat="43.41033336507107" lon="6.654843377013783"><ele>222.79999999999998</ele><time>2026-04-12T07:00:30Z</time></trkpt><trkpt lat="43.41029916131234" lon="6.654742928335749"><ele>226.59999999999997</ele><time>2026-04-12T07:00:31Z</time></trkpt><trkpt lat="43.41028517465702" lon="6.654633658850687"><ele>230.4</ele><time>2026-04-12T07:00:32Z</time></trkpt><trkpt lat="43.41027964495455" lon="6.654460346650435"><ele>234.2</ele><time>2026-04-12T07:00:34Z</time></trkpt><trkpt lat="43.41031892829148" lon="6.6543547257991555"><ele>238.0</ele><time>2026-04-12T07:00:35Z</time></trkpt><trkpt lat="43.41033193602173" lon="6.654234167177172"><ele>241.99999999999997</ele><time>2026-04-12T07:00:36Z</time></trkpt><trkpt lat="43.41034046697397" lon="6.654121510824318"><ele>246.0</ele><time>2026-04-12T07:00:37Z</time></trkpt><trkpt lat="43.410351182405805" lon="6.653995208887105"><ele>250.0</ele><time>2026-04-12T07:00:38Z</time></trkpt><trkpt lat="43.41034140714848" lon="6.6538780599103795"><ele>254.0</ele><time>2026-04-12T07:00:39Z</time></trkpt><trkpt lat="43.41029832343098" lon="6.653776691801968"><ele>258.0</ele><time>2026-04-12T07:00:40Z</time></trkpt><trkpt lat="43.41021571302711" lon="6.653692687836626"><ele>262.0</ele><time>2026-04-12T07:00:41Z</time></trkpt><trkpt lat="43.4101463285748" lon="6.653513247035478"><ele>267.2</ele><time>2026-04-12T07:00:43Z</time></trkpt><trkpt lat="43.410126314375276" lon="6.65341983082581"><ele>272.4</ele><time>2026-04-12T07:00:45Z</time></trkpt><trkpt lat="43.410084373170484" lon="6.653244193563995"><ele>277.6</ele><time>2026-04-12T07:00:47Z</time></trkpt><trkpt lat="43.41008667999867" lon="6.653135143392919"><ele>282.8</ele><time>2026-04-12T07:00:48Z</time></trkpt><trkpt lat="43.41011586111078" lon="6.652974818605635"><ele>288.0</ele><time>2026-04-12T07:00:50Z</time></trkpt><trkpt lat="43.41005166061464" lon="6.652911766984818"><ele>288.0</ele><time>2026-04-12T07:00:52Z</time></trkpt><trkpt lat="43.40998296174283" lon="6.652881404231103"><ele>288.0</ele><time>2026-04-12T07:00:55.001Z</time></trkpt><trkpt lat="43.41006123802351" lon="6.65294568543668"><ele>288.0</ele><time>2026-04-12T07:01:02.001Z</time></trkpt><trkpt lat="43.41012144766038" lon="6.652973049613785"><ele>288.0</ele><time>2026-04-12T07:01:04.001Z</time></trkpt><trkpt lat="43.41021571556214" lon="6.652995068153188"><ele>288.0</ele><time>2026-04-12T07:01:06.001Z</time></trkpt><trkpt lat="43.41029627038797" lon="6.653023432025146"><ele>288.0</ele><time>2026-04-12T07:01:08.001Z</time></trkpt><trkpt lat="43.41037925392177" lon="6.653113626805996"><ele>288.0</ele><time>2026-04-12T07:01:10.001Z</time></trkpt><trkpt lat="43.41042820818356" lon="6.65317220073138"><ele>288.0</ele><time>2026-04-12T07:01:11.001Z</time></trkpt><trkpt lat="43.41053782715365" lon="6.653212576420201"><ele>288.0</ele><time>2026-04-12T07:01:13.001Z</time></trkpt><trkpt lat="43.410606061958454" lon="6.653187661087118"><ele>288.0</ele><time>2026-04-12T07:01:14.001Z</time></trkpt><trkpt lat="43.410663235948334" lon="6.653129162245531"><ele>288.0</ele><time>2026-04-12T07:01:15.001Z</time></trkpt><trkpt lat="43.410809655074225" lon="6.653084122888693"><ele>286.25</ele><time>2026-04-12T07:01:16.001Z</time></trkpt><trkpt lat="43.41093984630718" lon="6.653041403578854"><ele>284.5</ele><time>2026-04-12T07:01:17.001Z</time></trkpt><trkpt lat="43.41104855754631" lon="6.6530129497122275"><ele>282.75</ele><time>2026-04-12T07:01:18.001Z</time></trkpt><trkpt lat="43.41117508771995" lon="6.652906459103485"><ele>281.0</ele><time>2026-04-12T07:01:20.001Z</time></trkpt><trkpt lat="43.41125618335842" lon="6.652820582130521"><ele>280.6</ele><time>2026-04-12T07:01:21.001Z</time></trkpt><trkpt lat="43.41130797882149" lon="6.652699163630579"><ele>280.20000000000005</ele><time>2026-04-12T07:01:22.001Z</time></trkpt><trkpt lat="43.41138976649578" lon="6.652650482733374"><ele>279.79999999999995</ele><time>2026-04-12T07:01:23.001Z</time></trkpt><trkpt lat="43.41151147047365" lon="6.652622256798017"><ele>279.4</ele><time>2026-04-12T07:01:24.001Z</time></trkpt><trkpt lat="43.411628992051554" lon="6.652579634099545"><ele>279.0</ele><time>2026-04-12T07:01:25.001Z</time></trkpt><trkpt lat="43.411740281885535" lon="6.652554426219927"><ele>279.0</ele><time>2026-04-12T07:01:26.001Z</time></trkpt><trkpt lat="43.411836648975665" lon="6.6525031942676955"><ele>279.0</ele><time>2026-04-12T07:01:27.001Z</time></trkpt><trkpt lat="43.41194562552042" lon="6.6524704246878645"><ele>279.0</ele><time>2026-04-12T07:01:28.001Z</time></trkpt><trkpt lat="43.411984487573314" lon="6.652321462482497"><ele>279.0</ele><time>2026-04-12T07:01:30.001Z</time></trkpt><trkpt lat="43.412022181595304" lon="6.6522209797604726"><ele>279.0</ele><time>2026-04-12T07:01:33.001Z</time></trkpt><trkpt lat="43.411956112456544" lon="6.6521687303032895"><ele>279.0</ele><time>2026-04-12T07:01:36.001Z</time></trkpt><trkpt lat="43.41189599035207" lon="6.652102446031068"><ele>279.0</ele><time>2026-04-12T07:01:38.001Z</time></trkpt><trkpt lat="43.4118108042075" lon="6.652037439037639"><ele>279.0</ele><time>2026-04-12T07:01:40.001Z</time></trkpt><trkpt lat="43.41171888347769" lon="6.651980002054257"><ele>279.0</ele><time>2026-04-12T07:01:44.001Z</time></trkpt><trkpt lat="43.41163098706513" lon="6.651923858199633"><ele>279.0</ele><time>2026-04-12T07:01:46Z</time></trkpt><trkpt lat="43.41152505267011" lon="6.65194957569368"><ele>279.0</ele><time>2026-04-12T07:01:50Z</time></trkpt><trkpt lat="43.41142269968866" lon="6.651973331177383"><ele>279.0</ele><time>2026-04-12T07:01:52Z</time></trkpt><trkpt lat="43.411339793790404" lon="6.651977822610646"><ele>279.0</ele><time>2026-04-12T07:01:54Z</time></trkpt><trkpt lat="43.41130745832409" lon="6.651879468430549"><ele>279.0</ele><time>2026-04-12T07:01:57Z</time></trkpt><trkpt lat="43.411248211318686" lon="6.651834016042279"><ele>279.0</ele><time>2026-04-12T07:01:59Z</time></trkpt><trkpt lat="43.41117917793033" lon="6.651839347371627"><ele>279.0</ele><time>2026-04-12T07:02:01Z</time></trkpt><trkpt lat="43.41113181133377" lon="6.651994028001979"><ele>283.59999999999997</ele><time>2026-04-12T07:02:03Z</time></trkpt><trkpt lat="43.41100271195329" lon="6.652021184054896"><ele>288.2</ele><time>2026-04-12T07:02:05Z</time></trkpt><trkpt lat="43.41093362410853" lon="6.651993672355521"><ele>292.79999999999995</ele><time>2026-04-12T07:02:07Z</time></trkpt><trkpt lat="43.41088109778845" lon="6.651933798215913"><ele>297.4</ele><time>2026-04-12T07:02:11Z</time></trkpt><trkpt lat="43.41077630647532" lon="6.651932256414445"><ele>302.0</ele><time>2026-04-12T07:02:14Z</time></trkpt><trkpt lat="43.41063324735879" lon="6.652051600619065"><ele>302.0</ele><time>2026-04-12T07:02:16Z</time></trkpt><trkpt lat="43.410556057717386" lon="6.652045134489225"><ele>302.0</ele><time>2026-04-12T07:02:18Z</time></trkpt><trkpt lat="43.41041911165885" lon="6.652066429561692"><ele>302.0</ele><time>2026-04-12T07:02:20Z</time></trkpt><trkpt lat="43.41035327240808" lon="6.65203377581433"><ele>302.0</ele><time>2026-04-12T07:02:22Z</time></trkpt><trkpt lat="43.41032710045177" lon="6.651918818504885"><ele>302.0</ele><time>2026-04-12T07:02:26Z</time></trkpt><trkpt lat="43.41030918203593" lon="6.6518005672173715"><ele>305.83333333333337</ele><time>2026-04-12T07:02:30Z</time></trkpt><trkpt lat="43.41037210723159" lon="6.651720698180454"><ele>309.6666666666667</ele><time>2026-04-12T07:02:32Z</time></trkpt><trkpt lat="43.41038574169512" lon="6.651607775491214"><ele>313.5</ele><time>2026-04-12T07:02:35Z</time></trkpt><trkpt lat="43.41036612081037" lon="6.651498467456637"><ele>317.3333333333333</ele><time>2026-04-12T07:02:38Z</time></trkpt><trkpt lat="43.41026429816458" lon="6.651528555067763"><ele>321.16666666666663</ele><time>2026-04-12T07:02:40Z</time></trkpt><trkpt lat="43.41019035413157" lon="6.65152780970411"><ele>325.0</ele><time>2026-04-12T07:02:42Z</time></trkpt><trkpt lat="43.41015302499187" lon="6.651429648110847"><ele>325.0</ele><time>2026-04-12T07:02:45Z</time></trkpt><trkpt lat="43.410058764604806" lon="6.651383104973655"><ele>325.0</ele><time>2026-04-12T07:02:47Z</time></trkpt><trkpt lat="43.40996321396391" lon="6.651294918760809"><ele>325.0</ele><time>2026-04-12T07:02:49Z</time></trkpt><trkpt lat="43.40993038903103" lon="6.651180821145817"><ele>325.0</ele><time>2026-04-12T07:02:51Z</time></trkpt><trkpt lat="43.409847604098175" lon="6.651204417010274"><ele>325.0</ele><time>2026-04-12T07:02:54Z</time></trkpt><trkpt lat="43.40978613718482" lon="6.6512283490048585"><ele>325.0</ele><time>2026-04-12T07:02:55Z</time></trkpt><trkpt lat="43.40966706942485" lon="6.651140500353129"><ele>325.0</ele><time>2026-04-12T07:02:57Z</time></trkpt><trkpt lat="43.40960405963377" lon="6.6510696402355975"><ele>325.0</ele><time>2026-04-12T07:02:58Z</time></trkpt><trkpt lat="43.4094964701208" lon="6.651025732300693"><ele>325.0</ele><time>2026-04-12T07:03:00Z</time></trkpt><trkpt lat="43.40942933300107" lon="6.650962140233278"><ele>325.0</ele><time>2026-04-12T07:03:02Z</time></trkpt><trkpt lat="43.409366931540085" lon="6.650922381468405"><ele>325.4</ele><time>2026-04-12T07:03:05Z</time></trkpt><trkpt lat="43.409391798201156" lon="6.650804255381453"><ele>325.8</ele><time>2026-04-12T07:03:08.001Z</time></trkpt><trkpt lat="43.40938999874628" lon="6.650677100151075"><ele>326.20000000000005</ele><time>2026-04-12T07:03:11.001Z</time></trkpt><trkpt lat="43.40944597849577" lon="6.650594183944159"><ele>326.6</ele><time>2026-04-12T07:03:14.001Z</time></trkpt><trkpt lat="43.409528179139244" lon="6.650584075243263"><ele>327.0</ele><time>2026-04-12T07:03:16.001Z</time></trkpt><trkpt lat="43.409657483535426" lon="6.650604687878948"><ele>325.8</ele><time>2026-04-12T07:03:18.001Z</time></trkpt><trkpt lat="43.40972392129278" lon="6.650598151591163"><ele>324.6</ele><time>2026-04-12T07:03:19.001Z</time></trkpt><trkpt lat="43.40983755959344" lon="6.650647271647609"><ele>323.40000000000003</ele><time>2026-04-12T07:03:21.001Z</time></trkpt><trkpt lat="43.40997191710964" lon="6.650681575667949"><ele>322.20000000000005</ele><time>2026-04-12T07:03:23.001Z</time></trkpt><trkpt lat="43.4100351850165" lon="6.65070248471382"><ele>321.0</ele><time>2026-04-12T07:03:24.001Z</time></trkpt><trkpt lat="43.41010579636109" lon="6.650717184623851"><ele>321.0</ele><time>2026-04-12T07:03:25.001Z</time></trkpt><trkpt lat="43.410168750376286" lon="6.650755897655959"><ele>321.0</ele><time>2026-04-12T07:03:26.001Z</time></trkpt><trkpt lat="43.41024070104845" lon="6.650798186507299"><ele>321.0</ele><time>2026-04-12T07:03:27.001Z</time></trkpt><trkpt lat="43.41031748048" lon="6.6508516891830505"><ele>321.0</ele><time>2026-04-12T07:03:28.001Z</time></trkpt><trkpt lat="43.41039953039073" lon="6.650909585547911"><ele>321.0</ele><time>2026-04-12T07:03:29.001Z</time></trkpt><trkpt lat="43.41047103009663" lon="6.650959090596762"><ele>321.0</ele><time>2026-04-12T07:03:30.001Z</time></trkpt><trkpt lat="43.410533340728385" lon="6.651012084135723"><ele>319.5</ele><time>2026-04-12T07:03:31.001Z</time></trkpt><trkpt lat="43.41057981172556" lon="6.65108307446313"><ele>318.0</ele><time>2026-04-12T07:03:32.001Z</time></trkpt><trkpt lat="43.41063258246413" lon="6.651155960160422"><ele>316.5</ele><time>2026-04-12T07:03:33.001Z</time></trkpt><trkpt lat="43.41067361890839" lon="6.651234032996695"><ele>315.0</ele><time>2026-04-12T07:03:34.001Z</time></trkpt><trkpt lat="43.41071125653817" lon="6.651306428612095"><ele>313.5</ele><time>2026-04-12T07:03:35.001Z</time></trkpt><trkpt lat="43.410828930573444" lon="6.651363410906913"><ele>312.0</ele><time>2026-04-12T07:03:37.001Z</time></trkpt><trkpt lat="43.41091389137994" lon="6.651381679040848"><ele>312.0</ele><time>2026-04-12T07:03:38.001Z</time></trkpt><trkpt lat="43.41098522362893" lon="6.6514049892771805"><ele>312.0</ele><time>2026-04-12T07:03:39.001Z</time></trkpt><trkpt lat="43.41106249484052" lon="6.651427126832027"><ele>312.0</ele><time>2026-04-12T07:03:40.001Z</time></trkpt><trkpt lat="43.411128751905004" lon="6.651447226642408"><ele>312.0</ele><time>2026-04-12T07:03:41.001Z</time></trkpt><trkpt lat="43.411196177945335" lon="6.651437728210737"><ele>312.0</ele><time>2026-04-12T07:03:42.001Z</time></trkpt><trkpt lat="43.41125915531628" lon="6.651414636179484"><ele>312.0</ele><time>2026-04-12T07:03:43.001Z</time></trkpt><trkpt lat="43.41132611163025" lon="6.651382169098145"><ele>312.0</ele><time>2026-04-12T07:03:44.001Z</time></trkpt><trkpt lat="43.411400236191774" lon="6.651381134599909"><ele>308.5714285714286</ele><time>2026-04-12T07:03:45.001Z</time></trkpt><trkpt lat="43.411460647092376" lon="6.6514110875198575"><ele>305.1428571428571</ele><time>2026-04-12T07:03:46.001Z</time></trkpt><trkpt lat="43.41152738621025" lon="6.65146508370945"><ele>301.7142857142857</ele><time>2026-04-12T07:03:47.001Z</time></trkpt><trkpt lat="43.41159878773807" lon="6.651528154518575"><ele>298.28571428571433</ele><time>2026-04-12T07:03:48.001Z</time></trkpt><trkpt lat="43.411670280329695" lon="6.651559496642394"><ele>294.8571428571429</ele><time>2026-04-12T07:03:49.001Z</time></trkpt><trkpt lat="43.41173741755135" lon="6.6515874502914345"><ele>291.42857142857144</ele><time>2026-04-12T07:03:50.001Z</time></trkpt><trkpt lat="43.411791273473476" lon="6.651632651688593"><ele>288.0</ele><time>2026-04-12T07:03:51.001Z</time></trkpt><trkpt lat="43.411828498596094" lon="6.651704977231668"><ele>288.0</ele><time>2026-04-12T07:03:52Z</time></trkpt><trkpt lat="43.411850083927575" lon="6.651801455556261"><ele>288.0</ele><time>2026-04-12T07:03:53Z</time></trkpt><trkpt lat="43.411860262668604" lon="6.651906722372934"><ele>288.0</ele><time>2026-04-12T07:03:54Z</time></trkpt><trkpt lat="43.411860099331804" lon="6.65201268287459"><ele>288.0</ele><time>2026-04-12T07:03:55Z</time></trkpt><trkpt lat="43.41187085820336" lon="6.6520991605885"><ele>288.0</ele><time>2026-04-12T07:03:57Z</time></trkpt><trkpt lat="43.41195834132102" lon="6.652146839405105"><ele>288.0</ele><time>2026-04-12T07:04:00Z</time></trkpt><trkpt lat="43.41201868241328" lon="6.65219881647826"><ele>286.7142857142857</ele><time>2026-04-12T07:04:02Z</time></trkpt><trkpt lat="43.41208106999784" lon="6.652220295446691"><ele>285.42857142857144</ele><time>2026-04-12T07:04:09Z</time></trkpt><trkpt lat="43.41211622950688" lon="6.652299059978335"><ele>284.1428571428571</ele><time>2026-04-12T07:04:11Z</time></trkpt><trkpt lat="43.412161080848655" lon="6.652361720261947"><ele>282.8571428571429</ele><time>2026-04-12T07:04:13Z</time></trkpt><trkpt lat="43.41220463093806" lon="6.652425318526266"><ele>281.57142857142856</ele><time>2026-04-12T07:04:14Z</time></trkpt><trkpt lat="43.41221053021696" lon="6.652543624038428"><ele>280.2857142857143</ele><time>2026-04-12T07:04:16Z</time></trkpt><trkpt lat="43.41227948124836" lon="6.652575782961209"><ele>279.0</ele><time>2026-04-12T07:04:18Z</time></trkpt><trkpt lat="43.41228858473145" lon="6.652662190711746"><ele>275.1666666666667</ele><time>2026-04-12T07:04:20Z</time></trkpt><trkpt lat="43.412349576856286" lon="6.652755104130072"><ele>271.3333333333333</ele><time>2026-04-12T07:04:23Z</time></trkpt><trkpt lat="43.41234360409426" lon="6.652856811586766"><ele>267.5</ele><time>2026-04-12T07:04:25Z</time></trkpt><trkpt lat="43.412381505487176" lon="6.652928737677516"><ele>263.66666666666663</ele><time>2026-04-12T07:04:26Z</time></trkpt><trkpt lat="43.412474492704874" lon="6.652957962602826"><ele>259.8333333333333</ele><time>2026-04-12T07:04:28Z</time></trkpt><trkpt lat="43.41244818324317" lon="6.65305203356731"><ele>256.0</ele><time>2026-04-12T07:04:30Z</time></trkpt><trkpt lat="43.412517815597994" lon="6.653157836571789"><ele>254.16666666666666</ele><time>2026-04-12T07:04:33Z</time></trkpt><trkpt lat="43.41256643497312" lon="6.653251297310547"><ele>252.33333333333331</ele><time>2026-04-12T07:04:36Z</time></trkpt><trkpt lat="43.41262854012049" lon="6.653345818543387"><ele>250.5</ele><time>2026-04-12T07:04:38Z</time></trkpt><trkpt lat="43.41266523921114" lon="6.653421026493553"><ele>248.66666666666669</ele><time>2026-04-12T07:04:39Z</time></trkpt><trkpt lat="43.412702628169235" lon="6.653565780620017"><ele>246.83333333333334</ele><time>2026-04-12T07:04:41Z</time></trkpt><trkpt lat="43.41275605903688" lon="6.653627079188802"><ele>245.0</ele><time>2026-04-12T07:04:43Z</time></trkpt><trkpt lat="43.4128243408391" lon="6.6536653418987886"><ele>241.0</ele><time>2026-04-12T07:04:45Z</time></trkpt><trkpt lat="43.412855267211775" lon="6.65377044235248"><ele>237.0</ele><time>2026-04-12T07:04:47Z</time></trkpt><trkpt lat="43.412948068590445" lon="6.653777210421843"><ele>233.0</ele><time>2026-04-12T07:04:49Z</time></trkpt><trkpt lat="43.41301073562078" lon="6.6538046541756435"><ele>229.0</ele><time>2026-04-12T07:04:50Z</time></trkpt><trkpt lat="43.41303413416645" lon="6.653924858225822"><ele>225.0</ele><time>2026-04-12T07:04:52Z</time></trkpt><trkpt lat="43.41307597681535" lon="6.654077362251959"><ele>224.6</ele><time>2026-04-12T07:04:54Z</time></trkpt><trkpt lat="43.41315761444568" lon="6.654070784685816"><ele>224.2</ele><time>2026-04-12T07:04:56Z</time></trkpt><trkpt lat="43.41323968743255" lon="6.654158230878039"><ele>223.8</ele><time>2026-04-12T07:04:58Z</time></trkpt><trkpt lat="43.4132971664427" lon="6.654264349336003"><ele>223.4</ele><time>2026-04-12T07:05:00Z</time></trkpt><trkpt lat="43.413351406133046" lon="6.654332988181041"><ele>223.0</ele><time>2026-04-12T07:05:01Z</time></trkpt><trkpt lat="43.41343912228997" lon="6.654476154529955"><ele>220.99999999999997</ele><time>2026-04-12T07:05:03Z</time></trkpt><trkpt lat="43.41348851572971" lon="6.6545607621131015"><ele>219.0</ele><time>2026-04-12T07:05:04Z</time></trkpt><trkpt lat="43.413521372229084" lon="6.654690217269858"><ele>217.0</ele><time>2026-04-12T07:05:06.001Z</time></trkpt><trkpt lat="43.41357080369078" lon="6.654774835041027"><ele>215.0</ele><time>2026-04-12T07:05:07.001Z</time></trkpt><trkpt lat="43.41359492894338" lon="6.654884422980895"><ele>212.99999999999997</ele><time>2026-04-12T07:05:08.001Z</time></trkpt><trkpt lat="43.41361967303126" lon="6.654981002112457"><ele>211.0</ele><time>2026-04-12T07:05:09.001Z</time></trkpt><trkpt lat="43.4136353147138" lon="6.655123755873488"><ele>211.0</ele><time>2026-04-12T07:05:11.001Z</time></trkpt><trkpt lat="43.413697161109255" lon="6.655233966103775"><ele>211.0</ele><time>2026-04-12T07:05:13.001Z</time></trkpt><trkpt lat="43.41376163537141" lon="6.655336758065638"><ele>211.0</ele><time>2026-04-12T07:05:15.001Z</time></trkpt><trkpt lat="43.41382755087476" lon="6.655415938405014"><ele>211.0</ele><time>2026-04-12T07:05:17.001Z</time></trkpt><trkpt lat="43.41383276816271" lon="6.655550389439811"><ele>211.0</ele><time>2026-04-12T07:05:19.001Z</time></trkpt><trkpt lat="43.41390947072323" lon="6.655619231730144"><ele>208.49999999999997</ele><time>2026-04-12T07:05:21.001Z</time></trkpt><trkpt lat="43.4139475062077" lon="6.655718257113807"><ele>206.0</ele><time>2026-04-12T07:05:23.001Z</time></trkpt><trkpt lat="43.413968684517556" lon="6.655834358078496"><ele>203.5</ele><time>2026-04-12T07:05:25.001Z</time></trkpt><trkpt lat="43.41396144228191" lon="6.65595315844293"><ele>201.0</ele><time>2026-04-12T07:05:27.001Z</time></trkpt><trkpt lat="43.41401107257156" lon="6.656079845225398"><ele>198.49999999999997</ele><time>2026-04-12T07:05:29.001Z</time></trkpt><trkpt lat="43.414040864469754" lon="6.656159444980359"><ele>196.0</ele><time>2026-04-12T07:05:30.001Z</time></trkpt><trkpt lat="43.41407169424276" lon="6.656280464589726"><ele>192.20000000000002</ele><time>2026-04-12T07:05:33.001Z</time></trkpt><trkpt lat="43.414094538779324" lon="6.6564122309382405"><ele>188.4</ele><time>2026-04-12T07:05:35.001Z</time></trkpt><trkpt lat="43.414082257677144" lon="6.656499616355603"><ele>184.6</ele><time>2026-04-12T07:05:37.001Z</time></trkpt><trkpt lat="43.41404691807584" lon="6.656617764561709"><ele>180.8</ele><time>2026-04-12T07:05:40.001Z</time></trkpt><trkpt lat="43.41400825804202" lon="6.656779055698284"><ele>177.0</ele><time>2026-04-12T07:05:42.001Z</time></trkpt><trkpt lat="43.41394466866962" lon="6.6568814036877315"><ele>174.16666666666666</ele><time>2026-04-12T07:05:44.001Z</time></trkpt><trkpt lat="43.41392185044473" lon="6.6570172391371525"><ele>171.33333333333334</ele><time>2026-04-12T07:05:45.001Z</time></trkpt><trkpt lat="43.41392334766063" lon="6.657110635889597"><ele>168.5</ele><time>2026-04-12T07:05:47.001Z</time></trkpt><trkpt lat="43.41398948254184" lon="6.657147178544843"><ele>165.66666666666669</ele><time>2026-04-12T07:05:50.001Z</time></trkpt><trkpt lat="43.41404644447725" lon="6.657195397750993"><ele>162.83333333333334</ele><time>2026-04-12T07:05:51.001Z</time></trkpt><trkpt lat="43.41410602534469" lon="6.657282026169554"><ele>160.0</ele><time>2026-04-12T07:05:53.001Z</time></trkpt><trkpt lat="43.41415078494179" lon="6.657361704005805"><ele>160.0</ele><time>2026-04-12T07:05:55.001Z</time></trkpt><trkpt lat="43.41415436500288" lon="6.657451698239055"><ele>160.0</ele><time>2026-04-12T07:05:57.001Z</time></trkpt><trkpt lat="43.414121859793816" lon="6.657548895892504"><ele>160.0</ele><time>2026-04-12T07:05:59Z</time></trkpt><trkpt lat="43.414080367639954" lon="6.657669380603044"><ele>160.0</ele><time>2026-04-12T07:06:01Z</time></trkpt><trkpt lat="43.4139940593178" lon="6.657767112951363"><ele>160.0</ele><time>2026-04-12T07:06:03Z</time></trkpt><trkpt lat="43.41391303183502" lon="6.657745890335999"><ele>160.0</ele><time>2026-04-12T07:06:05Z</time></trkpt><trkpt lat="43.413836053873226" lon="6.657777458559204"><ele>158.0</ele><time>2026-04-12T07:06:07Z</time></trkpt><trkpt lat="43.41374514666022" lon="6.657750879018755"><ele>156.0</ele><time>2026-04-12T07:06:09Z</time></trkpt><trkpt lat="43.413735050365894" lon="6.657864211035133"><ele>154.0</ele><time>2026-04-12T07:06:12Z</time></trkpt><trkpt lat="43.41377396004154" lon="6.657970991973299"><ele>152.0</ele><time>2026-04-12T07:06:15Z</time></trkpt><trkpt lat="43.413790403989836" lon="6.658059841844964"><ele>150.0</ele><time>2026-04-12T07:06:17Z</time></trkpt><trkpt lat="43.41381064759581" lon="6.658231700415054"><ele>148.25</ele><time>2026-04-12T07:06:18Z</time></trkpt><trkpt lat="43.41379811583416" lon="6.658395236993485"><ele>146.5</ele><time>2026-04-12T07:06:21Z</time></trkpt><trkpt lat="43.4138241502651" lon="6.658528589475055"><ele>144.75</ele><time>2026-04-12T07:06:23Z</time></trkpt><trkpt lat="43.4139288689097" lon="6.658629532170573"><ele>143.0</ele><time>2026-04-12T07:06:25Z</time></trkpt><trkpt lat="43.414033393256354" lon="6.658769035406171"><ele>140.33333333333331</ele><time>2026-04-12T07:06:27Z</time></trkpt><trkpt lat="43.414088318263744" lon="6.658842413142192"><ele>137.66666666666666</ele><time>2026-04-12T07:06:28Z</time></trkpt><trkpt lat="43.414171706914566" lon="6.65885452147763"><ele>135.0</ele><time>2026-04-12T07:06:30Z</time></trkpt><trkpt lat="43.414250702694865" lon="6.658896834433018"><ele>132.33333333333334</ele><time>2026-04-12T07:06:32Z</time></trkpt><trkpt lat="43.414291541546" lon="6.658829655302137"><ele>129.66666666666669</ele><time>2026-04-12T07:06:34Z</time></trkpt><trkpt lat="43.414401209535804" lon="6.65889801118922"><ele>127.0</ele><time>2026-04-12T07:06:37Z</time></trkpt><trkpt lat="43.414428144221034" lon="6.658989848059674"><ele>127.00000000000001</ele><time>2026-04-12T07:06:38Z</time></trkpt><trkpt lat="43.414460752926814" lon="6.659087875127619"><ele>127.0</ele><time>2026-04-12T07:06:40Z</time></trkpt><trkpt lat="43.41455146828494" lon="6.659196424347588"><ele>127.0</ele><time>2026-04-12T07:06:42Z</time></trkpt><trkpt lat="43.414581844271865" lon="6.659274423781587"><ele>127.0</ele><time>2026-04-12T07:06:43Z</time></trkpt><trkpt lat="43.414608555960115" lon="6.659375691684035"><ele>127.00000000000001</ele><time>2026-04-12T07:06:44Z</time></trkpt><trkpt lat="43.414606383045374" lon="6.659523115501129"><ele>127.0</ele><time>2026-04-12T07:06:46Z</time></trkpt><trkpt lat="43.41464595317028" lon="6.659614795464543"><ele>124.00000000000001</ele><time>2026-04-12T07:06:48Z</time></trkpt><trkpt lat="43.41462107173351" lon="6.659734542949797"><ele>121.0</ele><time>2026-04-12T07:06:51Z</time></trkpt><trkpt lat="43.41454523911" lon="6.659791201680049"><ele>118.0</ele><time>2026-04-12T07:06:53Z</time></trkpt><trkpt lat="43.41447844708389" lon="6.659749164410316"><ele>115.0</ele><time>2026-04-12T07:06:55Z</time></trkpt><trkpt lat="43.41439975932598" lon="6.659781636155645"><ele>112.00000000000001</ele><time>2026-04-12T07:06:59Z</time></trkpt><trkpt lat="43.41436632081231" lon="6.659857143215492"><ele>109.0</ele><time>2026-04-12T07:07:02Z</time></trkpt><trkpt lat="43.41430927934831" lon="6.659905480672261"><ele>109.0</ele><time>2026-04-12T07:07:03Z</time></trkpt><trkpt lat="43.414224972905544" lon="6.659962774833245"><ele>109.0</ele><time>2026-04-12T07:07:05Z</time></trkpt><trkpt lat="43.41417720716486" lon="6.660023754004695"><ele>109.0</ele><time>2026-04-12T07:07:06Z</time></trkpt><trkpt lat="43.414100297753244" lon="6.660024792748733"><ele>109.0</ele><time>2026-04-12T07:07:09Z</time></trkpt><trkpt lat="43.413916134819964" lon="6.660066550905349"><ele>109.0</ele><time>2026-04-12T07:07:10Z</time></trkpt><trkpt lat="43.41386063176358" lon="6.66013530338638"><ele>108.6</ele><time>2026-04-12T07:07:11Z</time></trkpt><trkpt lat="43.41379197502469" lon="6.660124452693799"><ele>108.2</ele><time>2026-04-12T07:07:12Z</time></trkpt><trkpt lat="43.41375724488489" lon="6.660210532055239"><ele>107.79999999999998</ele><time>2026-04-12T07:07:13Z</time></trkpt><trkpt lat="43.41375562489827" lon="6.66032234557145"><ele>107.39999999999999</ele><time>2026-04-12T07:07:15Z</time></trkpt><trkpt lat="43.413635444271144" lon="6.660385268945853"><ele>107.0</ele><time>2026-04-12T07:07:17.001Z</time></trkpt><trkpt lat="43.41357639282965" lon="6.660506979333554"><ele>104.19999999999999</ele><time>2026-04-12T07:07:20.001Z</time></trkpt><trkpt lat="43.41350491533974" lon="6.660513082705395"><ele>101.39999999999999</ele><time>2026-04-12T07:07:22.001Z</time></trkpt><trkpt lat="43.413485780604695" lon="6.660625118575779"><ele>98.6</ele><time>2026-04-12T07:07:24.001Z</time></trkpt><trkpt lat="43.41355456240853" lon="6.660693555437909"><ele>95.80000000000001</ele><time>2026-04-12T07:07:25.001Z</time></trkpt><trkpt lat="43.413546126839954" lon="6.660847421039929"><ele>93.0</ele><time>2026-04-12T07:07:27.001Z</time></trkpt><trkpt lat="43.413563626298824" lon="6.661009173892368"><ele>93.0</ele><time>2026-04-12T07:07:28.001Z</time></trkpt><trkpt lat="43.4135863934124" lon="6.661092355313392"><ele>93.0</ele><time>2026-04-12T07:07:29.001Z</time></trkpt><trkpt lat="43.413508938810544" lon="6.661195223528017"><ele>93.0</ele><time>2026-04-12T07:07:31.001Z</time></trkpt><trkpt lat="43.41339132356085" lon="6.661222565345174"><ele>93.0</ele><time>2026-04-12T07:07:33.001Z</time></trkpt><trkpt lat="43.41331190433765" lon="6.661268413024464"><ele>93.0</ele><time>2026-04-12T07:07:35.001Z</time></trkpt><trkpt lat="43.41321483050042" lon="6.661302160340291"><ele>91.66666666666667</ele><time>2026-04-12T07:07:37.001Z</time></trkpt><trkpt lat="43.41316983703521" lon="6.661387584201445"><ele>90.33333333333333</ele><time>2026-04-12T07:07:39.001Z</time></trkpt><trkpt lat="43.41311284711955" lon="6.661451257006804"><ele>89.0</ele><time>2026-04-12T07:07:41.001Z</time></trkpt><trkpt lat="43.41305275876072" lon="6.66148034343252"><ele>87.66666666666666</ele><time>2026-04-12T07:07:42.001Z</time></trkpt><trkpt lat="43.412975985523374" lon="6.661541380952947"><ele>86.33333333333333</ele><time>2026-04-12T07:07:44.001Z</time></trkpt><trkpt lat="43.41290260578389" lon="6.661629848527836"><ele>85.0</ele><time>2026-04-12T07:07:46.001Z</time></trkpt><trkpt lat="43.412886678387295" lon="6.661715439531007"><ele>84.5</ele><time>2026-04-12T07:07:48.001Z</time></trkpt><trkpt lat="43.41284198730534" lon="6.661791847358317"><ele>84.0</ele><time>2026-04-12T07:07:50.001Z</time></trkpt><trkpt lat="43.41277187582391" lon="6.661876280074078"><ele>83.5</ele><time>2026-04-12T07:07:53.001Z</time></trkpt><trkpt lat="43.41271701227926" lon="6.661935404363591"><ele>83.0</ele><time>2026-04-12T07:07:55.001Z</time></trkpt><trkpt lat="43.41265686463496" lon="6.661979859547493"><ele>82.5</ele><time>2026-04-12T07:07:57.001Z</time></trkpt><trkpt lat="43.41260284374933" lon="6.662068442680087"><ele>82.0</ele><time>2026-04-12T07:08:00.001Z</time></trkpt><trkpt lat="43.41251458953889" lon="6.662092329690178"><ele>81.71428571428571</ele><time>2026-04-12T07:08:03.001Z</time></trkpt><trkpt lat="43.412493146590016" lon="6.662174054770743"><ele>81.42857142857143</ele><time>2026-04-12T07:08:06Z</time></trkpt><trkpt lat="43.41255845701374" lon="6.662203063268866"><ele>81.14285714285714</ele><time>2026-04-12T07:08:20Z</time></trkpt><trkpt lat="43.412595737049166" lon="6.662296857681258"><ele>80.85714285714286</ele><time>2026-04-12T07:08:22Z</time></trkpt><trkpt lat="43.4126343009847" lon="6.662366323917518"><ele>80.57142857142857</ele><time>2026-04-12T07:08:24Z</time></trkpt><trkpt lat="43.41267656568004" lon="6.662450078753533"><ele>80.28571428571428</ele><time>2026-04-12T07:08:26Z</time></trkpt><trkpt lat="43.41262637341623" lon="6.662521329007105"><ele>80.0</ele><time>2026-04-12T07:08:28Z</time></trkpt><trkpt lat="43.412501292312875" lon="6.662560536412575"><ele>80.0</ele><time>2026-04-12T07:08:30Z</time></trkpt><trkpt lat="43.41242476853385" lon="6.662595742864593"><ele>80.0</ele><time>2026-04-12T07:08:31Z</time></trkpt><trkpt lat="43.41235034672121" lon="6.662638157400847"><ele>80.0</ele><time>2026-04-12T07:08:32Z</time></trkpt><trkpt lat="43.41228267576472" lon="6.6627030241695655"><ele>80.0</ele><time>2026-04-12T07:08:33Z</time></trkpt><trkpt lat="43.41221616369053" lon="6.6628027426401335"><ele>80.0</ele><time>2026-04-12T07:08:34Z</time></trkpt><trkpt lat="43.41215063516797" lon="6.662876071506602"><ele>80.0</ele><time>2026-04-12T07:08:35Z</time></trkpt><trkpt lat="43.41209453307247" lon="6.662967713561172"><ele>81.66666666666667</ele><time>2026-04-12T07:08:36Z</time></trkpt><trkpt lat="43.4120299398512" lon="6.663068484393671"><ele>83.33333333333334</ele><time>2026-04-12T07:08:37Z</time></trkpt><trkpt lat="43.41196626595085" lon="6.663138645908429"><ele>85.0</ele><time>2026-04-12T07:08:38Z</time></trkpt><trkpt lat="43.41188944472456" lon="6.663172592832701"><ele>86.66666666666667</ele><time>2026-04-12T07:08:39Z</time></trkpt><trkpt lat="43.411818887351714" lon="6.663197294210289"><ele>88.33333333333333</ele><time>2026-04-12T07:08:40Z</time></trkpt><trkpt lat="43.41176173877616" lon="6.663257559026536"><ele>90.0</ele><time>2026-04-12T07:08:41Z</time></trkpt><trkpt lat="43.411713774839825" lon="6.663361707126358"><ele>90.0</ele><time>2026-04-12T07:08:42Z</time></trkpt><trkpt lat="43.41166739376555" lon="6.663486174525868"><ele>90.0</ele><time>2026-04-12T07:08:43Z</time></trkpt><trkpt lat="43.41161646391265" lon="6.663605499985253"><ele>90.0</ele><time>2026-04-12T07:08:44Z</time></trkpt><trkpt lat="43.411555389778535" lon="6.663727756119428"><ele>90.0</ele><time>2026-04-12T07:08:45Z</time></trkpt><trkpt lat="43.4114943709391" lon="6.663847587822112"><ele>90.0</ele><time>2026-04-12T07:08:46Z</time></trkpt><trkpt lat="43.411425941179935" lon="6.663955901560689"><ele>91.8</ele><time>2026-04-12T07:08:47Z</time></trkpt><trkpt lat="43.41135463908165" lon="6.664061442207561"><ele>93.6</ele><time>2026-04-12T07:08:48Z</time></trkpt><trkpt lat="43.41129421455439" lon="6.664163972040094"><ele>95.4</ele><time>2026-04-12T07:08:49Z</time></trkpt><trkpt lat="43.411236645991366" lon="6.66425844844295"><ele>97.2</ele><time>2026-04-12T07:08:50Z</time></trkpt><trkpt lat="43.41118888915286" lon="6.664361852948546"><ele>99.0</ele><time>2026-04-12T07:08:51Z</time></trkpt><trkpt lat="43.41114858884611" lon="6.664468368829778"><ele>100.5</ele><time>2026-04-12T07:08:52Z</time></trkpt><trkpt lat="43.4111231232162" lon="6.664581743432146"><ele>102.0</ele><time>2026-04-12T07:08:53Z</time></trkpt><trkpt lat="43.411110576675455" lon="6.664710692284858"><ele>103.5</ele><time>2026-04-12T07:08:54Z</time></trkpt><trkpt lat="43.41108374667839" lon="6.664792740680962"><ele>105.0</ele><time>2026-04-12T07:08:55Z</time></trkpt><trkpt lat="43.411039382527" lon="6.664858185677547"><ele>106.5</ele><time>2026-04-12T07:08:56Z</time></trkpt><trkpt lat="43.41097217110131" lon="6.664915320047908"><ele>108.0</ele><time>2026-04-12T07:08:57Z</time></trkpt><trkpt lat="43.4109015771284" lon="6.66495957617224"><ele>108.0</ele><time>2026-04-12T07:08:58Z</time></trkpt><trkpt lat="43.410827760932634" lon="6.66502080929666"><ele>108.00000000000001</ele><time>2026-04-12T07:08:59Z</time></trkpt><trkpt lat="43.410737953910356" lon="6.6650573117117595"><ele>108.00000000000001</ele><time>2026-04-12T07:09:00Z</time></trkpt><trkpt lat="43.410629633572846" lon="6.665076558708985"><ele>108.0</ele><time>2026-04-12T07:09:01Z</time></trkpt><trkpt lat="43.410530064520934" lon="6.665061964064533"><ele>108.0</ele><time>2026-04-12T07:09:02Z</time></trkpt><trkpt lat="43.410428238699424" lon="6.66504587225851"><ele>109.66666666666667</ele><time>2026-04-12T07:09:03Z</time></trkpt><trkpt lat="43.41034341880994" lon="6.665032549526975"><ele>111.33333333333334</ele><time>2026-04-12T07:09:04Z</time></trkpt><trkpt lat="43.41027396136163" lon="6.66502469335245"><ele>113.0</ele><time>2026-04-12T07:09:05Z</time></trkpt><trkpt lat="43.410208222832736" lon="6.665012957417996"><ele>114.66666666666667</ele><time>2026-04-12T07:09:06Z</time></trkpt><trkpt lat="43.41012878266478" lon="6.664998902651695"><ele>116.33333333333334</ele><time>2026-04-12T07:09:07Z</time></trkpt><trkpt lat="43.41004834459969" lon="6.664982626905569"><ele>118.0</ele><time>2026-04-12T07:09:08Z</time></trkpt><trkpt lat="43.409956248421665" lon="6.664955459716616"><ele>118.0</ele><time>2026-04-12T07:09:09Z</time></trkpt><trkpt lat="43.40987305628616" lon="6.664920485997113"><ele>118.00000000000001</ele><time>2026-04-12T07:09:10Z</time></trkpt><trkpt lat="43.40979086128311" lon="6.664874223036057"><ele>118.00000000000001</ele><time>2026-04-12T07:09:11Z</time></trkpt><trkpt lat="43.40969950221609" lon="6.664803681849816"><ele>118.0</ele><time>2026-04-12T07:09:12Z</time></trkpt><trkpt lat="43.409602192612454" lon="6.6647294615958925"><ele>118.0</ele><time>2026-04-12T07:09:13Z</time></trkpt><trkpt lat="43.40950475353114" lon="6.66467395600128"><ele>117.60000000000001</ele><time>2026-04-12T07:09:14Z</time></trkpt><trkpt lat="43.40940172862603" lon="6.664635214740406"><ele>117.20000000000002</ele><time>2026-04-12T07:09:15Z</time></trkpt><trkpt lat="43.409310336132286" lon="6.664597413589211"><ele>116.8</ele><time>2026-04-12T07:09:16Z</time></trkpt><trkpt lat="43.40922058106955" lon="6.664544869273938"><ele>116.4</ele><time>2026-04-12T07:09:17Z</time></trkpt><trkpt lat="43.40913140238172" lon="6.6644730886338674"><ele>116.0</ele><time>2026-04-12T07:09:18Z</time></trkpt><trkpt lat="43.409049791848844" lon="6.66438752090668"><ele>119.8</ele><time>2026-04-12T07:09:19Z</time></trkpt><trkpt lat="43.40899218391819" lon="6.664305647654107"><ele>123.6</ele><time>2026-04-12T07:09:20.001Z</time></trkpt><trkpt lat="43.4089436938713" lon="6.66420709669324"><ele>127.4</ele><time>2026-04-12T07:09:21.001Z</time></trkpt><trkpt lat="43.40891677203981" lon="6.6640888730785575"><ele>131.2</ele><time>2026-04-12T07:09:22.001Z</time></trkpt><trkpt lat="43.40887355495025" lon="6.663970568426893"><ele>135.0</ele><time>2026-04-12T07:09:23.001Z</time></trkpt><trkpt lat="43.4088260770967" lon="6.663855489820611"><ele>136.0</ele><time>2026-04-12T07:09:24.001Z</time></trkpt><trkpt lat="43.40876098942783" lon="6.663765547702471"><ele>137.0</ele><time>2026-04-12T07:09:25.001Z</time></trkpt><trkpt lat="43.40870008147567" lon="6.663688792656176"><ele>138.0</ele><time>2026-04-12T07:09:26.001Z</time></trkpt><trkpt lat="43.408656304434786" lon="6.663594390299126"><ele>139.0</ele><time>2026-04-12T07:09:27.001Z</time></trkpt><trkpt lat="43.408617333736025" lon="6.663481076316874"><ele>140.0</ele><time>2026-04-12T07:09:28.001Z</time></trkpt><trkpt lat="43.40855251631821" lon="6.6634017667822985"><ele>141.0</ele><time>2026-04-12T07:09:29.001Z</time></trkpt><trkpt lat="43.40848118548341" lon="6.663301356306521"><ele>141.0</ele><time>2026-04-12T07:09:30.001Z</time></trkpt><trkpt lat="43.40842429689217" lon="6.663214383587517"><ele>141.0</ele><time>2026-04-12T07:09:31.001Z</time></trkpt><trkpt lat="43.408365137431915" lon="6.663113507622756"><ele>141.0</ele><time>2026-04-12T07:09:32.001Z</time></trkpt><trkpt lat="43.40829974738969" lon="6.663016123087558"><ele>141.0</ele><time>2026-04-12T07:09:33.001Z</time></trkpt><trkpt lat="43.40822921666398" lon="6.662903925848793"><ele>141.0</ele><time>2026-04-12T07:09:34.001Z</time></trkpt><trkpt lat="43.40816692924679" lon="6.662794997329626"><ele>140.8</ele><time>2026-04-12T07:09:35.001Z</time></trkpt><trkpt lat="43.40810575424192" lon="6.662689194304248"><ele>140.6</ele><time>2026-04-12T07:09:36.001Z</time></trkpt><trkpt lat="43.40803290177735" lon="6.6625838597045925"><ele>140.4</ele><time>2026-04-12T07:09:37.001Z</time></trkpt><trkpt lat="43.40796087784493" lon="6.6624900760424675"><ele>140.2</ele><time>2026-04-12T07:09:38.001Z</time></trkpt><trkpt lat="43.407906863008755" lon="6.662414042086202"><ele>140.0</ele><time>2026-04-12T07:09:39.001Z</time></trkpt><trkpt lat="43.40786823264092" lon="6.662318772277894"><ele>140.0</ele><time>2026-04-12T07:09:41.001Z</time></trkpt><trkpt lat="43.40787143532146" lon="6.662143598092207"><ele>140.0</ele><time>2026-04-12T07:09:43.001Z</time></trkpt><trkpt lat="43.40785696831418" lon="6.662043331705139"><ele>140.0</ele><time>2026-04-12T07:09:44.001Z</time></trkpt><trkpt lat="43.407837828029855" lon="6.661956588516872"><ele>140.0</ele><time>2026-04-12T07:09:45.001Z</time></trkpt><trkpt lat="43.40780400220876" lon="6.661858975600694"><ele>140.0</ele><time>2026-04-12T07:09:46.001Z</time></trkpt><trkpt lat="43.40776797058362" lon="6.661749077055344"><ele>140.0</ele><time>2026-04-12T07:09:47.001Z</time></trkpt><trkpt lat="43.40772586750859" lon="6.661640111697789"><ele>142.2</ele><time>2026-04-12T07:09:48.001Z</time></trkpt><trkpt lat="43.40768730124006" lon="6.661525936215864"><ele>144.4</ele><time>2026-04-12T07:09:49.001Z</time></trkpt><trkpt lat="43.40764177838285" lon="6.661394770900336"><ele>146.6</ele><time>2026-04-12T07:09:50.001Z</time></trkpt><trkpt lat="43.407589255088176" lon="6.661276230165891"><ele>148.8</ele><time>2026-04-12T07:09:51.001Z</time></trkpt><trkpt lat="43.40753938276751" lon="6.661131697772819"><ele>151.0</ele><time>2026-04-12T07:09:52.001Z</time></trkpt><trkpt lat="43.40748228737166" lon="6.660987305198813"><ele>152.8</ele><time>2026-04-12T07:09:53.001Z</time></trkpt><trkpt lat="43.40743597786341" lon="6.660834751822696"><ele>154.6</ele><time>2026-04-12T07:09:54.001Z</time></trkpt><trkpt lat="43.40741421810404" lon="6.66069969174518"><ele>156.4</ele><time>2026-04-12T07:09:55.001Z</time></trkpt><trkpt lat="43.40737494047969" lon="6.660558507802644"><ele>158.2</ele><time>2026-04-12T07:09:56.001Z</time></trkpt><trkpt lat="43.40734992882937" lon="6.660423740484145"><ele>160.0</ele><time>2026-04-12T07:09:57.001Z</time></trkpt><trkpt lat="43.40734366512829" lon="6.660319723206037"><ele>161.16666666666669</ele><time>2026-04-12T07:09:58.001Z</time></trkpt><trkpt lat="43.40737000878602" lon="6.6602252683259096"><ele>162.33333333333334</ele><time>2026-04-12T07:09:59.001Z</time></trkpt><trkpt lat="43.407403163018735" lon="6.660133157522829"><ele>163.5</ele><time>2026-04-12T07:10:00.001Z</time></trkpt><trkpt lat="43.407425457135744" lon="6.66004063943685"><ele>164.66666666666666</ele><time>2026-04-12T07:10:01.001Z</time></trkpt><trkpt lat="43.40740759067168" lon="6.65992424866293"><ele>165.83333333333331</ele><time>2026-04-12T07:10:02.001Z</time></trkpt><trkpt lat="43.40736891584718" lon="6.659807198367854"><ele>167.0</ele><time>2026-04-12T07:10:03.001Z</time></trkpt><trkpt lat="43.40732637522104" lon="6.659724329568707"><ele>167.0</ele><time>2026-04-12T07:10:04.001Z</time></trkpt><trkpt lat="43.4072618919919" lon="6.659652815582088"><ele>167.0</ele><time>2026-04-12T07:10:05.001Z</time></trkpt><trkpt lat="43.40721554510677" lon="6.659578068654595"><ele>167.0</ele><time>2026-04-12T07:10:06.001Z</time></trkpt><trkpt lat="43.40717423423048" lon="6.659497100488047"><ele>167.0</ele><time>2026-04-12T07:10:07.001Z</time></trkpt><trkpt lat="43.40714691275859" lon="6.6593891900102244"><ele>167.0</ele><time>2026-04-12T07:10:08.001Z</time></trkpt><trkpt lat="43.407140110756" lon="6.6592690388090485"><ele>167.0</ele><time>2026-04-12T07:10:09.001Z</time></trkpt><trkpt lat="43.40714302659809" lon="6.659147495629307"><ele>170.0</ele><time>2026-04-12T07:10:10Z</time></trkpt><trkpt lat="43.407153306752676" lon="6.659031655711553"><ele>173.0</ele><time>2026-04-12T07:10:11Z</time></trkpt><trkpt lat="43.40715690029502" lon="6.658907155949178"><ele>176.0</ele><time>2026-04-12T07:10:12Z</time></trkpt><trkpt lat="43.4071476495808" lon="6.658792231654219"><ele>179.0</ele><time>2026-04-12T07:10:13Z</time></trkpt><trkpt lat="43.40710761300734" lon="6.658702747673624"><ele>182.0</ele><time>2026-04-12T07:10:14Z</time></trkpt><trkpt lat="43.40706176950154" lon="6.658617785740588"><ele>185.0</ele><time>2026-04-12T07:10:15Z</time></trkpt><trkpt lat="43.40702072061467" lon="6.658504512975898"><ele>187.8</ele><time>2026-04-12T07:10:16Z</time></trkpt><trkpt lat="43.40698257934267" lon="6.658379319041824"><ele>190.6</ele><time>2026-04-12T07:10:17Z</time></trkpt><trkpt lat="43.40695688232625" lon="6.658260302761298"><ele>193.39999999999998</ele><time>2026-04-12T07:10:18Z</time></trkpt><trkpt lat="43.40690364596628" lon="6.658174862477752"><ele>196.2</ele><time>2026-04-12T07:10:19Z</time></trkpt><trkpt lat="43.40682503454339" lon="6.65810712485486"><ele>199.0</ele><time>2026-04-12T07:10:20Z</time></trkpt><trkpt lat="43.40674874714631" lon="6.658031394097914"><ele>198.99999999999997</ele><time>2026-04-12T07:10:21Z</time></trkpt><trkpt lat="43.40667976963237" lon="6.657943238286078"><ele>199.0</ele><time>2026-04-12T07:10:22Z</time></trkpt><trkpt lat="43.40663111823512" lon="6.657857020448442"><ele>199.0</ele><time>2026-04-12T07:10:23Z</time></trkpt><trkpt lat="43.40659964138393" lon="6.657762204074414"><ele>199.0</ele><time>2026-04-12T07:10:24Z</time></trkpt><trkpt lat="43.40656716362695" lon="6.657683001254668"><ele>198.99999999999997</ele><time>2026-04-12T07:10:25Z</time></trkpt><trkpt lat="43.40653607217556" lon="6.657599050495933"><ele>199.0</ele><time>2026-04-12T07:10:26Z</time></trkpt><trkpt lat="43.40650460262643" lon="6.6575151522232545"><ele>200.66666666666666</ele><time>2026-04-12T07:10:27Z</time></trkpt><trkpt lat="43.4064628869233" lon="6.657419870398441"><ele>202.33333333333331</ele><time>2026-04-12T07:10:28Z</time></trkpt><trkpt lat="43.406406667747156" lon="6.657344179350809"><ele>204.0</ele><time>2026-04-12T07:10:29Z</time></trkpt><trkpt lat="43.40635766503851" lon="6.657282278508607"><ele>205.66666666666669</ele><time>2026-04-12T07:10:30Z</time></trkpt><trkpt lat="43.40631435267306" lon="6.65720824917004"><ele>207.33333333333334</ele><time>2026-04-12T07:10:31Z</time></trkpt><trkpt lat="43.40619928661571" lon="6.65713877946885"><ele>209.0</ele><time>2026-04-12T07:10:33Z</time></trkpt><trkpt lat="43.40613631815704" lon="6.657061006254307"><ele>209.00000000000003</ele><time>2026-04-12T07:10:34Z</time></trkpt><trkpt lat="43.40606208939912" lon="6.657001000644068"><ele>209.0</ele><time>2026-04-12T07:10:35Z</time></trkpt><trkpt lat="43.405986516004866" lon="6.656955707446524"><ele>209.0</ele><time>2026-04-12T07:10:36Z</time></trkpt><trkpt lat="43.405903834402466" lon="6.656935455685618"><ele>209.0</ele><time>2026-04-12T07:10:37Z</time></trkpt><trkpt lat="43.405828058498294" lon="6.656899622967408"><ele>209.00000000000003</ele><time>2026-04-12T07:10:38Z</time></trkpt><trkpt lat="43.40576486116033" lon="6.656853624451362"><ele>209.0</ele><time>2026-04-12T07:10:39Z</time></trkpt><trkpt lat="43.40570325168187" lon="6.6567401422039945"><ele>211.28571428571428</ele><time>2026-04-12T07:10:41Z</time></trkpt><trkpt lat="43.405676085950475" lon="6.656656006851263"><ele>213.57142857142856</ele><time>2026-04-12T07:10:42Z</time></trkpt><trkpt lat="43.4056401978817" lon="6.656581537327594"><ele>215.8571428571429</ele><time>2026-04-12T07:10:43Z</time></trkpt><trkpt lat="43.40559463732639" lon="6.656518726359383"><ele>218.14285714285717</ele><time>2026-04-12T07:10:44Z</time></trkpt><trkpt lat="43.40554575528203" lon="6.656444806350241"><ele>220.42857142857144</ele><time>2026-04-12T07:10:45Z</time></trkpt><trkpt lat="43.405493328274034" lon="6.656389556539172"><ele>222.71428571428575</ele><time>2026-04-12T07:10:46Z</time></trkpt><trkpt lat="43.40543313687402" lon="6.656339344871633"><ele>225.00000000000003</ele><time>2026-04-12T07:10:47Z</time></trkpt><trkpt lat="43.40540999725904" lon="6.656233267015416"><ele>226.6</ele><time>2026-04-12T07:10:50Z</time></trkpt><trkpt lat="43.40549708506341" lon="6.656169304360589"><ele>228.2</ele><time>2026-04-12T07:10:52Z</time></trkpt><trkpt lat="43.40558485390483" lon="6.656091440417795"><ele>229.8</ele><time>2026-04-12T07:10:54Z</time></trkpt><trkpt lat="43.4056565540036" lon="6.656041146267576"><ele>231.4</ele><time>2026-04-12T07:10:55Z</time></trkpt><trkpt lat="43.40572638111041" lon="6.655985113664412"><ele>233.0</ele><time>2026-04-12T07:10:56Z</time></trkpt><trkpt lat="43.40579416260437" lon="6.655912260305159"><ele>235.2</ele><time>2026-04-12T07:10:57Z</time></trkpt><trkpt lat="43.405864651392335" lon="6.6558375755282375"><ele>237.4</ele><time>2026-04-12T07:10:58Z</time></trkpt><trkpt lat="43.40591710430327" lon="6.655755829580251"><ele>239.59999999999997</ele><time>2026-04-12T07:10:59Z</time></trkpt><trkpt lat="43.40596068314031" lon="6.655637260842474"><ele>241.79999999999998</ele><time>2026-04-12T07:11:00Z</time></trkpt><trkpt lat="43.4059901736248" lon="6.655497956571832"><ele>244.0</ele><time>2026-04-12T07:11:01Z</time></trkpt><trkpt lat="43.406021964905904" lon="6.655382309544346"><ele>242.66666666666666</ele><time>2026-04-12T07:11:02Z</time></trkpt><trkpt lat="43.406044836624304" lon="6.655280712991083"><ele>241.33333333333331</ele><time>2026-04-12T07:11:03Z</time></trkpt><trkpt lat="43.40608759604248" lon="6.65520153660846"><ele>240.0</ele><time>2026-04-12T07:11:04Z</time></trkpt><trkpt lat="43.40614099407209" lon="6.655121643832835"><ele>238.66666666666669</ele><time>2026-04-12T07:11:05Z</time></trkpt><trkpt lat="43.40619256887734" lon="6.655010693934917"><ele>237.33333333333334</ele><time>2026-04-12T07:11:06Z</time></trkpt><trkpt lat="43.406240439875724" lon="6.654901636137448"><ele>236.0</ele><time>2026-04-12T07:11:07Z</time></trkpt><trkpt lat="43.40629549333491" lon="6.654820264392567"><ele>238.66666666666669</ele><time>2026-04-12T07:11:08Z</time></trkpt><trkpt lat="43.406361056714346" lon="6.654761043986772"><ele>241.33333333333334</ele><time>2026-04-12T07:11:09Z</time></trkpt><trkpt lat="43.406428753551275" lon="6.6547361299401375"><ele>244.0</ele><time>2026-04-12T07:11:10Z</time></trkpt><trkpt lat="43.4065596338894" lon="6.654742356018629"><ele>246.66666666666669</ele><time>2026-04-12T07:11:12Z</time></trkpt><trkpt lat="43.40662819880563" lon="6.654774667974734"><ele>249.33333333333334</ele><time>2026-04-12T07:11:13Z</time></trkpt><trkpt lat="43.40669774674262" lon="6.6548222438553"><ele>252.0</ele><time>2026-04-12T07:11:14Z</time></trkpt><trkpt lat="43.40678051193093" lon="6.654849945379696"><ele>252.0</ele><time>2026-04-12T07:11:15Z</time></trkpt><trkpt lat="43.40690772278509" lon="6.654855895989653"><ele>252.0</ele><time>2026-04-12T07:11:16Z</time></trkpt><trkpt lat="43.40699782172278" lon="6.654869582125393"><ele>252.0</ele><time>2026-04-12T07:11:17Z</time></trkpt><trkpt lat="43.40706218367372" lon="6.654864487444145"><ele>252.0</ele><time>2026-04-12T07:11:18Z</time></trkpt><trkpt lat="43.40715184656269" lon="6.654816275466481"><ele>252.0</ele><time>2026-04-12T07:11:20Z</time></trkpt><trkpt lat="43.40722428047387" lon="6.6546248991120756"><ele>251.2</ele><time>2026-04-12T07:11:22Z</time></trkpt><trkpt lat="43.407257546487315" lon="6.654493488574197"><ele>250.39999999999998</ele><time>2026-04-12T07:11:23Z</time></trkpt><trkpt lat="43.40729832472255" lon="6.654361077389963"><ele>249.60000000000002</ele><time>2026-04-12T07:11:24Z</time></trkpt><trkpt lat="43.40732828795673" lon="6.654225263463803"><ele>248.8</ele><time>2026-04-12T07:11:25Z</time></trkpt><trkpt lat="43.4073490308073" lon="6.654088639618259"><ele>248.0</ele><time>2026-04-12T07:11:26Z</time></trkpt><trkpt lat="43.40738023722344" lon="6.653939434949713"><ele>250.5</ele><time>2026-04-12T07:11:27.001Z</time></trkpt><trkpt lat="43.40741738226705" lon="6.653784948887521"><ele>253.0</ele><time>2026-04-12T07:11:28.001Z</time></trkpt><trkpt lat="43.407454369833445" lon="6.653657027646655"><ele>255.5</ele><time>2026-04-12T07:11:29.001Z</time></trkpt><trkpt lat="43.40750036818649" lon="6.653513338979367"><ele>258.0</ele><time>2026-04-12T07:11:30.001Z</time></trkpt><trkpt lat="43.407543270280456" lon="6.653348602823763"><ele>259.3333333333333</ele><time>2026-04-12T07:11:31.001Z</time></trkpt><trkpt lat="43.40757047129377" lon="6.653232223155218"><ele>260.6666666666667</ele><time>2026-04-12T07:11:32.001Z</time></trkpt><trkpt lat="43.40760926166826" lon="6.653151557483937"><ele>262.0</ele><time>2026-04-12T07:11:33.001Z</time></trkpt><trkpt lat="43.407663994172864" lon="6.653057246858198"><ele>263.33333333333337</ele><time>2026-04-12T07:11:34.001Z</time></trkpt><trkpt lat="43.40771594141713" lon="6.65295099822354"><ele>264.6666666666667</ele><time>2026-04-12T07:11:35.001Z</time></trkpt><trkpt lat="43.4077603154932" lon="6.652833224634318"><ele>266.0</ele><time>2026-04-12T07:11:36.001Z</time></trkpt><trkpt lat="43.407791978469035" lon="6.652731740395027"><ele>266.83333333333337</ele><time>2026-04-12T07:11:37.001Z</time></trkpt><trkpt lat="43.40787001958741" lon="6.652625206927506"><ele>267.6666666666667</ele><time>2026-04-12T07:11:39.001Z</time></trkpt><trkpt lat="43.40793362185351" lon="6.652583167491093"><ele>268.5</ele><time>2026-04-12T07:11:40.001Z</time></trkpt><trkpt lat="43.40801820480459" lon="6.652459436250197"><ele>269.3333333333333</ele><time>2026-04-12T07:11:42.001Z</time></trkpt><trkpt lat="43.40804000220597" lon="6.6523767591022995"><ele>270.16666666666663</ele><time>2026-04-12T07:11:43.001Z</time></trkpt><trkpt lat="43.40804248856952" lon="6.652285775045175"><ele>271.0</ele><time>2026-04-12T07:11:44.001Z</time></trkpt><trkpt lat="43.408024539796976" lon="6.652194031725322"><ele>271.0</ele><time>2026-04-12T07:11:45.001Z</time></trkpt><trkpt lat="43.40799096729333" lon="6.652071865049386"><ele>271.0</ele><time>2026-04-12T07:11:46.001Z</time></trkpt><trkpt lat="43.40796450481206" lon="6.651954596214206"><ele>271.0</ele><time>2026-04-12T07:11:47.001Z</time></trkpt><trkpt lat="43.40794999555506" lon="6.65185790846644"><ele>271.0</ele><time>2026-04-12T07:11:48.001Z</time></trkpt><trkpt lat="43.40799957240562" lon="6.651766665017374"><ele>271.0</ele><time>2026-04-12T07:11:50.001Z</time></trkpt><trkpt lat="43.40812926954114" lon="6.651793868497614"><ele>276.5</ele><time>2026-04-12T07:11:52.001Z</time></trkpt><trkpt lat="43.40822599464606" lon="6.651870283442392"><ele>282.0</ele><time>2026-04-12T07:11:54.001Z</time></trkpt><trkpt lat="43.40830029896549" lon="6.651934337051669"><ele>287.5</ele><time>2026-04-12T07:11:56.001Z</time></trkpt><trkpt lat="43.40836320652359" lon="6.651940137193418"><ele>293.0</ele><time>2026-04-12T07:11:57.001Z</time></trkpt><trkpt lat="43.40844350488883" lon="6.651923794587387"><ele>298.5</ele><time>2026-04-12T07:11:58.001Z</time></trkpt><trkpt lat="43.40853396055792" lon="6.651897953904659"><ele>304.0</ele><time>2026-04-12T07:11:59.001Z</time></trkpt><trkpt lat="43.40865980466525" lon="6.65194891402121"><ele>303.66666666666663</ele><time>2026-04-12T07:12:01.001Z</time></trkpt><trkpt lat="43.40876495406749" lon="6.652061202734462"><ele>303.3333333333333</ele><time>2026-04-12T07:12:03.001Z</time></trkpt><trkpt lat="43.40882753929365" lon="6.652149950919391"><ele>303.0</ele><time>2026-04-12T07:12:04.001Z</time></trkpt><trkpt lat="43.40887548271669" lon="6.652243758359104"><ele>302.6666666666667</ele><time>2026-04-12T07:12:05.001Z</time></trkpt><trkpt lat="43.408935350291266" lon="6.652309483401266"><ele>302.33333333333337</ele><time>2026-04-12T07:12:06.001Z</time></trkpt><trkpt lat="43.40899524715527" lon="6.652340273986252"><ele>302.0</ele><time>2026-04-12T07:12:07.001Z</time></trkpt><trkpt lat="43.409121124480585" lon="6.652391477556066"><ele>302.0</ele><time>2026-04-12T07:12:09.001Z</time></trkpt><trkpt lat="43.409258237986876" lon="6.652428215857746"><ele>302.0</ele><time>2026-04-12T07:12:10.001Z</time></trkpt><trkpt lat="43.40935757430765" lon="6.652482060645323"><ele>302.0</ele><time>2026-04-12T07:12:11.001Z</time></trkpt><trkpt lat="43.409462880975354" lon="6.6525454655461544"><ele>302.0</ele><time>2026-04-12T07:12:12.001Z</time></trkpt><trkpt lat="43.40955689707424" lon="6.652615086824348"><ele>302.0</ele><time>2026-04-12T07:12:13.001Z</time></trkpt><trkpt lat="43.409626431108066" lon="6.6526463632359585"><ele>302.0</ele><time>2026-04-12T07:12:14.001Z</time></trkpt><trkpt lat="43.40972796278259" lon="6.652659821690288"><ele>302.0</ele><time>2026-04-12T07:12:15.001Z</time></trkpt><trkpt lat="43.40980950971753" lon="6.652686136406339"><ele>302.0</ele><time>2026-04-12T07:12:16Z</time></trkpt><trkpt lat="43.40988790621087" lon="6.652726422179369"><ele>302.0</ele><time>2026-04-12T07:12:17Z</time></trkpt><trkpt lat="43.409983162425846" lon="6.652850329421216"><ele>299.6666666666667</ele><time>2026-04-12T07:12:19Z</time></trkpt><trkpt lat="43.41004221284264" lon="6.652914360706659"><ele>297.33333333333337</ele><time>2026-04-12T07:12:20Z</time></trkpt><trkpt lat="43.41012346101307" lon="6.652951985350884"><ele>295.0</ele><time>2026-04-12T07:12:21Z</time></trkpt><trkpt lat="43.41020466198602" lon="6.65296773283459"><ele>292.6666666666667</ele><time>2026-04-12T07:12:22Z</time></trkpt><trkpt lat="43.410265878754956" lon="6.6530078296292725"><ele>290.3333333333333</ele><time>2026-04-12T07:12:23Z</time></trkpt><trkpt lat="43.410327635321664" lon="6.653049637760928"><ele>288.0</ele><time>2026-04-12T07:12:24Z</time></trkpt><trkpt lat="43.41038758230375" lon="6.653115482841555"><ele>288.0</ele><time>2026-04-12T07:12:25Z</time></trkpt><trkpt lat="43.41047148967497" lon="6.653193596616777"><ele>288.0</ele><time>2026-04-12T07:12:27Z</time></trkpt><trkpt lat="43.41059137785644" lon="6.653174963447948"><ele>288.0</ele><time>2026-04-12T07:12:29Z</time></trkpt><trkpt lat="43.41065902503029" lon="6.6531313374734795"><ele>288.0</ele><time>2026-04-12T07:12:30Z</time></trkpt><trkpt lat="43.41075294304624" lon="6.653092469805791"><ele>288.0</ele><time>2026-04-12T07:12:31Z</time></trkpt><trkpt lat="43.41085046014593" lon="6.653060385663405"><ele>286.6</ele><time>2026-04-12T07:12:32Z</time></trkpt><trkpt lat="43.410958312108015" lon="6.65302934147103"><ele>285.20000000000005</ele><time>2026-04-12T07:12:33Z</time></trkpt><trkpt lat="43.41105495773537" lon="6.652996406606623"><ele>283.8</ele><time>2026-04-12T07:12:34Z</time></trkpt><trkpt lat="43.41117853174078" lon="6.652961831370972"><ele>282.40000000000003</ele><time>2026-04-12T07:12:35Z</time></trkpt><trkpt lat="43.411254287455364" lon="6.652919104311857"><ele>281.0</ele><time>2026-04-12T07:12:36Z</time></trkpt><trkpt lat="43.411323056162836" lon="6.652856036662963"><ele>280.6</ele><time>2026-04-12T07:12:37Z</time></trkpt><trkpt lat="43.41139909932093" lon="6.652764718435549"><ele>280.20000000000005</ele><time>2026-04-12T07:12:38Z</time></trkpt><trkpt lat="43.411500419590915" lon="6.652711864941172"><ele>279.79999999999995</ele><time>2026-04-12T07:12:39Z</time></trkpt><trkpt lat="43.411604278976604" lon="6.652665865440128"><ele>279.4</ele><time>2026-04-12T07:12:40Z</time></trkpt><trkpt lat="43.41169739936323" lon="6.6526434722398955"><ele>279.0</ele><time>2026-04-12T07:12:41Z</time></trkpt><trkpt lat="43.41177012000382" lon="6.652621779663941"><ele>279.0</ele><time>2026-04-12T07:12:42Z</time></trkpt><trkpt lat="43.41185665871691" lon="6.652600849453448"><ele>279.0</ele><time>2026-04-12T07:12:43Z</time></trkpt><trkpt lat="43.4119453137584" lon="6.652566742298482"><ele>279.0</ele><time>2026-04-12T07:12:44Z</time></trkpt><trkpt lat="43.41195524703035" lon="6.652429432203397"><ele>279.0</ele><time>2026-04-12T07:12:46Z</time></trkpt><trkpt lat="43.41192573292925" lon="6.652260411422488"><ele>279.0</ele><time>2026-04-12T07:12:48Z</time></trkpt><trkpt lat="43.4118696202394" lon="6.652101047700016"><ele>279.0</ele><time>2026-04-12T07:12:50Z</time></trkpt><trkpt lat="43.411828416062406" lon="6.652013771440157"><ele>279.0</ele><time>2026-04-12T07:12:51Z</time></trkpt><trkpt lat="43.41182125438498" lon="6.651889407389605"><ele>279.0</ele><time>2026-04-12T07:12:52Z</time></trkpt><trkpt lat="43.41181704574092" lon="6.6517850408943024"><ele>279.0</ele><time>2026-04-12T07:12:53Z</time></trkpt><trkpt lat="43.411800817220055" lon="6.651666056447774"><ele>279.0</ele><time>2026-04-12T07:12:55Z</time></trkpt><trkpt lat="43.41173762866947" lon="6.651593092623343"><ele>279.0</ele><time>2026-04-12T07:12:57Z</time></trkpt><trkpt lat="43.41163475806482" lon="6.651520685645544"><ele>280.8</ele><time>2026-04-12T07:12:58Z</time></trkpt><trkpt lat="43.411533363148585" lon="6.651482545135992"><ele>282.59999999999997</ele><time>2026-04-12T07:12:59Z</time></trkpt><trkpt lat="43.411448191079394" lon="6.651439995095741"><ele>284.4</ele><time>2026-04-12T07:13:00Z</time></trkpt><trkpt lat="43.411392207594744" lon="6.65139260366138"><ele>286.2</ele><time>2026-04-12T07:13:01Z</time></trkpt><trkpt lat="43.411275346870475" lon="6.6514037461886275"><ele>288.0</ele><time>2026-04-12T07:13:03Z</time></trkpt><trkpt lat="43.411203402906175" lon="6.651412989983363"><ele>292.0</ele><time>2026-04-12T07:13:04Z</time></trkpt><trkpt lat="43.41113568482036" lon="6.65142886119034"><ele>296.0</ele><time>2026-04-12T07:13:05Z</time></trkpt><trkpt lat="43.41105847440593" lon="6.651447800979695"><ele>300.0</ele><time>2026-04-12T07:13:06Z</time></trkpt><trkpt lat="43.41098661156994" lon="6.651431407805878"><ele>304.0</ele><time>2026-04-12T07:13:07Z</time></trkpt><trkpt lat="43.41091439216793" lon="6.651387923395554"><ele>308.0</ele><time>2026-04-12T07:13:08Z</time></trkpt><trkpt lat="43.41083154291991" lon="6.651346314280873"><ele>312.0</ele><time>2026-04-12T07:13:09Z</time></trkpt><trkpt lat="43.410741411521784" lon="6.651305923492959"><ele>312.0</ele><time>2026-04-12T07:13:10Z</time></trkpt><trkpt lat="43.41067056942619" lon="6.651264144586973"><ele>312.0</ele><time>2026-04-12T07:13:11Z</time></trkpt><trkpt lat="43.410616945754164" lon="6.651192977238568"><ele>312.0</ele><time>2026-04-12T07:13:12Z</time></trkpt><trkpt lat="43.41057947179125" lon="6.651096200074902"><ele>312.0</ele><time>2026-04-12T07:13:13Z</time></trkpt><trkpt lat="43.41053428473739" lon="6.651016177147573"><ele>312.0</ele><time>2026-04-12T07:13:14Z</time></trkpt><trkpt lat="43.41046256144887" lon="6.650961377598864"><ele>312.0</ele><time>2026-04-12T07:13:15Z</time></trkpt><trkpt lat="43.41040339776515" lon="6.650901711719963"><ele>313.8</ele><time>2026-04-12T07:13:16Z</time></trkpt><trkpt lat="43.41031974555528" lon="6.650845978254816"><ele>315.6</ele><time>2026-04-12T07:13:17Z</time></trkpt><trkpt lat="43.41023328772681" lon="6.650794343334277"><ele>317.40000000000003</ele><time>2026-04-12T07:13:18Z</time></trkpt><trkpt lat="43.41013564661441" lon="6.65073654420696"><ele>319.2</ele><time>2026-04-12T07:13:19Z</time></trkpt><trkpt lat="43.41004609693823" lon="6.650698885126455"><ele>321.0</ele><time>2026-04-12T07:13:20Z</time></trkpt><trkpt lat="43.40997289074466" lon="6.650685190955534"><ele>321.0</ele><time>2026-04-12T07:13:21Z</time></trkpt><trkpt lat="43.40989175648729" lon="6.650642214467176"><ele>321.0</ele><time>2026-04-12T07:13:22Z</time></trkpt><trkpt lat="43.409809876750806" lon="6.6506076813981005"><ele>321.0</ele><time>2026-04-12T07:13:23Z</time></trkpt><trkpt lat="43.409685513847975" lon="6.650602755559882"><ele>321.0</ele><time>2026-04-12T07:13:24Z</time></trkpt><trkpt lat="43.40956551118702" lon="6.650573567783568"><ele>321.0</ele><time>2026-04-12T07:13:26Z</time></trkpt><trkpt lat="43.40947385088864" lon="6.650575725199589"><ele>322.0</ele><time>2026-04-12T07:13:28Z</time></trkpt><trkpt lat="43.409435163780735" lon="6.650667501601658"><ele>323.0</ele><time>2026-04-12T07:13:32.001Z</time></trkpt><trkpt lat="43.4094027324157" lon="6.650749435797859"><ele>324.0</ele><time>2026-04-12T07:13:36.001Z</time></trkpt><trkpt lat="43.409382391908935" lon="6.650855204060987"><ele>325.0</ele><time>2026-04-12T07:13:39.001Z</time></trkpt><trkpt lat="43.40937963595227" lon="6.650956920941684"><ele>326.0</ele><time>2026-04-12T07:13:42.001Z</time></trkpt><trkpt lat="43.40945679905649" lon="6.650968110571002"><ele>327.0</ele><time>2026-04-12T07:13:45.001Z</time></trkpt><trkpt lat="43.40951592597925" lon="6.651044196098808"><ele>327.0</ele><time>2026-04-12T07:13:47.001Z</time></trkpt><trkpt lat="43.40964488296511" lon="6.651073999239777"><ele>327.0</ele><time>2026-04-12T07:13:49.001Z</time></trkpt><trkpt lat="43.409696000150674" lon="6.651133087859552"><ele>327.0</ele><time>2026-04-12T07:13:50.001Z</time></trkpt><trkpt lat="43.40975344057594" lon="6.651184754011485"><ele>327.0</ele><time>2026-04-12T07:13:51.001Z</time></trkpt><trkpt lat="43.40984208811098" lon="6.651196894016747"><ele>327.0</ele><time>2026-04-12T07:13:53.001Z</time></trkpt><trkpt lat="43.40992747851496" lon="6.651168504862416"><ele>327.0</ele><time>2026-04-12T07:13:55.001Z</time></trkpt><trkpt lat="43.409984405368476" lon="6.651234790587402"><ele>326.6666666666667</ele><time>2026-04-12T07:13:57.001Z</time></trkpt><trkpt lat="43.41002042940849" lon="6.651354516019519"><ele>326.3333333333333</ele><time>2026-04-12T07:13:59.001Z</time></trkpt><trkpt lat="43.410074005660064" lon="6.651410783575253"><ele>326.0</ele><time>2026-04-12T07:14:03.001Z</time></trkpt><trkpt lat="43.41015979759578" lon="6.651477611999049"><ele>325.66666666666663</ele><time>2026-04-12T07:14:06.001Z</time></trkpt><trkpt lat="43.410233862003786" lon="6.651469610939707"><ele>325.3333333333333</ele><time>2026-04-12T07:14:07.001Z</time></trkpt><trkpt lat="43.41031475869324" lon="6.651431196936054"><ele>325.0</ele><time>2026-04-12T07:14:09.001Z</time></trkpt><trkpt lat="43.41040444093744" lon="6.651502992686848"><ele>325.0</ele><time>2026-04-12T07:14:31Z</time></trkpt><trkpt lat="43.410386696121826" lon="6.651594383070574"><ele>325.0</ele><time>2026-04-12T07:14:34Z</time></trkpt><trkpt lat="43.41032895950793" lon="6.651642174092566"><ele>325.0</ele><time>2026-04-12T07:14:38Z</time></trkpt><trkpt lat="43.41027034920178" lon="6.651552151796835"><ele>325.0</ele><time>2026-04-12T07:14:41Z</time></trkpt><trkpt lat="43.41020946720003" lon="6.651502471330738"><ele>325.0</ele><time>2026-04-12T07:14:49Z</time></trkpt><trkpt lat="43.410144976479906" lon="6.65144613162228"><ele>325.0</ele><time>2026-04-12T07:14:52Z</time></trkpt><trkpt lat="43.41006220835813" lon="6.651381672407265"><ele>325.0</ele><time>2026-04-12T07:14:55Z</time></trkpt><trkpt lat="43.41003390325698" lon="6.651286108802609"><ele>325.0</ele><time>2026-04-12T07:14:58Z</time></trkpt><trkpt lat="43.409965522839144" lon="6.651240046041093"><ele>325.0</ele><time>2026-04-12T07:15:00Z</time></trkpt><trkpt lat="43.40979484325911" lon="6.651214492904299"><ele>325.0</ele><time>2026-04-12T07:15:02Z</time></trkpt><trkpt lat="43.40973679500472" lon="6.651178404176312"><ele>325.0</ele><time>2026-04-12T07:15:03Z</time></trkpt><trkpt lat="43.409681474474354" lon="6.651125398373333"><ele>325.3333333333333</ele><time>2026-04-12T07:15:04Z</time></trkpt><trkpt lat="43.40961267875282" lon="6.6510612484218825"><ele>325.66666666666663</ele><time>2026-04-12T07:15:05Z</time></trkpt><trkpt lat="43.40951954253643" lon="6.651033359822178"><ele>326.0</ele><time>2026-04-12T07:15:07Z</time></trkpt><trkpt lat="43.409435312833565" lon="6.65098061902608"><ele>326.3333333333333</ele><time>2026-04-12T07:15:09Z</time></trkpt><trkpt lat="43.409360665137456" lon="6.650921454038487"><ele>326.6666666666667</ele><time>2026-04-12T07:15:13Z</time></trkpt><trkpt lat="43.409380109108305" lon="6.650798850026046"><ele>327.0</ele><time>2026-04-12T07:15:16Z</time></trkpt><trkpt lat="43.409391846684244" lon="6.65070015626375"><ele>327.0</ele><time>2026-04-12T07:15:18Z</time></trkpt><trkpt lat="43.4094383211716" lon="6.650613673286635"><ele>327.0</ele><time>2026-04-12T07:15:23Z</time></trkpt><trkpt lat="43.409520060980725" lon="6.65061783885904"><ele>327.0</ele><time>2026-04-12T07:15:25Z</time></trkpt><trkpt lat="43.40958581375202" lon="6.650630318055731"><ele>327.0</ele><time>2026-04-12T07:15:28Z</time></trkpt><trkpt lat="43.40968350073444" lon="6.650655171342773"><ele>327.0</ele><time>2026-04-12T07:15:30Z</time></trkpt><trkpt lat="43.40975155376917" lon="6.650692583687564"><ele>327.0</ele><time>2026-04-12T07:15:31Z</time></trkpt><trkpt lat="43.40985061943854" lon="6.650704943096562"><ele>326.0</ele><time>2026-04-12T07:15:32Z</time></trkpt><trkpt lat="43.409942927897916" lon="6.650724378996198"><ele>325.0</ele><time>2026-04-12T07:15:33Z</time></trkpt><trkpt lat="43.41003109780457" lon="6.650756546679727"><ele>324.0</ele><time>2026-04-12T07:15:34.001Z</time></trkpt><trkpt lat="43.41010746867345" lon="6.650778285317229"><ele>323.0</ele><time>2026-04-12T07:15:35.001Z</time></trkpt><trkpt lat="43.410182410009796" lon="6.6507951883108865"><ele>322.0</ele><time>2026-04-12T07:15:36.001Z</time></trkpt><trkpt lat="43.410261793075975" lon="6.650835941740463"><ele>321.0</ele><time>2026-04-12T07:15:37.001Z</time></trkpt><trkpt lat="43.41034902816306" lon="6.65089707819893"><ele>321.0</ele><time>2026-04-12T07:15:38.001Z</time></trkpt><trkpt lat="43.41043251882925" lon="6.650964463103391"><ele>321.0</ele><time>2026-04-12T07:15:39.001Z</time></trkpt><trkpt lat="43.41051356486416" lon="6.651015566752022"><ele>321.0</ele><time>2026-04-12T07:15:40.001Z</time></trkpt><trkpt lat="43.41056332672033" lon="6.651081134458743"><ele>321.0</ele><time>2026-04-12T07:15:41.001Z</time></trkpt><trkpt lat="43.41062146853024" lon="6.6511493757739"><ele>321.0</ele><time>2026-04-12T07:15:42.001Z</time></trkpt><trkpt lat="43.410662507543556" lon="6.651227657403711"><ele>321.0</ele><time>2026-04-12T07:15:43.001Z</time></trkpt><trkpt lat="43.4107001303533" lon="6.651309172404086"><ele>319.5</ele><time>2026-04-12T07:15:44.001Z</time></trkpt><trkpt lat="43.410770296358756" lon="6.651350430244369"><ele>318.0</ele><time>2026-04-12T07:15:45.001Z</time></trkpt><trkpt lat="43.41084218027236" lon="6.651372217535649"><ele>316.5</ele><time>2026-04-12T07:15:46.001Z</time></trkpt><trkpt lat="43.41092266991158" lon="6.651398411721141"><ele>315.0</ele><time>2026-04-12T07:15:47.001Z</time></trkpt><trkpt lat="43.41100170789309" lon="6.651420282914313"><ele>313.5</ele><time>2026-04-12T07:15:48.001Z</time></trkpt><trkpt lat="43.41107147491287" lon="6.651451765522118"><ele>312.0</ele><time>2026-04-12T07:15:49.001Z</time></trkpt><trkpt lat="43.41114249812872" lon="6.651457027787847"><ele>312.0</ele><time>2026-04-12T07:15:50.001Z</time></trkpt><trkpt lat="43.41121149218642" lon="6.65144195484855"><ele>312.0</ele><time>2026-04-12T07:15:51.001Z</time></trkpt><trkpt lat="43.411271344331816" lon="6.65140793339682"><ele>312.0</ele><time>2026-04-12T07:15:52.001Z</time></trkpt><trkpt lat="43.411337316272714" lon="6.651385958728825"><ele>312.0</ele><time>2026-04-12T07:15:53.001Z</time></trkpt><trkpt lat="43.411401542418474" lon="6.651395298147702"><ele>312.0</ele><time>2026-04-12T07:15:54.001Z</time></trkpt><trkpt lat="43.41147719175193" lon="6.651430782006723"><ele>312.0</ele><time>2026-04-12T07:15:55.001Z</time></trkpt><trkpt lat="43.41158801602124" lon="6.651514205134321"><ele>308.0</ele><time>2026-04-12T07:15:57.001Z</time></trkpt><trkpt lat="43.411714161766376" lon="6.651567235976351"><ele>304.0</ele><time>2026-04-12T07:15:59.001Z</time></trkpt><trkpt lat="43.41180606812875" lon="6.65164901159059"><ele>300.0</ele><time>2026-04-12T07:16:01.001Z</time></trkpt><trkpt lat="43.41184688177438" lon="6.651716810792467"><ele>296.0</ele><time>2026-04-12T07:16:02.001Z</time></trkpt><trkpt lat="43.411872190897945" lon="6.651809695370025"><ele>292.0</ele><time>2026-04-12T07:16:03.001Z</time></trkpt><trkpt lat="43.41186722691119" lon="6.651898737349068"><ele>288.0</ele><time>2026-04-12T07:16:04.001Z</time></trkpt><trkpt lat="43.411870617992726" lon="6.651990866730993"><ele>286.5</ele><time>2026-04-12T07:16:05.001Z</time></trkpt><trkpt lat="43.411880694318704" lon="6.652083724320691"><ele>285.0</ele><time>2026-04-12T07:16:06.001Z</time></trkpt><trkpt lat="43.41191611475418" lon="6.65219506912739"><ele>283.5</ele><time>2026-04-12T07:16:08.001Z</time></trkpt><trkpt lat="43.41196209029653" lon="6.652303668149764"><ele>282.0</ele><time>2026-04-12T07:16:10.001Z</time></trkpt><trkpt lat="43.411934020067484" lon="6.652389017277485"><ele>280.5</ele><time>2026-04-12T07:16:12.001Z</time></trkpt><trkpt lat="43.41185355598715" lon="6.652423030771219"><ele>279.0</ele><time>2026-04-12T07:16:14.001Z</time></trkpt><trkpt lat="43.411785973035535" lon="6.65244047501731"><ele>279.0</ele><time>2026-04-12T07:16:15.001Z</time></trkpt><trkpt lat="43.41170476466018" lon="6.6524846000712"><ele>279.0</ele><time>2026-04-12T07:16:16.001Z</time></trkpt><trkpt lat="43.41157626506031" lon="6.652522055486422"><ele>279.0</ele><time>2026-04-12T07:16:18.001Z</time></trkpt><trkpt lat="43.411487865695726" lon="6.652563451543401"><ele>279.0</ele><time>2026-04-12T07:16:19.001Z</time></trkpt><trkpt lat="43.41139189619533" lon="6.652605776020096"><ele>279.0</ele><time>2026-04-12T07:16:20.001Z</time></trkpt><trkpt lat="43.411305624786415" lon="6.652700845124609"><ele>279.4</ele><time>2026-04-12T07:16:21.001Z</time></trkpt><trkpt lat="43.41123941326437" lon="6.652839507817265"><ele>279.79999999999995</ele><time>2026-04-12T07:16:22.001Z</time></trkpt><trkpt lat="43.411185540752506" lon="6.6529238536870166"><ele>280.20000000000005</ele><time>2026-04-12T07:16:23.001Z</time></trkpt><trkpt lat="43.41111281944169" lon="6.652994171460772"><ele>280.6</ele><time>2026-04-12T07:16:24.001Z</time></trkpt><trkpt lat="43.41103756640834" lon="6.653014579015621"><ele>281.0</ele><time>2026-04-12T07:16:25.001Z</time></trkpt><trkpt lat="43.41093731510839" lon="6.653041502730684"><ele>281.0</ele><time>2026-04-12T07:16:26.001Z</time></trkpt><trkpt lat="43.41083700965244" lon="6.653064810388323"><ele>281.0</ele><time>2026-04-12T07:16:27.001Z</time></trkpt><trkpt lat="43.41072821062089" lon="6.6530972742121754"><ele>281.0</ele><time>2026-04-12T07:16:28Z</time></trkpt><trkpt lat="43.41062693053627" lon="6.653138586299307"><ele>281.0</ele><time>2026-04-12T07:16:29Z</time></trkpt><trkpt lat="43.41055471747567" lon="6.653184091534909"><ele>281.0</ele><time>2026-04-12T07:16:30Z</time></trkpt><trkpt lat="43.41048225965221" lon="6.653191238410904"><ele>282.40000000000003</ele><time>2026-04-12T07:16:31Z</time></trkpt><trkpt lat="43.41038023536026" lon="6.653094036120558"><ele>283.8</ele><time>2026-04-12T07:16:33Z</time></trkpt><trkpt lat="43.410278769914534" lon="6.652995744517841"><ele>285.20000000000005</ele><time>2026-04-12T07:16:35Z</time></trkpt><trkpt lat="43.41019527798436" lon="6.652931205867512"><ele>286.6</ele><time>2026-04-12T07:16:36Z</time></trkpt><trkpt lat="43.41009915914345" lon="6.652888741305004"><ele>288.0</ele><time>2026-04-12T07:16:37Z</time></trkpt><trkpt lat="43.410018003343346" lon="6.652841824512827"><ele>290.8</ele><time>2026-04-12T07:16:38Z</time></trkpt><trkpt lat="43.409949289233744" lon="6.652787193116045"><ele>293.6</ele><time>2026-04-12T07:16:39Z</time></trkpt><trkpt lat="43.40988986832949" lon="6.652719356315372"><ele>296.4</ele><time>2026-04-12T07:16:40Z</time></trkpt><trkpt lat="43.40981563531909" lon="6.652630424079872"><ele>299.2</ele><time>2026-04-12T07:16:41Z</time></trkpt><trkpt lat="43.409706014339605" lon="6.652599154283535"><ele>302.0</ele><time>2026-04-12T07:16:42Z</time></trkpt><trkpt lat="43.40962374730546" lon="6.652588163781368"><ele>302.0</ele><time>2026-04-12T07:16:43Z</time></trkpt><trkpt lat="43.40953004865867" lon="6.6525431989826265"><ele>302.0</ele><time>2026-04-12T07:16:44Z</time></trkpt><trkpt lat="43.409418957898566" lon="6.652476964070708"><ele>302.0</ele><time>2026-04-12T07:16:45Z</time></trkpt><trkpt lat="43.40930365777004" lon="6.6524238089956516"><ele>302.0</ele><time>2026-04-12T07:16:46Z</time></trkpt><trkpt lat="43.40918270947606" lon="6.652371349988929"><ele>302.0</ele><time>2026-04-12T07:16:47Z</time></trkpt><trkpt lat="43.40908940982288" lon="6.652329970984198"><ele>302.0</ele><time>2026-04-12T07:16:48Z</time></trkpt><trkpt lat="43.408996716285536" lon="6.652304878526138"><ele>302.0</ele><time>2026-04-12T07:16:49Z</time></trkpt><trkpt lat="43.408930497411006" lon="6.652235909171308"><ele>302.0</ele><time>2026-04-12T07:16:50Z</time></trkpt><trkpt lat="43.40883771878786" lon="6.6521655385921585"><ele>302.0</ele><time>2026-04-12T07:16:51Z</time></trkpt><trkpt lat="43.40877439117506" lon="6.652060125855427"><ele>302.4</ele><time>2026-04-12T07:16:52Z</time></trkpt><trkpt lat="43.40869664318827" lon="6.651965943160407"><ele>302.79999999999995</ele><time>2026-04-12T07:16:53Z</time></trkpt><trkpt lat="43.40863367716281" lon="6.651897684752261"><ele>303.2</ele><time>2026-04-12T07:16:54Z</time></trkpt><trkpt lat="43.40849757046248" lon="6.651862713315732"><ele>303.59999999999997</ele><time>2026-04-12T07:16:56Z</time></trkpt><trkpt lat="43.40839947732521" lon="6.651892965776821"><ele>304.0</ele><time>2026-04-12T07:16:57Z</time></trkpt><trkpt lat="43.40832409407859" lon="6.651898678822921"><ele>304.0</ele><time>2026-04-12T07:16:58Z</time></trkpt><trkpt lat="43.40825237558089" lon="6.651882919052306"><ele>304.0</ele><time>2026-04-12T07:16:59Z</time></trkpt><trkpt lat="43.408183851939015" lon="6.651875025627236"><ele>304.0</ele><time>2026-04-12T07:17:00Z</time></trkpt><trkpt lat="43.40812173806445" lon="6.651823978746783"><ele>304.0</ele><time>2026-04-12T07:17:01Z</time></trkpt><trkpt lat="43.40806182213907" lon="6.651757358044404"><ele>304.0</ele><time>2026-04-12T07:17:02Z</time></trkpt><trkpt lat="43.40801556242793" lon="6.651695437725908"><ele>304.0</ele><time>2026-04-12T07:17:03Z</time></trkpt><trkpt lat="43.40796654711068" lon="6.651539047188606"><ele>299.0</ele><time>2026-04-12T07:17:05Z</time></trkpt><trkpt lat="43.40796341745719" lon="6.65142412586096"><ele>294.0</ele><time>2026-04-12T07:17:06Z</time></trkpt><trkpt lat="43.40797205440018" lon="6.6513019400859354"><ele>289.0</ele><time>2026-04-12T07:17:07Z</time></trkpt><trkpt lat="43.4079745882892" lon="6.651157277589302"><ele>284.0</ele><time>2026-04-12T07:17:08Z</time></trkpt><trkpt lat="43.4079752200086" lon="6.651004322737047"><ele>279.0</ele><time>2026-04-12T07:17:09Z</time></trkpt><trkpt lat="43.40796841981325" lon="6.650826930427979"><ele>279.0</ele><time>2026-04-12T07:17:10Z</time></trkpt><trkpt lat="43.40794587663545" lon="6.650639071036711"><ele>279.0</ele><time>2026-04-12T07:17:11Z</time></trkpt><trkpt lat="43.407915340155704" lon="6.650468574972828"><ele>279.0</ele><time>2026-04-12T07:17:12Z</time></trkpt><trkpt lat="43.40789962551652" lon="6.650327371377265"><ele>279.0</ele><time>2026-04-12T07:17:13Z</time></trkpt><trkpt lat="43.40789500465466" lon="6.6501703348364725"><ele>279.8</ele><time>2026-04-12T07:17:14Z</time></trkpt><trkpt lat="43.40787736815968" lon="6.650017556436151"><ele>280.59999999999997</ele><time>2026-04-12T07:17:15Z</time></trkpt><trkpt lat="43.40787533400959" lon="6.6498817916623025"><ele>281.4</ele><time>2026-04-12T07:17:16Z</time></trkpt><trkpt lat="43.40785430161719" lon="6.64974377752924"><ele>282.2</ele><time>2026-04-12T07:17:17Z</time></trkpt><trkpt lat="43.40785152080268" lon="6.6496180598410985"><ele>283.0</ele><time>2026-04-12T07:17:18Z</time></trkpt><trkpt lat="43.407838575448324" lon="6.649489043906423"><ele>284.2</ele><time>2026-04-12T07:17:19Z</time></trkpt><trkpt lat="43.407804775802305" lon="6.649351563024888"><ele>285.4</ele><time>2026-04-12T07:17:20Z</time></trkpt><trkpt lat="43.40777171629384" lon="6.649218618783063"><ele>286.59999999999997</ele><time>2026-04-12T07:17:21Z</time></trkpt><trkpt lat="43.40773076267762" lon="6.649071116313315"><ele>287.8</ele><time>2026-04-12T07:17:22Z</time></trkpt><trkpt lat="43.407677774809365" lon="6.648934773184364"><ele>289.0</ele><time>2026-04-12T07:17:23Z</time></trkpt><trkpt lat="43.40761385547255" lon="6.648820470871852"><ele>289.0</ele><time>2026-04-12T07:17:24Z</time></trkpt><trkpt lat="43.407522323913085" lon="6.648697423859192"><ele>289.0</ele><time>2026-04-12T07:17:25Z</time></trkpt><trkpt lat="43.407423785259304" lon="6.648566251049995"><ele>289.0</ele><time>2026-04-12T07:17:26Z</time></trkpt><trkpt lat="43.407315178528634" lon="6.648438018812039"><ele>289.0</ele><time>2026-04-12T07:17:27Z</time></trkpt><trkpt lat="43.40720050027732" lon="6.6483469747576445"><ele>288.5</ele><time>2026-04-12T07:17:28Z</time></trkpt><trkpt lat="43.40709033514982" lon="6.648309224359819"><ele>288.0</ele><time>2026-04-12T07:17:29Z</time></trkpt><trkpt lat="43.40694636732715" lon="6.648280608549521"><ele>287.5</ele><time>2026-04-12T07:17:30Z</time></trkpt><trkpt lat="43.40678301555945" lon="6.648239420268915"><ele>287.0</ele><time>2026-04-12T07:17:31Z</time></trkpt><trkpt lat="43.40659976580322" lon="6.648188584748511"><ele>287.0</ele><time>2026-04-12T07:17:32Z</time></trkpt><trkpt lat="43.40643771184542" lon="6.6481218910399305"><ele>287.0</ele><time>2026-04-12T07:17:33Z</time></trkpt><trkpt lat="43.40629592057121" lon="6.648095197614222"><ele>287.0</ele><time>2026-04-12T07:17:34Z</time></trkpt><trkpt lat="43.40613085890271" lon="6.648078808866341"><ele>286.0</ele><time>2026-04-12T07:17:35Z</time></trkpt><trkpt lat="43.405970523849156" lon="6.648047153690831"><ele>285.0</ele><time>2026-04-12T07:17:36Z</time></trkpt><trkpt lat="43.40583125119594" lon="6.648017132999266"><ele>284.0</ele><time>2026-04-12T07:17:37Z</time></trkpt><trkpt lat="43.40573840046431" lon="6.648000158243575"><ele>283.0</ele><time>2026-04-12T07:17:38Z</time></trkpt><trkpt lat="43.40565279833623" lon="6.648009434590905"><ele>283.0</ele><time>2026-04-12T07:17:40Z</time></trkpt><trkpt lat="43.40569980889369" lon="6.647941441798023"><ele>283.0</ele><time>2026-04-12T07:17:44Z</time></trkpt><trkpt lat="43.4057698237802" lon="6.647873218426333"><ele>283.0</ele><time>2026-04-12T07:17:49.001Z</time></trkpt><trkpt lat="43.40577884944082" lon="6.64776389170621"><ele>283.0</ele><time>2026-04-12T07:17:50.001Z</time></trkpt><trkpt lat="43.40577919426114" lon="6.647647461166865"><ele>283.0</ele><time>2026-04-12T07:17:51.001Z</time></trkpt><trkpt lat="43.40576648928426" lon="6.6475424512210495"><ele>283.0</ele><time>2026-04-12T07:17:53.001Z</time></trkpt><trkpt lat="43.40567871284843" lon="6.647504715105761"><ele>284.8333333333333</ele><time>2026-04-12T07:17:55.001Z</time></trkpt><trkpt lat="43.40558417367189" lon="6.647453483933916"><ele>286.66666666666663</ele><time>2026-04-12T07:17:56.001Z</time></trkpt><trkpt lat="43.405541512275654" lon="6.647384058208513"><ele>288.5</ele><time>2026-04-12T07:17:57.001Z</time></trkpt><trkpt lat="43.40549107979054" lon="6.647300045363353"><ele>290.3333333333333</ele><time>2026-04-12T07:17:58.001Z</time></trkpt><trkpt lat="43.405423129292245" lon="6.647251679976231"><ele>292.1666666666667</ele><time>2026-04-12T07:17:59.001Z</time></trkpt><trkpt lat="43.40530506747395" lon="6.647227164752649"><ele>294.0</ele><time>2026-04-12T07:18:00.001Z</time></trkpt><trkpt lat="43.40520401722629" lon="6.647123596057504"><ele>294.59999999999997</ele><time>2026-04-12T07:18:01.001Z</time></trkpt><trkpt lat="43.40512611142738" lon="6.647081389059884"><ele>295.2</ele><time>2026-04-12T07:18:02.001Z</time></trkpt><trkpt lat="43.4050498386485" lon="6.647054842499031"><ele>295.79999999999995</ele><time>2026-04-12T07:18:03.001Z</time></trkpt><trkpt lat="43.40496027999206" lon="6.646991860273022"><ele>296.4</ele><time>2026-04-12T07:18:04.001Z</time></trkpt><trkpt lat="43.40487284626242" lon="6.646941322754273"><ele>297.0</ele><time>2026-04-12T07:18:05.001Z</time></trkpt><trkpt lat="43.404775724487884" lon="6.646910519274547"><ele>297.0</ele><time>2026-04-12T07:18:06.001Z</time></trkpt><trkpt lat="43.40468752529182" lon="6.646923466259379"><ele>297.0</ele><time>2026-04-12T07:18:07.001Z</time></trkpt><trkpt lat="43.40462155330193" lon="6.646933594056954"><ele>297.0</ele><time>2026-04-12T07:18:08.001Z</time></trkpt><trkpt lat="43.40454455228319" lon="6.646913204172228"><ele>297.0</ele><time>2026-04-12T07:18:09.001Z</time></trkpt><trkpt lat="43.40447291885866" lon="6.646862921845816"><ele>297.0</ele><time>2026-04-12T07:18:10.001Z</time></trkpt><trkpt lat="43.40438950172734" lon="6.6467760586804365"><ele>297.0</ele><time>2026-04-12T07:18:11.001Z</time></trkpt><trkpt lat="43.404312973643634" lon="6.6467100499347715"><ele>298.8</ele><time>2026-04-12T07:18:12.001Z</time></trkpt><trkpt lat="43.40423553122118" lon="6.646662718114131"><ele>300.6</ele><time>2026-04-12T07:18:13.001Z</time></trkpt><trkpt lat="43.40416407723937" lon="6.646638991960568"><ele>302.40000000000003</ele><time>2026-04-12T07:18:14.001Z</time></trkpt><trkpt lat="43.40407093247843" lon="6.646647463390028"><ele>304.2</ele><time>2026-04-12T07:18:15.001Z</time></trkpt><trkpt lat="43.40395737348361" lon="6.646619617642327"><ele>306.0</ele><time>2026-04-12T07:18:16.001Z</time></trkpt><trkpt lat="43.403846162945214" lon="6.646573979713215"><ele>307.6</ele><time>2026-04-12T07:18:17.001Z</time></trkpt><trkpt lat="43.40377736063362" lon="6.646564118059243"><ele>309.20000000000005</ele><time>2026-04-12T07:18:18.001Z</time></trkpt><trkpt lat="43.40368728082521" lon="6.646597582007113"><ele>310.79999999999995</ele><time>2026-04-12T07:18:19.001Z</time></trkpt><trkpt lat="43.403583139700785" lon="6.646631592332959"><ele>312.4</ele><time>2026-04-12T07:18:20.001Z</time></trkpt><trkpt lat="43.40346162087491" lon="6.646687517920244"><ele>314.0</ele><time>2026-04-12T07:18:21.001Z</time></trkpt><trkpt lat="43.40336417733544" lon="6.64672999207716"><ele>314.0</ele><time>2026-04-12T07:18:22.001Z</time></trkpt><trkpt lat="43.40327015104209" lon="6.646776070207276"><ele>314.0</ele><time>2026-04-12T07:18:23.001Z</time></trkpt><trkpt lat="43.40318381663152" lon="6.646783189964572"><ele>314.0</ele><time>2026-04-12T07:18:24.001Z</time></trkpt><trkpt lat="43.40308586597617" lon="6.646751327134728"><ele>314.0</ele><time>2026-04-12T07:18:25.001Z</time></trkpt><trkpt lat="43.40298922341228" lon="6.646728849496187"><ele>314.0</ele><time>2026-04-12T07:18:26.001Z</time></trkpt><trkpt lat="43.40290465068191" lon="6.646697972698524"><ele>314.8</ele><time>2026-04-12T07:18:27.001Z</time></trkpt><trkpt lat="43.40280362484842" lon="6.646636487898352"><ele>315.59999999999997</ele><time>2026-04-12T07:18:28.001Z</time></trkpt><trkpt lat="43.40271239291916" lon="6.646569426242738"><ele>316.4</ele><time>2026-04-12T07:18:29.001Z</time></trkpt><trkpt lat="43.40263323348752" lon="6.64651894637207"><ele>317.2</ele><time>2026-04-12T07:18:30.001Z</time></trkpt><trkpt lat="43.402525185210905" lon="6.646483781897749"><ele>318.0</ele><time>2026-04-12T07:18:31.001Z</time></trkpt><trkpt lat="43.402409181026776" lon="6.64645357026575"><ele>318.0</ele><time>2026-04-12T07:18:32.001Z</time></trkpt><trkpt lat="43.402301054562066" lon="6.6464595702399425"><ele>318.0</ele><time>2026-04-12T07:18:33.001Z</time></trkpt><trkpt lat="43.4021968945244" lon="6.646457650618072"><ele>318.0</ele><time>2026-04-12T07:18:34Z</time></trkpt><trkpt lat="43.402062145044745" lon="6.64647252225229"><ele>318.0</ele><time>2026-04-12T07:18:35Z</time></trkpt><trkpt lat="43.401929245734934" lon="6.646471893488933"><ele>318.0</ele><time>2026-04-12T07:18:36Z</time></trkpt><trkpt lat="43.40180020093526" lon="6.646480527598001"><ele>318.0</ele><time>2026-04-12T07:18:37Z</time></trkpt><trkpt lat="43.40169236359304" lon="6.646497507096018"><ele>318.0</ele><time>2026-04-12T07:18:38Z</time></trkpt><trkpt lat="43.401604614814815" lon="6.6465253135768325"><ele>318.0</ele><time>2026-04-12T07:18:39Z</time></trkpt><trkpt lat="43.40149886539111" lon="6.646575603042895"><ele>318.0</ele><time>2026-04-12T07:18:40Z</time></trkpt><trkpt lat="43.40140590841102" lon="6.6466567499488685"><ele>318.6</ele><time>2026-04-12T07:18:41Z</time></trkpt><trkpt lat="43.40132721072185" lon="6.64677284331246"><ele>319.20000000000005</ele><time>2026-04-12T07:18:42Z</time></trkpt><trkpt lat="43.40126889904553" lon="6.646894561831331"><ele>319.8</ele><time>2026-04-12T07:18:43Z</time></trkpt><trkpt lat="43.40119846705515" lon="6.646999599844998"><ele>320.40000000000003</ele><time>2026-04-12T07:18:44Z</time></trkpt><trkpt lat="43.401105048065546" lon="6.647083899122865"><ele>321.0</ele><time>2026-04-12T07:18:45Z</time></trkpt><trkpt lat="43.40101499813459" lon="6.647105625131433"><ele>321.0</ele><time>2026-04-12T07:18:46Z</time></trkpt><trkpt lat="43.400935714154826" lon="6.647114296234885"><ele>321.0</ele><time>2026-04-12T07:18:47Z</time></trkpt><trkpt lat="43.40088082025093" lon="6.647165106595667"><ele>321.0</ele><time>2026-04-12T07:18:48Z</time></trkpt><trkpt lat="43.40080866414722" lon="6.647281098644594"><ele>321.0</ele><time>2026-04-12T07:18:49Z</time></trkpt><trkpt lat="43.40071183619904" lon="6.64739954183084"><ele>321.0</ele><time>2026-04-12T07:18:50Z</time></trkpt><trkpt lat="43.400627676718884" lon="6.647512124906995"><ele>321.0</ele><time>2026-04-12T07:18:51Z</time></trkpt><trkpt lat="43.400570400298434" lon="6.64760445392785"><ele>321.0</ele><time>2026-04-12T07:18:53Z</time></trkpt><trkpt lat="43.40047939962205" lon="6.647608532987557"><ele>321.0</ele><time>2026-04-12T07:18:56Z</time></trkpt><trkpt lat="43.4003842294147" lon="6.647546415529978"><ele>321.0</ele><time>2026-04-12T07:18:58Z</time></trkpt><trkpt lat="43.40026648458616" lon="6.647471199953756"><ele>321.0</ele><time>2026-04-12T07:19:00Z</time></trkpt><trkpt lat="43.40020913981529" lon="6.647418763215699"><ele>318.8</ele><time>2026-04-12T07:19:01Z</time></trkpt><trkpt lat="43.40011738724035" lon="6.647324160552684"><ele>316.6</ele><time>2026-04-12T07:19:03Z</time></trkpt><trkpt lat="43.40007616525139" lon="6.647255625415084"><ele>314.4</ele><time>2026-04-12T07:19:04Z</time></trkpt><trkpt lat="43.400009318025866" lon="6.647147950373172"><ele>312.2</ele><time>2026-04-12T07:19:06Z</time></trkpt><trkpt lat="43.39988241408865" lon="6.647159720383599"><ele>310.0</ele><time>2026-04-12T07:19:08Z</time></trkpt><trkpt lat="43.399808705287775" lon="6.647170602894523"><ele>310.0</ele><time>2026-04-12T07:19:09Z</time></trkpt><trkpt lat="43.399745663013185" lon="6.647157077475206"><ele>310.0</ele><time>2026-04-12T07:19:10Z</time></trkpt><trkpt lat="43.399655628263716" lon="6.647060821773045"><ele>310.0</ele><time>2026-04-12T07:19:12Z</time></trkpt><trkpt lat="43.39958702972715" lon="6.647009514417864"><ele>310.0</ele><time>2026-04-12T07:19:14Z</time></trkpt><trkpt lat="43.39957197110538" lon="6.646922926191907"><ele>310.0</ele><time>2026-04-12T07:19:16Z</time></trkpt><trkpt lat="43.39951826102388" lon="6.646876497483654"><ele>310.0</ele><time>2026-04-12T07:19:18Z</time></trkpt><trkpt lat="43.39944617866053" lon="6.646867929421558"><ele>304.0</ele><time>2026-04-12T07:19:20Z</time></trkpt><trkpt lat="43.39937186434538" lon="6.646819029388023"><ele>298.0</ele><time>2026-04-12T07:19:22Z</time></trkpt><trkpt lat="43.39928797778071" lon="6.646790310780242"><ele>292.0</ele><time>2026-04-12T07:19:25Z</time></trkpt><trkpt lat="43.39922956084425" lon="6.646740872623368"><ele>286.0</ele><time>2026-04-12T07:20:07.001Z</time></trkpt><trkpt lat="43.3992026983669" lon="6.646629493922556"><ele>280.0</ele><time>2026-04-12T07:20:10.001Z</time></trkpt><trkpt lat="43.39916291074667" lon="6.646532366462567"><ele>274.0</ele><time>2026-04-12T07:20:12.001Z</time></trkpt><trkpt lat="43.39911683189059" lon="6.6464333895768934"><ele>274.0</ele><time>2026-04-12T07:20:14.001Z</time></trkpt><trkpt lat="43.39905842468782" lon="6.646363534044254"><ele>274.0</ele><time>2026-04-12T07:20:16.001Z</time></trkpt><trkpt lat="43.39902435690866" lon="6.646287090957931"><ele>274.0</ele><time>2026-04-12T07:20:18.001Z</time></trkpt><trkpt lat="43.39896729282427" lon="6.646219253657867"><ele>274.0</ele><time>2026-04-12T07:20:20.001Z</time></trkpt><trkpt lat="43.398936601284255" lon="6.646136221424794"><ele>274.0</ele><time>2026-04-12T07:20:22.001Z</time></trkpt><trkpt lat="43.398900573908065" lon="6.646031990828165"><ele>274.0</ele><time>2026-04-12T07:20:25.001Z</time></trkpt><trkpt lat="43.398828252880385" lon="6.645923712483163"><ele>267.8</ele><time>2026-04-12T07:20:27.001Z</time></trkpt><trkpt lat="43.39872730826845" lon="6.645933374389071"><ele>261.59999999999997</ele><time>2026-04-12T07:20:29.001Z</time></trkpt><trkpt lat="43.39860459933844" lon="6.645964436550664"><ele>255.4</ele><time>2026-04-12T07:20:31.001Z</time></trkpt><trkpt lat="43.39849511401227" lon="6.645964433830396"><ele>249.2</ele><time>2026-04-12T07:20:33.001Z</time></trkpt><trkpt lat="43.398410022648726" lon="6.645984516372327"><ele>243.0</ele><time>2026-04-12T07:20:34.001Z</time></trkpt><trkpt lat="43.39833322880187" lon="6.645978160109734"><ele>243.0</ele><time>2026-04-12T07:20:35.001Z</time></trkpt><trkpt lat="43.39826122622582" lon="6.6458918288066835"><ele>243.0</ele><time>2026-04-12T07:20:37.001Z</time></trkpt><trkpt lat="43.39828673103466" lon="6.645737447954859"><ele>243.0</ele><time>2026-04-12T07:20:39.001Z</time></trkpt><trkpt lat="43.39829716150403" lon="6.645645177886231"><ele>243.0</ele><time>2026-04-12T07:20:40Z</time></trkpt><trkpt lat="43.39822436481753" lon="6.645481378480701"><ele>243.0</ele><time>2026-04-12T07:20:42Z</time></trkpt><trkpt lat="43.398177927422935" lon="6.645387724941695"><ele>243.0</ele><time>2026-04-12T07:20:43Z</time></trkpt><trkpt lat="43.39813308499564" lon="6.645308884312107"><ele>243.0</ele><time>2026-04-12T07:20:44Z</time></trkpt><trkpt lat="43.39814093827663" lon="6.64519532585827"><ele>243.0</ele><time>2026-04-12T07:20:57Z</time></trkpt><trkpt lat="43.39820109220199" lon="6.6451440564167665"><ele>243.0</ele><time>2026-04-12T07:20:59Z</time></trkpt><trkpt lat="43.3983093142418" lon="6.645076306690402"><ele>243.0</ele><time>2026-04-12T07:21:01Z</time></trkpt><trkpt lat="43.39838131542267" lon="6.64505109031898"><ele>243.0</ele><time>2026-04-12T07:21:02Z</time></trkpt><trkpt lat="43.39844462304899" lon="6.644961769213812"><ele>241.2</ele><time>2026-04-12T07:21:04Z</time></trkpt><trkpt lat="43.39851905291424" lon="6.644871472994816"><ele>239.4</ele><time>2026-04-12T07:21:06Z</time></trkpt><trkpt lat="43.39859772793721" lon="6.644768523673439"><ele>237.59999999999997</ele><time>2026-04-12T07:21:08Z</time></trkpt><trkpt lat="43.398677464124944" lon="6.644654805627253"><ele>235.79999999999998</ele><time>2026-04-12T07:21:10Z</time></trkpt><trkpt lat="43.39875902064655" lon="6.644617246530861"><ele>234.0</ele><time>2026-04-12T07:21:11Z</time></trkpt><trkpt lat="43.39882147439858" lon="6.644571255968088"><ele>234.83333333333334</ele><time>2026-04-12T07:21:12Z</time></trkpt><trkpt lat="43.398877331700874" lon="6.644518718591066"><ele>235.66666666666669</ele><time>2026-04-12T07:21:13Z</time></trkpt><trkpt lat="43.39894366968908" lon="6.644482666665776"><ele>236.5</ele><time>2026-04-12T07:21:14Z</time></trkpt><trkpt lat="43.399067183808874" lon="6.644445196239224"><ele>237.33333333333334</ele><time>2026-04-12T07:21:16Z</time></trkpt><trkpt lat="43.39913122850669" lon="6.644434030358685"><ele>238.16666666666669</ele><time>2026-04-12T07:21:17Z</time></trkpt><trkpt lat="43.39920653028545" lon="6.644431025145579"><ele>239.0</ele><time>2026-04-12T07:21:18Z</time></trkpt><trkpt lat="43.39927926676154" lon="6.6444056362848505"><ele>236.16666666666669</ele><time>2026-04-12T07:21:19Z</time></trkpt><trkpt lat="43.399378416642826" lon="6.644323951320485"><ele>233.33333333333334</ele><time>2026-04-12T07:21:21Z</time></trkpt><trkpt lat="43.399413179461305" lon="6.644214017507621"><ele>230.5</ele><time>2026-04-12T07:21:22Z</time></trkpt><trkpt lat="43.39947835852474" lon="6.644138925971865"><ele>227.66666666666669</ele><time>2026-04-12T07:21:23Z</time></trkpt><trkpt lat="43.399528405233916" lon="6.644041050219421"><ele>224.83333333333334</ele><time>2026-04-12T07:21:24Z</time></trkpt><trkpt lat="43.39955023167125" lon="6.6439521999487585"><ele>222.0</ele><time>2026-04-12T07:21:25Z</time></trkpt><trkpt lat="43.399583935334306" lon="6.643836776901138"><ele>222.0</ele><time>2026-04-12T07:21:26Z</time></trkpt><trkpt lat="43.3996191996129" lon="6.643737003111908"><ele>222.0</ele><time>2026-04-12T07:21:27Z</time></trkpt><trkpt lat="43.399663008642435" lon="6.6436630660818965"><ele>222.0</ele><time>2026-04-12T07:21:28Z</time></trkpt><trkpt lat="43.399729689569625" lon="6.643626463022089"><ele>222.0</ele><time>2026-04-12T07:21:29Z</time></trkpt><trkpt lat="43.3998125934266" lon="6.643620013605707"><ele>222.0</ele><time>2026-04-12T07:21:30Z</time></trkpt><trkpt lat="43.399885820926976" lon="6.643583412836402"><ele>222.0</ele><time>2026-04-12T07:21:31Z</time></trkpt><trkpt lat="43.39994508467314" lon="6.643541337329594"><ele>222.0</ele><time>2026-04-12T07:21:32Z</time></trkpt><trkpt lat="43.40001739642684" lon="6.64349333367059"><ele>221.14285714285714</ele><time>2026-04-12T07:21:33Z</time></trkpt><trkpt lat="43.400076342948225" lon="6.643456636604118"><ele>220.2857142857143</ele><time>2026-04-12T07:21:34Z</time></trkpt><trkpt lat="43.40015993077777" lon="6.643444069502761"><ele>219.42857142857144</ele><time>2026-04-12T07:21:35Z</time></trkpt><trkpt lat="43.400223953546785" lon="6.643465816690463"><ele>218.57142857142856</ele><time>2026-04-12T07:21:36Z</time></trkpt><trkpt lat="43.40028860776602" lon="6.6434838379170404"><ele>217.71428571428572</ele><time>2026-04-12T07:21:37Z</time></trkpt><trkpt lat="43.400348745501695" lon="6.6434479032399825"><ele>216.85714285714286</ele><time>2026-04-12T07:21:38Z</time></trkpt><trkpt lat="43.400442548127636" lon="6.6434272144145075"><ele>216.0</ele><time>2026-04-12T07:21:40Z</time></trkpt><trkpt lat="43.40048324983239" lon="6.643302819413258"><ele>216.0</ele><time>2026-04-12T07:21:43Z</time></trkpt><trkpt lat="43.40056147290326" lon="6.643255145776581"><ele>216.0</ele><time>2026-04-12T07:21:45Z</time></trkpt><trkpt lat="43.40062165173187" lon="6.64316661318014"><ele>216.0</ele><time>2026-04-12T07:21:47Z</time></trkpt><trkpt lat="43.40065676421135" lon="6.6430332940371315"><ele>216.0</ele><time>2026-04-12T07:21:49Z</time></trkpt><trkpt lat="43.400670776765544" lon="6.642938173798998"><ele>216.0</ele><time>2026-04-12T07:21:50Z</time></trkpt><trkpt lat="43.400741137751" lon="6.642849173773925"><ele>216.0</ele><time>2026-04-12T07:21:52Z</time></trkpt><trkpt lat="43.40075452000342" lon="6.642764316253306"><ele>212.8</ele><time>2026-04-12T07:21:54Z</time></trkpt><trkpt lat="43.40076644484307" lon="6.642655565750632"><ele>209.60000000000002</ele><time>2026-04-12T07:21:56Z</time></trkpt><trkpt lat="43.40077343728433" lon="6.642522858497165"><ele>206.4</ele><time>2026-04-12T07:21:58Z</time></trkpt><trkpt lat="43.40070110024599" lon="6.642454059878041"><ele>203.2</ele><time>2026-04-12T07:22:00Z</time></trkpt><trkpt lat="43.40060282269798" lon="6.642406350772007"><ele>200.0</ele><time>2026-04-12T07:22:02Z</time></trkpt><trkpt lat="43.400554420762546" lon="6.642311631059258"><ele>200.0</ele><time>2026-04-12T07:22:03Z</time></trkpt><trkpt lat="43.40051280173442" lon="6.642219636272865"><ele>200.0</ele><time>2026-04-12T07:22:04.001Z</time></trkpt><trkpt lat="43.40049252348332" lon="6.642081517651563"><ele>200.0</ele><time>2026-04-12T07:22:06.001Z</time></trkpt><trkpt lat="43.40050941533826" lon="6.641963719811013"><ele>200.0</ele><time>2026-04-12T07:22:10.001Z</time></trkpt><trkpt lat="43.4004914017421" lon="6.641699780661687"><ele>197.8</ele><time>2026-04-12T07:22:11.001Z</time></trkpt><trkpt lat="43.40041814995467" lon="6.641657764688299"><ele>195.6</ele><time>2026-04-12T07:22:12.001Z</time></trkpt><trkpt lat="43.40036639029447" lon="6.6415859639462616"><ele>193.39999999999998</ele><time>2026-04-12T07:22:14.001Z</time></trkpt><trkpt lat="43.40031180501884" lon="6.641521625796084"><ele>191.2</ele><time>2026-04-12T07:22:16.001Z</time></trkpt><trkpt lat="43.40021802076425" lon="6.6413829489928045"><ele>189.0</ele><time>2026-04-12T07:22:18.001Z</time></trkpt><trkpt lat="43.40013724079994" lon="6.641308133865004"><ele>189.0</ele><time>2026-04-12T07:22:19.001Z</time></trkpt><trkpt lat="43.4000693781009" lon="6.64129159101193"><ele>189.0</ele><time>2026-04-12T07:22:20.001Z</time></trkpt><trkpt lat="43.40000443239895" lon="6.64123749323514"><ele>189.0</ele><time>2026-04-12T07:22:21.001Z</time></trkpt><trkpt lat="43.39995078875175" lon="6.641174016150806"><ele>189.0</ele><time>2026-04-12T07:22:22.001Z</time></trkpt><trkpt lat="43.39993950672561" lon="6.641049315400732"><ele>189.0</ele><time>2026-04-12T07:22:24.001Z</time></trkpt><trkpt lat="43.40004947187006" lon="6.640919027914384"><ele>190.33333333333334</ele><time>2026-04-12T07:22:26.001Z</time></trkpt><trkpt lat="43.40017009039087" lon="6.640924913384895"><ele>191.66666666666669</ele><time>2026-04-12T07:22:28.001Z</time></trkpt><trkpt lat="43.400253759361036" lon="6.640888725998614"><ele>193.0</ele><time>2026-04-12T07:22:30.001Z</time></trkpt><trkpt lat="43.40028367159924" lon="6.640786522505381"><ele>194.33333333333334</ele><time>2026-04-12T07:22:32.001Z</time></trkpt><trkpt lat="43.40031983320823" lon="6.64071075901306"><ele>195.66666666666669</ele><time>2026-04-12T07:22:33.001Z</time></trkpt><trkpt lat="43.40038767465877" lon="6.64065069226187"><ele>197.0</ele><time>2026-04-12T07:22:34.001Z</time></trkpt><trkpt lat="43.400445141878706" lon="6.64059511661754"><ele>197.00000000000003</ele><time>2026-04-12T07:22:35.001Z</time></trkpt><trkpt lat="43.40049523906571" lon="6.640525899894267"><ele>197.0</ele><time>2026-04-12T07:22:37.001Z</time></trkpt><trkpt lat="43.4005417141801" lon="6.6404073751119395"><ele>197.0</ele><time>2026-04-12T07:22:39.001Z</time></trkpt><trkpt lat="43.40058382766666" lon="6.640325228186527"><ele>197.0</ele><time>2026-04-12T07:22:40.001Z</time></trkpt><trkpt lat="43.40064682601189" lon="6.640248878036504"><ele>197.00000000000003</ele><time>2026-04-12T07:22:41.001Z</time></trkpt><trkpt lat="43.400715943156236" lon="6.640115599192584"><ele>197.0</ele><time>2026-04-12T07:22:43.001Z</time></trkpt><trkpt lat="43.40077509105552" lon="6.640070758610603"><ele>200.2</ele><time>2026-04-12T07:22:44.001Z</time></trkpt><trkpt lat="43.40085936357028" lon="6.6399568494127506"><ele>203.39999999999998</ele><time>2026-04-12T07:22:46Z</time></trkpt><trkpt lat="43.40092460242713" lon="6.639867507856155"><ele>206.60000000000002</ele><time>2026-04-12T07:22:48Z</time></trkpt><trkpt lat="43.40098471625173" lon="6.639743006990298"><ele>209.8</ele><time>2026-04-12T07:22:50Z</time></trkpt><trkpt lat="43.401012959500406" lon="6.639658283280289"><ele>213.0</ele><time>2026-04-12T07:22:51Z</time></trkpt><trkpt lat="43.40104100241738" lon="6.639576333808222"><ele>217.0</ele><time>2026-04-12T07:22:52Z</time></trkpt><trkpt lat="43.401087069031604" lon="6.639420549502359"><ele>221.0</ele><time>2026-04-12T07:22:54Z</time></trkpt><trkpt lat="43.40106526177787" lon="6.639270755969501"><ele>225.0</ele><time>2026-04-12T07:22:56Z</time></trkpt><trkpt lat="43.40105729466595" lon="6.639133625395778"><ele>229.0</ele><time>2026-04-12T07:22:58Z</time></trkpt><trkpt lat="43.40104672632353" lon="6.639002242769577"><ele>233.0</ele><time>2026-04-12T07:23:00Z</time></trkpt><trkpt lat="43.40107053715749" lon="6.638867469275887"><ele>233.00000000000003</ele><time>2026-04-12T07:23:02Z</time></trkpt><trkpt lat="43.401064222694544" lon="6.638744008178568"><ele>233.0</ele><time>2026-04-12T07:23:04Z</time></trkpt><trkpt lat="43.401083199572255" lon="6.638599866445346"><ele>233.0</ele><time>2026-04-12T07:23:06Z</time></trkpt><trkpt lat="43.40109258662332" lon="6.638481424841592"><ele>233.0</ele><time>2026-04-12T07:23:08Z</time></trkpt><trkpt lat="43.40108141959214" lon="6.638386244065043"><ele>233.00000000000003</ele><time>2026-04-12T07:23:10Z</time></trkpt><trkpt lat="43.40106815835616" lon="6.638298769557687"><ele>233.0</ele><time>2026-04-12T07:23:12Z</time></trkpt><trkpt lat="43.40102342444724" lon="6.638179295559977"><ele>236.33333333333334</ele><time>2026-04-12T07:23:14Z</time></trkpt><trkpt lat="43.400978344276496" lon="6.638100007422701"><ele>239.66666666666669</ele><time>2026-04-12T07:23:16Z</time></trkpt><trkpt lat="43.40092877984565" lon="6.637983503224201"><ele>243.0</ele><time>2026-04-12T07:23:18Z</time></trkpt><trkpt lat="43.40086278067773" lon="6.637837469785831"><ele>246.33333333333331</ele><time>2026-04-12T07:23:20Z</time></trkpt><trkpt lat="43.400835628962604" lon="6.637747400703123"><ele>249.66666666666666</ele><time>2026-04-12T07:23:21Z</time></trkpt><trkpt lat="43.40082171934575" lon="6.637661305341211"><ele>253.0</ele><time>2026-04-12T07:23:22Z</time></trkpt><trkpt lat="43.400751407950146" lon="6.637492816760269"><ele>255.66666666666666</ele><time>2026-04-12T07:23:24Z</time></trkpt><trkpt lat="43.40074508848573" lon="6.637397079112935"><ele>258.3333333333333</ele><time>2026-04-12T07:23:25Z</time></trkpt><trkpt lat="43.40073178059561" lon="6.637302734747192"><ele>261.0</ele><time>2026-04-12T07:23:26Z</time></trkpt><trkpt lat="43.40071641880235" lon="6.6372053758486995"><ele>263.6666666666667</ele><time>2026-04-12T07:23:27Z</time></trkpt><trkpt lat="43.40068669196799" lon="6.637039240109069"><ele>266.33333333333337</ele><time>2026-04-12T07:23:29Z</time></trkpt><trkpt lat="43.400648069137766" lon="6.636948602900881"><ele>269.0</ele><time>2026-04-12T07:23:30Z</time></trkpt><trkpt lat="43.40060153308656" lon="6.6367852363317015"><ele>271.6666666666667</ele><time>2026-04-12T07:23:32Z</time></trkpt><trkpt lat="43.40057965855829" lon="6.636690268061392"><ele>274.33333333333337</ele><time>2026-04-12T07:23:33Z</time></trkpt><trkpt lat="43.40055757582202" lon="6.6365894658821025"><ele>277.0</ele><time>2026-04-12T07:23:34Z</time></trkpt><trkpt lat="43.4006141333715" lon="6.636450368882472"><ele>279.6666666666667</ele><time>2026-04-12T07:23:36Z</time></trkpt><trkpt lat="43.400661777962966" lon="6.636374291332931"><ele>282.3333333333333</ele><time>2026-04-12T07:23:37Z</time></trkpt><trkpt lat="43.40070979905054" lon="6.636316433271202"><ele>285.0</ele><time>2026-04-12T07:23:38Z</time></trkpt><trkpt lat="43.400747683514936" lon="6.636239357766985"><ele>285.0</ele><time>2026-04-12T07:23:39Z</time></trkpt><trkpt lat="43.400786444270295" lon="6.636170157126149"><ele>285.0</ele><time>2026-04-12T07:23:40Z</time></trkpt><trkpt lat="43.40083293306876" lon="6.6359953740558195"><ele>285.0</ele><time>2026-04-12T07:23:42Z</time></trkpt><trkpt lat="43.400855993135316" lon="6.635891400231305"><ele>285.0</ele><time>2026-04-12T07:23:43Z</time></trkpt><trkpt lat="43.40083676964791" lon="6.6357968449462295"><ele>285.0</ele><time>2026-04-12T07:23:45Z</time></trkpt><trkpt lat="43.40074683880061" lon="6.635711516384263"><ele>288.1666666666667</ele><time>2026-04-12T07:23:47Z</time></trkpt><trkpt lat="43.400698125768436" lon="6.635649116744704"><ele>291.3333333333333</ele><time>2026-04-12T07:23:48Z</time></trkpt><trkpt lat="43.40066080788117" lon="6.6355689425037365"><ele>294.5</ele><time>2026-04-12T07:23:49Z</time></trkpt><trkpt lat="43.400629575673655" lon="6.63548811584068"><ele>297.66666666666663</ele><time>2026-04-12T07:23:50Z</time></trkpt><trkpt lat="43.40059441802528" lon="6.635335386082438"><ele>300.8333333333333</ele><time>2026-04-12T07:23:52Z</time></trkpt><trkpt lat="43.40051639696255" lon="6.635245258848653"><ele>304.0</ele><time>2026-04-12T07:23:54Z</time></trkpt><trkpt lat="43.40046359108172" lon="6.635191836476933"><ele>309.0</ele><time>2026-04-12T07:23:55Z</time></trkpt><trkpt lat="43.400412198024846" lon="6.635132493100977"><ele>314.0</ele><time>2026-04-12T07:23:56Z</time></trkpt><trkpt lat="43.40036324982103" lon="6.63506232844675"><ele>319.0</ele><time>2026-04-12T07:23:57Z</time></trkpt><trkpt lat="43.40033389580015" lon="6.6349806748580145"><ele>324.0</ele><time>2026-04-12T07:23:58Z</time></trkpt><trkpt lat="43.40031301097509" lon="6.634898338143635"><ele>329.0</ele><time>2026-04-12T07:23:59Z</time></trkpt><trkpt lat="43.400319491564474" lon="6.634808461047093"><ele>334.0</ele><time>2026-04-12T07:24:00.001Z</time></trkpt><trkpt lat="43.40036630562523" lon="6.634705305301078"><ele>339.0</ele><time>2026-04-12T07:24:01.001Z</time></trkpt><trkpt lat="43.40041866756571" lon="6.634591920202212"><ele>339.0</ele><time>2026-04-12T07:24:02.001Z</time></trkpt><trkpt lat="43.400443636138604" lon="6.6345030153789954"><ele>339.0</ele><time>2026-04-12T07:24:03.001Z</time></trkpt><trkpt lat="43.400445066006604" lon="6.634413313149256"><ele>339.0</ele><time>2026-04-12T07:24:06.001Z</time></trkpt><trkpt lat="43.40050811674651" lon="6.634306530153122"><ele>339.0</ele><time>2026-04-12T07:24:12.001Z</time></trkpt><trkpt lat="43.40059552576578" lon="6.634262320281232"><ele>339.0</ele><time>2026-04-12T07:24:13.001Z</time></trkpt><trkpt lat="43.40066518379879" lon="6.634203088675446"><ele>339.0</ele><time>2026-04-12T07:24:14.001Z</time></trkpt><trkpt lat="43.400744932931104" lon="6.63414053200631"><ele>339.4</ele><time>2026-04-12T07:24:15.001Z</time></trkpt><trkpt lat="43.400844907105494" lon="6.634082598406426"><ele>339.79999999999995</ele><time>2026-04-12T07:24:16.001Z</time></trkpt><trkpt lat="43.4009451934211" lon="6.6340449567482915"><ele>340.20000000000005</ele><time>2026-04-12T07:24:17.001Z</time></trkpt><trkpt lat="43.401044503877905" lon="6.634036039531278"><ele>340.6</ele><time>2026-04-12T07:24:18.001Z</time></trkpt><trkpt lat="43.40114109003301" lon="6.634050818086752"><ele>341.0</ele><time>2026-04-12T07:24:19.001Z</time></trkpt><trkpt lat="43.401233397561796" lon="6.6340600960918845"><ele>341.0</ele><time>2026-04-12T07:24:20.001Z</time></trkpt><trkpt lat="43.40130963031104" lon="6.634067857296822"><ele>341.0</ele><time>2026-04-12T07:24:21.001Z</time></trkpt><trkpt lat="43.40138025603605" lon="6.634062235729224"><ele>341.0</ele><time>2026-04-12T07:24:22.001Z</time></trkpt><trkpt lat="43.401502300066866" lon="6.634008980577188"><ele>341.0</ele><time>2026-04-12T07:24:24.001Z</time></trkpt><trkpt lat="43.40156610081789" lon="6.633956120653284"><ele>341.0</ele><time>2026-04-12T07:24:25.001Z</time></trkpt><trkpt lat="43.401625251213495" lon="6.633871831460547"><ele>341.0</ele><time>2026-04-12T07:24:26.001Z</time></trkpt><trkpt lat="43.401671877762666" lon="6.633776387844865"><ele>340.4</ele><time>2026-04-12T07:24:27.001Z</time></trkpt><trkpt lat="43.40171365269124" lon="6.633677738195299"><ele>339.8</ele><time>2026-04-12T07:24:28.001Z</time></trkpt><trkpt lat="43.40175760948047" lon="6.633565186517305"><ele>339.2</ele><time>2026-04-12T07:24:29.001Z</time></trkpt><trkpt lat="43.40176771864707" lon="6.63340870877314"><ele>338.59999999999997</ele><time>2026-04-12T07:24:30.001Z</time></trkpt><trkpt lat="43.40175726585932" lon="6.633243068521581"><ele>338.0</ele><time>2026-04-12T07:24:31.001Z</time></trkpt><trkpt lat="43.40174393850264" lon="6.633074117349688"><ele>338.0</ele><time>2026-04-12T07:24:32.001Z</time></trkpt><trkpt lat="43.401737836733965" lon="6.632904784760086"><ele>338.0</ele><time>2026-04-12T07:24:33.001Z</time></trkpt><trkpt lat="43.401738230060765" lon="6.6327402550934424"><ele>338.0</ele><time>2026-04-12T07:24:34.001Z</time></trkpt><trkpt lat="43.40173674261832" lon="6.632591293693177"><ele>338.0</ele><time>2026-04-12T07:24:35.001Z</time></trkpt><trkpt lat="43.40173190895449" lon="6.632449541570863"><ele>338.0</ele><time>2026-04-12T07:24:36.001Z</time></trkpt><trkpt lat="43.40172873054498" lon="6.632311019723686"><ele>338.0</ele><time>2026-04-12T07:24:37.001Z</time></trkpt><trkpt lat="43.40172684205074" lon="6.632168716580204"><ele>338.0</ele><time>2026-04-12T07:24:38.001Z</time></trkpt><trkpt lat="43.40172783654855" lon="6.632031392441428"><ele>338.0</ele><time>2026-04-12T07:24:39.001Z</time></trkpt><trkpt lat="43.40171294815004" lon="6.631860735248931"><ele>338.0</ele><time>2026-04-12T07:24:40.001Z</time></trkpt><trkpt lat="43.40171249705166" lon="6.631720907910753"><ele>337.83333333333337</ele><time>2026-04-12T07:24:41.001Z</time></trkpt><trkpt lat="43.401708171845165" lon="6.631614830483846"><ele>337.6666666666667</ele><time>2026-04-12T07:24:42.001Z</time></trkpt><trkpt lat="43.4017168191733" lon="6.631514482475359"><ele>337.5</ele><time>2026-04-12T07:24:43.001Z</time></trkpt><trkpt lat="43.40172571254397" lon="6.631353318165785"><ele>337.3333333333333</ele><time>2026-04-12T07:24:45.001Z</time></trkpt><trkpt lat="43.40174407218189" lon="6.631202845025477"><ele>337.16666666666663</ele><time>2026-04-12T07:24:47.001Z</time></trkpt><trkpt lat="43.40175704846454" lon="6.63111437505336"><ele>337.0</ele><time>2026-04-12T07:24:48.001Z</time></trkpt><trkpt lat="43.40178218495555" lon="6.631027118662066"><ele>340.0</ele><time>2026-04-12T07:24:49.001Z</time></trkpt><trkpt lat="43.40184592885634" lon="6.630933351943189"><ele>343.0</ele><time>2026-04-12T07:24:51.001Z</time></trkpt><trkpt lat="43.40190628653116" lon="6.630854353350089"><ele>346.0</ele><time>2026-04-12T07:24:53Z</time></trkpt><trkpt lat="43.401937087548795" lon="6.630284898030824"><ele>346.4</ele><time>2026-04-12T07:24:57Z</time></trkpt><trkpt lat="43.402010583042745" lon="6.63016458411194"><ele>346.8</ele><time>2026-04-12T07:24:58Z</time></trkpt><trkpt lat="43.4021038070744" lon="6.630058788669145"><ele>347.2</ele><time>2026-04-12T07:24:59Z</time></trkpt><trkpt lat="43.40219581149981" lon="6.6299831877179605"><ele>347.59999999999997</ele><time>2026-04-12T07:25:00Z</time></trkpt><trkpt lat="43.40227172310058" lon="6.629910331520743"><ele>348.0</ele><time>2026-04-12T07:25:01Z</time></trkpt><trkpt lat="43.402338096271194" lon="6.629802928995629"><ele>348.0</ele><time>2026-04-12T07:25:02Z</time></trkpt><trkpt lat="43.40242657765442" lon="6.629715397058041"><ele>348.0</ele><time>2026-04-12T07:25:03Z</time></trkpt><trkpt lat="43.40245745480956" lon="6.629638616779523"><ele>348.0</ele><time>2026-04-12T07:25:04Z</time></trkpt><trkpt lat="43.40246165595668" lon="6.62954949712498"><ele>348.0</ele><time>2026-04-12T07:25:05Z</time></trkpt><trkpt lat="43.40241750573076" lon="6.629416746190342"><ele>348.0</ele><time>2026-04-12T07:25:07Z</time></trkpt><trkpt lat="43.40237822329584" lon="6.6293361761398995"><ele>348.0</ele><time>2026-04-12T07:25:08Z</time></trkpt><trkpt lat="43.40237156718834" lon="6.629249622308839"><ele>351.2</ele><time>2026-04-12T07:25:09Z</time></trkpt><trkpt lat="43.402378612054164" lon="6.629122828690841"><ele>354.4</ele><time>2026-04-12T07:25:10Z</time></trkpt><trkpt lat="43.402381671961635" lon="6.629003239640143"><ele>357.59999999999997</ele><time>2026-04-12T07:25:11Z</time></trkpt><trkpt lat="43.40238274104667" lon="6.628847775484453"><ele>360.79999999999995</ele><time>2026-04-12T07:25:12Z</time></trkpt><trkpt lat="43.4023873289735" lon="6.62869291093125"><ele>364.0</ele><time>2026-04-12T07:25:13Z</time></trkpt><trkpt lat="43.40239889719611" lon="6.6285452717680755"><ele>367.0</ele><time>2026-04-12T07:25:14Z</time></trkpt><trkpt lat="43.402393968539556" lon="6.628418499345262"><ele>370.0</ele><time>2026-04-12T07:25:15Z</time></trkpt><trkpt lat="43.40235053745539" lon="6.628274831553758"><ele>373.0</ele><time>2026-04-12T07:25:16Z</time></trkpt><trkpt lat="43.40231559672884" lon="6.628193823180619"><ele>376.0</ele><time>2026-04-12T07:25:17Z</time></trkpt><trkpt lat="43.40229349204494" lon="6.628106588693359"><ele>379.0</ele><time>2026-04-12T07:25:18Z</time></trkpt><trkpt lat="43.40230519517699" lon="6.628012664510238"><ele>382.0</ele><time>2026-04-12T07:25:19Z</time></trkpt><trkpt lat="43.40233751239314" lon="6.627912857799591"><ele>382.0</ele><time>2026-04-12T07:25:20Z</time></trkpt><trkpt lat="43.40237567070944" lon="6.627812173551488"><ele>382.0</ele><time>2026-04-12T07:25:21Z</time></trkpt><trkpt lat="43.40239602023128" lon="6.627708895692538"><ele>382.0</ele><time>2026-04-12T07:25:22Z</time></trkpt><trkpt lat="43.40241092118389" lon="6.627586308415725"><ele>382.0</ele><time>2026-04-12T07:25:23Z</time></trkpt><trkpt lat="43.402426244612755" lon="6.627464510179332"><ele>382.0</ele><time>2026-04-12T07:25:24Z</time></trkpt><trkpt lat="43.40248124307687" lon="6.627352121807481"><ele>382.0</ele><time>2026-04-12T07:25:25Z</time></trkpt><trkpt lat="43.402544868741344" lon="6.627222459057489"><ele>385.8</ele><time>2026-04-12T07:25:26Z</time></trkpt><trkpt lat="43.40261180479767" lon="6.62714752559856"><ele>389.6</ele><time>2026-04-12T07:25:27Z</time></trkpt><trkpt lat="43.40273634197983" lon="6.627051104717171"><ele>393.40000000000003</ele><time>2026-04-12T07:25:29Z</time></trkpt><trkpt lat="43.402834396348666" lon="6.626995688976535"><ele>397.20000000000005</ele><time>2026-04-12T07:25:30Z</time></trkpt><trkpt lat="43.402915648883386" lon="6.6269369861147185"><ele>401.0</ele><time>2026-04-12T07:25:31Z</time></trkpt><trkpt lat="43.40299482869435" lon="6.626939945181744"><ele>404.0</ele><time>2026-04-12T07:25:32Z</time></trkpt><trkpt lat="43.4030869094084" lon="6.626875160145139"><ele>407.0</ele><time>2026-04-12T07:25:34Z</time></trkpt><trkpt lat="43.40315815702428" lon="6.626710725649852"><ele>410.0</ele><time>2026-04-12T07:25:36Z</time></trkpt><trkpt lat="43.40319129019552" lon="6.6265998736958105"><ele>413.0</ele><time>2026-04-12T07:25:37Z</time></trkpt><trkpt lat="43.4032321395961" lon="6.626506322433318"><ele>416.0</ele><time>2026-04-12T07:25:38Z</time></trkpt><trkpt lat="43.403255970476195" lon="6.62641953244882"><ele>415.99999999999994</ele><time>2026-04-12T07:25:39Z</time></trkpt><trkpt lat="43.40328715597334" lon="6.6263252681944325"><ele>416.0</ele><time>2026-04-12T07:25:40Z</time></trkpt><trkpt lat="43.403303328701114" lon="6.626225161524685"><ele>416.0</ele><time>2026-04-12T07:25:41Z</time></trkpt><trkpt lat="43.40329169967968" lon="6.626124110265997"><ele>416.0</ele><time>2026-04-12T07:25:42Z</time></trkpt><trkpt lat="43.40328137348856" lon="6.6260096132845785"><ele>415.99999999999994</ele><time>2026-04-12T07:25:43Z</time></trkpt><trkpt lat="43.40331474515732" lon="6.625893181247219"><ele>416.0</ele><time>2026-04-12T07:25:45Z</time></trkpt><trkpt lat="43.403376967990354" lon="6.625826014353371"><ele>419.0</ele><time>2026-04-12T07:25:48Z</time></trkpt><trkpt lat="43.403422738798305" lon="6.625757088305966"><ele>422.0</ele><time>2026-04-12T07:25:50Z</time></trkpt><trkpt lat="43.40353871660915" lon="6.62564761378079"><ele>425.0</ele><time>2026-04-12T07:25:52Z</time></trkpt><trkpt lat="43.40360034729945" lon="6.625599726629877"><ele>428.0</ele><time>2026-04-12T07:25:53Z</time></trkpt><trkpt lat="43.403675969945425" lon="6.62555405805232"><ele>431.0</ele><time>2026-04-12T07:25:54Z</time></trkpt><trkpt lat="43.4037656354575" lon="6.625496273499448"><ele>432.16666666666663</ele><time>2026-04-12T07:25:55Z</time></trkpt><trkpt lat="43.40384312286717" lon="6.625424106689134"><ele>433.3333333333333</ele><time>2026-04-12T07:25:56Z</time></trkpt><trkpt lat="43.40390947634841" lon="6.625354313327457"><ele>434.5</ele><time>2026-04-12T07:25:57Z</time></trkpt><trkpt lat="43.40398643121263" lon="6.625300864193392"><ele>435.66666666666663</ele><time>2026-04-12T07:25:58Z</time></trkpt><trkpt lat="43.404069399075595" lon="6.625258576368918"><ele>436.8333333333333</ele><time>2026-04-12T07:25:59Z</time></trkpt><trkpt lat="43.404144772092614" lon="6.625209936390095"><ele>438.0</ele><time>2026-04-12T07:26:00Z</time></trkpt><trkpt lat="43.40423034191051" lon="6.625177799500011"><ele>439.1666666666667</ele><time>2026-04-12T07:26:01Z</time></trkpt><trkpt lat="43.40430338948856" lon="6.625132090310005"><ele>440.33333333333337</ele><time>2026-04-12T07:26:02Z</time></trkpt><trkpt lat="43.404368757673794" lon="6.625079275395978"><ele>441.5</ele><time>2026-04-12T07:26:03Z</time></trkpt><trkpt lat="43.40442759948034" lon="6.625029442815845"><ele>442.6666666666667</ele><time>2026-04-12T07:26:04Z</time></trkpt><trkpt lat="43.40449635222925" lon="6.624996840332019"><ele>443.83333333333337</ele><time>2026-04-12T07:26:05Z</time></trkpt><trkpt lat="43.40458506345385" lon="6.624957729018515"><ele>445.0</ele><time>2026-04-12T07:26:06Z</time></trkpt><trkpt lat="43.40466508067121" lon="6.624906333909814"><ele>445.00000000000006</ele><time>2026-04-12T07:26:08.001Z</time></trkpt><trkpt lat="43.40463941067369" lon="6.6247492270607085"><ele>445.0</ele><time>2026-04-12T07:26:11.001Z</time></trkpt><trkpt lat="43.40460990926156" lon="6.624619482055927"><ele>445.0</ele><time>2026-04-12T07:26:13.001Z</time></trkpt><trkpt lat="43.40458130353644" lon="6.624518519105932"><ele>445.0</ele><time>2026-04-12T07:26:15.001Z</time></trkpt><trkpt lat="43.404556677597235" lon="6.624423703281661"><ele>445.00000000000006</ele><time>2026-04-12T07:26:17.001Z</time></trkpt><trkpt lat="43.40451816704153" lon="6.624329937846908"><ele>445.0</ele><time>2026-04-12T07:26:19.001Z</time></trkpt><trkpt lat="43.4044855893695" lon="6.6242072951553475"><ele>442.8</ele><time>2026-04-12T07:26:21.001Z</time></trkpt><trkpt lat="43.40448845399598" lon="6.624075349336053"><ele>440.6</ele><time>2026-04-12T07:26:23.001Z</time></trkpt><trkpt lat="43.40446217563686" lon="6.623969294884778"><ele>438.4</ele><time>2026-04-12T07:26:25.001Z</time></trkpt><trkpt lat="43.40441257661846" lon="6.623835111680335"><ele>436.2</ele><time>2026-04-12T07:26:27.001Z</time></trkpt><trkpt lat="43.40436148624777" lon="6.623709464158613"><ele>434.0</ele><time>2026-04-12T07:26:29.001Z</time></trkpt><trkpt lat="43.404332276764706" lon="6.623617300920452"><ele>431.57142857142856</ele><time>2026-04-12T07:26:31.001Z</time></trkpt><trkpt lat="43.40428764004593" lon="6.623539672734886"><ele>429.1428571428571</ele><time>2026-04-12T07:26:34.001Z</time></trkpt><trkpt lat="43.40429454760578" lon="6.623450688419712"><ele>426.7142857142857</ele><time>2026-04-12T07:26:37.001Z</time></trkpt><trkpt lat="43.40427868206826" lon="6.623353901417723"><ele>424.2857142857143</ele><time>2026-04-12T07:26:49.001Z</time></trkpt><trkpt lat="43.404288648413115" lon="6.623258593943643"><ele>421.85714285714283</ele><time>2026-04-12T07:27:01Z</time></trkpt><trkpt lat="43.40420038881269" lon="6.623259095948557"><ele>419.42857142857144</ele><time>2026-04-12T07:27:05Z</time></trkpt><trkpt lat="43.40419608812139" lon="6.623166776215415"><ele>417.0</ele><time>2026-04-12T07:27:07Z</time></trkpt><trkpt lat="43.404169743473204" lon="6.623083565356367"><ele>417.0</ele><time>2026-04-12T07:27:11Z</time></trkpt><trkpt lat="43.40421304864967" lon="6.62297505893466"><ele>417.0</ele><time>2026-04-12T07:27:14Z</time></trkpt><trkpt lat="43.404215982103715" lon="6.62284345827744"><ele>417.0</ele><time>2026-04-12T07:27:16Z</time></trkpt><trkpt lat="43.404187204018264" lon="6.622731230753383"><ele>417.0</ele><time>2026-04-12T07:27:18Z</time></trkpt><trkpt lat="43.40417263472265" lon="6.622631674146927"><ele>417.0</ele><time>2026-04-12T07:27:20Z</time></trkpt><trkpt lat="43.404127065780635" lon="6.622527350338826"><ele>417.0</ele><time>2026-04-12T07:27:24Z</time></trkpt><trkpt lat="43.40411502621047" lon="6.62244031526965"><ele>413.25</ele><time>2026-04-12T07:27:26Z</time></trkpt><trkpt lat="43.404038335643335" lon="6.6223358233373"><ele>409.5</ele><time>2026-04-12T07:27:28Z</time></trkpt><trkpt lat="43.40402471949494" lon="6.622205979855228"><ele>405.75</ele><time>2026-04-12T07:27:31Z</time></trkpt><trkpt lat="43.40400336512052" lon="6.621878111763978"><ele>402.0</ele><time>2026-04-12T07:27:35Z</time></trkpt><trkpt lat="43.40403416413538" lon="6.621786399889304"><ele>402.0</ele><time>2026-04-12T07:27:37Z</time></trkpt><trkpt lat="43.40409588241491" lon="6.621740314625407"><ele>402.0</ele><time>2026-04-12T07:27:39Z</time></trkpt><trkpt lat="43.40420605566561" lon="6.621823141237124"><ele>402.0</ele><time>2026-04-12T07:27:49Z</time></trkpt><trkpt lat="43.404295399410564" lon="6.621898845201764"><ele>402.0</ele><time>2026-04-12T07:27:50Z</time></trkpt><trkpt lat="43.40436379032253" lon="6.62196432330971"><ele>402.0</ele><time>2026-04-12T07:27:51Z</time></trkpt><trkpt lat="43.40443688144388" lon="6.622012138679584"><ele>402.0</ele><time>2026-04-12T07:27:52Z</time></trkpt><trkpt lat="43.40455513123774" lon="6.622031829458195"><ele>402.0</ele><time>2026-04-12T07:27:54Z</time></trkpt><trkpt lat="43.40464764990157" lon="6.62205493932325"><ele>402.0</ele><time>2026-04-12T07:27:56Z</time></trkpt><trkpt lat="43.40472189040867" lon="6.622075144726168"><ele>402.0</ele><time>2026-04-12T07:27:58Z</time></trkpt><trkpt lat="43.40476649906257" lon="6.621996362691026"><ele>402.0</ele><time>2026-04-12T07:28:05Z</time></trkpt><trkpt lat="43.40472030677631" lon="6.6220906748744754"><ele>402.0</ele><time>2026-04-12T07:28:08Z</time></trkpt><trkpt lat="43.40472808075964" lon="6.621964941783682"><ele>395.8333333333333</ele><time>2026-04-12T07:28:21.001Z</time></trkpt><trkpt lat="43.40473016431012" lon="6.621860395869658"><ele>389.6666666666667</ele><time>2026-04-12T07:28:31.001Z</time></trkpt><trkpt lat="43.40481193663625" lon="6.621862557238936"><ele>383.5</ele><time>2026-04-12T07:28:35.001Z</time></trkpt><trkpt lat="43.404841036478366" lon="6.621752427399352"><ele>377.33333333333337</ele><time>2026-04-12T07:28:42.001Z</time></trkpt><trkpt lat="43.40490916429168" lon="6.6216995974753665"><ele>371.1666666666667</ele><time>2026-04-12T07:28:46.001Z</time></trkpt><trkpt lat="43.404986699263176" lon="6.621691656514044"><ele>365.0</ele><time>2026-04-12T07:28:49.001Z</time></trkpt><trkpt lat="43.405053526793374" lon="6.62167189381814"><ele>365.0</ele><time>2026-04-12T07:28:50.001Z</time></trkpt><trkpt lat="43.40510739509249" lon="6.621617318243193"><ele>365.0</ele><time>2026-04-12T07:28:52.001Z</time></trkpt><trkpt lat="43.4052317692099" lon="6.621570414278961"><ele>365.0</ele><time>2026-04-12T07:28:55.001Z</time></trkpt><trkpt lat="43.405329885889316" lon="6.621521694868696"><ele>365.0</ele><time>2026-04-12T07:28:57.001Z</time></trkpt><trkpt lat="43.4054184002329" lon="6.621506698804515"><ele>365.0</ele><time>2026-04-12T07:29:00.001Z</time></trkpt><trkpt lat="43.405515478604094" lon="6.621492733803667"><ele>361.0</ele><time>2026-04-12T07:29:02.001Z</time></trkpt><trkpt lat="43.40561935056805" lon="6.621462298237693"><ele>357.0</ele><time>2026-04-12T07:29:04Z</time></trkpt><trkpt lat="43.40568813629331" lon="6.621451051902711"><ele>353.0</ele><time>2026-04-12T07:29:06Z</time></trkpt><trkpt lat="43.40578221279302" lon="6.621440128736999"><ele>349.0</ele><time>2026-04-12T07:29:08Z</time></trkpt><trkpt lat="43.40587891285691" lon="6.621418046990055"><ele>345.0</ele><time>2026-04-12T07:29:11Z</time></trkpt><trkpt lat="43.405950044089295" lon="6.621387312035238"><ele>341.0</ele><time>2026-04-12T07:29:13Z</time></trkpt><trkpt lat="43.40600568580391" lon="6.621343039095033"><ele>341.0</ele><time>2026-04-12T07:29:20Z</time></trkpt><trkpt lat="43.40608181158562" lon="6.621296677000351"><ele>341.0</ele><time>2026-04-12T07:29:24Z</time></trkpt><trkpt lat="43.406134473675635" lon="6.621227082877214"><ele>341.0</ele><time>2026-04-12T07:29:27Z</time></trkpt><trkpt lat="43.406208508460864" lon="6.621193339656119"><ele>341.0</ele><time>2026-04-12T07:29:34Z</time></trkpt><trkpt lat="43.406249637317806" lon="6.6211245453097325"><ele>341.0</ele><time>2026-04-12T07:29:38Z</time></trkpt><trkpt lat="43.40632959421426" lon="6.621120686951988"><ele>341.0</ele><time>2026-04-12T07:29:41Z</time></trkpt><trkpt lat="43.406405650116824" lon="6.621069439252502"><ele>335.57142857142856</ele><time>2026-04-12T07:29:45Z</time></trkpt><trkpt lat="43.40647110859319" lon="6.621032238394577"><ele>330.14285714285717</ele><time>2026-04-12T07:29:48Z</time></trkpt><trkpt lat="43.40653846260293" lon="6.620992245963433"><ele>324.7142857142857</ele><time>2026-04-12T07:29:51Z</time></trkpt><trkpt lat="43.406606610518885" lon="6.620950131250145"><ele>319.2857142857143</ele><time>2026-04-12T07:29:56Z</time></trkpt><trkpt lat="43.40668859343165" lon="6.620918235925494"><ele>313.85714285714283</ele><time>2026-04-12T07:30:01Z</time></trkpt><trkpt lat="43.40676246296913" lon="6.620892894626047"><ele>308.42857142857144</ele><time>2026-04-12T07:30:04Z</time></trkpt><trkpt lat="43.40683058932953" lon="6.620896026787526"><ele>303.0</ele><time>2026-04-12T07:30:06Z</time></trkpt><trkpt lat="43.406931205364835" lon="6.620928140713838"><ele>298.75</ele><time>2026-04-12T07:30:10Z</time></trkpt><trkpt lat="43.4071608072859" lon="6.620897545271793"><ele>294.5</ele><time>2026-04-12T07:30:13Z</time></trkpt><trkpt lat="43.40726512318768" lon="6.620892759640216"><ele>290.25</ele><time>2026-04-12T07:30:14Z</time></trkpt><trkpt lat="43.40736091448942" lon="6.620913252105829"><ele>286.0</ele><time>2026-04-12T07:30:16Z</time></trkpt><trkpt lat="43.40742306827771" lon="6.620859845616522"><ele>286.0</ele><time>2026-04-12T07:30:17Z</time></trkpt><trkpt lat="43.407512914904814" lon="6.6208454279991145"><ele>286.0</ele><time>2026-04-12T07:30:19Z</time></trkpt><trkpt lat="43.40758088564571" lon="6.620819479939831"><ele>286.0</ele><time>2026-04-12T07:30:21.001Z</time></trkpt><trkpt lat="43.407702181062454" lon="6.620799427383186"><ele>286.0</ele><time>2026-04-12T07:30:23.001Z</time></trkpt><trkpt lat="43.40777597709625" lon="6.620781375367627"><ele>286.0</ele><time>2026-04-12T07:30:24.001Z</time></trkpt><trkpt lat="43.40784642598505" lon="6.620767571996644"><ele>286.0</ele><time>2026-04-12T07:30:26.001Z</time></trkpt><trkpt lat="43.40788861869405" lon="6.620682456324384"><ele>286.0</ele><time>2026-04-12T07:30:28.001Z</time></trkpt><trkpt lat="43.40796784181121" lon="6.6205965521344226"><ele>286.0</ele><time>2026-04-12T07:30:30.001Z</time></trkpt><trkpt lat="43.40804091500202" lon="6.620499278330069"><ele>286.0</ele><time>2026-04-12T07:30:32.001Z</time></trkpt><trkpt lat="43.40814644788769" lon="6.620518180871569"><ele>286.0</ele><time>2026-04-12T07:30:34.001Z</time></trkpt><trkpt lat="43.408218318048476" lon="6.620473681018537"><ele>286.0</ele><time>2026-04-12T07:30:36.001Z</time></trkpt><trkpt lat="43.4083073732248" lon="6.620449512830371"><ele>284.40000000000003</ele><time>2026-04-12T07:30:38.001Z</time></trkpt><trkpt lat="43.40843747843274" lon="6.6203457881317025"><ele>282.8</ele><time>2026-04-12T07:30:40.001Z</time></trkpt><trkpt lat="43.40854631898605" lon="6.620282513158065"><ele>281.20000000000005</ele><time>2026-04-12T07:30:42.001Z</time></trkpt><trkpt lat="43.408605695064516" lon="6.62025204031023"><ele>279.6</ele><time>2026-04-12T07:30:43.001Z</time></trkpt><trkpt lat="43.408692105450946" lon="6.620219378345721"><ele>278.0</ele><time>2026-04-12T07:30:45.001Z</time></trkpt><trkpt lat="43.408787226863694" lon="6.620154098225502"><ele>273.4</ele><time>2026-04-12T07:30:47.001Z</time></trkpt><trkpt lat="43.40889435136036" lon="6.620148123823174"><ele>268.8</ele><time>2026-04-12T07:30:49.001Z</time></trkpt><trkpt lat="43.40898240843666" lon="6.620065844776589"><ele>264.2</ele><time>2026-04-12T07:30:52.001Z</time></trkpt><trkpt lat="43.40907522161235" lon="6.620094110612501"><ele>259.6</ele><time>2026-04-12T07:31:40Z</time></trkpt><trkpt lat="43.40919154954487" lon="6.620174829585891"><ele>255.0</ele><time>2026-04-12T07:31:42Z</time></trkpt><trkpt lat="43.4092659188829" lon="6.620207794683993"><ele>255.0</ele><time>2026-04-12T07:31:43Z</time></trkpt><trkpt lat="43.40934714050672" lon="6.620263432781372"><ele>255.0</ele><time>2026-04-12T07:31:44Z</time></trkpt><trkpt lat="43.409456216663294" lon="6.620327967020267"><ele>255.0</ele><time>2026-04-12T07:31:45Z</time></trkpt><trkpt lat="43.40954144292616" lon="6.620389353951441"><ele>255.0</ele><time>2026-04-12T07:31:46Z</time></trkpt><trkpt lat="43.409594958719325" lon="6.62045647581453"><ele>255.0</ele><time>2026-04-12T07:31:47Z</time></trkpt><trkpt lat="43.40965058860842" lon="6.620524684631946"><ele>253.66666666666666</ele><time>2026-04-12T07:31:48Z</time></trkpt><trkpt lat="43.40968281031995" lon="6.620600355287216"><ele>252.33333333333331</ele><time>2026-04-12T07:31:49Z</time></trkpt><trkpt lat="43.409701229039214" lon="6.620690743452866"><ele>251.0</ele><time>2026-04-12T07:31:50Z</time></trkpt><trkpt lat="43.409770336688304" lon="6.620800013177405"><ele>249.66666666666666</ele><time>2026-04-12T07:31:51Z</time></trkpt><trkpt lat="43.409803645138375" lon="6.620884660841827"><ele>248.33333333333331</ele><time>2026-04-12T07:31:52Z</time></trkpt><trkpt lat="43.40989857742259" lon="6.620912548030175"><ele>247.0</ele><time>2026-04-12T07:31:54Z</time></trkpt><trkpt lat="43.40997486172311" lon="6.620896166830277"><ele>247.0</ele><time>2026-04-12T07:31:56Z</time></trkpt><trkpt lat="43.41003770427619" lon="6.620821563598673"><ele>247.0</ele><time>2026-04-12T07:31:57Z</time></trkpt><trkpt lat="43.41006144193215" lon="6.620722839878176"><ele>247.0</ele><time>2026-04-12T07:31:58Z</time></trkpt><trkpt lat="43.41015218623018" lon="6.620750976040367"><ele>247.0</ele><time>2026-04-12T07:32:00Z</time></trkpt><trkpt lat="43.410286482627264" lon="6.620739379170585"><ele>247.0</ele><time>2026-04-12T07:32:02Z</time></trkpt><trkpt lat="43.41038266952242" lon="6.620773803069336"><ele>246.99999999999997</ele><time>2026-04-12T07:32:03Z</time></trkpt><trkpt lat="43.41043764530449" lon="6.620862773636769"><ele>247.0</ele><time>2026-04-12T07:32:04Z</time></trkpt><trkpt lat="43.41051671110127" lon="6.6209220526850086"><ele>247.0</ele><time>2026-04-12T07:32:05Z</time></trkpt><trkpt lat="43.41059411879354" lon="6.620990349968641"><ele>247.0</ele><time>2026-04-12T07:32:06Z</time></trkpt><trkpt lat="43.41067038106023" lon="6.621045175168022"><ele>246.99999999999997</ele><time>2026-04-12T07:32:07Z</time></trkpt><trkpt lat="43.41073329831072" lon="6.62109210345187"><ele>247.0</ele><time>2026-04-12T07:32:08Z</time></trkpt><trkpt lat="43.41080147554474" lon="6.621144097089459"><ele>246.8</ele><time>2026-04-12T07:32:09Z</time></trkpt><trkpt lat="43.41084997832458" lon="6.621292997113221"><ele>246.6</ele><time>2026-04-12T07:32:11Z</time></trkpt><trkpt lat="43.41092479945726" lon="6.621381839256421"><ele>246.40000000000003</ele><time>2026-04-12T07:32:13Z</time></trkpt><trkpt lat="43.41099791452474" lon="6.621343256770183"><ele>246.20000000000002</ele><time>2026-04-12T07:32:15Z</time></trkpt><trkpt lat="43.41106637879865" lon="6.621305606970168"><ele>246.0</ele><time>2026-04-12T07:32:17Z</time></trkpt><trkpt lat="43.410988112199995" lon="6.6213515965337315"><ele>246.0</ele><time>2026-04-12T07:32:32.001Z</time></trkpt><trkpt lat="43.41092017301334" lon="6.621362405075366"><ele>246.0</ele><time>2026-04-12T07:32:33.001Z</time></trkpt><trkpt lat="43.41085312635442" lon="6.6213745130716415"><ele>246.0</ele><time>2026-04-12T07:32:34.001Z</time></trkpt><trkpt lat="43.410788223301225" lon="6.621370692942652"><ele>246.0</ele><time>2026-04-12T07:32:37.001Z</time></trkpt><trkpt lat="43.41068771398864" lon="6.621370038057226"><ele>246.0</ele><time>2026-04-12T07:32:41.001Z</time></trkpt><trkpt lat="43.41063621941388" lon="6.621270791398911"><ele>246.0</ele><time>2026-04-12T07:32:43.001Z</time></trkpt><trkpt lat="43.41057376187075" lon="6.621317719972103"><ele>248.83333333333334</ele><time>2026-04-12T07:32:46.001Z</time></trkpt><trkpt lat="43.41047816481029" lon="6.621340255382057"><ele>251.66666666666669</ele><time>2026-04-12T07:32:48.001Z</time></trkpt><trkpt lat="43.410376272628326" lon="6.621349676369227"><ele>254.5</ele><time>2026-04-12T07:32:50.001Z</time></trkpt><trkpt lat="43.41030105282441" lon="6.621345152110001"><ele>257.33333333333337</ele><time>2026-04-12T07:32:51.001Z</time></trkpt><trkpt lat="43.41023229384501" lon="6.621386043969902"><ele>260.1666666666667</ele><time>2026-04-12T07:32:53.001Z</time></trkpt><trkpt lat="43.41022964961239" lon="6.621494062494472"><ele>263.0</ele><time>2026-04-12T07:32:56.001Z</time></trkpt><trkpt lat="43.41028535429376" lon="6.621539578941678"><ele>263.0</ele><time>2026-04-12T07:32:58.001Z</time></trkpt><trkpt lat="43.41035988444263" lon="6.6215422356853635"><ele>263.0</ele><time>2026-04-12T07:33:00.001Z</time></trkpt><trkpt lat="43.41044821179172" lon="6.621581882110722"><ele>263.0</ele><time>2026-04-12T07:33:02.001Z</time></trkpt><trkpt lat="43.41043454329207" lon="6.621670888095553"><ele>263.0</ele><time>2026-04-12T07:33:05.001Z</time></trkpt><trkpt lat="43.410381976758025" lon="6.621720776361412"><ele>263.0</ele><time>2026-04-12T07:33:07.001Z</time></trkpt><trkpt lat="43.41032137645355" lon="6.621760139847775"><ele>263.0</ele><time>2026-04-12T07:33:09.001Z</time></trkpt><trkpt lat="43.41024966783583" lon="6.621741880946632"><ele>263.0</ele><time>2026-04-12T07:33:11.001Z</time></trkpt><trkpt lat="43.41021548684561" lon="6.621823333270898"><ele>263.0</ele><time>2026-04-12T07:33:14.001Z</time></trkpt><trkpt lat="43.4101951630573" lon="6.621916609929752"><ele>263.0</ele><time>2026-04-12T07:33:17Z</time></trkpt><trkpt lat="43.41011278612864" lon="6.621957846170425"><ele>263.0</ele><time>2026-04-12T07:33:19Z</time></trkpt><trkpt lat="43.410021683306205" lon="6.622032799669844"><ele>263.0</ele><time>2026-04-12T07:33:21Z</time></trkpt><trkpt lat="43.40996769823278" lon="6.622102855066337"><ele>263.0</ele><time>2026-04-12T07:33:23Z</time></trkpt><trkpt lat="43.409918226384406" lon="6.622182748650803"><ele>263.0</ele><time>2026-04-12T07:33:27Z</time></trkpt><trkpt lat="43.40989172995078" lon="6.622264640343233"><ele>266.0</ele><time>2026-04-12T07:33:29Z</time></trkpt><trkpt lat="43.409908633904394" lon="6.622358566216629"><ele>269.0</ele><time>2026-04-12T07:33:31Z</time></trkpt><trkpt lat="43.40992941206067" lon="6.622472600959187"><ele>272.0</ele><time>2026-04-12T07:33:33Z</time></trkpt><trkpt lat="43.40994018724403" lon="6.622559807889352"><ele>275.0</ele><time>2026-04-12T07:33:34Z</time></trkpt><trkpt lat="43.40995100966651" lon="6.622713506165791"><ele>278.0</ele><time>2026-04-12T07:33:36Z</time></trkpt><trkpt lat="43.40992304719326" lon="6.622806676429722"><ele>281.0</ele><time>2026-04-12T07:33:39Z</time></trkpt><trkpt lat="43.40991628078383" lon="6.622926955586951"><ele>285.2</ele><time>2026-04-12T07:33:42Z</time></trkpt><trkpt lat="43.40992114741077" lon="6.6230936222625845"><ele>289.40000000000003</ele><time>2026-04-12T07:33:45Z</time></trkpt><trkpt lat="43.40991900783033" lon="6.623192898601878"><ele>293.6</ele><time>2026-04-12T07:33:46Z</time></trkpt><trkpt lat="43.40994146581664" lon="6.62328367684199"><ele>297.8</ele><time>2026-04-12T07:33:48Z</time></trkpt><trkpt lat="43.409936613882806" lon="6.623433760865381"><ele>302.0</ele><time>2026-04-12T07:33:54Z</time></trkpt><trkpt lat="43.4100081560718" lon="6.623508860943546"><ele>302.0</ele><time>2026-04-12T07:33:56Z</time></trkpt><trkpt lat="43.41006330741588" lon="6.623567384429967"><ele>302.0</ele><time>2026-04-12T07:33:58Z</time></trkpt><trkpt lat="43.410013524526484" lon="6.623645142965167"><ele>302.0</ele><time>2026-04-12T07:34:01Z</time></trkpt><trkpt lat="43.409899212115214" lon="6.623728730128943"><ele>302.0</ele><time>2026-04-12T07:34:04Z</time></trkpt><trkpt lat="43.40984151684219" lon="6.623790116388914"><ele>302.0</ele><time>2026-04-12T07:34:06Z</time></trkpt><trkpt lat="43.40992405547857" lon="6.623817931843058"><ele>302.0</ele><time>2026-04-12T07:34:09Z</time></trkpt><trkpt lat="43.40999431701028" lon="6.623850073213118"><ele>306.1666666666667</ele><time>2026-04-12T07:34:11Z</time></trkpt><trkpt lat="43.41004753989122" lon="6.6239603002850655"><ele>310.33333333333337</ele><time>2026-04-12T07:34:14Z</time></trkpt><trkpt lat="43.40997799510979" lon="6.623999153672727"><ele>314.5</ele><time>2026-04-12T07:34:17Z</time></trkpt><trkpt lat="43.4100325763817" lon="6.624062155829867"><ele>318.6666666666667</ele><time>2026-04-12T07:34:49.001Z</time></trkpt><trkpt lat="43.410083236770305" lon="6.624123264370026"><ele>322.8333333333333</ele><time>2026-04-12T07:34:53.001Z</time></trkpt><trkpt lat="43.41003568441727" lon="6.624194214740582"><ele>327.0</ele><time>2026-04-12T07:34:58.001Z</time></trkpt><trkpt lat="43.41008740232083" lon="6.624272083173374"><ele>327.0</ele><time>2026-04-12T07:35:25Z</time></trkpt><trkpt lat="43.41012855597774" lon="6.624371546332664"><ele>327.0</ele><time>2026-04-12T07:35:30Z</time></trkpt><trkpt lat="43.41019668707906" lon="6.624392132415895"><ele>327.0</ele><time>2026-04-12T07:35:33Z</time></trkpt><trkpt lat="43.410270892086565" lon="6.6244275943038025"><ele>327.0</ele><time>2026-04-12T07:35:35Z</time></trkpt><trkpt lat="43.41033705323476" lon="6.624407985459423"><ele>327.0</ele><time>2026-04-12T07:37:27.001Z</time></trkpt><trkpt lat="43.41036667302906" lon="6.624491981413818"><ele>327.0</ele><time>2026-04-12T07:37:39Z</time></trkpt><trkpt lat="43.410431417819865" lon="6.624538543613784"><ele>327.0</ele><time>2026-04-12T07:37:41Z</time></trkpt><trkpt lat="43.410514199749485" lon="6.624574309920301"><ele>332.1666666666667</ele><time>2026-04-12T07:37:44Z</time></trkpt><trkpt lat="43.410617573810654" lon="6.624604010985913"><ele>337.3333333333333</ele><time>2026-04-12T07:37:46Z</time></trkpt><trkpt lat="43.41071218368519" lon="6.624638621040075"><ele>342.5</ele><time>2026-04-12T07:37:48Z</time></trkpt><trkpt lat="43.410771162757456" lon="6.624700887668047"><ele>347.66666666666663</ele><time>2026-04-12T07:37:52Z</time></trkpt><trkpt lat="43.41084737836051" lon="6.624720371561891"><ele>352.8333333333333</ele><time>2026-04-12T07:37:56Z</time></trkpt><trkpt lat="43.410921230806245" lon="6.624682651749771"><ele>358.0</ele><time>2026-04-12T07:37:59Z</time></trkpt><trkpt lat="43.41095675459355" lon="6.624765262268276"><ele>358.0</ele><time>2026-04-12T07:38:02Z</time></trkpt><trkpt lat="43.410999314839685" lon="6.624857640742179"><ele>358.0</ele><time>2026-04-12T07:38:04Z</time></trkpt><trkpt lat="43.411074061940674" lon="6.624947973175175"><ele>358.0</ele><time>2026-04-12T07:38:06Z</time></trkpt><trkpt lat="43.411100244542396" lon="6.625039929701747"><ele>358.0</ele><time>2026-04-12T07:38:10Z</time></trkpt><trkpt lat="43.41114420367217" lon="6.625136593668386"><ele>358.0</ele><time>2026-04-12T07:38:14Z</time></trkpt><trkpt lat="43.4111808602687" lon="6.625227291529881"><ele>358.0</ele><time>2026-04-12T07:38:16Z</time></trkpt><trkpt lat="43.41122176550324" lon="6.62529591258552"><ele>358.0</ele><time>2026-04-12T07:38:18Z</time></trkpt><trkpt lat="43.411227842276624" lon="6.6254289222094656"><ele>358.0</ele><time>2026-04-12T07:38:20Z</time></trkpt><trkpt lat="43.41116501530106" lon="6.625348461530272"><ele>358.0</ele><time>2026-04-12T07:38:25Z</time></trkpt><trkpt lat="43.41110502339491" lon="6.625251818390525"><ele>358.0</ele><time>2026-04-12T07:38:29Z</time></trkpt><trkpt lat="43.411080533662826" lon="6.625332076480708"><ele>358.0</ele><time>2026-04-12T07:38:32Z</time></trkpt><trkpt lat="43.41111869849556" lon="6.625403245835068"><ele>358.0</ele><time>2026-04-12T07:38:34Z</time></trkpt><trkpt lat="43.411046047253535" lon="6.625435503182862"><ele>361.8571428571429</ele><time>2026-04-12T07:38:38Z</time></trkpt><trkpt lat="43.41096090113999" lon="6.625394827799587"><ele>365.7142857142857</ele><time>2026-04-12T07:38:40Z</time></trkpt><trkpt lat="43.41089931121255" lon="6.625456393251742"><ele>369.57142857142856</ele><time>2026-04-12T07:38:43Z</time></trkpt><trkpt lat="43.410828099021266" lon="6.62545571085311"><ele>373.42857142857144</ele><time>2026-04-12T07:38:47Z</time></trkpt><trkpt lat="43.41076157776952" lon="6.625458010758026"><ele>377.2857142857143</ele><time>2026-04-12T07:38:49.001Z</time></trkpt><trkpt lat="43.41069040352443" lon="6.625440484373801"><ele>381.14285714285717</ele><time>2026-04-12T07:39:03.001Z</time></trkpt><trkpt lat="43.41070864745542" lon="6.625527822239762"><ele>385.0</ele><time>2026-04-12T07:39:06.001Z</time></trkpt><trkpt lat="43.41075695731533" lon="6.625607577816431"><ele>385.00000000000006</ele><time>2026-04-12T07:39:09.001Z</time></trkpt><trkpt lat="43.41067919237159" lon="6.625684252567918"><ele>385.0</ele><time>2026-04-12T07:39:15.001Z</time></trkpt><trkpt lat="43.41069246471273" lon="6.625781121454666"><ele>385.0</ele><time>2026-04-12T07:39:19.001Z</time></trkpt><trkpt lat="43.410707756161344" lon="6.625878334808741"><ele>385.0</ele><time>2026-04-12T07:39:23.001Z</time></trkpt><trkpt lat="43.41072479144181" lon="6.625975704809329"><ele>385.00000000000006</ele><time>2026-04-12T07:39:27.001Z</time></trkpt><trkpt lat="43.41074046707777" lon="6.626067124015046"><ele>385.0</ele><time>2026-04-12T07:39:36Z</time></trkpt><trkpt lat="43.410727213735285" lon="6.62617971980398"><ele>387.6666666666667</ele><time>2026-04-12T07:39:40Z</time></trkpt><trkpt lat="43.41063735642867" lon="6.626180178975267"><ele>390.33333333333337</ele><time>2026-04-12T07:39:44Z</time></trkpt><trkpt lat="43.41054200996581" lon="6.626210540583277"><ele>393.0</ele><time>2026-04-12T07:39:47Z</time></trkpt><trkpt lat="43.41050617324383" lon="6.626301247915513"><ele>395.66666666666663</ele><time>2026-04-12T07:39:50Z</time></trkpt><trkpt lat="43.41045110575548" lon="6.626345238140526"><ele>398.3333333333333</ele><time>2026-04-12T07:39:52Z</time></trkpt><trkpt lat="43.41035593633751" lon="6.62637517960957"><ele>401.0</ele><time>2026-04-12T07:39:55Z</time></trkpt><trkpt lat="43.41022114732776" lon="6.626443889137505"><ele>403.8333333333333</ele><time>2026-04-12T07:39:56Z</time></trkpt><trkpt lat="43.4101408765684" lon="6.626433764754"><ele>406.66666666666663</ele><time>2026-04-12T07:39:58Z</time></trkpt><trkpt lat="43.410072200772106" lon="6.626397124152931"><ele>409.5</ele><time>2026-04-12T07:40:01Z</time></trkpt><trkpt lat="43.41004581101361" lon="6.626539903216901"><ele>412.33333333333337</ele><time>2026-04-12T07:40:03Z</time></trkpt><trkpt lat="43.41006767185369" lon="6.626659772249083"><ele>415.1666666666667</ele><time>2026-04-12T07:40:09Z</time></trkpt><trkpt lat="43.410050544217256" lon="6.626763848722219"><ele>418.0</ele><time>2026-04-12T07:40:11Z</time></trkpt><trkpt lat="43.409983197492416" lon="6.626869464461799"><ele>418.00000000000006</ele><time>2026-04-12T07:40:14Z</time></trkpt><trkpt lat="43.40991168467756" lon="6.626811414490916"><ele>418.0</ele><time>2026-04-12T07:40:18Z</time></trkpt><trkpt lat="43.40982561579212" lon="6.626825993796818"><ele>418.0</ele><time>2026-04-12T07:40:21Z</time></trkpt><trkpt lat="43.409750501160666" lon="6.626882523508189"><ele>418.0</ele><time>2026-04-12T07:40:25Z</time></trkpt><trkpt lat="43.40966900119315" lon="6.626967932477146"><ele>418.00000000000006</ele><time>2026-04-12T07:40:27Z</time></trkpt><trkpt lat="43.40961019251818" lon="6.627036273224636"><ele>418.0</ele><time>2026-04-12T07:40:28Z</time></trkpt><trkpt lat="43.40951822426539" lon="6.627004981637133"><ele>419.6666666666667</ele><time>2026-04-12T07:40:30Z</time></trkpt><trkpt lat="43.40945527949998" lon="6.62703514197231"><ele>421.33333333333337</ele><time>2026-04-12T07:40:34Z</time></trkpt><trkpt lat="43.40936581627061" lon="6.6270292862828715"><ele>423.0</ele><time>2026-04-12T07:40:38Z</time></trkpt><trkpt lat="43.40930094605078" lon="6.626969703437271"><ele>424.66666666666663</ele><time>2026-04-12T07:40:41Z</time></trkpt><trkpt lat="43.409224432180174" lon="6.626924917682264"><ele>426.3333333333333</ele><time>2026-04-12T07:40:43Z</time></trkpt><trkpt lat="43.40919463428722" lon="6.626834633953296"><ele>428.0</ele><time>2026-04-12T07:40:46Z</time></trkpt><trkpt lat="43.40919726959259" lon="6.626724841189118"><ele>429.66666666666663</ele><time>2026-04-12T07:40:49Z</time></trkpt><trkpt lat="43.409137491380385" lon="6.626667487444929"><ele>431.3333333333333</ele><time>2026-04-12T07:40:51Z</time></trkpt><trkpt lat="43.4090434737146" lon="6.626656585341237"><ele>433.0</ele><time>2026-04-12T07:40:53Z</time></trkpt><trkpt lat="43.40898242951614" lon="6.626606914513582"><ele>434.66666666666663</ele><time>2026-04-12T07:40:54.001Z</time></trkpt><trkpt lat="43.408920975072434" lon="6.626555824732015"><ele>436.3333333333333</ele><time>2026-04-12T07:40:55.001Z</time></trkpt><trkpt lat="43.40883979882123" lon="6.62655265419883"><ele>438.0</ele><time>2026-04-12T07:40:57.001Z</time></trkpt><trkpt lat="43.40874399745154" lon="6.626526070325173"><ele>438.3333333333333</ele><time>2026-04-12T07:40:59.001Z</time></trkpt><trkpt lat="43.408691681225534" lon="6.626434671315797"><ele>438.66666666666663</ele><time>2026-04-12T07:41:03.001Z</time></trkpt><trkpt lat="43.40861410682979" lon="6.626368705384931"><ele>439.0</ele><time>2026-04-12T07:41:05.001Z</time></trkpt><trkpt lat="43.408569013602616" lon="6.626305438069857"><ele>439.3333333333333</ele><time>2026-04-12T07:41:07.001Z</time></trkpt><trkpt lat="43.408503674845385" lon="6.626203202527076"><ele>439.66666666666663</ele><time>2026-04-12T07:41:09.001Z</time></trkpt><trkpt lat="43.408456274217585" lon="6.62614393492559"><ele>440.0</ele><time>2026-04-12T07:41:12.001Z</time></trkpt><trkpt lat="43.40839679389073" lon="6.626089157598422"><ele>441.66666666666663</ele><time>2026-04-12T07:41:13.001Z</time></trkpt><trkpt lat="43.408355937119744" lon="6.62598505497734"><ele>443.3333333333333</ele><time>2026-04-12T07:41:15.001Z</time></trkpt><trkpt lat="43.40829413551273" lon="6.6258875781717705"><ele>445.0</ele><time>2026-04-12T07:41:18.001Z</time></trkpt><trkpt lat="43.408218223319714" lon="6.62581388066648"><ele>446.66666666666663</ele><time>2026-04-12T07:41:25.001Z</time></trkpt><trkpt lat="43.40821429538155" lon="6.625719397621795"><ele>448.3333333333333</ele><time>2026-04-12T07:41:27.001Z</time></trkpt><trkpt lat="43.40816673531976" lon="6.625645337989734"><ele>450.0</ele><time>2026-04-12T07:41:30.001Z</time></trkpt><trkpt lat="43.408080760271794" lon="6.625661024329998"><ele>450.0</ele><time>2026-04-12T07:41:33.001Z</time></trkpt><trkpt lat="43.40801447967481" lon="6.625725251712808"><ele>450.0</ele><time>2026-04-12T07:41:35.001Z</time></trkpt><trkpt lat="43.40795215752739" lon="6.625684885088439"><ele>450.0</ele><time>2026-04-12T07:41:37.001Z</time></trkpt><trkpt lat="43.4078721857351" lon="6.625624980179045"><ele>450.0</ele><time>2026-04-12T07:41:40Z</time></trkpt><trkpt lat="43.407800022538254" lon="6.625586997497409"><ele>450.0</ele><time>2026-04-12T07:41:42Z</time></trkpt><trkpt lat="43.40774943406004" lon="6.625522997574002"><ele>450.0</ele><time>2026-04-12T07:41:44Z</time></trkpt><trkpt lat="43.40768099661079" lon="6.6255103556161945"><ele>450.3333333333333</ele><time>2026-04-12T07:41:49Z</time></trkpt><trkpt lat="43.407619171241016" lon="6.625463231316166"><ele>450.66666666666663</ele><time>2026-04-12T07:41:57Z</time></trkpt><trkpt lat="43.40754197867437" lon="6.6254132728384185"><ele>451.0</ele><time>2026-04-12T07:42:02Z</time></trkpt><trkpt lat="43.40747704173059" lon="6.625368657035593"><ele>451.3333333333333</ele><time>2026-04-12T07:42:04Z</time></trkpt><trkpt lat="43.407411954789495" lon="6.625321654995299"><ele>451.66666666666663</ele><time>2026-04-12T07:42:06Z</time></trkpt><trkpt lat="43.40734248514459" lon="6.625272867287207"><ele>452.0</ele><time>2026-04-12T07:42:08Z</time></trkpt><trkpt lat="43.407269452043536" lon="6.625275139699894"><ele>450.99999999999994</ele><time>2026-04-12T07:42:26Z</time></trkpt><trkpt lat="43.407199957707476" lon="6.625221583315436"><ele>450.0</ele><time>2026-04-12T07:42:29Z</time></trkpt><trkpt lat="43.407121182038814" lon="6.625177043918308"><ele>449.0</ele><time>2026-04-12T07:42:31Z</time></trkpt><trkpt lat="43.40703493345944" lon="6.625161009456803"><ele>448.0</ele><time>2026-04-12T07:42:34Z</time></trkpt><trkpt lat="43.406958346212065" lon="6.6251633897649835"><ele>446.99999999999994</ele><time>2026-04-12T07:42:37Z</time></trkpt><trkpt lat="43.406899692946894" lon="6.62520196364101"><ele>446.0</ele><time>2026-04-12T07:42:39Z</time></trkpt><trkpt lat="43.406811649142014" lon="6.625182343169898"><ele>449.0</ele><time>2026-04-12T07:42:41Z</time></trkpt><trkpt lat="43.40669257944188" lon="6.6251992145656295"><ele>452.0</ele><time>2026-04-12T07:42:43Z</time></trkpt><trkpt lat="43.406591467379556" lon="6.625172181044266"><ele>455.0</ele><time>2026-04-12T07:42:45Z</time></trkpt><trkpt lat="43.40652730160306" lon="6.625177094920562"><ele>458.0</ele><time>2026-04-12T07:43:17.001Z</time></trkpt><trkpt lat="43.406413453290035" lon="6.625118972560922"><ele>461.0</ele><time>2026-04-12T07:43:19.001Z</time></trkpt><trkpt lat="43.406295910896155" lon="6.625085142006699"><ele>461.8333333333333</ele><time>2026-04-12T07:43:21.001Z</time></trkpt><trkpt lat="43.40621734301221" lon="6.625100303541954"><ele>462.66666666666663</ele><time>2026-04-12T07:43:22.001Z</time></trkpt><trkpt lat="43.406140335439474" lon="6.625119321703538"><ele>463.5</ele><time>2026-04-12T07:43:23.001Z</time></trkpt><trkpt lat="43.406063481313865" lon="6.625164193801026"><ele>464.33333333333337</ele><time>2026-04-12T07:43:24.001Z</time></trkpt><trkpt lat="43.405969051838014" lon="6.625188046896934"><ele>465.1666666666667</ele><time>2026-04-12T07:43:25.001Z</time></trkpt><trkpt lat="43.40586953125356" lon="6.625195831381605"><ele>466.0</ele><time>2026-04-12T07:43:26.001Z</time></trkpt><trkpt lat="43.40579748325576" lon="6.625156537169283"><ele>466.00000000000006</ele><time>2026-04-12T07:43:27.001Z</time></trkpt><trkpt lat="43.40571784471899" lon="6.625125888258446"><ele>466.0</ele><time>2026-04-12T07:43:28.001Z</time></trkpt><trkpt lat="43.405638456073135" lon="6.625134238373082"><ele>466.0</ele><time>2026-04-12T07:43:29.001Z</time></trkpt><trkpt lat="43.40556199672254" lon="6.625175086721643"><ele>466.0</ele><time>2026-04-12T07:43:30.001Z</time></trkpt><trkpt lat="43.405486126176825" lon="6.625185282670831"><ele>466.00000000000006</ele><time>2026-04-12T07:43:31.001Z</time></trkpt><trkpt lat="43.40539031079921" lon="6.6251400574602455"><ele>466.0</ele><time>2026-04-12T07:43:32.001Z</time></trkpt><trkpt lat="43.40529916184388" lon="6.625087832337993"><ele>466.00000000000006</ele><time>2026-04-12T07:43:33.001Z</time></trkpt><trkpt lat="43.40522631539169" lon="6.625060910410991"><ele>466.0</ele><time>2026-04-12T07:43:34.001Z</time></trkpt><trkpt lat="43.405147016415754" lon="6.625053241983197"><ele>466.0</ele><time>2026-04-12T07:43:35.001Z</time></trkpt><trkpt lat="43.405069679482594" lon="6.625032577016456"><ele>466.0</ele><time>2026-04-12T07:43:36.001Z</time></trkpt><trkpt lat="43.40498375532272" lon="6.625007470638737"><ele>466.00000000000006</ele><time>2026-04-12T07:43:37.001Z</time></trkpt><trkpt lat="43.404886074398064" lon="6.624982310611078"><ele>466.0</ele><time>2026-04-12T07:43:38.001Z</time></trkpt><trkpt lat="43.404793740749746" lon="6.624965647120841"><ele>466.00000000000006</ele><time>2026-04-12T07:43:39.001Z</time></trkpt><trkpt lat="43.40470105571698" lon="6.624967105597988"><ele>466.0</ele><time>2026-04-12T07:43:40.001Z</time></trkpt><trkpt lat="43.404623075110855" lon="6.62494515554252"><ele>466.0</ele><time>2026-04-12T07:43:41.001Z</time></trkpt><trkpt lat="43.40454290741281" lon="6.624911508941047"><ele>466.0</ele><time>2026-04-12T07:43:43.001Z</time></trkpt><trkpt lat="43.40444868682451" lon="6.6249388670670175"><ele>466.00000000000006</ele><time>2026-04-12T07:43:45.001Z</time></trkpt><trkpt lat="43.40436210507743" lon="6.624963674832234"><ele>466.0</ele><time>2026-04-12T07:43:47Z</time></trkpt><trkpt lat="43.404300475605815" lon="6.625072305749585"><ele>462.50000000000006</ele><time>2026-04-12T07:43:49Z</time></trkpt><trkpt lat="43.40422202433527" lon="6.625112917262541"><ele>459.0</ele><time>2026-04-12T07:43:51Z</time></trkpt><trkpt lat="43.40414706154609" lon="6.625102389430614"><ele>455.5</ele><time>2026-04-12T07:43:54Z</time></trkpt><trkpt lat="43.40403889987882" lon="6.625114074296454"><ele>452.0</ele><time>2026-04-12T07:43:56Z</time></trkpt><trkpt lat="43.40394452280105" lon="6.625129069749486"><ele>448.50000000000006</ele><time>2026-04-12T07:43:58Z</time></trkpt><trkpt lat="43.403889575402154" lon="6.625193937218131"><ele>445.0</ele><time>2026-04-12T07:44:00Z</time></trkpt><trkpt lat="43.40384080404218" lon="6.6252728063272635"><ele>442.6666666666667</ele><time>2026-04-12T07:44:01Z</time></trkpt><trkpt lat="43.40377166430605" lon="6.625371527610876"><ele>440.33333333333337</ele><time>2026-04-12T07:44:03Z</time></trkpt><trkpt lat="43.40366587432108" lon="6.625413732807709"><ele>438.0</ele><time>2026-04-12T07:44:05Z</time></trkpt><trkpt lat="43.40361608771264" lon="6.625481936643282"><ele>435.66666666666663</ele><time>2026-04-12T07:44:06Z</time></trkpt><trkpt lat="43.40352979047024" lon="6.625518332294613"><ele>433.3333333333333</ele><time>2026-04-12T07:44:08Z</time></trkpt><trkpt lat="43.403464606137305" lon="6.625513467688963"><ele>431.0</ele><time>2026-04-12T07:44:10Z</time></trkpt><trkpt lat="43.403375587479566" lon="6.625522023404206"><ele>430.99999999999994</ele><time>2026-04-12T07:44:12Z</time></trkpt><trkpt lat="43.40329910652737" lon="6.6256403051012365"><ele>431.0</ele><time>2026-04-12T07:44:14Z</time></trkpt><trkpt lat="43.40324443187629" lon="6.625765749755572"><ele>431.0</ele><time>2026-04-12T07:44:16Z</time></trkpt><trkpt lat="43.40319696974305" lon="6.625829447489854"><ele>431.0</ele><time>2026-04-12T07:44:17Z</time></trkpt><trkpt lat="43.403158147947025" lon="6.625923091078181"><ele>430.99999999999994</ele><time>2026-04-12T07:44:19Z</time></trkpt><trkpt lat="43.40314523729498" lon="6.626017640558438"><ele>431.0</ele><time>2026-04-12T07:44:21Z</time></trkpt><trkpt lat="43.40307667649422" lon="6.6260768235406795"><ele>431.0</ele><time>2026-04-12T07:44:23Z</time></trkpt><trkpt lat="43.40300622369213" lon="6.626051314006333"><ele>431.0</ele><time>2026-04-12T07:44:26Z</time></trkpt><trkpt lat="43.402903521742424" lon="6.626007227982373"><ele>431.0</ele><time>2026-04-12T07:44:28Z</time></trkpt><trkpt lat="43.40281880478501" lon="6.626060633262107"><ele>431.0</ele><time>2026-04-12T07:44:32Z</time></trkpt><trkpt lat="43.402705459189534" lon="6.626091919950331"><ele>431.0</ele><time>2026-04-12T07:44:35Z</time></trkpt><trkpt lat="43.40264235759553" lon="6.626126040394086"><ele>428.4</ele><time>2026-04-12T07:44:36Z</time></trkpt><trkpt lat="43.40255723856432" lon="6.626138174354364"><ele>425.8</ele><time>2026-04-12T07:44:37Z</time></trkpt><trkpt lat="43.4024850475429" lon="6.626144403792727"><ele>423.2</ele><time>2026-04-12T07:44:38Z</time></trkpt><trkpt lat="43.40241135413299" lon="6.626199585302927"><ele>420.59999999999997</ele><time>2026-04-12T07:44:40Z</time></trkpt><trkpt lat="43.402315804450204" lon="6.626220665848621"><ele>418.0</ele><time>2026-04-12T07:44:43Z</time></trkpt><trkpt lat="43.40219800608457" lon="6.626265750834862"><ele>416.59999999999997</ele><time>2026-04-12T07:44:45Z</time></trkpt><trkpt lat="43.402132668006466" lon="6.626277620130357"><ele>415.2</ele><time>2026-04-12T07:44:46Z</time></trkpt><trkpt lat="43.402032609595715" lon="6.626350319645778"><ele>413.8</ele><time>2026-04-12T07:44:48Z</time></trkpt><trkpt lat="43.40192119207691" lon="6.6264266181878755"><ele>412.4</ele><time>2026-04-12T07:44:50Z</time></trkpt><trkpt lat="43.40186072403495" lon="6.626494195074533"><ele>411.0</ele><time>2026-04-12T07:44:51Z</time></trkpt><trkpt lat="43.40179473847378" lon="6.626546220353466"><ele>411.0</ele><time>2026-04-12T07:44:52Z</time></trkpt><trkpt lat="43.401735853463" lon="6.626595510864461"><ele>411.0</ele><time>2026-04-12T07:44:53Z</time></trkpt><trkpt lat="43.40168356433351" lon="6.626655092446709"><ele>411.0</ele><time>2026-04-12T07:44:54Z</time></trkpt><trkpt lat="43.401561372453564" lon="6.626684922343868"><ele>411.0</ele><time>2026-04-12T07:44:56Z</time></trkpt><trkpt lat="43.401483201273734" lon="6.626680096168043"><ele>411.0</ele><time>2026-04-12T07:44:58Z</time></trkpt><trkpt lat="43.40144291892567" lon="6.626813967120506"><ele>411.0</ele><time>2026-04-12T07:45:00Z</time></trkpt><trkpt lat="43.40134964947808" lon="6.62690131027218"><ele>410.20000000000005</ele><time>2026-04-12T07:45:02Z</time></trkpt><trkpt lat="43.40129662141667" lon="6.627055796837088"><ele>409.40000000000003</ele><time>2026-04-12T07:45:04Z</time></trkpt><trkpt lat="43.40120676162229" lon="6.6270528433587295"><ele>408.6</ele><time>2026-04-12T07:45:09.001Z</time></trkpt><trkpt lat="43.40112831638501" lon="6.627148991133053"><ele>407.8</ele><time>2026-04-12T07:45:11.001Z</time></trkpt><trkpt lat="43.401091024450764" lon="6.627257272778386"><ele>407.0</ele><time>2026-04-12T07:45:13.001Z</time></trkpt><trkpt lat="43.40104329710749" lon="6.6273801933118195"><ele>406.99999999999994</ele><time>2026-04-12T07:45:15.001Z</time></trkpt><trkpt lat="43.401013821218356" lon="6.62749055919098"><ele>407.0</ele><time>2026-04-12T07:45:18.001Z</time></trkpt><trkpt lat="43.401002628076384" lon="6.627590871589948"><ele>407.0</ele><time>2026-04-12T07:45:21.001Z</time></trkpt><trkpt lat="43.40089977972494" lon="6.627633033369101"><ele>407.0</ele><time>2026-04-12T07:45:23.001Z</time></trkpt><trkpt lat="43.4009042286033" lon="6.627756478626049"><ele>406.99999999999994</ele><time>2026-04-12T07:45:26.001Z</time></trkpt><trkpt lat="43.40084965815928" lon="6.627832202028654"><ele>407.0</ele><time>2026-04-12T07:45:29.001Z</time></trkpt><trkpt lat="43.40077119294638" lon="6.627833898396256"><ele>407.99999999999994</ele><time>2026-04-12T07:45:31.001Z</time></trkpt><trkpt lat="43.40074056642654" lon="6.627927156989103"><ele>409.0</ele><time>2026-04-12T07:45:33.001Z</time></trkpt><trkpt lat="43.40068127858915" lon="6.628054153318908"><ele>410.0</ele><time>2026-04-12T07:45:37.001Z</time></trkpt><trkpt lat="43.400641251651926" lon="6.6281723346981725"><ele>411.0</ele><time>2026-04-12T07:45:40.001Z</time></trkpt><trkpt lat="43.40059796781807" lon="6.628241466012325"><ele>411.99999999999994</ele><time>2026-04-12T07:45:41.001Z</time></trkpt><trkpt lat="43.400562403317515" lon="6.628354198189388"><ele>413.0</ele><time>2026-04-12T07:45:44.001Z</time></trkpt><trkpt lat="43.40053574146319" lon="6.628471811505987"><ele>411.99999999999994</ele><time>2026-04-12T07:45:46.001Z</time></trkpt><trkpt lat="43.400483601075464" lon="6.628575127643639"><ele>411.0</ele><time>2026-04-12T07:45:48.001Z</time></trkpt><trkpt lat="43.40044605547448" lon="6.628682554741502"><ele>410.0</ele><time>2026-04-12T07:45:51.001Z</time></trkpt><trkpt lat="43.400418385087335" lon="6.628775609735945"><ele>409.0</ele><time>2026-04-12T07:45:53Z</time></trkpt><trkpt lat="43.40038643477504" lon="6.628857715199586"><ele>407.99999999999994</ele><time>2026-04-12T07:45:55Z</time></trkpt><trkpt lat="43.40035747208398" lon="6.628980291633556"><ele>407.0</ele><time>2026-04-12T07:45:57Z</time></trkpt><trkpt lat="43.400323470637346" lon="6.62909228307333"><ele>407.0</ele><time>2026-04-12T07:45:59Z</time></trkpt><trkpt lat="43.40029113639465" lon="6.629221619331103"><ele>407.0</ele><time>2026-04-12T07:46:01Z</time></trkpt><trkpt lat="43.40024434365388" lon="6.629303537689253"><ele>407.0</ele><time>2026-04-12T07:46:02Z</time></trkpt><trkpt lat="43.400200031717524" lon="6.629432768150782"><ele>407.0</ele><time>2026-04-12T07:46:05Z</time></trkpt><trkpt lat="43.4001663327653" lon="6.629548960975065"><ele>407.0</ele><time>2026-04-12T07:46:07Z</time></trkpt><trkpt lat="43.4001855537504" lon="6.629666292039495"><ele>407.8</ele><time>2026-04-12T07:46:10Z</time></trkpt><trkpt lat="43.40011016973451" lon="6.629753425725705"><ele>408.6</ele><time>2026-04-12T07:46:12Z</time></trkpt><trkpt lat="43.40005304653966" lon="6.629806977726238"><ele>409.40000000000003</ele><time>2026-04-12T07:46:14Z</time></trkpt><trkpt lat="43.40005043610551" lon="6.629912494991892"><ele>410.20000000000005</ele><time>2026-04-12T07:46:16Z</time></trkpt><trkpt lat="43.39999161357139" lon="6.630062990715987"><ele>411.0</ele><time>2026-04-12T07:46:20Z</time></trkpt><trkpt lat="43.399970242608276" lon="6.630187363199341"><ele>411.0</ele><time>2026-04-12T07:46:21Z</time></trkpt><trkpt lat="43.399957673925" lon="6.630304600117494"><ele>411.0</ele><time>2026-04-12T07:46:23Z</time></trkpt><trkpt lat="43.39989241890403" lon="6.6303428394715365"><ele>411.0</ele><time>2026-04-12T07:46:25Z</time></trkpt><trkpt lat="43.399829057675625" lon="6.630487174063976"><ele>411.0</ele><time>2026-04-12T07:46:27Z</time></trkpt><trkpt lat="43.399756594220655" lon="6.630580761270942"><ele>411.0</ele><time>2026-04-12T07:46:29Z</time></trkpt><trkpt lat="43.399635400111315" lon="6.630614643883162"><ele>408.8333333333333</ele><time>2026-04-12T07:46:31Z</time></trkpt><trkpt lat="43.39957182644217" lon="6.630664400344515"><ele>406.66666666666663</ele><time>2026-04-12T07:46:33Z</time></trkpt><trkpt lat="43.39950167651184" lon="6.630783707499582"><ele>404.5</ele><time>2026-04-12T07:46:35Z</time></trkpt><trkpt lat="43.39950876271302" lon="6.6308871069238045"><ele>402.3333333333333</ele><time>2026-04-12T07:46:37Z</time></trkpt><trkpt lat="43.39946564303449" lon="6.630996870894503"><ele>400.16666666666663</ele><time>2026-04-12T07:46:40Z</time></trkpt><trkpt lat="43.399406442799" lon="6.631050067873532"><ele>398.0</ele><time>2026-04-12T07:46:42Z</time></trkpt><trkpt lat="43.3993619946244" lon="6.631117562838708"><ele>400.0</ele><time>2026-04-12T07:46:43Z</time></trkpt><trkpt lat="43.3992966140149" lon="6.631172679641084"><ele>402.0</ele><time>2026-04-12T07:46:45Z</time></trkpt><trkpt lat="43.39921275582836" lon="6.63117455999715"><ele>404.0</ele><time>2026-04-12T07:46:48Z</time></trkpt><trkpt lat="43.399151336176864" lon="6.631272728959199"><ele>406.0</ele><time>2026-04-12T07:46:50Z</time></trkpt><trkpt lat="43.399112062132644" lon="6.6314530377474785"><ele>408.0</ele><time>2026-04-12T07:46:52Z</time></trkpt><trkpt lat="43.3990901435432" lon="6.631577101309375"><ele>408.0</ele><time>2026-04-12T07:46:54Z</time></trkpt><trkpt lat="43.399029886733686" lon="6.63167973366842"><ele>408.0</ele><time>2026-04-12T07:46:57Z</time></trkpt><trkpt lat="43.399012158219406" lon="6.631804371871108"><ele>408.0</ele><time>2026-04-12T07:46:59Z</time></trkpt><trkpt lat="43.39895842490168" lon="6.631929184437593"><ele>408.0</ele><time>2026-04-12T07:47:01Z</time></trkpt><trkpt lat="43.398938049236975" lon="6.63202219807759"><ele>408.0</ele><time>2026-04-12T07:47:03Z</time></trkpt><trkpt lat="43.39886405045794" lon="6.632025520969105"><ele>408.0</ele><time>2026-04-12T07:47:06Z</time></trkpt><trkpt lat="43.39878758677721" lon="6.631988748028129"><ele>402.0</ele><time>2026-04-12T07:47:10.001Z</time></trkpt><trkpt lat="43.39871219664357" lon="6.631920648036167"><ele>396.0</ele><time>2026-04-12T07:47:14.001Z</time></trkpt><trkpt lat="43.398678351117425" lon="6.631845389814535"><ele>390.0</ele><time>2026-04-12T07:47:21.001Z</time></trkpt><trkpt lat="43.39863026094623" lon="6.631938336291381"><ele>384.0</ele><time>2026-04-12T07:47:25.001Z</time></trkpt><trkpt lat="43.39858563045411" lon="6.632037901393922"><ele>378.0</ele><time>2026-04-12T07:47:29.001Z</time></trkpt><trkpt lat="43.398541703514105" lon="6.632216778363826"><ele>378.0</ele><time>2026-04-12T07:47:31.001Z</time></trkpt><trkpt lat="43.39853676017506" lon="6.6323115793906755"><ele>378.0</ele><time>2026-04-12T07:47:33.001Z</time></trkpt><trkpt lat="43.39843620258215" lon="6.632350783314666"><ele>378.0</ele><time>2026-04-12T07:47:35.001Z</time></trkpt><trkpt lat="43.39836109219348" lon="6.632422276656086"><ele>378.0</ele><time>2026-04-12T07:47:37.001Z</time></trkpt><trkpt lat="43.39831497272127" lon="6.632331384920582"><ele>378.0</ele><time>2026-04-12T07:47:40.001Z</time></trkpt><trkpt lat="43.39823896419821" lon="6.632382500043042"><ele>378.0</ele><time>2026-04-12T07:47:43.001Z</time></trkpt><trkpt lat="43.39817009509475" lon="6.63245953021929"><ele>378.0</ele><time>2026-04-12T07:47:45.001Z</time></trkpt><trkpt lat="43.398095058900765" lon="6.632489968600501"><ele>378.0</ele><time>2026-04-12T07:47:48.001Z</time></trkpt><trkpt lat="43.39809994256323" lon="6.632578031498508"><ele>378.0</ele><time>2026-04-12T07:47:50.001Z</time></trkpt><trkpt lat="43.398047026360366" lon="6.632692514614565"><ele>378.0</ele><time>2026-04-12T07:47:52.001Z</time></trkpt><trkpt lat="43.39800296532535" lon="6.632769053189834"><ele>378.0</ele><time>2026-04-12T07:47:54.001Z</time></trkpt><trkpt lat="43.397956980345256" lon="6.632866437560802"><ele>378.0</ele><time>2026-04-12T07:47:56.001Z</time></trkpt><trkpt lat="43.39790262388223" lon="6.6330159166303515"><ele>372.79999999999995</ele><time>2026-04-12T07:47:58Z</time></trkpt><trkpt lat="43.397838934704325" lon="6.633120864024089"><ele>367.6</ele><time>2026-04-12T07:48:00Z</time></trkpt><trkpt lat="43.39772635867582" lon="6.633196112729049"><ele>362.4</ele><time>2026-04-12T07:48:02Z</time></trkpt><trkpt lat="43.397659735752626" lon="6.633249431618534"><ele>357.20000000000005</ele><time>2026-04-12T07:48:03Z</time></trkpt><trkpt lat="43.39761117209553" lon="6.633336318755166"><ele>352.0</ele><time>2026-04-12T07:48:04Z</time></trkpt><trkpt lat="43.39754331777565" lon="6.633468160440481"><ele>352.0</ele><time>2026-04-12T07:48:06Z</time></trkpt><trkpt lat="43.39749017685742" lon="6.633596838752562"><ele>352.0</ele><time>2026-04-12T07:48:08Z</time></trkpt><trkpt lat="43.39744370648664" lon="6.633662252132781"><ele>352.0</ele><time>2026-04-12T07:48:09Z</time></trkpt><trkpt lat="43.397367817480614" lon="6.6337464252518"><ele>352.0</ele><time>2026-04-12T07:48:11Z</time></trkpt><trkpt lat="43.39731451360785" lon="6.633802039456276"><ele>352.0</ele><time>2026-04-12T07:48:14Z</time></trkpt><trkpt lat="43.39724085524603" lon="6.633896587596293"><ele>352.0</ele><time>2026-04-12T07:48:31Z</time></trkpt><trkpt lat="43.39716770524203" lon="6.633925451008865"><ele>349.16666666666663</ele><time>2026-04-12T07:48:32Z</time></trkpt><trkpt lat="43.39709416046501" lon="6.63396011539703"><ele>346.3333333333333</ele><time>2026-04-12T07:48:33Z</time></trkpt><trkpt lat="43.39703571565943" lon="6.634008877221701"><ele>343.5</ele><time>2026-04-12T07:48:34Z</time></trkpt><trkpt lat="43.39697897694099" lon="6.634057533858249"><ele>340.6666666666667</ele><time>2026-04-12T07:48:35Z</time></trkpt><trkpt lat="43.396915678158685" lon="6.634097050344805"><ele>337.83333333333337</ele><time>2026-04-12T07:48:36Z</time></trkpt><trkpt lat="43.396833681843205" lon="6.634223896628263"><ele>335.0</ele><time>2026-04-12T07:48:38Z</time></trkpt><trkpt lat="43.396813818793035" lon="6.634312715119321"><ele>335.0</ele><time>2026-04-12T07:48:39Z</time></trkpt><trkpt lat="43.396705392225506" lon="6.634377128581693"><ele>335.0</ele><time>2026-04-12T07:48:41Z</time></trkpt><trkpt lat="43.39664660574381" lon="6.634496142693332"><ele>335.0</ele><time>2026-04-12T07:48:43Z</time></trkpt><trkpt lat="43.396583448241714" lon="6.634536900964335"><ele>335.0</ele><time>2026-04-12T07:48:45Z</time></trkpt><trkpt lat="43.39647224356681" lon="6.634496873571856"><ele>335.0</ele><time>2026-04-12T07:48:47Z</time></trkpt><trkpt lat="43.39638300920578" lon="6.634509366248312"><ele>332.83333333333337</ele><time>2026-04-12T07:48:49Z</time></trkpt><trkpt lat="43.3963007401832" lon="6.634553973962838"><ele>330.6666666666667</ele><time>2026-04-12T07:48:50Z</time></trkpt><trkpt lat="43.39621066262382" lon="6.6345249282854715"><ele>328.5</ele><time>2026-04-12T07:48:52Z</time></trkpt><trkpt lat="43.39613054087554" lon="6.634607915447103"><ele>326.3333333333333</ele><time>2026-04-12T07:48:54Z</time></trkpt><trkpt lat="43.39610696488079" lon="6.634701622470673"><ele>324.16666666666663</ele><time>2026-04-12T07:48:55Z</time></trkpt><trkpt lat="43.396063245982766" lon="6.634789986293447"><ele>322.0</ele><time>2026-04-12T07:48:56Z</time></trkpt><trkpt lat="43.39601231424052" lon="6.634906988945817"><ele>322.0</ele><time>2026-04-12T07:48:57Z</time></trkpt><trkpt lat="43.395958207258644" lon="6.6350270934643625"><ele>322.0</ele><time>2026-04-12T07:48:59Z</time></trkpt><trkpt lat="43.39584532692994" lon="6.6350786356091085"><ele>322.0</ele><time>2026-04-12T07:49:01Z</time></trkpt><trkpt lat="43.39575776731643" lon="6.635084872898221"><ele>322.0</ele><time>2026-04-12T07:49:02Z</time></trkpt><trkpt lat="43.39567718574619" lon="6.635110664796198"><ele>322.0</ele><time>2026-04-12T07:49:03Z</time></trkpt><trkpt lat="43.39560646361448" lon="6.635142432822216"><ele>319.0</ele><time>2026-04-12T07:49:05Z</time></trkpt><trkpt lat="43.39547508425119" lon="6.6351462821402585"><ele>316.0</ele><time>2026-04-12T07:49:07.001Z</time></trkpt><trkpt lat="43.39540752246115" lon="6.635120464988065"><ele>313.0</ele><time>2026-04-12T07:49:08.001Z</time></trkpt><trkpt lat="43.395328760519696" lon="6.635090610175714"><ele>310.0</ele><time>2026-04-12T07:49:10.001Z</time></trkpt><trkpt lat="43.395248929883685" lon="6.635122129805261"><ele>307.0</ele><time>2026-04-12T07:49:12.001Z</time></trkpt><trkpt lat="43.395206033812904" lon="6.635192348563365"><ele>304.0</ele><time>2026-04-12T07:49:13.001Z</time></trkpt><trkpt lat="43.39512758771333" lon="6.635242929380877"><ele>304.0</ele><time>2026-04-12T07:49:14.001Z</time></trkpt><trkpt lat="43.39503486515653" lon="6.635254478522348"><ele>304.0</ele><time>2026-04-12T07:49:15.001Z</time></trkpt><trkpt lat="43.3949180950884" lon="6.635280433232562"><ele>304.0</ele><time>2026-04-12T07:49:16.001Z</time></trkpt><trkpt lat="43.394808812811455" lon="6.635300029467344"><ele>304.0</ele><time>2026-04-12T07:49:17.001Z</time></trkpt><trkpt lat="43.39472181859926" lon="6.635330687946167"><ele>304.0</ele><time>2026-04-12T07:49:18.001Z</time></trkpt><trkpt lat="43.39461778755546" lon="6.635419047192678"><ele>299.8</ele><time>2026-04-12T07:49:20.001Z</time></trkpt><trkpt lat="43.39451103077074" lon="6.6355386625002835"><ele>295.59999999999997</ele><time>2026-04-12T07:49:22.001Z</time></trkpt><trkpt lat="43.394448075896754" lon="6.635637177914217"><ele>291.4</ele><time>2026-04-12T07:49:24.001Z</time></trkpt><trkpt lat="43.39434521721961" lon="6.635711676780252"><ele>287.2</ele><time>2026-04-12T07:49:27.001Z</time></trkpt><trkpt lat="43.394275175171884" lon="6.635764768706057"><ele>283.0</ele><time>2026-04-12T07:49:28.001Z</time></trkpt><trkpt lat="43.39422086886387" lon="6.635863899675428"><ele>283.0</ele><time>2026-04-12T07:49:30.001Z</time></trkpt><trkpt lat="43.394194070585776" lon="6.636001743580288"><ele>283.0</ele><time>2026-04-12T07:49:32.001Z</time></trkpt><trkpt lat="43.39416437807493" lon="6.636085005484749"><ele>283.0</ele><time>2026-04-12T07:49:33.001Z</time></trkpt><trkpt lat="43.39411758627657" lon="6.636273900678003"><ele>283.0</ele><time>2026-04-12T07:49:35.001Z</time></trkpt><trkpt lat="43.39408462712972" lon="6.636385643496048"><ele>283.0</ele><time>2026-04-12T07:49:36.001Z</time></trkpt><trkpt lat="43.39404067813749" lon="6.636476096624202"><ele>281.8333333333333</ele><time>2026-04-12T07:49:37.001Z</time></trkpt><trkpt lat="43.39397219469463" lon="6.636534561534305"><ele>280.66666666666663</ele><time>2026-04-12T07:49:39.001Z</time></trkpt><trkpt lat="43.39393586715861" lon="6.636623734461652"><ele>279.5</ele><time>2026-04-12T07:49:40.001Z</time></trkpt><trkpt lat="43.39393345716932" lon="6.636710356181039"><ele>278.3333333333333</ele><time>2026-04-12T07:49:41.001Z</time></trkpt><trkpt lat="43.39387389221759" lon="6.636827005574025"><ele>277.1666666666667</ele><time>2026-04-12T07:49:43.001Z</time></trkpt><trkpt lat="43.39379701052403" lon="6.636900515140384"><ele>276.0</ele><time>2026-04-12T07:49:45.001Z</time></trkpt><trkpt lat="43.39373271614816" lon="6.637032418435449"><ele>272.1666666666667</ele><time>2026-04-12T07:49:48.001Z</time></trkpt><trkpt lat="43.39366558523776" lon="6.6371639294269995"><ele>268.3333333333333</ele><time>2026-04-12T07:49:50.001Z</time></trkpt><trkpt lat="43.393589132993164" lon="6.6372421159774655"><ele>264.5</ele><time>2026-04-12T07:49:52.001Z</time></trkpt><trkpt lat="43.39351176498993" lon="6.637323307347422"><ele>260.66666666666663</ele><time>2026-04-12T07:49:54.001Z</time></trkpt><trkpt lat="43.39345513686845" lon="6.637377651166913"><ele>256.8333333333333</ele><time>2026-04-12T07:49:55.001Z</time></trkpt><trkpt lat="43.393399097155644" lon="6.637419781819897"><ele>253.0</ele><time>2026-04-12T07:49:56.001Z</time></trkpt><trkpt lat="43.39333557236882" lon="6.637468221868079"><ele>252.99999999999997</ele><time>2026-04-12T07:49:57.001Z</time></trkpt><trkpt lat="43.393300707151376" lon="6.6375668088561905"><ele>253.0</ele><time>2026-04-12T07:49:58.001Z</time></trkpt><trkpt lat="43.393283319612216" lon="6.637674679541715"><ele>253.0</ele><time>2026-04-12T07:49:59.001Z</time></trkpt><trkpt lat="43.393232162940706" lon="6.637784730364278"><ele>253.0</ele><time>2026-04-12T07:50:01.001Z</time></trkpt><trkpt lat="43.393145552608175" lon="6.637803360478179"><ele>252.99999999999997</ele><time>2026-04-12T07:50:03.001Z</time></trkpt><trkpt lat="43.39312000665991" lon="6.637883942133256"><ele>253.0</ele><time>2026-04-12T07:50:04Z</time></trkpt><trkpt lat="43.393079231697094" lon="6.637966847186219"><ele>249.2</ele><time>2026-04-12T07:50:05Z</time></trkpt><trkpt lat="43.393012842455235" lon="6.638090227378496"><ele>245.4</ele><time>2026-04-12T07:50:07Z</time></trkpt><trkpt lat="43.39295064483994" lon="6.63821375365133"><ele>241.59999999999997</ele><time>2026-04-12T07:50:09Z</time></trkpt><trkpt lat="43.392911125285984" lon="6.638349941486452"><ele>237.79999999999998</ele><time>2026-04-12T07:50:11Z</time></trkpt><trkpt lat="43.39285936991543" lon="6.6384838663655055"><ele>234.0</ele><time>2026-04-12T07:50:13Z</time></trkpt><trkpt lat="43.39279782345783" lon="6.638579055861693"><ele>230.2</ele><time>2026-04-12T07:50:15Z</time></trkpt><trkpt lat="43.392684153739474" lon="6.638661349204175"><ele>226.39999999999998</ele><time>2026-04-12T07:50:17Z</time></trkpt><trkpt lat="43.392603423080836" lon="6.638760627831214"><ele>222.6</ele><time>2026-04-12T07:50:19Z</time></trkpt><trkpt lat="43.392575548855426" lon="6.638905475672795"><ele>218.8</ele><time>2026-04-12T07:50:21Z</time></trkpt><trkpt lat="43.39257183887501" lon="6.6390426945061725"><ele>215.0</ele><time>2026-04-12T07:50:24Z</time></trkpt><trkpt lat="43.39254092143445" lon="6.639145359241374"><ele>215.00000000000003</ele><time>2026-04-12T07:50:26Z</time></trkpt><trkpt lat="43.392532518587515" lon="6.639248797570158"><ele>215.0</ele><time>2026-04-12T07:50:27Z</time></trkpt><trkpt lat="43.392531436904505" lon="6.639363633069957"><ele>215.0</ele><time>2026-04-12T07:50:42Z</time></trkpt><trkpt lat="43.392520289067164" lon="6.639514989273891"><ele>215.0</ele><time>2026-04-12T07:50:44Z</time></trkpt><trkpt lat="43.39246761337693" lon="6.639620592788654"><ele>215.00000000000003</ele><time>2026-04-12T07:50:46Z</time></trkpt><trkpt lat="43.392450208410615" lon="6.639707426607395"><ele>215.0</ele><time>2026-04-12T07:50:48Z</time></trkpt><trkpt lat="43.39247588594658" lon="6.639847742015893"><ele>213.4</ele><time>2026-04-12T07:50:50Z</time></trkpt><trkpt lat="43.392501555724515" lon="6.639958533670266"><ele>211.8</ele><time>2026-04-12T07:50:52Z</time></trkpt><trkpt lat="43.392559334392644" lon="6.640051283642448"><ele>210.2</ele><time>2026-04-12T07:50:54Z</time></trkpt><trkpt lat="43.39267079584613" lon="6.640104222122117"><ele>208.6</ele><time>2026-04-12T07:50:56Z</time></trkpt><trkpt lat="43.39272232727021" lon="6.640221239136947"><ele>207.0</ele><time>2026-04-12T07:50:58Z</time></trkpt><trkpt lat="43.3927292163" lon="6.640349696225735"><ele>204.57142857142858</ele><time>2026-04-12T07:50:59Z</time></trkpt><trkpt lat="43.392732817583756" lon="6.640473277751067"><ele>202.14285714285714</ele><time>2026-04-12T07:51:00Z</time></trkpt><trkpt lat="43.39272629355929" lon="6.640579231975257"><ele>199.71428571428572</ele><time>2026-04-12T07:51:01Z</time></trkpt><trkpt lat="43.39271799685058" lon="6.640670245206773"><ele>197.28571428571428</ele><time>2026-04-12T07:51:02Z</time></trkpt><trkpt lat="43.39271184553291" lon="6.6407761591567604"><ele>194.85714285714286</ele><time>2026-04-12T07:51:03Z</time></trkpt><trkpt lat="43.392696404393575" lon="6.6408691701284805"><ele>192.42857142857144</ele><time>2026-04-12T07:51:04Z</time></trkpt><trkpt lat="43.39268687811131" lon="6.640957285941759"><ele>190.0</ele><time>2026-04-12T07:51:05.001Z</time></trkpt><trkpt lat="43.392676842582276" lon="6.641079390392963"><ele>186.71428571428572</ele><time>2026-04-12T07:51:06.001Z</time></trkpt><trkpt lat="43.39266685601692" lon="6.641181143012935"><ele>183.42857142857144</ele><time>2026-04-12T07:51:07.001Z</time></trkpt><trkpt lat="43.3926873354514" lon="6.641283386757362"><ele>180.14285714285714</ele><time>2026-04-12T07:51:09.001Z</time></trkpt><trkpt lat="43.39273474078624" lon="6.641357627789458"><ele>176.85714285714286</ele><time>2026-04-12T07:51:10.001Z</time></trkpt><trkpt lat="43.39279339436929" lon="6.641407372343585"><ele>173.57142857142858</ele><time>2026-04-12T07:51:11.001Z</time></trkpt><trkpt lat="43.392828301166915" lon="6.641481728978581"><ele>170.28571428571428</ele><time>2026-04-12T07:51:12.001Z</time></trkpt><trkpt lat="43.39282435338267" lon="6.641591934997753"><ele>167.0</ele><time>2026-04-12T07:51:13.001Z</time></trkpt><trkpt lat="43.39280668526372" lon="6.641705976461737"><ele>167.0</ele><time>2026-04-12T07:51:14.001Z</time></trkpt><trkpt lat="43.392801623927824" lon="6.641812592708618"><ele>167.0</ele><time>2026-04-12T07:51:15.001Z</time></trkpt><trkpt lat="43.3928410919573" lon="6.6419549012498384"><ele>167.0</ele><time>2026-04-12T07:51:17.001Z</time></trkpt><trkpt lat="43.39292114220787" lon="6.642070339404084"><ele>167.0</ele><time>2026-04-12T07:51:19.001Z</time></trkpt><trkpt lat="43.392953939943155" lon="6.642160321325147"><ele>167.0</ele><time>2026-04-12T07:51:20.001Z</time></trkpt><trkpt lat="43.392928937941605" lon="6.642302975874169"><ele>163.4</ele><time>2026-04-12T07:51:22.001Z</time></trkpt><trkpt lat="43.392887930305726" lon="6.6424550465717935"><ele>159.79999999999998</ele><time>2026-04-12T07:51:24.001Z</time></trkpt><trkpt lat="43.39287285382947" lon="6.642542998662155"><ele>156.2</ele><time>2026-04-12T07:51:25.001Z</time></trkpt><trkpt lat="43.39287977445466" lon="6.642704337024314"><ele>152.6</ele><time>2026-04-12T07:51:27.001Z</time></trkpt><trkpt lat="43.39294895662742" lon="6.6427826975433035"><ele>149.0</ele><time>2026-04-12T07:51:29.001Z</time></trkpt><trkpt lat="43.393055307314306" lon="6.642889740435328"><ele>146.33333333333331</ele><time>2026-04-12T07:51:31.001Z</time></trkpt><trkpt lat="43.393104894942354" lon="6.642953923404679"><ele>143.66666666666666</ele><time>2026-04-12T07:51:32.001Z</time></trkpt><trkpt lat="43.39310855330331" lon="6.643063219165398"><ele>141.0</ele><time>2026-04-12T07:51:34.001Z</time></trkpt><trkpt lat="43.39303359888375" lon="6.643114520486298"><ele>138.33333333333334</ele><time>2026-04-12T07:51:36.001Z</time></trkpt><trkpt lat="43.39296612703089" lon="6.6432239890466835"><ele>135.66666666666669</ele><time>2026-04-12T07:51:38.001Z</time></trkpt><trkpt lat="43.39294701872978" lon="6.64333876451484"><ele>133.0</ele><time>2026-04-12T07:51:40.001Z</time></trkpt><trkpt lat="43.39285466596504" lon="6.643331586838742"><ele>133.0</ele><time>2026-04-12T07:51:47.001Z</time></trkpt><trkpt lat="43.392751773619395" lon="6.6434666084016945"><ele>133.0</ele><time>2026-04-12T07:51:49.001Z</time></trkpt><trkpt lat="43.39271917227211" lon="6.643551523382228"><ele>133.0</ele><time>2026-04-12T07:51:50.001Z</time></trkpt><trkpt lat="43.39269928274319" lon="6.643634361096494"><ele>133.0</ele><time>2026-04-12T07:51:51.001Z</time></trkpt><trkpt lat="43.392680785102" lon="6.643750072243448"><ele>133.0</ele><time>2026-04-12T07:51:52.001Z</time></trkpt><trkpt lat="43.392676497087635" lon="6.643917877048206"><ele>133.83333333333334</ele><time>2026-04-12T07:51:54.001Z</time></trkpt><trkpt lat="43.39262086428461" lon="6.643970874813578"><ele>134.66666666666669</ele><time>2026-04-12T07:51:56.001Z</time></trkpt><trkpt lat="43.392564998607625" lon="6.644020061652437"><ele>135.5</ele><time>2026-04-12T07:51:58.001Z</time></trkpt><trkpt lat="43.39249027049997" lon="6.643990539563117"><ele>136.33333333333334</ele><time>2026-04-12T07:52:00.001Z</time></trkpt><trkpt lat="43.39240693064675" lon="6.643989154841846"><ele>137.16666666666666</ele><time>2026-04-12T07:52:03.001Z</time></trkpt><trkpt lat="43.392317688331424" lon="6.643983699880018"><ele>138.0</ele><time>2026-04-12T07:52:07.001Z</time></trkpt><trkpt lat="43.392237968918444" lon="6.643957571691623"><ele>136.8</ele><time>2026-04-12T07:52:08.001Z</time></trkpt><trkpt lat="43.392131977362816" lon="6.6439182029622215"><ele>135.60000000000002</ele><time>2026-04-12T07:52:09Z</time></trkpt><trkpt lat="43.39201304816158" lon="6.643887888052549"><ele>134.39999999999998</ele><time>2026-04-12T07:52:10Z</time></trkpt><trkpt lat="43.39191736512797" lon="6.643896894758494"><ele>133.2</ele><time>2026-04-12T07:52:11Z</time></trkpt><trkpt lat="43.39182990415452" lon="6.643925430728345"><ele>132.0</ele><time>2026-04-12T07:52:12Z</time></trkpt><trkpt lat="43.39173577787914" lon="6.643974274633477"><ele>132.0</ele><time>2026-04-12T07:52:13Z</time></trkpt><trkpt lat="43.39163914955453" lon="6.644052278210617"><ele>132.0</ele><time>2026-04-12T07:52:14Z</time></trkpt><trkpt lat="43.39154621180464" lon="6.644161722976296"><ele>132.0</ele><time>2026-04-12T07:52:15Z</time></trkpt><trkpt lat="43.39141601903029" lon="6.644201432632089"><ele>132.0</ele><time>2026-04-12T07:52:16Z</time></trkpt><trkpt lat="43.39129082336513" lon="6.644253397908042"><ele>129.66666666666666</ele><time>2026-04-12T07:52:17Z</time></trkpt><trkpt lat="43.391140301113815" lon="6.644295491368166"><ele>127.33333333333333</ele><time>2026-04-12T07:52:18Z</time></trkpt><trkpt lat="43.39099836051293" lon="6.644360270703414"><ele>125.0</ele><time>2026-04-12T07:52:19Z</time></trkpt><trkpt lat="43.3908589546981" lon="6.6444441575253865"><ele>127.0</ele><time>2026-04-12T07:52:20Z</time></trkpt><trkpt lat="43.39072681337671" lon="6.64451992155005"><ele>129.0</ele><time>2026-04-12T07:52:21Z</time></trkpt><trkpt lat="43.39060792955741" lon="6.64465237753539"><ele>131.0</ele><time>2026-04-12T07:52:22Z</time></trkpt><trkpt lat="43.39047452082148" lon="6.644768129522006"><ele>131.0</ele><time>2026-04-12T07:52:23Z</time></trkpt><trkpt lat="43.39035313205434" lon="6.6448578736473705"><ele>131.0</ele><time>2026-04-12T07:52:24Z</time></trkpt><trkpt lat="43.39025085937428" lon="6.644946127337078"><ele>131.0</ele><time>2026-04-12T07:52:25Z</time></trkpt><trkpt lat="43.3901656132483" lon="6.645024247645632"><ele>131.0</ele><time>2026-04-12T07:52:26Z</time></trkpt><trkpt lat="43.39007742667901" lon="6.645103297624903"><ele>131.0</ele><time>2026-04-12T07:52:27Z</time></trkpt><trkpt lat="43.38996128374436" lon="6.645178577565505"><ele>131.0</ele><time>2026-04-12T07:52:28Z</time></trkpt><trkpt lat="43.38983508050633" lon="6.645208946758231"><ele>131.0</ele><time>2026-04-12T07:52:29Z</time></trkpt><trkpt lat="43.38974702334249" lon="6.645247881445417"><ele>131.0</ele><time>2026-04-12T07:52:30Z</time></trkpt><trkpt lat="43.389668655606826" lon="6.645336800389568"><ele>128.0</ele><time>2026-04-12T07:52:31Z</time></trkpt><trkpt lat="43.38962345932344" lon="6.645445866981292"><ele>125.0</ele><time>2026-04-12T07:52:32Z</time></trkpt><trkpt lat="43.389597961717044" lon="6.645589404246201"><ele>122.0</ele><time>2026-04-12T07:52:33Z</time></trkpt><trkpt lat="43.38958919055157" lon="6.64573631384134"><ele>119.0</ele><time>2026-04-12T07:52:34Z</time></trkpt><trkpt lat="43.38959753947734" lon="6.645910083768843"><ele>116.0</ele><time>2026-04-12T07:52:35Z</time></trkpt><trkpt lat="43.38959213303618" lon="6.646084733654951"><ele>119.16666666666666</ele><time>2026-04-12T07:52:36Z</time></trkpt><trkpt lat="43.38957231473598" lon="6.646204791988584"><ele>122.33333333333333</ele><time>2026-04-12T07:52:37Z</time></trkpt><trkpt lat="43.389549086878496" lon="6.646318725333734"><ele>125.5</ele><time>2026-04-12T07:52:38Z</time></trkpt><trkpt lat="43.38950681384659" lon="6.64641419957538"><ele>128.66666666666666</ele><time>2026-04-12T07:52:39Z</time></trkpt><trkpt lat="43.38944142817272" lon="6.6464795226866205"><ele>131.83333333333334</ele><time>2026-04-12T07:52:40Z</time></trkpt><trkpt lat="43.3893557904557" lon="6.646530715318464"><ele>135.0</ele><time>2026-04-12T07:52:41Z</time></trkpt><trkpt lat="43.38925133945821" lon="6.646543123662687"><ele>135.0</ele><time>2026-04-12T07:52:42Z</time></trkpt><trkpt lat="43.3891359655532" lon="6.646577395337414"><ele>135.0</ele><time>2026-04-12T07:52:43Z</time></trkpt><trkpt lat="43.389009181611605" lon="6.64664824344907"><ele>135.0</ele><time>2026-04-12T07:52:44Z</time></trkpt><trkpt lat="43.38889857084622" lon="6.646731398176811"><ele>135.0</ele><time>2026-04-12T07:52:45Z</time></trkpt><trkpt lat="43.38880054754577" lon="6.6468226524641905"><ele>137.2</ele><time>2026-04-12T07:52:46Z</time></trkpt><trkpt lat="43.38870369648201" lon="6.6469242396401365"><ele>139.4</ele><time>2026-04-12T07:52:47Z</time></trkpt><trkpt lat="43.38862043226419" lon="6.647006809655093"><ele>141.6</ele><time>2026-04-12T07:52:48Z</time></trkpt><trkpt lat="43.388553892126716" lon="6.647078079806082"><ele>143.8</ele><time>2026-04-12T07:52:49Z</time></trkpt><trkpt lat="43.38847658189901" lon="6.647068956125766"><ele>146.0</ele><time>2026-04-12T07:52:50Z</time></trkpt><trkpt lat="43.38840001542356" lon="6.647021020896168"><ele>146.0</ele><time>2026-04-12T07:52:51Z</time></trkpt><trkpt lat="43.38830822049446" lon="6.646982618124064"><ele>146.0</ele><time>2026-04-12T07:52:52Z</time></trkpt><trkpt lat="43.38819410324884" lon="6.646995273694246"><ele>146.0</ele><time>2026-04-12T07:52:53Z</time></trkpt><trkpt lat="43.388072264787326" lon="6.647005186925136"><ele>146.0</ele><time>2026-04-12T07:52:54Z</time></trkpt><trkpt lat="43.38797283467075" lon="6.647013658926312"><ele>146.0</ele><time>2026-04-12T07:52:55Z</time></trkpt><trkpt lat="43.38787493968254" lon="6.647033738511695"><ele>142.2</ele><time>2026-04-12T07:52:56Z</time></trkpt><trkpt lat="43.38779175071909" lon="6.647079514438836"><ele>138.39999999999998</ele><time>2026-04-12T07:52:57Z</time></trkpt><trkpt lat="43.38773262597104" lon="6.647113097814213"><ele>134.6</ele><time>2026-04-12T07:52:58Z</time></trkpt><trkpt lat="43.38764651686362" lon="6.647086893033591"><ele>130.79999999999998</ele><time>2026-04-12T07:53:00Z</time></trkpt><trkpt lat="43.38759960774714" lon="6.646967684737938"><ele>127.0</ele><time>2026-04-12T07:53:02Z</time></trkpt><trkpt lat="43.38759808438143" lon="6.646793253668635"><ele>125.16666666666667</ele><time>2026-04-12T07:53:04Z</time></trkpt><trkpt lat="43.38758406686071" lon="6.64665372770266"><ele>123.33333333333334</ele><time>2026-04-12T07:53:06Z</time></trkpt><trkpt lat="43.387618671878236" lon="6.646567512671031"><ele>121.5</ele><time>2026-04-12T07:53:13Z</time></trkpt><trkpt lat="43.38765927574834" lon="6.646496209875966"><ele>119.66666666666666</ele><time>2026-04-12T07:53:16.001Z</time></trkpt><trkpt lat="43.38771622787336" lon="6.646455362920572"><ele>117.83333333333333</ele><time>2026-04-12T07:53:19.001Z</time></trkpt><trkpt lat="43.387796685127505" lon="6.646408821212511"><ele>116.0</ele><time>2026-04-12T07:53:45.001Z</time></trkpt><trkpt lat="43.38785148107766" lon="6.6463591611918895"><ele>116.00000000000001</ele><time>2026-04-12T07:54:03.001Z</time></trkpt><trkpt lat="43.38788224607393" lon="6.646274288896878"><ele>116.0</ele><time>2026-04-12T07:54:15Z</time></trkpt><trkpt lat="43.38794483657524" lon="6.646224650668987"><ele>116.00000000000001</ele><time>2026-04-12T07:54:32Z</time></trkpt><trkpt lat="43.38797624911338" lon="6.646138973884822"><ele>116.00000000000001</ele><time>2026-04-12T07:55:04Z</time></trkpt><trkpt lat="43.38799178949716" lon="6.646045423723815"><ele>116.0</ele><time>2026-04-12T07:55:18Z</time></trkpt><trkpt lat="43.38806563343838" lon="6.6460282485470685"><ele>116.00000000000001</ele><time>2026-04-12T07:56:06.001Z</time></trkpt><trkpt lat="43.38812413440624" lon="6.646101417029031"><ele>116.00000000000001</ele><time>2026-04-12T07:56:26Z</time></trkpt><trkpt lat="43.38818953917374" lon="6.646069234493565"><ele>113.71428571428574</ele><time>2026-04-12T07:56:39Z</time></trkpt><trkpt lat="43.38823356479786" lon="6.64597970853671"><ele>111.42857142857143</ele><time>2026-04-12T07:57:58.001Z</time></trkpt><trkpt lat="43.38820631202948" lon="6.645887951380561"><ele>109.14285714285715</ele><time>2026-04-12T07:58:09.001Z</time></trkpt><trkpt lat="43.38821061642322" lon="6.645796155773152"><ele>106.85714285714286</ele><time>2026-04-12T07:58:13.001Z</time></trkpt><trkpt lat="43.38824884044092" lon="6.645709378892461"><ele>104.57142857142858</ele><time>2026-04-12T07:58:16.001Z</time></trkpt><trkpt lat="43.38831303826888" lon="6.645653122022374"><ele>102.28571428571429</ele><time>2026-04-12T07:58:18.001Z</time></trkpt><trkpt lat="43.388345369426546" lon="6.645561906462775"><ele>100.0</ele><time>2026-04-12T07:58:21.001Z</time></trkpt><trkpt lat="43.38839563482596" lon="6.6454973780590105"><ele>100.00000000000001</ele><time>2026-04-12T07:58:25.001Z</time></trkpt><trkpt lat="43.388455503526274" lon="6.64543316261802"><ele>100.0</ele><time>2026-04-12T07:58:28Z</time></trkpt><trkpt lat="43.38847704907738" lon="6.64534381574233"><ele>100.0</ele><time>2026-04-12T07:58:30Z</time></trkpt><trkpt lat="43.388494376135256" lon="6.6452502406842076"><ele>100.0</ele><time>2026-04-12T07:58:31Z</time></trkpt><trkpt lat="43.38849582626143" lon="6.645160706497171"><ele>100.0</ele><time>2026-04-12T07:58:32Z</time></trkpt><trkpt lat="43.38850790804533" lon="6.6450663350815"><ele>100.00000000000001</ele><time>2026-04-12T07:58:33Z</time></trkpt><trkpt lat="43.38853391651607" lon="6.644946553026358"><ele>100.0</ele><time>2026-04-12T07:58:34Z</time></trkpt><trkpt lat="43.38855074821232" lon="6.644814699225353"><ele>101.33333333333334</ele><time>2026-04-12T07:58:35Z</time></trkpt><trkpt lat="43.38855431715623" lon="6.644710712172072"><ele>102.66666666666667</ele><time>2026-04-12T07:58:36Z</time></trkpt><trkpt lat="43.388557119937" lon="6.644619203416257"><ele>104.0</ele><time>2026-04-12T07:58:37Z</time></trkpt><trkpt lat="43.38855201741907" lon="6.644516250656653"><ele>105.33333333333334</ele><time>2026-04-12T07:58:38Z</time></trkpt><trkpt lat="43.388511588987036" lon="6.644421477383503"><ele>106.66666666666667</ele><time>2026-04-12T07:58:39Z</time></trkpt><trkpt lat="43.38844235202854" lon="6.644307571325891"><ele>108.0</ele><time>2026-04-12T07:58:40Z</time></trkpt><trkpt lat="43.388397045231926" lon="6.644228195719613"><ele>110.0</ele><time>2026-04-12T07:58:41Z</time></trkpt><trkpt lat="43.38835655557131" lon="6.644140760233339"><ele>112.0</ele><time>2026-04-12T07:58:42Z</time></trkpt><trkpt lat="43.38831752497692" lon="6.644059102037711"><ele>114.0</ele><time>2026-04-12T07:58:43Z</time></trkpt><trkpt lat="43.38827284389313" lon="6.6439347727508755"><ele>116.0</ele><time>2026-04-12T07:58:45Z</time></trkpt><trkpt lat="43.38823053176677" lon="6.643817622200927"><ele>118.0</ele><time>2026-04-12T07:58:47Z</time></trkpt><trkpt lat="43.388204425431915" lon="6.643710125120729"><ele>120.0</ele><time>2026-04-12T07:58:49Z</time></trkpt><trkpt lat="43.388271046193225" lon="6.643664351106334"><ele>123.8</ele><time>2026-04-12T07:58:52Z</time></trkpt><trkpt lat="43.3883104858906" lon="6.643559458341018"><ele>127.6</ele><time>2026-04-12T07:58:55Z</time></trkpt><trkpt lat="43.38830521186274" lon="6.643379712407549"><ele>131.4</ele><time>2026-04-12T07:58:57Z</time></trkpt><trkpt lat="43.388282858878405" lon="6.643277689857907"><ele>135.2</ele><time>2026-04-12T07:59:08Z</time></trkpt><trkpt lat="43.38831287644248" lon="6.6431460790555965"><ele>139.0</ele><time>2026-04-12T07:59:11Z</time></trkpt><trkpt lat="43.38827315013779" lon="6.643037376308431"><ele>139.0</ele><time>2026-04-12T07:59:13Z</time></trkpt><trkpt lat="43.38820448701399" lon="6.642933819797498"><ele>139.0</ele><time>2026-04-12T07:59:15Z</time></trkpt><trkpt lat="43.38821298646174" lon="6.642809271307728"><ele>139.0</ele><time>2026-04-12T07:59:17Z</time></trkpt><trkpt lat="43.388165474829144" lon="6.642695112415321"><ele>139.0</ele><time>2026-04-12T07:59:19Z</time></trkpt><trkpt lat="43.388092375895695" lon="6.6425880972960805"><ele>139.0</ele><time>2026-04-12T07:59:21Z</time></trkpt><trkpt lat="43.388050956645685" lon="6.642513587048533"><ele>138.66666666666669</ele><time>2026-04-12T07:59:22Z</time></trkpt><trkpt lat="43.38800564464063" lon="6.642429090823307"><ele>138.33333333333334</ele><time>2026-04-12T07:59:23Z</time></trkpt><trkpt lat="43.38796142772974" lon="6.642346711921482"><ele>138.0</ele><time>2026-04-12T07:59:24Z</time></trkpt><trkpt lat="43.387917044626505" lon="6.642197682117905"><ele>137.66666666666666</ele><time>2026-04-12T07:59:26Z</time></trkpt><trkpt lat="43.38787977476208" lon="6.642104223036616"><ele>137.33333333333331</ele><time>2026-04-12T07:59:28Z</time></trkpt><trkpt lat="43.38796935346997" lon="6.64209634155903"><ele>137.0</ele><time>2026-04-12T07:59:33Z</time></trkpt><trkpt lat="43.38803995355104" lon="6.642027819222853"><ele>139.66666666666666</ele><time>2026-04-12T07:59:35Z</time></trkpt><trkpt lat="43.3881296318146" lon="6.64201657273263"><ele>142.33333333333331</ele><time>2026-04-12T07:59:37Z</time></trkpt><trkpt lat="43.388205436045844" lon="6.641995887305416"><ele>145.0</ele><time>2026-04-12T07:59:38.001Z</time></trkpt><trkpt lat="43.388285982300424" lon="6.641978093223556"><ele>147.66666666666666</ele><time>2026-04-12T07:59:39.001Z</time></trkpt><trkpt lat="43.38836218060123" lon="6.641963706105746"><ele>150.33333333333334</ele><time>2026-04-12T07:59:40.001Z</time></trkpt><trkpt lat="43.38842743070648" lon="6.641955552032809"><ele>153.0</ele><time>2026-04-12T07:59:41.001Z</time></trkpt><trkpt lat="43.388498224014036" lon="6.641935580562142"><ele>155.4</ele><time>2026-04-12T07:59:42.001Z</time></trkpt><trkpt lat="43.38858615247463" lon="6.641926861199677"><ele>157.8</ele><time>2026-04-12T07:59:43.001Z</time></trkpt><trkpt lat="43.38868085321235" lon="6.6419174177848355"><ele>160.2</ele><time>2026-04-12T07:59:44.001Z</time></trkpt><trkpt lat="43.38877057615096" lon="6.641912079114359"><ele>162.6</ele><time>2026-04-12T07:59:45.001Z</time></trkpt><trkpt lat="43.38886509664045" lon="6.641993367279798"><ele>165.0</ele><time>2026-04-12T07:59:47.001Z</time></trkpt><trkpt lat="43.388913596099506" lon="6.642081727174777"><ele>166.0</ele><time>2026-04-12T07:59:48.001Z</time></trkpt><trkpt lat="43.388955142913275" lon="6.642187503786963"><ele>167.0</ele><time>2026-04-12T07:59:49.001Z</time></trkpt><trkpt lat="43.389004813104954" lon="6.642282164895249"><ele>168.0</ele><time>2026-04-12T07:59:50.001Z</time></trkpt><trkpt lat="43.3890680693222" lon="6.642321155925569"><ele>169.0</ele><time>2026-04-12T07:59:51.001Z</time></trkpt><trkpt lat="43.389150049536156" lon="6.642320032099449"><ele>170.0</ele><time>2026-04-12T07:59:52.001Z</time></trkpt><trkpt lat="43.3892220300394" lon="6.6422723523501945"><ele>171.0</ele><time>2026-04-12T07:59:53.001Z</time></trkpt><trkpt lat="43.38927761812907" lon="6.642183483651661"><ele>171.0</ele><time>2026-04-12T07:59:54.001Z</time></trkpt><trkpt lat="43.38932960768352" lon="6.642073759220827"><ele>171.0</ele><time>2026-04-12T07:59:55.001Z</time></trkpt><trkpt lat="43.38935910648346" lon="6.641981728312465"><ele>171.0</ele><time>2026-04-12T07:59:56.001Z</time></trkpt><trkpt lat="43.38933681120595" lon="6.641894611441783"><ele>171.0</ele><time>2026-04-12T07:59:57.001Z</time></trkpt><trkpt lat="43.38930379127633" lon="6.641816297645219"><ele>171.0</ele><time>2026-04-12T07:59:58.001Z</time></trkpt><trkpt lat="43.38926283366074" lon="6.6417187579106205"><ele>171.0</ele><time>2026-04-12T07:59:59.001Z</time></trkpt><trkpt lat="43.38922405921183" lon="6.6416103104695825"><ele>173.8</ele><time>2026-04-12T08:00:00.001Z</time></trkpt><trkpt lat="43.38916429096704" lon="6.6414643950685575"><ele>176.60000000000002</ele><time>2026-04-12T08:00:02.001Z</time></trkpt><trkpt lat="43.38923404329915" lon="6.6413407954193975"><ele>179.4</ele><time>2026-04-12T08:00:04.001Z</time></trkpt><trkpt lat="43.38930213128498" lon="6.641291553174491"><ele>182.2</ele><time>2026-04-12T08:00:05.001Z</time></trkpt><trkpt lat="43.389383835936684" lon="6.641270611336384"><ele>185.0</ele><time>2026-04-12T08:00:06.001Z</time></trkpt><trkpt lat="43.389474467416356" lon="6.641260467269734"><ele>185.0</ele><time>2026-04-12T08:00:07.001Z</time></trkpt><trkpt lat="43.38953547089667" lon="6.641227828471154"><ele>185.0</ele><time>2026-04-12T08:00:08.001Z</time></trkpt><trkpt lat="43.38960648478273" lon="6.641150219298604"><ele>185.0</ele><time>2026-04-12T08:00:09.001Z</time></trkpt><trkpt lat="43.389667490146905" lon="6.64106833656534"><ele>185.0</ele><time>2026-04-12T08:00:10.001Z</time></trkpt><trkpt lat="43.389724163703974" lon="6.641022724324261"><ele>185.0</ele><time>2026-04-12T08:00:11.001Z</time></trkpt><trkpt lat="43.38982959053461" lon="6.640988859697632"><ele>185.0</ele><time>2026-04-12T08:00:13.001Z</time></trkpt><trkpt lat="43.38986789842338" lon="6.64085598784975"><ele>189.5</ele><time>2026-04-12T08:00:15.001Z</time></trkpt><trkpt lat="43.3897795993844" lon="6.6407834789937175"><ele>194.0</ele><time>2026-04-12T08:00:17.001Z</time></trkpt><trkpt lat="43.389926806681814" lon="6.640676508890051"><ele>198.5</ele><time>2026-04-12T08:00:23.001Z</time></trkpt><trkpt lat="43.39001568498037" lon="6.640589558541588"><ele>203.0</ele><time>2026-04-12T08:00:24.001Z</time></trkpt><trkpt lat="43.390113289730856" lon="6.640472810113717"><ele>203.0</ele><time>2026-04-12T08:00:25.001Z</time></trkpt><trkpt lat="43.390193810693255" lon="6.640372740335638"><ele>203.0</ele><time>2026-04-12T08:00:26.001Z</time></trkpt><trkpt lat="43.39027862316981" lon="6.6403126117099"><ele>203.0</ele><time>2026-04-12T08:00:27.001Z</time></trkpt><trkpt lat="43.39037859138564" lon="6.640259190715073"><ele>203.0</ele><time>2026-04-12T08:00:28.001Z</time></trkpt><trkpt lat="43.390485690357515" lon="6.640192116042114"><ele>203.0</ele><time>2026-04-12T08:00:29.001Z</time></trkpt><trkpt lat="43.39059034469983" lon="6.640121964174386"><ele>205.25</ele><time>2026-04-12T08:00:30.001Z</time></trkpt><trkpt lat="43.390704161872044" lon="6.640040910746232"><ele>207.5</ele><time>2026-04-12T08:00:31.001Z</time></trkpt><trkpt lat="43.39080771522105" lon="6.639959354989337"><ele>209.75</ele><time>2026-04-12T08:00:32.001Z</time></trkpt><trkpt lat="43.39089824858629" lon="6.639880467678757"><ele>212.0</ele><time>2026-04-12T08:00:33Z</time></trkpt><trkpt lat="43.39098538539072" lon="6.6397919381964305"><ele>212.0</ele><time>2026-04-12T08:00:34Z</time></trkpt><trkpt lat="43.391062364636916" lon="6.639716266560883"><ele>212.0</ele><time>2026-04-12T08:00:35Z</time></trkpt><trkpt lat="43.39115796341307" lon="6.639664384924537"><ele>212.0</ele><time>2026-04-12T08:00:36Z</time></trkpt><trkpt lat="43.391250097524974" lon="6.639638984356335"><ele>212.0</ele><time>2026-04-12T08:00:37Z</time></trkpt><trkpt lat="43.39133569644341" lon="6.639605064803284"><ele>212.0</ele><time>2026-04-12T08:00:38Z</time></trkpt><trkpt lat="43.39143057310063" lon="6.639576788552184"><ele>211.0</ele><time>2026-04-12T08:00:39Z</time></trkpt><trkpt lat="43.391550350759" lon="6.639531606759311"><ele>210.0</ele><time>2026-04-12T08:00:40Z</time></trkpt><trkpt lat="43.3916823613809" lon="6.639463003297889"><ele>209.0</ele><time>2026-04-12T08:00:41Z</time></trkpt><trkpt lat="43.39180511376903" lon="6.639386540274693"><ele>208.0</ele><time>2026-04-12T08:00:42Z</time></trkpt><trkpt lat="43.39191481660526" lon="6.639350101152242"><ele>207.99999999999997</ele><time>2026-04-12T08:00:43Z</time></trkpt><trkpt lat="43.391996213802265" lon="6.639294817588747"><ele>208.0</ele><time>2026-04-12T08:00:44Z</time></trkpt><trkpt lat="43.39205353031551" lon="6.63922570786336"><ele>208.0</ele><time>2026-04-12T08:00:45Z</time></trkpt><trkpt lat="43.39212265990045" lon="6.639134228752076"><ele>208.0</ele><time>2026-04-12T08:00:46Z</time></trkpt><trkpt lat="43.39217636018963" lon="6.639034534903142"><ele>207.99999999999997</ele><time>2026-04-12T08:00:47Z</time></trkpt><trkpt lat="43.39223088764119" lon="6.638953725573669"><ele>208.0</ele><time>2026-04-12T08:00:48Z</time></trkpt><trkpt lat="43.39227904906314" lon="6.638855809133596"><ele>209.16666666666666</ele><time>2026-04-12T08:00:49Z</time></trkpt><trkpt lat="43.392289112945235" lon="6.638763461621663"><ele>210.33333333333331</ele><time>2026-04-12T08:00:50Z</time></trkpt><trkpt lat="43.3922705563526" lon="6.638667175539981"><ele>211.5</ele><time>2026-04-12T08:00:51Z</time></trkpt><trkpt lat="43.39222612561054" lon="6.63853742242565"><ele>212.66666666666669</ele><time>2026-04-12T08:00:52Z</time></trkpt><trkpt lat="43.392189785258104" lon="6.638400431742983"><ele>213.83333333333334</ele><time>2026-04-12T08:00:53Z</time></trkpt><trkpt lat="43.392152004361876" lon="6.638282312649849"><ele>215.0</ele><time>2026-04-12T08:00:54Z</time></trkpt><trkpt lat="43.39213055864989" lon="6.638182026382261"><ele>211.0</ele><time>2026-04-12T08:00:55Z</time></trkpt><trkpt lat="43.39207361371418" lon="6.63801363519868"><ele>207.0</ele><time>2026-04-12T08:00:57Z</time></trkpt><trkpt lat="43.392019090145475" lon="6.637921370599366"><ele>203.0</ele><time>2026-04-12T08:00:58Z</time></trkpt><trkpt lat="43.39197826239131" lon="6.637834661824849"><ele>199.0</ele><time>2026-04-12T08:00:59Z</time></trkpt><trkpt lat="43.391928518400775" lon="6.637749239277919"><ele>195.0</ele><time>2026-04-12T08:01:00Z</time></trkpt><trkpt lat="43.39188387321588" lon="6.637656979771848"><ele>194.6</ele><time>2026-04-12T08:01:01Z</time></trkpt><trkpt lat="43.39184646449917" lon="6.637545277880001"><ele>194.2</ele><time>2026-04-12T08:01:02Z</time></trkpt><trkpt lat="43.39179169813001" lon="6.6374324221185885"><ele>193.8</ele><time>2026-04-12T08:01:03Z</time></trkpt><trkpt lat="43.39173008131035" lon="6.637307472508798"><ele>193.4</ele><time>2026-04-12T08:01:04Z</time></trkpt><trkpt lat="43.39168339685297" lon="6.6371999494749785"><ele>193.0</ele><time>2026-04-12T08:01:05Z</time></trkpt><trkpt lat="43.39161765069922" lon="6.6371247604216155"><ele>193.0</ele><time>2026-04-12T08:01:06Z</time></trkpt><trkpt lat="43.39156135947963" lon="6.636965435272828"><ele>193.0</ele><time>2026-04-12T08:01:08Z</time></trkpt><trkpt lat="43.391550756909126" lon="6.636858977708426"><ele>193.0</ele><time>2026-04-12T08:01:09Z</time></trkpt><trkpt lat="43.39154015019072" lon="6.636768388666042"><ele>193.0</ele><time>2026-04-12T08:01:10Z</time></trkpt><trkpt lat="43.391462671548844" lon="6.636745709257837"><ele>193.0</ele><time>2026-04-12T08:01:12Z</time></trkpt><trkpt lat="43.39140775136619" lon="6.63688989224693"><ele>193.0</ele><time>2026-04-12T08:01:14Z</time></trkpt><trkpt lat="43.391386790891644" lon="6.636990312826167"><ele>193.0</ele><time>2026-04-12T08:01:15Z</time></trkpt><trkpt lat="43.39139794951427" lon="6.637092073520759"><ele>193.0</ele><time>2026-04-12T08:01:16Z</time></trkpt><trkpt lat="43.391433382592304" lon="6.63722970073933"><ele>193.0</ele><time>2026-04-12T08:01:17Z</time></trkpt><trkpt lat="43.39149147012265" lon="6.63737609232931"><ele>193.0</ele><time>2026-04-12T08:01:18Z</time></trkpt><trkpt lat="43.39155638983968" lon="6.637513273208684"><ele>193.0</ele><time>2026-04-12T08:01:19Z</time></trkpt><trkpt lat="43.391593061316364" lon="6.6376291713169016"><ele>193.0</ele><time>2026-04-12T08:01:20Z</time></trkpt><trkpt lat="43.39160251452646" lon="6.6377691664067395"><ele>193.0</ele><time>2026-04-12T08:01:21Z</time></trkpt><trkpt lat="43.391608147362675" lon="6.637912675084898"><ele>193.0</ele><time>2026-04-12T08:01:22Z</time></trkpt><trkpt lat="43.391601954724585" lon="6.638044352159595"><ele>193.0</ele><time>2026-04-12T08:01:23Z</time></trkpt><trkpt lat="43.39156243237111" lon="6.638112971426022"><ele>193.4</ele><time>2026-04-12T08:01:24Z</time></trkpt><trkpt lat="43.39143003128226" lon="6.638141687314606"><ele>193.8</ele><time>2026-04-12T08:01:26Z</time></trkpt><trkpt lat="43.39133802222434" lon="6.63813337761212"><ele>194.2</ele><time>2026-04-12T08:01:27Z</time></trkpt><trkpt lat="43.391235657522685" lon="6.6381270957320355"><ele>194.6</ele><time>2026-04-12T08:01:28Z</time></trkpt><trkpt lat="43.39115888883651" lon="6.638115744955799"><ele>195.0</ele><time>2026-04-12T08:01:29Z</time></trkpt><trkpt lat="43.391099417832784" lon="6.638144821546623"><ele>193.33333333333334</ele><time>2026-04-12T08:01:30Z</time></trkpt><trkpt lat="43.39104552127623" lon="6.638198175572168"><ele>191.66666666666666</ele><time>2026-04-12T08:01:31Z</time></trkpt><trkpt lat="43.39098142100337" lon="6.638331079681819"><ele>190.0</ele><time>2026-04-12T08:01:32Z</time></trkpt><trkpt lat="43.39092606885408" lon="6.638403721306295"><ele>188.33333333333331</ele><time>2026-04-12T08:01:33Z</time></trkpt><trkpt lat="43.39084156139134" lon="6.638446173891416"><ele>186.66666666666666</ele><time>2026-04-12T08:01:34Z</time></trkpt><trkpt lat="43.39075262601743" lon="6.6384251075765714"><ele>185.0</ele><time>2026-04-12T08:01:35Z</time></trkpt><trkpt lat="43.39066471255354" lon="6.63836536425438"><ele>185.0</ele><time>2026-04-12T08:01:36Z</time></trkpt><trkpt lat="43.39057708994591" lon="6.638287335428026"><ele>185.0</ele><time>2026-04-12T08:01:37Z</time></trkpt><trkpt lat="43.39048962133041" lon="6.63817671438392"><ele>185.0</ele><time>2026-04-12T08:01:38Z</time></trkpt><trkpt lat="43.39040186541986" lon="6.6380645234881435"><ele>185.0</ele><time>2026-04-12T08:01:39Z</time></trkpt><trkpt lat="43.390300810714805" lon="6.637950206818586"><ele>183.4</ele><time>2026-04-12T08:01:40Z</time></trkpt><trkpt lat="43.390218390418305" lon="6.63786214241393"><ele>181.8</ele><time>2026-04-12T08:01:41.001Z</time></trkpt><trkpt lat="43.390141129587214" lon="6.6377673937319015"><ele>180.2</ele><time>2026-04-12T08:01:42.001Z</time></trkpt><trkpt lat="43.390089046091354" lon="6.637671819782583"><ele>178.6</ele><time>2026-04-12T08:01:43.001Z</time></trkpt><trkpt lat="43.390023161449044" lon="6.6375482460273565"><ele>177.0</ele><time>2026-04-12T08:01:44.001Z</time></trkpt><trkpt lat="43.389961999177714" lon="6.637445040067683"><ele>176.0</ele><time>2026-04-12T08:01:45.001Z</time></trkpt><trkpt lat="43.38988071981441" lon="6.637383927941636"><ele>175.0</ele><time>2026-04-12T08:01:46.001Z</time></trkpt><trkpt lat="43.38978359339648" lon="6.637336552988722"><ele>174.0</ele><time>2026-04-12T08:01:47.001Z</time></trkpt><trkpt lat="43.3896712065504" lon="6.637279887188243"><ele>173.0</ele><time>2026-04-12T08:01:48.001Z</time></trkpt><trkpt lat="43.38957192093188" lon="6.637218107010556"><ele>172.0</ele><time>2026-04-12T08:01:49.001Z</time></trkpt><trkpt lat="43.38949715104443" lon="6.6371499275620796"><ele>170.16666666666669</ele><time>2026-04-12T08:01:50.001Z</time></trkpt><trkpt lat="43.38944865905675" lon="6.637062700034509"><ele>168.33333333333334</ele><time>2026-04-12T08:01:51.001Z</time></trkpt><trkpt lat="43.389417496190546" lon="6.636947065432382"><ele>166.5</ele><time>2026-04-12T08:01:52.001Z</time></trkpt><trkpt lat="43.38939672140319" lon="6.636816763094623"><ele>164.66666666666666</ele><time>2026-04-12T08:01:53.001Z</time></trkpt><trkpt lat="43.38937630285244" lon="6.6367025366849175"><ele>162.83333333333331</ele><time>2026-04-12T08:01:54.001Z</time></trkpt><trkpt lat="43.38935561188749" lon="6.636606184811454"><ele>161.0</ele><time>2026-04-12T08:01:55.001Z</time></trkpt><trkpt lat="43.3893308889636" lon="6.636495859042695"><ele>161.0</ele><time>2026-04-12T08:01:56.001Z</time></trkpt><trkpt lat="43.38930170894066" lon="6.636374616954895"><ele>161.0</ele><time>2026-04-12T08:01:57.001Z</time></trkpt><trkpt lat="43.38926274381765" lon="6.636235686422154"><ele>161.0</ele><time>2026-04-12T08:01:58.001Z</time></trkpt><trkpt lat="43.38920127173636" lon="6.63606846478623"><ele>161.0</ele><time>2026-04-12T08:01:59.001Z</time></trkpt><trkpt lat="43.389127724548516" lon="6.635908004966756"><ele>160.4</ele><time>2026-04-12T08:02:00.001Z</time></trkpt><trkpt lat="43.38904163505322" lon="6.635742449784098"><ele>159.8</ele><time>2026-04-12T08:02:01.001Z</time></trkpt><trkpt lat="43.3889842150535" lon="6.6356042327375135"><ele>159.20000000000002</ele><time>2026-04-12T08:02:02.001Z</time></trkpt><trkpt lat="43.388938368545446" lon="6.635521186093108"><ele>158.60000000000002</ele><time>2026-04-12T08:02:03.001Z</time></trkpt><trkpt lat="43.38886346103045" lon="6.635441523575716"><ele>158.0</ele><time>2026-04-12T08:02:04.001Z</time></trkpt><trkpt lat="43.388772283515316" lon="6.635337554882541"><ele>156.6</ele><time>2026-04-12T08:02:05.001Z</time></trkpt><trkpt lat="43.388701293439645" lon="6.635216328184919"><ele>155.20000000000002</ele><time>2026-04-12T08:02:06.001Z</time></trkpt><trkpt lat="43.38866016593379" lon="6.635142017813109"><ele>153.8</ele><time>2026-04-12T08:02:07.001Z</time></trkpt><trkpt lat="43.388552842370046" lon="6.635079268305899"><ele>152.4</ele><time>2026-04-12T08:02:09.001Z</time></trkpt><trkpt lat="43.38847500429305" lon="6.635056757170426"><ele>151.0</ele><time>2026-04-12T08:02:10.001Z</time></trkpt><trkpt lat="43.38838358470811" lon="6.635041924680789"><ele>151.0</ele><time>2026-04-12T08:02:11.001Z</time></trkpt><trkpt lat="43.388276894113645" lon="6.635020464222329"><ele>151.0</ele><time>2026-04-12T08:02:12.001Z</time></trkpt><trkpt lat="43.38816129906735" lon="6.635004870301683"><ele>151.0</ele><time>2026-04-12T08:02:13.001Z</time></trkpt><trkpt lat="43.38805797755226" lon="6.635020318840167"><ele>151.0</ele><time>2026-04-12T08:02:14.001Z</time></trkpt><trkpt lat="43.38797943009792" lon="6.635041795730323"><ele>151.0</ele><time>2026-04-12T08:02:15.001Z</time></trkpt><trkpt lat="43.38791554710457" lon="6.635061313379534"><ele>149.66666666666669</ele><time>2026-04-12T08:02:16.001Z</time></trkpt><trkpt lat="43.38784526796588" lon="6.634986179900908"><ele>148.33333333333334</ele><time>2026-04-12T08:02:18.001Z</time></trkpt><trkpt lat="43.38781888371731" lon="6.634864006522083"><ele>147.0</ele><time>2026-04-12T08:02:21.001Z</time></trkpt><trkpt lat="43.387771926364245" lon="6.634794396008238"><ele>145.66666666666666</ele><time>2026-04-12T08:02:23.001Z</time></trkpt><trkpt lat="43.38767862223194" lon="6.63480261370412"><ele>144.33333333333331</ele><time>2026-04-12T08:02:31.001Z</time></trkpt><trkpt lat="43.38760272532781" lon="6.634774700816186"><ele>143.0</ele><time>2026-04-12T08:02:32.001Z</time></trkpt><trkpt lat="43.38752415751923" lon="6.634772901590548"><ele>143.0</ele><time>2026-04-12T08:02:33.001Z</time></trkpt><trkpt lat="43.38746619611131" lon="6.634812939594405"><ele>143.0</ele><time>2026-04-12T08:02:34.001Z</time></trkpt><trkpt lat="43.38738817868279" lon="6.634905912992027"><ele>143.0</ele><time>2026-04-12T08:02:36.001Z</time></trkpt><trkpt lat="43.38734316205298" lon="6.635011337244499"><ele>143.0</ele><time>2026-04-12T08:02:38.001Z</time></trkpt><trkpt lat="43.38726002435426" lon="6.635095337400416"><ele>143.0</ele><time>2026-04-12T08:02:40Z</time></trkpt><trkpt lat="43.38717441675951" lon="6.635063217968512"><ele>143.0</ele><time>2026-04-12T08:02:42Z</time></trkpt><trkpt lat="43.38707555060508" lon="6.635014366711398"><ele>140.28571428571428</ele><time>2026-04-12T08:02:44Z</time></trkpt><trkpt lat="43.387019807125235" lon="6.634971728978514"><ele>137.57142857142856</ele><time>2026-04-12T08:02:45Z</time></trkpt><trkpt lat="43.386945601386735" lon="6.634911912230681"><ele>134.85714285714286</ele><time>2026-04-12T08:02:46Z</time></trkpt><trkpt lat="43.38687145844522" lon="6.634885559788915"><ele>132.14285714285714</ele><time>2026-04-12T08:02:47Z</time></trkpt><trkpt lat="43.386798882372695" lon="6.634875964155702"><ele>129.42857142857144</ele><time>2026-04-12T08:02:48Z</time></trkpt><trkpt lat="43.38672514595946" lon="6.634861683630119"><ele>126.71428571428572</ele><time>2026-04-12T08:02:49Z</time></trkpt><trkpt lat="43.38667045935895" lon="6.634818126052096"><ele>124.0</ele><time>2026-04-12T08:02:50Z</time></trkpt><trkpt lat="43.38663575733461" lon="6.6347340880961845"><ele>124.00000000000001</ele><time>2026-04-12T08:02:51Z</time></trkpt><trkpt lat="43.386620635226144" lon="6.634642289983202"><ele>124.0</ele><time>2026-04-12T08:02:52Z</time></trkpt><trkpt lat="43.38658377785456" lon="6.634544549964237"><ele>124.0</ele><time>2026-04-12T08:02:53Z</time></trkpt><trkpt lat="43.38654002486125" lon="6.63445237131301"><ele>124.0</ele><time>2026-04-12T08:02:54Z</time></trkpt><trkpt lat="43.386499527238584" lon="6.63428688844836"><ele>124.00000000000001</ele><time>2026-04-12T08:02:56Z</time></trkpt><trkpt lat="43.38647725007963" lon="6.63417875484458"><ele>124.0</ele><time>2026-04-12T08:02:57Z</time></trkpt><trkpt lat="43.38645210776286" lon="6.634084191152635"><ele>124.00000000000001</ele><time>2026-04-12T08:02:58Z</time></trkpt><trkpt lat="43.38642088518997" lon="6.6340067937822695"><ele>124.0</ele><time>2026-04-12T08:02:59Z</time></trkpt><trkpt lat="43.386368440597415" lon="6.633956057926143"><ele>124.0</ele><time>2026-04-12T08:03:00Z</time></trkpt><trkpt lat="43.38630831481548" lon="6.633929569197206"><ele>124.0</ele><time>2026-04-12T08:03:01Z</time></trkpt><trkpt lat="43.386209943165056" lon="6.633960383342386"><ele>124.00000000000001</ele><time>2026-04-12T08:03:03Z</time></trkpt><trkpt lat="43.386116564238634" lon="6.634061936558282"><ele>124.0</ele><time>2026-04-12T08:03:05Z</time></trkpt><trkpt lat="43.38600386917801" lon="6.63403982539731"><ele>121.2</ele><time>2026-04-12T08:03:07Z</time></trkpt><trkpt lat="43.385942917870324" lon="6.6339809739685265"><ele>118.4</ele><time>2026-04-12T08:03:08Z</time></trkpt><trkpt lat="43.38588346436259" lon="6.633944445674337"><ele>115.6</ele><time>2026-04-12T08:03:09Z</time></trkpt><trkpt lat="43.38577791176807" lon="6.633977502192776"><ele>112.8</ele><time>2026-04-12T08:03:11Z</time></trkpt><trkpt lat="43.38566795346591" lon="6.633964951917197"><ele>110.0</ele><time>2026-04-12T08:03:13Z</time></trkpt><trkpt lat="43.38559880892349" lon="6.633877102402571"><ele>109.99999999999999</ele><time>2026-04-12T08:03:15Z</time></trkpt><trkpt lat="43.38565215865983" lon="6.633770592955577"><ele>110.0</ele><time>2026-04-12T08:03:18Z</time></trkpt><trkpt lat="43.385731306582734" lon="6.633742096455685"><ele>110.0</ele><time>2026-04-12T08:03:20Z</time></trkpt><trkpt lat="43.38576053916274" lon="6.6336499182444975"><ele>110.0</ele><time>2026-04-12T08:03:22Z</time></trkpt><trkpt lat="43.385776468059206" lon="6.633532672383746"><ele>109.99999999999999</ele><time>2026-04-12T08:03:24Z</time></trkpt><trkpt lat="43.38583345193347" lon="6.633435647421515"><ele>110.0</ele><time>2026-04-12T08:03:27Z</time></trkpt><trkpt lat="43.38591360353744" lon="6.633390868592621"><ele>109.66666666666666</ele><time>2026-04-12T08:03:29Z</time></trkpt><trkpt lat="43.38597336795275" lon="6.633328767666135"><ele>109.33333333333333</ele><time>2026-04-12T08:03:31Z</time></trkpt><trkpt lat="43.38608730099127" lon="6.633310611552223"><ele>109.0</ele><time>2026-04-12T08:03:33Z</time></trkpt><trkpt lat="43.38614995176677" lon="6.633320295837517"><ele>108.66666666666666</ele><time>2026-04-12T08:03:34Z</time></trkpt><trkpt lat="43.38625862555233" lon="6.6332910121997735"><ele>108.33333333333333</ele><time>2026-04-12T08:03:36Z</time></trkpt><trkpt lat="43.38632233142561" lon="6.633281168571369"><ele>108.0</ele><time>2026-04-12T08:03:37Z</time></trkpt><trkpt lat="43.38646753076984" lon="6.633269881372393"><ele>108.80000000000001</ele><time>2026-04-12T08:03:40Z</time></trkpt><trkpt lat="43.38656740495084" lon="6.633250213278625"><ele>109.60000000000001</ele><time>2026-04-12T08:03:41Z</time></trkpt><trkpt lat="43.38665287743214" lon="6.633222352658116"><ele>110.39999999999999</ele><time>2026-04-12T08:03:43Z</time></trkpt><trkpt lat="43.38675241534802" lon="6.633175812650112"><ele>111.19999999999999</ele><time>2026-04-12T08:03:46Z</time></trkpt><trkpt lat="43.38681293684128" lon="6.63312444572666"><ele>112.0</ele><time>2026-04-12T08:03:48Z</time></trkpt><trkpt lat="43.38689070769636" lon="6.633055055155594"><ele>112.0</ele><time>2026-04-12T08:03:50Z</time></trkpt><trkpt lat="43.38695952381001" lon="6.632978527843364"><ele>111.99999999999999</ele><time>2026-04-12T08:03:52.001Z</time></trkpt><trkpt lat="43.387025910189905" lon="6.632877127679029"><ele>111.99999999999999</ele><time>2026-04-12T08:03:54.001Z</time></trkpt><trkpt lat="43.38708332399823" lon="6.632755169516889"><ele>112.0</ele><time>2026-04-12T08:03:56.001Z</time></trkpt><trkpt lat="43.38714663529679" lon="6.632669503344631"><ele>112.0</ele><time>2026-04-12T08:03:58.001Z</time></trkpt><trkpt lat="43.3871624121029" lon="6.632569155473877"><ele>112.33333333333334</ele><time>2026-04-12T08:04:01.001Z</time></trkpt><trkpt lat="43.38716651440912" lon="6.63248223559343"><ele>112.66666666666667</ele><time>2026-04-12T08:04:03.001Z</time></trkpt><trkpt lat="43.387238017903464" lon="6.632400851137274"><ele>113.0</ele><time>2026-04-12T08:04:06.001Z</time></trkpt><trkpt lat="43.38727047083997" lon="6.6322964332765455"><ele>113.33333333333334</ele><time>2026-04-12T08:04:08.001Z</time></trkpt><trkpt lat="43.38733895120511" lon="6.632210759316268"><ele>113.66666666666667</ele><time>2026-04-12T08:04:10.001Z</time></trkpt><trkpt lat="43.387406774944324" lon="6.632117044073851"><ele>114.0</ele><time>2026-04-12T08:04:12.001Z</time></trkpt><trkpt lat="43.387481565054806" lon="6.631988435992373"><ele>114.80000000000001</ele><time>2026-04-12T08:04:14.001Z</time></trkpt><trkpt lat="43.38752506777805" lon="6.631911262925768"><ele>115.60000000000001</ele><time>2026-04-12T08:04:15.001Z</time></trkpt><trkpt lat="43.38757957400443" lon="6.631858370747864"><ele>116.4</ele><time>2026-04-12T08:04:16.001Z</time></trkpt><trkpt lat="43.38775854452424" lon="6.631712456690169"><ele>117.2</ele><time>2026-04-12T08:04:25.001Z</time></trkpt><trkpt lat="43.387855820315814" lon="6.631702421132338"><ele>118.0</ele><time>2026-04-12T08:04:27.001Z</time></trkpt><trkpt lat="43.38793188067486" lon="6.631625013499592"><ele>118.0</ele><time>2026-04-12T08:04:29.001Z</time></trkpt><trkpt lat="43.38798646189289" lon="6.631550854872123"><ele>118.0</ele><time>2026-04-12T08:04:46Z</time></trkpt><trkpt lat="43.388014838254605" lon="6.631453869123559"><ele>118.0</ele><time>2026-04-12T08:04:50Z</time></trkpt><trkpt lat="43.38796847732834" lon="6.631387144405533"><ele>118.0</ele><time>2026-04-12T08:04:53Z</time></trkpt><trkpt lat="43.387917169887366" lon="6.631314899792579"><ele>118.0</ele><time>2026-04-12T08:04:56Z</time></trkpt><trkpt lat="43.387835689468716" lon="6.631333546530986"><ele>118.0</ele><time>2026-04-12T08:05:18Z</time></trkpt><trkpt lat="43.38776925172496" lon="6.631348938738913"><ele>118.0</ele><time>2026-04-12T08:05:20Z</time></trkpt><trkpt lat="43.38771519569782" lon="6.631404951780647"><ele>118.00000000000001</ele><time>2026-04-12T08:05:50Z</time></trkpt><trkpt lat="43.387656194692056" lon="6.631354934642807"><ele>118.0</ele><time>2026-04-12T08:06:09.001Z</time></trkpt><trkpt lat="43.38761137259895" lon="6.63128069636979"><ele>118.0</ele><time>2026-04-12T08:06:31.001Z</time></trkpt><trkpt lat="43.38759139184004" lon="6.631192512539271"><ele>118.0</ele><time>2026-04-12T08:06:45.001Z</time></trkpt><trkpt lat="43.387605314513166" lon="6.6310957957753045"><ele>118.00000000000001</ele><time>2026-04-12T08:10:03Z</time></trkpt><trkpt lat="43.38760401928354" lon="6.631188644941125"><ele>118.0</ele><time>2026-04-12T08:13:31.999Z</time></trkpt><trkpt lat="43.38753709447849" lon="6.631069602219815"><ele>121.33333333333334</ele><time>2026-04-12T08:15:56Z</time></trkpt><trkpt lat="43.387532993863324" lon="6.630960337020109"><ele>124.66666666666667</ele><time>2026-04-12T08:27:47.002Z</time></trkpt><trkpt lat="43.38747295507337" lon="6.630858372221404"><ele>128.0</ele><time>2026-04-12T08:28:44.001Z</time></trkpt><trkpt lat="43.387415246217095" lon="6.630792855444439"><ele>131.33333333333334</ele><time>2026-04-12T08:29:07.001Z</time></trkpt><trkpt lat="43.387399699884554" lon="6.6307044917717"><ele>134.66666666666666</ele><time>2026-04-12T08:29:11.001Z</time></trkpt><trkpt lat="43.387373943680096" lon="6.630585370716687"><ele>138.0</ele><time>2026-04-12T08:29:15.001Z</time></trkpt><trkpt lat="43.38739368863327" lon="6.630471809279109"><ele>138.0</ele><time>2026-04-12T08:29:19.001Z</time></trkpt><trkpt lat="43.38737855122645" lon="6.6303798886761465"><ele>138.0</ele><time>2026-04-12T08:29:40.001Z</time></trkpt><trkpt lat="43.387415048297825" lon="6.6303092160492145"><ele>138.0</ele><time>2026-04-12T08:29:46.001Z</time></trkpt><trkpt lat="43.38736400186892" lon="6.6302396027323445"><ele>138.0</ele><time>2026-04-12T08:30:20Z</time></trkpt><trkpt lat="43.3873580466611" lon="6.6301514503365055"><ele>138.0</ele><time>2026-04-12T08:30:55.001Z</time></trkpt><trkpt lat="43.38727757259744" lon="6.630094465859356"><ele>138.0</ele><time>2026-04-12T08:31:03.001Z</time></trkpt><trkpt lat="43.38721851993932" lon="6.630061838613053"><ele>138.0</ele><time>2026-04-12T08:31:07.001Z</time></trkpt><trkpt lat="43.38702748680389" lon="6.6300037907031095"><ele>144.28571428571428</ele><time>2026-04-12T08:31:22.001Z</time></trkpt><trkpt lat="43.386977723274065" lon="6.629936401768204"><ele>150.57142857142858</ele><time>2026-04-12T08:31:26.001Z</time></trkpt><trkpt lat="43.38690738280945" lon="6.6299110453213785"><ele>156.85714285714286</ele><time>2026-04-12T08:31:31.001Z</time></trkpt><trkpt lat="43.38684558688336" lon="6.6298508012159525"><ele>163.14285714285714</ele><time>2026-04-12T08:31:36.001Z</time></trkpt><trkpt lat="43.38683114926538" lon="6.629761402169146"><ele>169.42857142857144</ele><time>2026-04-12T08:31:40.001Z</time></trkpt><trkpt lat="43.386826194556065" lon="6.629672786837444"><ele>175.71428571428572</ele><time>2026-04-12T08:31:44.001Z</time></trkpt><trkpt lat="43.386846010849226" lon="6.629589003519375"><ele>182.0</ele><time>2026-04-12T08:31:47.001Z</time></trkpt><trkpt lat="43.38682209868371" lon="6.629495305193981"><ele>186.0</ele><time>2026-04-12T08:31:52.001Z</time></trkpt><trkpt lat="43.386796503995626" lon="6.629378859423936"><ele>190.0</ele><time>2026-04-12T08:31:57.001Z</time></trkpt><trkpt lat="43.38680898539307" lon="6.6292720535324055"><ele>194.0</ele><time>2026-04-12T08:32:06Z</time></trkpt><trkpt lat="43.38682795299332" lon="6.629189418112325"><ele>198.0</ele><time>2026-04-12T08:32:10Z</time></trkpt><trkpt lat="43.38678929604666" lon="6.62910717262736"><ele>202.00000000000003</ele><time>2026-04-12T08:32:13Z</time></trkpt><trkpt lat="43.386776031414165" lon="6.628998735354746"><ele>206.0</ele><time>2026-04-12T08:35:01Z</time></trkpt><trkpt lat="43.38673647151799" lon="6.628889981583682"><ele>206.0</ele><time>2026-04-12T08:35:03Z</time></trkpt><trkpt lat="43.386686782648546" lon="6.628795037704501"><ele>206.0</ele><time>2026-04-12T08:35:06Z</time></trkpt><trkpt lat="43.38666308785316" lon="6.628681698822189"><ele>206.0</ele><time>2026-04-12T08:35:08.001Z</time></trkpt><trkpt lat="43.38659462265236" lon="6.62857666604027"><ele>206.0</ele><time>2026-04-12T08:35:10.001Z</time></trkpt><trkpt lat="43.386501474712254" lon="6.628458008289733"><ele>206.0</ele><time>2026-04-12T08:35:12.001Z</time></trkpt><trkpt lat="43.386450323778085" lon="6.628397112230333"><ele>206.00000000000003</ele><time>2026-04-12T08:35:13.001Z</time></trkpt><trkpt lat="43.3864050111122" lon="6.628333514958626"><ele>206.0</ele><time>2026-04-12T08:35:14.001Z</time></trkpt><trkpt lat="43.386350486335004" lon="6.628287804542038"><ele>206.0</ele><time>2026-04-12T08:35:15.001Z</time></trkpt><trkpt lat="43.38629066428006" lon="6.628251294102334"><ele>206.0</ele><time>2026-04-12T08:35:17.001Z</time></trkpt><trkpt lat="43.38626361633905" lon="6.6283365852122245"><ele>206.00000000000003</ele><time>2026-04-12T08:35:19.001Z</time></trkpt><trkpt lat="43.386240375049894" lon="6.628466145466717"><ele>206.0</ele><time>2026-04-12T08:35:21.001Z</time></trkpt><trkpt lat="43.38620153809829" lon="6.628596640355005"><ele>204.16666666666669</ele><time>2026-04-12T08:35:23.001Z</time></trkpt><trkpt lat="43.38616570036927" lon="6.628678988192781"><ele>202.33333333333334</ele><time>2026-04-12T08:35:24.001Z</time></trkpt><trkpt lat="43.38609630626093" lon="6.628803850613623"><ele>200.5</ele><time>2026-04-12T08:35:26.001Z</time></trkpt><trkpt lat="43.385973134727834" lon="6.628827625438511"><ele>198.66666666666669</ele><time>2026-04-12T08:35:28.001Z</time></trkpt><trkpt lat="43.385906885427225" lon="6.628844909870958"><ele>196.83333333333334</ele><time>2026-04-12T08:35:29.001Z</time></trkpt><trkpt lat="43.38584335766678" lon="6.6288326190190565"><ele>195.0</ele><time>2026-04-12T08:35:30.001Z</time></trkpt><trkpt lat="43.38578310754124" lon="6.6287843561799"><ele>195.0</ele><time>2026-04-12T08:35:31.001Z</time></trkpt><trkpt lat="43.385722058424534" lon="6.6287298875209455"><ele>195.0</ele><time>2026-04-12T08:35:32.001Z</time></trkpt><trkpt lat="43.385666451171986" lon="6.628650038753124"><ele>195.0</ele><time>2026-04-12T08:35:33.001Z</time></trkpt><trkpt lat="43.385635625547415" lon="6.628545008527261"><ele>195.0</ele><time>2026-04-12T08:35:34.001Z</time></trkpt><trkpt lat="43.385621546405936" lon="6.6284328398483074"><ele>195.0</ele><time>2026-04-12T08:35:35.001Z</time></trkpt><trkpt lat="43.38560673070957" lon="6.6283301892321065"><ele>195.0</ele><time>2026-04-12T08:35:36.001Z</time></trkpt><trkpt lat="43.38558114152108" lon="6.628236192622214"><ele>195.5</ele><time>2026-04-12T08:35:37.001Z</time></trkpt><trkpt lat="43.3855424495136" lon="6.628166451214981"><ele>196.0</ele><time>2026-04-12T08:35:38.001Z</time></trkpt><trkpt lat="43.38547963346944" lon="6.628136076434129"><ele>196.5</ele><time>2026-04-12T08:35:39.001Z</time></trkpt><trkpt lat="43.38540948366413" lon="6.628147064012275"><ele>197.0</ele><time>2026-04-12T08:35:40.001Z</time></trkpt><trkpt lat="43.38531370164831" lon="6.628156033938417"><ele>197.5</ele><time>2026-04-12T08:35:41.001Z</time></trkpt><trkpt lat="43.385219758211626" lon="6.628133691438704"><ele>198.0</ele><time>2026-04-12T08:35:42.001Z</time></trkpt><trkpt lat="43.385136679464566" lon="6.628109777073767"><ele>198.0</ele><time>2026-04-12T08:35:43.001Z</time></trkpt><trkpt lat="43.385067912374275" lon="6.628157658395599"><ele>198.0</ele><time>2026-04-12T08:35:45.001Z</time></trkpt><trkpt lat="43.38500938446163" lon="6.628230700426888"><ele>198.0</ele><time>2026-04-12T08:35:47.001Z</time></trkpt><trkpt lat="43.38497215599466" lon="6.628320958477838"><ele>198.0</ele><time>2026-04-12T08:35:48.001Z</time></trkpt><trkpt lat="43.38494152227246" lon="6.628414943928368"><ele>198.0</ele><time>2026-04-12T08:35:52.001Z</time></trkpt><trkpt lat="43.38485605843944" lon="6.628578888362861"><ele>198.0</ele><time>2026-04-12T08:35:54.001Z</time></trkpt><trkpt lat="43.38477020105683" lon="6.628731848513069"><ele>198.0</ele><time>2026-04-12T08:35:55.001Z</time></trkpt><trkpt lat="43.38470636040091" lon="6.628910936344369"><ele>198.0</ele><time>2026-04-12T08:35:56.001Z</time></trkpt><trkpt lat="43.38464220614415" lon="6.629059104989103"><ele>198.0</ele><time>2026-04-12T08:35:57.001Z</time></trkpt><trkpt lat="43.38456965817861" lon="6.629211373898148"><ele>198.0</ele><time>2026-04-12T08:35:58.001Z</time></trkpt><trkpt lat="43.38448802807408" lon="6.629323295394777"><ele>198.0</ele><time>2026-04-12T08:35:59.001Z</time></trkpt><trkpt lat="43.38438928030839" lon="6.6294538113811825"><ele>198.0</ele><time>2026-04-12T08:36:00.001Z</time></trkpt><trkpt lat="43.38428910179345" lon="6.629580255950224"><ele>198.0</ele><time>2026-04-12T08:36:01.001Z</time></trkpt><trkpt lat="43.38421728462261" lon="6.629674910871269"><ele>194.8</ele><time>2026-04-12T08:36:02.001Z</time></trkpt><trkpt lat="43.384154143369805" lon="6.629750470054215"><ele>191.60000000000002</ele><time>2026-04-12T08:36:03.001Z</time></trkpt><trkpt lat="43.384076388306504" lon="6.6298334804292836"><ele>188.39999999999998</ele><time>2026-04-12T08:36:04.001Z</time></trkpt><trkpt lat="43.38401042675303" lon="6.629916051013295"><ele>185.2</ele><time>2026-04-12T08:36:05.001Z</time></trkpt><trkpt lat="43.38397303981298" lon="6.630024002861871"><ele>182.0</ele><time>2026-04-12T08:36:06.001Z</time></trkpt><trkpt lat="43.383923523719034" lon="6.630132288370647"><ele>182.0</ele><time>2026-04-12T08:36:07.001Z</time></trkpt><trkpt lat="43.38385228242838" lon="6.630231672654735"><ele>182.0</ele><time>2026-04-12T08:36:08.002Z</time></trkpt><trkpt lat="43.383759742994165" lon="6.630356084458717"><ele>182.0</ele><time>2026-04-12T08:36:09.002Z</time></trkpt><trkpt lat="43.383673570557285" lon="6.630441629586908"><ele>182.0</ele><time>2026-04-12T08:36:10.002Z</time></trkpt><trkpt lat="43.38360199669985" lon="6.630502427235956"><ele>182.0</ele><time>2026-04-12T08:36:11.002Z</time></trkpt><trkpt lat="43.38354661600193" lon="6.630558132898729"><ele>178.8</ele><time>2026-04-12T08:36:12.002Z</time></trkpt><trkpt lat="43.38349444472877" lon="6.630626719712333"><ele>175.6</ele><time>2026-04-12T08:36:14.002Z</time></trkpt><trkpt lat="43.38346792870105" lon="6.630785328275164"><ele>172.4</ele><time>2026-04-12T08:36:16Z</time></trkpt><trkpt lat="43.38340667677408" lon="6.630895690373717"><ele>169.20000000000002</ele><time>2026-04-12T08:36:18Z</time></trkpt><trkpt lat="43.38335329413444" lon="6.630950726578764"><ele>166.0</ele><time>2026-04-12T08:36:19Z</time></trkpt><trkpt lat="43.38327108300179" lon="6.631014015782796"><ele>164.0</ele><time>2026-04-12T08:36:20Z</time></trkpt><trkpt lat="43.383228534450694" lon="6.631169357463706"><ele>162.0</ele><time>2026-04-12T08:36:22Z</time></trkpt><trkpt lat="43.3832188184054" lon="6.631320139453845"><ele>160.0</ele><time>2026-04-12T08:36:24Z</time></trkpt><trkpt lat="43.3832250816893" lon="6.631407302103772"><ele>158.0</ele><time>2026-04-12T08:36:25Z</time></trkpt><trkpt lat="43.38323262035624" lon="6.6314939375055255"><ele>156.0</ele><time>2026-04-12T08:36:26Z</time></trkpt><trkpt lat="43.38319768412441" lon="6.631624557822685"><ele>156.0</ele><time>2026-04-12T08:36:28Z</time></trkpt><trkpt lat="43.383170403143474" lon="6.631745106267838"><ele>156.0</ele><time>2026-04-12T08:36:29Z</time></trkpt><trkpt lat="43.38312742080514" lon="6.631853081045966"><ele>156.0</ele><time>2026-04-12T08:36:30Z</time></trkpt><trkpt lat="43.383114330982686" lon="6.631944378770821"><ele>156.0</ele><time>2026-04-12T08:36:31Z</time></trkpt><trkpt lat="43.383149617974055" lon="6.6320510126074375"><ele>156.0</ele><time>2026-04-12T08:36:32Z</time></trkpt><trkpt lat="43.383174457562944" lon="6.632149969839007"><ele>156.0</ele><time>2026-04-12T08:36:33Z</time></trkpt><trkpt lat="43.38320814908161" lon="6.632301638196083"><ele>153.8</ele><time>2026-04-12T08:36:34Z</time></trkpt><trkpt lat="43.383218501101545" lon="6.632448980598281"><ele>151.6</ele><time>2026-04-12T08:36:35Z</time></trkpt><trkpt lat="43.38322989988012" lon="6.632566388901736"><ele>149.4</ele><time>2026-04-12T08:36:36Z</time></trkpt><trkpt lat="43.38323336117623" lon="6.632655990996445"><ele>147.2</ele><time>2026-04-12T08:36:37Z</time></trkpt><trkpt lat="43.38320778678378" lon="6.632835314408204"><ele>145.0</ele><time>2026-04-12T08:36:39Z</time></trkpt><trkpt lat="43.383192230884966" lon="6.632944536132389"><ele>142.6</ele><time>2026-04-12T08:36:40Z</time></trkpt><trkpt lat="43.383164029071196" lon="6.633034546602013"><ele>140.2</ele><time>2026-04-12T08:36:41Z</time></trkpt><trkpt lat="43.383053544423554" lon="6.633100113673365"><ele>137.8</ele><time>2026-04-12T08:36:42Z</time></trkpt><trkpt lat="43.38298235080174" lon="6.633146916716726"><ele>135.4</ele><time>2026-04-12T08:36:43Z</time></trkpt><trkpt lat="43.382918584468044" lon="6.633308824967524"><ele>133.0</ele><time>2026-04-12T08:36:45Z</time></trkpt><trkpt lat="43.382870344010534" lon="6.633433002506728"><ele>132.16666666666669</ele><time>2026-04-12T08:36:46Z</time></trkpt><trkpt lat="43.38281707191102" lon="6.633547312969089"><ele>131.33333333333334</ele><time>2026-04-12T08:36:47Z</time></trkpt><trkpt lat="43.382761730046724" lon="6.633668013990796"><ele>130.5</ele><time>2026-04-12T08:36:48Z</time></trkpt><trkpt lat="43.3827244320139" lon="6.633757127166309"><ele>129.66666666666666</ele><time>2026-04-12T08:36:49Z</time></trkpt><trkpt lat="43.38270373913971" lon="6.633852381991264"><ele>128.83333333333331</ele><time>2026-04-12T08:36:50Z</time></trkpt><trkpt lat="43.38270096825832" lon="6.633974297882973"><ele>128.0</ele><time>2026-04-12T08:36:51Z</time></trkpt><trkpt lat="43.382716666618954" lon="6.6341133969016735"><ele>127.49999999999999</ele><time>2026-04-12T08:36:52Z</time></trkpt><trkpt lat="43.3827346377997" lon="6.6342441398930605"><ele>127.0</ele><time>2026-04-12T08:36:53Z</time></trkpt><trkpt lat="43.382729184772074" lon="6.634354039520267"><ele>126.5</ele><time>2026-04-12T08:36:54Z</time></trkpt><trkpt lat="43.38268386396356" lon="6.634452539743428"><ele>126.0</ele><time>2026-04-12T08:36:55Z</time></trkpt><trkpt lat="43.38262597963716" lon="6.634547319332246"><ele>125.49999999999999</ele><time>2026-04-12T08:36:56Z</time></trkpt><trkpt lat="43.38258087984319" lon="6.634638804776914"><ele>125.0</ele><time>2026-04-12T08:36:57Z</time></trkpt><trkpt lat="43.382536006975826" lon="6.634731159681314"><ele>122.75</ele><time>2026-04-12T08:36:58Z</time></trkpt><trkpt lat="43.382513545193525" lon="6.634916267062138"><ele>120.5</ele><time>2026-04-12T08:37:00.001Z</time></trkpt><trkpt lat="43.382506178242814" lon="6.635100119769499"><ele>118.25</ele><time>2026-04-12T08:37:01.001Z</time></trkpt><trkpt lat="43.3824676254242" lon="6.635235875855049"><ele>116.0</ele><time>2026-04-12T08:37:02.001Z</time></trkpt><trkpt lat="43.382404273693574" lon="6.6353410910938475"><ele>114.19999999999999</ele><time>2026-04-12T08:37:03.001Z</time></trkpt><trkpt lat="43.3823164352423" lon="6.635449212743365"><ele>112.39999999999999</ele><time>2026-04-12T08:37:04.001Z</time></trkpt><trkpt lat="43.38227291389097" lon="6.6355793173528745"><ele>110.6</ele><time>2026-04-12T08:37:05.001Z</time></trkpt><trkpt lat="43.382215520499926" lon="6.6356856710960646"><ele>108.8</ele><time>2026-04-12T08:37:06.001Z</time></trkpt><trkpt lat="43.38217577516679" lon="6.63576143455108"><ele>107.0</ele><time>2026-04-12T08:37:07.001Z</time></trkpt><trkpt lat="43.38218159279608" lon="6.635862853073254"><ele>107.0</ele><time>2026-04-12T08:37:09.001Z</time></trkpt><trkpt lat="43.38222051272795" lon="6.635944635574111"><ele>106.99999999999999</ele><time>2026-04-12T08:37:10.001Z</time></trkpt><trkpt lat="43.38227655141926" lon="6.636082678932214"><ele>106.99999999999999</ele><time>2026-04-12T08:37:11.001Z</time></trkpt><trkpt lat="43.38232902748647" lon="6.6361960193337515"><ele>107.0</ele><time>2026-04-12T08:37:12.001Z</time></trkpt><trkpt lat="43.38237309969079" lon="6.636295281401786"><ele>107.0</ele><time>2026-04-12T08:37:13.001Z</time></trkpt><trkpt lat="43.38240088332518" lon="6.636419497851942"><ele>105.66666666666666</ele><time>2026-04-12T08:37:14.001Z</time></trkpt><trkpt lat="43.38241014544976" lon="6.636545796399077"><ele>104.33333333333333</ele><time>2026-04-12T08:37:15.001Z</time></trkpt><trkpt lat="43.382406233105925" lon="6.636659606890914"><ele>103.0</ele><time>2026-04-12T08:37:16.001Z</time></trkpt><trkpt lat="43.38240111158456" lon="6.636771519906362"><ele>101.66666666666666</ele><time>2026-04-12T08:37:17.001Z</time></trkpt><trkpt lat="43.38236360271442" lon="6.636844893779633"><ele>100.33333333333333</ele><time>2026-04-12T08:37:18.001Z</time></trkpt><trkpt lat="43.382308559425795" lon="6.636894094847329"><ele>99.0</ele><time>2026-04-12T08:37:19.001Z</time></trkpt><trkpt lat="43.38223863737112" lon="6.6369121806925"><ele>97.80000000000001</ele><time>2026-04-12T08:37:20.001Z</time></trkpt><trkpt lat="43.38215077174219" lon="6.63692973777111"><ele>96.60000000000001</ele><time>2026-04-12T08:37:22.001Z</time></trkpt><trkpt lat="43.38221317336343" lon="6.637001975796925"><ele>95.4</ele><time>2026-04-12T08:37:39.001Z</time></trkpt><trkpt lat="43.38228498950524" lon="6.637064460422618"><ele>94.2</ele><time>2026-04-12T08:37:41.001Z</time></trkpt><trkpt lat="43.382387591850545" lon="6.637123291929624"><ele>93.0</ele><time>2026-04-12T08:37:43.001Z</time></trkpt><trkpt lat="43.382509368617015" lon="6.6371438701871766"><ele>92.5</ele><time>2026-04-12T08:37:45.001Z</time></trkpt><trkpt lat="43.38259349986069" lon="6.6371750200667945"><ele>92.0</ele><time>2026-04-12T08:37:46.001Z</time></trkpt><trkpt lat="43.38266454439091" lon="6.637199745823962"><ele>91.5</ele><time>2026-04-12T08:37:47.001Z</time></trkpt><trkpt lat="43.38274317993666" lon="6.637174707278842"><ele>91.0</ele><time>2026-04-12T08:37:48.001Z</time></trkpt><trkpt lat="43.38282484491459" lon="6.637098997975076"><ele>90.5</ele><time>2026-04-12T08:37:49.001Z</time></trkpt><trkpt lat="43.382906710684146" lon="6.63703944311311"><ele>90.0</ele><time>2026-04-12T08:37:50.001Z</time></trkpt><trkpt lat="43.382969926190825" lon="6.6369929336954625"><ele>90.6</ele><time>2026-04-12T08:37:51.001Z</time></trkpt><trkpt lat="43.38302874903046" lon="6.636922384216452"><ele>91.2</ele><time>2026-04-12T08:37:52.001Z</time></trkpt><trkpt lat="43.3830976383854" lon="6.636845144431009"><ele>91.80000000000001</ele><time>2026-04-12T08:37:53.001Z</time></trkpt><trkpt lat="43.383207965637524" lon="6.63675747444961"><ele>92.4</ele><time>2026-04-12T08:37:54.001Z</time></trkpt><trkpt lat="43.38328558307103" lon="6.636674421063351"><ele>93.0</ele><time>2026-04-12T08:37:55.001Z</time></trkpt><trkpt lat="43.383345429804265" lon="6.636591884222097"><ele>93.0</ele><time>2026-04-12T08:37:56.001Z</time></trkpt><trkpt lat="43.38345176797062" lon="6.636497269581537"><ele>93.0</ele><time>2026-04-12T08:37:58.001Z</time></trkpt><trkpt lat="43.38353187389033" lon="6.636443491051913"><ele>93.0</ele><time>2026-04-12T08:38:00.002Z</time></trkpt><trkpt lat="43.38367864667385" lon="6.636391503767325"><ele>93.0</ele><time>2026-04-12T08:38:03.002Z</time></trkpt><trkpt lat="43.383737653081525" lon="6.6363463385492585"><ele>93.0</ele><time>2026-04-12T08:38:04.002Z</time></trkpt><trkpt lat="43.383790351761206" lon="6.636259457693403"><ele>94.2</ele><time>2026-04-12T08:38:06.002Z</time></trkpt><trkpt lat="43.383872286952645" lon="6.63615517241938"><ele>95.4</ele><time>2026-04-12T08:38:08.002Z</time></trkpt><trkpt lat="43.383924247470794" lon="6.636062603175856"><ele>96.60000000000001</ele><time>2026-04-12T08:38:09.002Z</time></trkpt><trkpt lat="43.38399083854736" lon="6.635983475129488"><ele>97.80000000000001</ele><time>2026-04-12T08:38:10.002Z</time></trkpt><trkpt lat="43.38405656420285" lon="6.635877770753498"><ele>99.0</ele><time>2026-04-12T08:38:11.002Z</time></trkpt><trkpt lat="43.384122177054536" lon="6.635792570905039"><ele>99.0</ele><time>2026-04-12T08:38:12.002Z</time></trkpt><trkpt lat="43.384181244997656" lon="6.63569114663951"><ele>99.0</ele><time>2026-04-12T08:38:13.002Z</time></trkpt><trkpt lat="43.384250582225896" lon="6.635576879302076"><ele>99.0</ele><time>2026-04-12T08:38:14.002Z</time></trkpt><trkpt lat="43.384265874596636" lon="6.635466890580588"><ele>99.0</ele><time>2026-04-12T08:38:15.002Z</time></trkpt><trkpt lat="43.38427622036668" lon="6.635334469101523"><ele>99.0</ele><time>2026-04-12T08:38:16.002Z</time></trkpt><trkpt lat="43.38427966465474" lon="6.635236295177003"><ele>99.0</ele><time>2026-04-12T08:38:17.002Z</time></trkpt><trkpt lat="43.38433270382088" lon="6.635135894964221"><ele>99.0</ele><time>2026-04-12T08:38:18.002Z</time></trkpt><trkpt lat="43.38442931090816" lon="6.635005018756858"><ele>99.0</ele><time>2026-04-12T08:38:19.002Z</time></trkpt><trkpt lat="43.38453072788083" lon="6.634895464457992"><ele>99.0</ele><time>2026-04-12T08:38:20.002Z</time></trkpt><trkpt lat="43.384609685014084" lon="6.634795873934049"><ele>100.25</ele><time>2026-04-12T08:38:21Z</time></trkpt><trkpt lat="43.38470382694078" lon="6.634713892346504"><ele>101.5</ele><time>2026-04-12T08:38:22Z</time></trkpt><trkpt lat="43.38479590542637" lon="6.634634487054902"><ele>102.75</ele><time>2026-04-12T08:38:23Z</time></trkpt><trkpt lat="43.384877090821185" lon="6.634531091042647"><ele>104.0</ele><time>2026-04-12T08:38:24Z</time></trkpt><trkpt lat="43.384964419490686" lon="6.63439278249094"><ele>104.0</ele><time>2026-04-12T08:38:25Z</time></trkpt><trkpt lat="43.38504525200167" lon="6.63425799676006"><ele>104.0</ele><time>2026-04-12T08:38:26Z</time></trkpt><trkpt lat="43.38511631970338" lon="6.634186367026138"><ele>104.0</ele><time>2026-04-12T08:38:27Z</time></trkpt><trkpt lat="43.38518183093227" lon="6.634134901559088"><ele>104.0</ele><time>2026-04-12T08:38:28Z</time></trkpt><trkpt lat="43.385261773523006" lon="6.63407900143899"><ele>104.0</ele><time>2026-04-12T08:38:29Z</time></trkpt><trkpt lat="43.38535866091893" lon="6.6340355670464595"><ele>104.0</ele><time>2026-04-12T08:38:31Z</time></trkpt><trkpt lat="43.38540439010646" lon="6.633960305666808"><ele>104.0</ele><time>2026-04-12T08:38:33Z</time></trkpt><trkpt lat="43.385496772496204" lon="6.633850607730185"><ele>104.0</ele><time>2026-04-12T08:38:35Z</time></trkpt><trkpt lat="43.38559436067396" lon="6.633827859815647"><ele>104.0</ele><time>2026-04-12T08:38:37Z</time></trkpt><trkpt lat="43.385656500553615" lon="6.633931726894529"><ele>104.0</ele><time>2026-04-12T08:38:49Z</time></trkpt><trkpt lat="43.385869505677285" lon="6.633969439568133"><ele>105.2</ele><time>2026-04-12T08:38:55.001Z</time></trkpt><trkpt lat="43.38597591509746" lon="6.633989776696333"><ele>106.4</ele><time>2026-04-12T08:38:57.001Z</time></trkpt><trkpt lat="43.3860891149434" lon="6.634023937891344"><ele>107.6</ele><time>2026-04-12T08:38:59.001Z</time></trkpt><trkpt lat="43.38620093835784" lon="6.633961042925057"><ele>108.8</ele><time>2026-04-12T08:39:02.001Z</time></trkpt><trkpt lat="43.38628874472998" lon="6.633918116205699"><ele>110.0</ele><time>2026-04-12T08:39:04.001Z</time></trkpt><trkpt lat="43.38636689144698" lon="6.633964827798145"><ele>112.33333333333333</ele><time>2026-04-12T08:39:06.001Z</time></trkpt><trkpt lat="43.38643436503639" lon="6.6340106661377"><ele>114.66666666666666</ele><time>2026-04-12T08:39:08.001Z</time></trkpt><trkpt lat="43.38646804660825" lon="6.634094553521016"><ele>117.0</ele><time>2026-04-12T08:39:30.001Z</time></trkpt><trkpt lat="43.38650624391815" lon="6.634217404141199"><ele>119.33333333333334</ele><time>2026-04-12T08:39:32.001Z</time></trkpt><trkpt lat="43.38653495085815" lon="6.634313683913558"><ele>121.66666666666667</ele><time>2026-04-12T08:39:33.001Z</time></trkpt><trkpt lat="43.38655104907363" lon="6.634428796506909"><ele>124.0</ele><time>2026-04-12T08:39:34.001Z</time></trkpt><trkpt lat="43.38659507082659" lon="6.63456124220815"><ele>124.00000000000001</ele><time>2026-04-12T08:39:36.001Z</time></trkpt><trkpt lat="43.386642371393236" lon="6.63465065918676"><ele>124.0</ele><time>2026-04-12T08:39:37.001Z</time></trkpt><trkpt lat="43.38667742774252" lon="6.634741244969428"><ele>124.0</ele><time>2026-04-12T08:39:38.001Z</time></trkpt><trkpt lat="43.38672077713471" lon="6.6348041645796965"><ele>124.0</ele><time>2026-04-12T08:39:39.001Z</time></trkpt><trkpt lat="43.38684296459155" lon="6.6348552287529765"><ele>124.00000000000001</ele><time>2026-04-12T08:39:41.001Z</time></trkpt><trkpt lat="43.38692957443931" lon="6.634868991207958"><ele>124.0</ele><time>2026-04-12T08:39:42.001Z</time></trkpt><trkpt lat="43.38703313433617" lon="6.634904035644162"><ele>124.00000000000001</ele><time>2026-04-12T08:39:43.001Z</time></trkpt><trkpt lat="43.38711411246727" lon="6.634972009421631"><ele>124.0</ele><time>2026-04-12T08:39:44.001Z</time></trkpt><trkpt lat="43.38717898135034" lon="6.635021606234454"><ele>124.0</ele><time>2026-04-12T08:39:45.001Z</time></trkpt><trkpt lat="43.3872683936028" lon="6.635070697367936"><ele>124.0</ele><time>2026-04-12T08:39:47.001Z</time></trkpt><trkpt lat="43.38735652468809" lon="6.635022857467086"><ele>124.00000000000001</ele><time>2026-04-12T08:39:49.001Z</time></trkpt><trkpt lat="43.3873980068561" lon="6.634945424125559"><ele>124.0</ele><time>2026-04-12T08:39:50.001Z</time></trkpt><trkpt lat="43.387441011040856" lon="6.6348736462763975"><ele>127.16666666666667</ele><time>2026-04-12T08:39:51.001Z</time></trkpt><trkpt lat="43.38752704264825" lon="6.634791604861613"><ele>130.33333333333334</ele><time>2026-04-12T08:39:53.001Z</time></trkpt><trkpt lat="43.38759091797521" lon="6.63478441394541"><ele>133.5</ele><time>2026-04-12T08:39:54.001Z</time></trkpt><trkpt lat="43.387669745480736" lon="6.634787680646289"><ele>136.66666666666666</ele><time>2026-04-12T08:39:55.001Z</time></trkpt><trkpt lat="43.38775536596953" lon="6.634826120166232"><ele>139.83333333333331</ele><time>2026-04-12T08:39:56.001Z</time></trkpt><trkpt lat="43.38784776972659" lon="6.634871092269074"><ele>143.0</ele><time>2026-04-12T08:39:57.001Z</time></trkpt><trkpt lat="43.38790201434693" lon="6.634935842696635"><ele>143.0</ele><time>2026-04-12T08:39:58.001Z</time></trkpt><trkpt lat="43.387914343829635" lon="6.635042112556121"><ele>143.0</ele><time>2026-04-12T08:40:00.002Z</time></trkpt><trkpt lat="43.387848475842304" lon="6.635073675905963"><ele>143.0</ele><time>2026-04-12T08:40:05.002Z</time></trkpt><trkpt lat="43.38779682703033" lon="6.635223849559696"><ele>143.0</ele><time>2026-04-12T08:40:09.002Z</time></trkpt><trkpt lat="43.38774701190658" lon="6.635380947915498"><ele>143.0</ele><time>2026-04-12T08:40:11.002Z</time></trkpt><trkpt lat="43.387801709036204" lon="6.635565956326691"><ele>142.33333333333331</ele><time>2026-04-12T08:40:13.002Z</time></trkpt><trkpt lat="43.38784973518943" lon="6.635659511288284"><ele>141.66666666666666</ele><time>2026-04-12T08:40:14.002Z</time></trkpt><trkpt lat="43.38789279061406" lon="6.635774607426416"><ele>141.0</ele><time>2026-04-12T08:40:15.002Z</time></trkpt><trkpt lat="43.38792978465951" lon="6.635899778666171"><ele>140.33333333333334</ele><time>2026-04-12T08:40:16.002Z</time></trkpt><trkpt lat="43.38795294452516" lon="6.635982856473108"><ele>139.66666666666669</ele><time>2026-04-12T08:40:17.002Z</time></trkpt><trkpt lat="43.38798998557308" lon="6.636058334068277"><ele>139.0</ele><time>2026-04-12T08:40:18.002Z</time></trkpt><trkpt lat="43.38804575442057" lon="6.6362296959106"><ele>140.6</ele><time>2026-04-12T08:40:19.002Z</time></trkpt><trkpt lat="43.3880933040522" lon="6.636333499455501"><ele>142.2</ele><time>2026-04-12T08:40:20.002Z</time></trkpt><trkpt lat="43.38815544125943" lon="6.6363878121309385"><ele>143.79999999999998</ele><time>2026-04-12T08:40:21.002Z</time></trkpt><trkpt lat="43.38821966972896" lon="6.636454267708842"><ele>145.4</ele><time>2026-04-12T08:40:22.002Z</time></trkpt><trkpt lat="43.38827619253037" lon="6.636493438226413"><ele>147.0</ele><time>2026-04-12T08:40:23.002Z</time></trkpt><trkpt lat="43.388394641374084" lon="6.636613619293897"><ele>147.0</ele><time>2026-04-12T08:40:25.002Z</time></trkpt><trkpt lat="43.388455946737125" lon="6.636657421355851"><ele>147.0</ele><time>2026-04-12T08:40:26.002Z</time></trkpt><trkpt lat="43.38853993158059" lon="6.636742089019652"><ele>147.0</ele><time>2026-04-12T08:40:28.001Z</time></trkpt><trkpt lat="43.38859376742422" lon="6.636847360875224"><ele>147.0</ele><time>2026-04-12T08:40:30.001Z</time></trkpt><trkpt lat="43.38865521318683" lon="6.636922175655823"><ele>147.0</ele><time>2026-04-12T08:40:32.001Z</time></trkpt><trkpt lat="43.38870673429192" lon="6.636998883286692"><ele>147.0</ele><time>2026-04-12T08:40:34.001Z</time></trkpt><trkpt lat="43.388753496158664" lon="6.637061974531872"><ele>146.79999999999998</ele><time>2026-04-12T08:40:36.001Z</time></trkpt><trkpt lat="43.388838249354755" lon="6.6371156348002645"><ele>146.6</ele><time>2026-04-12T08:40:38.001Z</time></trkpt><trkpt lat="43.38883465287042" lon="6.637237927774744"><ele>146.39999999999998</ele><time>2026-04-12T08:40:40.001Z</time></trkpt><trkpt lat="43.38891754402958" lon="6.637313945302184"><ele>146.2</ele><time>2026-04-12T08:40:42.001Z</time></trkpt><trkpt lat="43.388980817829854" lon="6.637424958120571"><ele>146.0</ele><time>2026-04-12T08:40:44.001Z</time></trkpt><trkpt lat="43.38902651151408" lon="6.637554646008791"><ele>148.16666666666666</ele><time>2026-04-12T08:40:46.001Z</time></trkpt><trkpt lat="43.38908628377262" lon="6.637599500394926"><ele>150.33333333333331</ele><time>2026-04-12T08:40:47.001Z</time></trkpt><trkpt lat="43.38916639933171" lon="6.637653380770027"><ele>152.5</ele><time>2026-04-12T08:40:48.001Z</time></trkpt><trkpt lat="43.389261250372094" lon="6.637718915167777"><ele>154.66666666666666</ele><time>2026-04-12T08:40:49.001Z</time></trkpt><trkpt lat="43.389326463960685" lon="6.637768320803189"><ele>156.83333333333334</ele><time>2026-04-12T08:40:50.001Z</time></trkpt><trkpt lat="43.38937562892643" lon="6.637844662957975"><ele>159.0</ele><time>2026-04-12T08:40:51.001Z</time></trkpt><trkpt lat="43.38945771840845" lon="6.637927996346783"><ele>159.0</ele><time>2026-04-12T08:40:53.001Z</time></trkpt><trkpt lat="43.3895118164271" lon="6.637985631198976"><ele>159.0</ele><time>2026-04-12T08:40:54.001Z</time></trkpt><trkpt lat="43.389566251170734" lon="6.6381190665809084"><ele>159.0</ele><time>2026-04-12T08:40:56.001Z</time></trkpt><trkpt lat="43.3895855190655" lon="6.6382566900826845"><ele>159.0</ele><time>2026-04-12T08:40:58.001Z</time></trkpt><trkpt lat="43.38961964839241" lon="6.638343393581896"><ele>159.0</ele><time>2026-04-12T08:40:59.001Z</time></trkpt><trkpt lat="43.389628955185735" lon="6.63847908292888"><ele>162.6</ele><time>2026-04-12T08:41:01.001Z</time></trkpt><trkpt lat="43.389690077761614" lon="6.638522102592896"><ele>166.2</ele><time>2026-04-12T08:41:05.001Z</time></trkpt><trkpt lat="43.389765533669596" lon="6.638600552996187"><ele>169.79999999999998</ele><time>2026-04-12T08:41:07.001Z</time></trkpt><trkpt lat="43.38986288368991" lon="6.638678358734845"><ele>173.4</ele><time>2026-04-12T08:41:09.001Z</time></trkpt><trkpt lat="43.38997275014042" lon="6.638752078905405"><ele>177.0</ele><time>2026-04-12T08:41:11.001Z</time></trkpt><trkpt lat="43.39003358318569" lon="6.638834232718684"><ele>178.5</ele><time>2026-04-12T08:41:16.001Z</time></trkpt><trkpt lat="43.390106426971755" lon="6.638862997595982"><ele>180.0</ele><time>2026-04-12T08:41:20.001Z</time></trkpt><trkpt lat="43.390149050559764" lon="6.638946690862229"><ele>181.5</ele><time>2026-04-12T08:41:23.001Z</time></trkpt><trkpt lat="43.390185248848" lon="6.639042637747592"><ele>183.0</ele><time>2026-04-12T08:41:25.001Z</time></trkpt><trkpt lat="43.390239544345775" lon="6.639110824216541"><ele>184.5</ele><time>2026-04-12T08:41:28.001Z</time></trkpt><trkpt lat="43.39029138168117" lon="6.639182270290005"><ele>186.0</ele><time>2026-04-12T08:41:30.001Z</time></trkpt><trkpt lat="43.39029315847194" lon="6.639296095785569"><ele>186.0</ele><time>2026-04-12T08:41:48.001Z</time></trkpt><trkpt lat="43.39031546340397" lon="6.639380180753495"><ele>186.0</ele><time>2026-04-12T08:41:51.001Z</time></trkpt><trkpt lat="43.390367008044905" lon="6.639455022224682"><ele>186.0</ele><time>2026-04-12T08:41:54.001Z</time></trkpt><trkpt lat="43.39034355289228" lon="6.639547110794214"><ele>186.0</ele><time>2026-04-12T08:41:56.001Z</time></trkpt><trkpt lat="43.39038637162571" lon="6.639655774238056"><ele>186.0</ele><time>2026-04-12T08:41:58.001Z</time></trkpt><trkpt lat="43.39045539139141" lon="6.63973147203023"><ele>186.0</ele><time>2026-04-12T08:42:00.001Z</time></trkpt><trkpt lat="43.3904817128942" lon="6.639833853946542"><ele>189.20000000000002</ele><time>2026-04-12T08:42:02.001Z</time></trkpt><trkpt lat="43.39048343760813" lon="6.63993937304911"><ele>192.4</ele><time>2026-04-12T08:42:04.001Z</time></trkpt><trkpt lat="43.390458839061786" lon="6.640033289199987"><ele>195.6</ele><time>2026-04-12T08:42:07.001Z</time></trkpt><trkpt lat="43.39039982290997" lon="6.6401469581948325"><ele>198.8</ele><time>2026-04-12T08:42:11.002Z</time></trkpt><trkpt lat="43.39032350359296" lon="6.640218909575114"><ele>202.0</ele><time>2026-04-12T08:42:12.002Z</time></trkpt><trkpt lat="43.390231154451634" lon="6.640298843915536"><ele>202.2</ele><time>2026-04-12T08:42:13.002Z</time></trkpt><trkpt lat="43.39013185238911" lon="6.640370200177129"><ele>202.39999999999998</ele><time>2026-04-12T08:42:14.002Z</time></trkpt><trkpt lat="43.39003754531031" lon="6.640462825054167"><ele>202.60000000000002</ele><time>2026-04-12T08:42:15.002Z</time></trkpt><trkpt lat="43.38996917427887" lon="6.640566571848246"><ele>202.8</ele><time>2026-04-12T08:42:16.002Z</time></trkpt><trkpt lat="43.389895601629874" lon="6.640645361545379"><ele>203.0</ele><time>2026-04-12T08:42:17.002Z</time></trkpt><trkpt lat="43.389812277757166" lon="6.6406846116501805"><ele>203.00000000000003</ele><time>2026-04-12T08:42:18.002Z</time></trkpt><trkpt lat="43.389718607540345" lon="6.640690906394366"><ele>203.0</ele><time>2026-04-12T08:42:19.002Z</time></trkpt><trkpt lat="43.389636603380424" lon="6.6407176135224155"><ele>203.0</ele><time>2026-04-12T08:42:20.002Z</time></trkpt><trkpt lat="43.389558773114324" lon="6.640745298044162"><ele>203.0</ele><time>2026-04-12T08:42:21.002Z</time></trkpt><trkpt lat="43.38947471096704" lon="6.640757539687847"><ele>203.00000000000003</ele><time>2026-04-12T08:42:22.002Z</time></trkpt><trkpt lat="43.389381028896004" lon="6.6407905818092186"><ele>203.0</ele><time>2026-04-12T08:42:23.002Z</time></trkpt><trkpt lat="43.38927413773605" lon="6.640837673769102"><ele>201.33333333333334</ele><time>2026-04-12T08:42:24.002Z</time></trkpt><trkpt lat="43.38917145077896" lon="6.640862118571329"><ele>199.66666666666669</ele><time>2026-04-12T08:42:25.002Z</time></trkpt><trkpt lat="43.389081395915476" lon="6.6408917589458145"><ele>198.0</ele><time>2026-04-12T08:42:26.002Z</time></trkpt><trkpt lat="43.38902332068091" lon="6.640934431752958"><ele>196.33333333333331</ele><time>2026-04-12T08:42:27.002Z</time></trkpt><trkpt lat="43.38896920176779" lon="6.640987614889901"><ele>194.66666666666666</ele><time>2026-04-12T08:42:28.002Z</time></trkpt><trkpt lat="43.38889714317067" lon="6.641027685890777"><ele>193.0</ele><time>2026-04-12T08:42:29.002Z</time></trkpt><trkpt lat="43.38883531505186" lon="6.641054422391374"><ele>188.33333333333331</ele><time>2026-04-12T08:42:30.002Z</time></trkpt><trkpt lat="43.38877431330219" lon="6.641090201820162"><ele>183.66666666666666</ele><time>2026-04-12T08:42:31.002Z</time></trkpt><trkpt lat="43.38871099458809" lon="6.641142574184745"><ele>179.0</ele><time>2026-04-12T08:42:32.002Z</time></trkpt><trkpt lat="43.38864663097336" lon="6.6412234936153824"><ele>174.33333333333331</ele><time>2026-04-12T08:42:34.001Z</time></trkpt><trkpt lat="43.388548744025385" lon="6.641260876340236"><ele>169.66666666666666</ele><time>2026-04-12T08:42:36.001Z</time></trkpt><trkpt lat="43.38843880719561" lon="6.641307629722837"><ele>165.0</ele><time>2026-04-12T08:42:38.001Z</time></trkpt><trkpt lat="43.38836062524886" lon="6.641334596715881"><ele>165.0</ele><time>2026-04-12T08:42:40.001Z</time></trkpt><trkpt lat="43.38826037541354" lon="6.64142816750547"><ele>165.0</ele><time>2026-04-12T08:42:42.001Z</time></trkpt><trkpt lat="43.388121434519114" lon="6.641484710511536"><ele>165.0</ele><time>2026-04-12T08:42:44.001Z</time></trkpt><trkpt lat="43.38805194171723" lon="6.641523207910617"><ele>165.0</ele><time>2026-04-12T08:42:45Z</time></trkpt><trkpt lat="43.387998571527056" lon="6.641575553687739"><ele>165.0</ele><time>2026-04-12T08:42:46Z</time></trkpt><trkpt lat="43.38793500382562" lon="6.6416433713377945"><ele>160.6</ele><time>2026-04-12T08:42:47Z</time></trkpt><trkpt lat="43.3878572828736" lon="6.641697324375417"><ele>156.2</ele><time>2026-04-12T08:42:48Z</time></trkpt><trkpt lat="43.38777180469937" lon="6.641751777687509"><ele>151.8</ele><time>2026-04-12T08:42:49Z</time></trkpt><trkpt lat="43.38769749548943" lon="6.6418220247363395"><ele>147.4</ele><time>2026-04-12T08:42:50Z</time></trkpt><trkpt lat="43.38762392942703" lon="6.641906335857399"><ele>143.0</ele><time>2026-04-12T08:42:51Z</time></trkpt><trkpt lat="43.3875480695147" lon="6.641960605486536"><ele>142.0</ele><time>2026-04-12T08:42:52Z</time></trkpt><trkpt lat="43.38747482662063" lon="6.641998597453989"><ele>141.0</ele><time>2026-04-12T08:42:53Z</time></trkpt><trkpt lat="43.3874041840558" lon="6.64205331143624"><ele>140.0</ele><time>2026-04-12T08:42:54Z</time></trkpt><trkpt lat="43.387327461412575" lon="6.642107636371871"><ele>139.0</ele><time>2026-04-12T08:42:55Z</time></trkpt><trkpt lat="43.38725157088174" lon="6.642154586123187"><ele>138.0</ele><time>2026-04-12T08:42:56Z</time></trkpt><trkpt lat="43.38719414873481" lon="6.642197842864278"><ele>137.0</ele><time>2026-04-12T08:42:57Z</time></trkpt><trkpt lat="43.38712817467944" lon="6.6423229535706705"><ele>133.6</ele><time>2026-04-12T08:42:59Z</time></trkpt><trkpt lat="43.38708565646861" lon="6.642412190943456"><ele>130.2</ele><time>2026-04-12T08:43:00.001Z</time></trkpt><trkpt lat="43.38703383906823" lon="6.642499362832875"><ele>126.8</ele><time>2026-04-12T08:43:01.001Z</time></trkpt><trkpt lat="43.3869742337387" lon="6.642586431544141"><ele>123.4</ele><time>2026-04-12T08:43:02.001Z</time></trkpt><trkpt lat="43.38688746744717" lon="6.64265935438484"><ele>120.0</ele><time>2026-04-12T08:43:03.001Z</time></trkpt><trkpt lat="43.386795188025154" lon="6.642739515247336"><ele>120.0</ele><time>2026-04-12T08:43:04.001Z</time></trkpt><trkpt lat="43.38670016574342" lon="6.642794892760125"><ele>120.0</ele><time>2026-04-12T08:43:05.001Z</time></trkpt><trkpt lat="43.38661114789433" lon="6.642873327279035"><ele>120.0</ele><time>2026-04-12T08:43:06.001Z</time></trkpt><trkpt lat="43.38652243190246" lon="6.642966303162933"><ele>120.0</ele><time>2026-04-12T08:43:07.001Z</time></trkpt><trkpt lat="43.38644505431941" lon="6.643032806104763"><ele>120.0</ele><time>2026-04-12T08:43:08.001Z</time></trkpt><trkpt lat="43.38634823240738" lon="6.643066920233807"><ele>117.33333333333333</ele><time>2026-04-12T08:43:09.001Z</time></trkpt><trkpt lat="43.3862598766103" lon="6.643117299349281"><ele>114.66666666666666</ele><time>2026-04-12T08:43:10.001Z</time></trkpt><trkpt lat="43.386182746393224" lon="6.643204778059219"><ele>112.0</ele><time>2026-04-12T08:43:11.001Z</time></trkpt><trkpt lat="43.38612849906617" lon="6.643283156766932"><ele>109.33333333333333</ele><time>2026-04-12T08:43:12.001Z</time></trkpt><trkpt lat="43.38606256644756" lon="6.643330916388183"><ele>106.66666666666666</ele><time>2026-04-12T08:43:13.001Z</time></trkpt><trkpt lat="43.38599785795324" lon="6.643349301148382"><ele>104.0</ele><time>2026-04-12T08:43:14.001Z</time></trkpt><trkpt lat="43.38592045855906" lon="6.6434696063573595"><ele>104.0</ele><time>2026-04-12T08:43:16.001Z</time></trkpt><trkpt lat="43.38587605727378" lon="6.643618543191387"><ele>104.0</ele><time>2026-04-12T08:43:18.001Z</time></trkpt><trkpt lat="43.38588439597158" lon="6.643742813892348"><ele>104.0</ele><time>2026-04-12T08:43:20.001Z</time></trkpt><trkpt lat="43.385885610441015" lon="6.64384985548703"><ele>104.0</ele><time>2026-04-12T08:43:22.001Z</time></trkpt><trkpt lat="43.38586009026841" lon="6.643969624718221"><ele>104.0</ele><time>2026-04-12T08:43:25.001Z</time></trkpt><trkpt lat="43.38584379142193" lon="6.644070023808499"><ele>101.83333333333333</ele><time>2026-04-12T08:43:28.001Z</time></trkpt><trkpt lat="43.38582096073806" lon="6.64415254136183"><ele>99.66666666666666</ele><time>2026-04-12T08:43:29.001Z</time></trkpt><trkpt lat="43.38577380990507" lon="6.644288137410398"><ele>97.5</ele><time>2026-04-12T08:43:31.001Z</time></trkpt><trkpt lat="43.38573694753241" lon="6.644375408966756"><ele>95.33333333333333</ele><time>2026-04-12T08:43:33.001Z</time></trkpt><trkpt lat="43.385659799400926" lon="6.644489385776413"><ele>93.16666666666666</ele><time>2026-04-12T08:43:35.001Z</time></trkpt><trkpt lat="43.38560596796427" lon="6.644538575059236"><ele>91.0</ele><time>2026-04-12T08:43:36.001Z</time></trkpt><trkpt lat="43.38557588194268" lon="6.64466608147563"><ele>88.83333333333333</ele><time>2026-04-12T08:43:38.001Z</time></trkpt><trkpt lat="43.38555064493708" lon="6.644754808638793"><ele>86.66666666666666</ele><time>2026-04-12T08:43:40.001Z</time></trkpt><trkpt lat="43.38552309142748" lon="6.644850044141061"><ele>84.5</ele><time>2026-04-12T08:43:43.001Z</time></trkpt><trkpt lat="43.385509108925966" lon="6.644944185021624"><ele>82.33333333333333</ele><time>2026-04-12T08:43:46.001Z</time></trkpt><trkpt lat="43.38546052514124" lon="6.645041273758931"><ele>80.16666666666667</ele><time>2026-04-12T08:43:48.001Z</time></trkpt><trkpt lat="43.385459746549046" lon="6.645159727136553"><ele>78.0</ele><time>2026-04-12T08:43:52.001Z</time></trkpt><trkpt lat="43.38539409437728" lon="6.645194252363768"><ele>77.57142857142857</ele><time>2026-04-12T08:43:54.001Z</time></trkpt><trkpt lat="43.385337203728064" lon="6.645241504784843"><ele>77.14285714285714</ele><time>2026-04-12T08:43:56.001Z</time></trkpt><trkpt lat="43.38528672965091" lon="6.645296605081362"><ele>76.71428571428571</ele><time>2026-04-12T08:43:59.001Z</time></trkpt><trkpt lat="43.385240710949276" lon="6.645370571898574"><ele>76.28571428571428</ele><time>2026-04-12T08:44:03.001Z</time></trkpt><trkpt lat="43.385184091131556" lon="6.645489410636885"><ele>75.85714285714286</ele><time>2026-04-12T08:44:06.001Z</time></trkpt><trkpt lat="43.38513664408442" lon="6.645548287858976"><ele>75.42857142857142</ele><time>2026-04-12T08:44:08.001Z</time></trkpt><trkpt lat="43.38508357780845" lon="6.645606418568516"><ele>75.0</ele><time>2026-04-12T08:44:10.001Z</time></trkpt><trkpt lat="43.384998023669446" lon="6.64565792144987"><ele>74.66666666666667</ele><time>2026-04-12T08:44:12.001Z</time></trkpt><trkpt lat="43.38494035991486" lon="6.645702629241761"><ele>74.33333333333333</ele><time>2026-04-12T08:44:13.001Z</time></trkpt><trkpt lat="43.38486905667719" lon="6.6457716560930375"><ele>74.0</ele><time>2026-04-12T08:44:16.001Z</time></trkpt><trkpt lat="43.38481156669469" lon="6.6458290417017345"><ele>73.66666666666666</ele><time>2026-04-12T08:44:19.001Z</time></trkpt><trkpt lat="43.384738048967435" lon="6.6458793249097665"><ele>73.33333333333333</ele><time>2026-04-12T08:44:28.001Z</time></trkpt><trkpt lat="43.38468457789248" lon="6.645949815732653"><ele>73.0</ele><time>2026-04-12T08:44:32.002Z</time></trkpt><trkpt lat="43.384684980555065" lon="6.64606211175504"><ele>73.16666666666666</ele><time>2026-04-12T08:44:35.002Z</time></trkpt><trkpt lat="43.38473374292787" lon="6.646159140748567"><ele>73.33333333333333</ele><time>2026-04-12T08:44:37.002Z</time></trkpt><trkpt lat="43.38473839284347" lon="6.646286741797539"><ele>73.5</ele><time>2026-04-12T08:44:39.001Z</time></trkpt><trkpt lat="43.38469428590498" lon="6.646362631210627"><ele>73.66666666666667</ele><time>2026-04-12T08:44:42Z</time></trkpt><trkpt lat="43.384632420292185" lon="6.646433095459277"><ele>73.83333333333334</ele><time>2026-04-12T08:44:47Z</time></trkpt><trkpt lat="43.384663071991895" lon="6.646509802644587"><ele>74.0</ele><time>2026-04-12T08:44:49Z</time></trkpt><trkpt lat="43.384679498764044" lon="6.646611456247122"><ele>74.0</ele><time>2026-04-12T08:44:52Z</time></trkpt><trkpt lat="43.384717614266826" lon="6.646692438073465"><ele>74.0</ele><time>2026-04-12T08:44:54Z</time></trkpt><trkpt lat="43.384758134072314" lon="6.646799783316276"><ele>74.0</ele><time>2026-04-12T08:44:57Z</time></trkpt><trkpt lat="43.38481859489678" lon="6.646914376660609"><ele>74.0</ele><time>2026-04-12T08:44:59Z</time></trkpt><trkpt lat="43.3848633228278" lon="6.646989621033888"><ele>74.0</ele><time>2026-04-12T08:45:00Z</time></trkpt><trkpt lat="43.38489648040748" lon="6.647125875441141"><ele>74.0</ele><time>2026-04-12T08:45:02Z</time></trkpt><trkpt lat="43.38483488135619" lon="6.647172954838555"><ele>72.83333333333334</ele><time>2026-04-12T08:45:06Z</time></trkpt><trkpt lat="43.384762241083585" lon="6.647195478854279"><ele>71.66666666666667</ele><time>2026-04-12T08:45:09Z</time></trkpt><trkpt lat="43.38469982475402" lon="6.647228134427487"><ele>70.5</ele><time>2026-04-12T08:45:11Z</time></trkpt><trkpt lat="43.384626399045445" lon="6.647273906105024"><ele>69.33333333333333</ele><time>2026-04-12T08:45:15Z</time></trkpt><trkpt lat="43.38455784540983" lon="6.647341347131522"><ele>68.16666666666666</ele><time>2026-04-12T08:45:17Z</time></trkpt><trkpt lat="43.38446955895894" lon="6.647341936826351"><ele>67.0</ele><time>2026-04-12T08:45:19.001Z</time></trkpt><trkpt lat="43.38440175237209" lon="6.647401941892988"><ele>67.0</ele><time>2026-04-12T08:45:22.001Z</time></trkpt><trkpt lat="43.38428258443425" lon="6.647439122656708"><ele>67.0</ele><time>2026-04-12T08:45:24.001Z</time></trkpt><trkpt lat="43.38418494577043" lon="6.647468629657277"><ele>67.0</ele><time>2026-04-12T08:45:25.001Z</time></trkpt><trkpt lat="43.38410966364285" lon="6.647496353184491"><ele>67.0</ele><time>2026-04-12T08:45:26.001Z</time></trkpt><trkpt lat="43.384042471022646" lon="6.647535550476967"><ele>67.0</ele><time>2026-04-12T08:45:27.001Z</time></trkpt><trkpt lat="43.3839745805959" lon="6.647577144305921"><ele>67.0</ele><time>2026-04-12T08:45:28.001Z</time></trkpt><trkpt lat="43.383897431760786" lon="6.64762699293105"><ele>68.6</ele><time>2026-04-12T08:45:30.001Z</time></trkpt><trkpt lat="43.38379226551938" lon="6.64769688531904"><ele>70.2</ele><time>2026-04-12T08:45:32.001Z</time></trkpt><trkpt lat="43.3837333469553" lon="6.647732359355948"><ele>71.8</ele><time>2026-04-12T08:45:33.001Z</time></trkpt><trkpt lat="43.38362205265113" lon="6.6477857949887555"><ele>73.4</ele><time>2026-04-12T08:45:35.001Z</time></trkpt><trkpt lat="43.38352868564468" lon="6.647867933320183"><ele>75.0</ele><time>2026-04-12T08:45:37.001Z</time></trkpt><trkpt lat="43.38343030430365" lon="6.6479016379775"><ele>72.33333333333333</ele><time>2026-04-12T08:45:41.001Z</time></trkpt><trkpt lat="43.38334375562535" lon="6.647919646871303"><ele>69.66666666666667</ele><time>2026-04-12T08:45:45.001Z</time></trkpt><trkpt lat="43.38328481830234" lon="6.648010629826162"><ele>67.0</ele><time>2026-04-12T08:45:47.001Z</time></trkpt><trkpt lat="43.38322090846168" lon="6.648042533170057"><ele>64.33333333333334</ele><time>2026-04-12T08:45:50.001Z</time></trkpt><trkpt lat="43.38316357325592" lon="6.648095948836096"><ele>61.66666666666667</ele><time>2026-04-12T08:45:54.001Z</time></trkpt><trkpt lat="43.38314153455779" lon="6.648188500079071"><ele>59.0</ele><time>2026-04-12T08:45:56.001Z</time></trkpt><trkpt lat="43.38317182022095" lon="6.648320848930921"><ele>59.0</ele><time>2026-04-12T08:45:59.001Z</time></trkpt><trkpt lat="43.383170400772606" lon="6.648437657274399"><ele>59.00000000000001</ele><time>2026-04-12T08:46:01.001Z</time></trkpt><trkpt lat="43.38314927248653" lon="6.648602431884662"><ele>59.00000000000001</ele><time>2026-04-12T08:46:03.001Z</time></trkpt><trkpt lat="43.383152750913105" lon="6.648740839801257"><ele>59.0</ele><time>2026-04-12T08:46:05.001Z</time></trkpt><trkpt lat="43.38318402295328" lon="6.6488251768941735"><ele>59.0</ele><time>2026-04-12T08:46:06.001Z</time></trkpt><trkpt lat="43.3832084776704" lon="6.648972563844159"><ele>58.833333333333336</ele><time>2026-04-12T08:46:08.001Z</time></trkpt><trkpt lat="43.38323249575774" lon="6.649080253039552"><ele>58.66666666666667</ele><time>2026-04-12T08:46:10.001Z</time></trkpt><trkpt lat="43.38323393014597" lon="6.649184348819692"><ele>58.5</ele><time>2026-04-12T08:46:14.001Z</time></trkpt><trkpt lat="43.383237956775204" lon="6.64928012430384"><ele>58.33333333333333</ele><time>2026-04-12T08:46:16.001Z</time></trkpt><trkpt lat="43.38320074308096" lon="6.649201412657483"><ele>58.166666666666664</ele><time>2026-04-12T08:47:06Z</time></trkpt><trkpt lat="43.38327085740266" lon="6.649132524222099"><ele>58.0</ele><time>2026-04-12T08:47:09Z</time></trkpt><trkpt lat="43.38341113765298" lon="6.6491550378100355"><ele>58.0</ele><time>2026-04-12T08:47:11Z</time></trkpt><trkpt lat="43.383526754228605" lon="6.649209819321015"><ele>58.0</ele><time>2026-04-12T08:47:12Z</time></trkpt><trkpt lat="43.38357058105899" lon="6.649286907286053"><ele>58.0</ele><time>2026-04-12T08:47:13Z</time></trkpt><trkpt lat="43.38356570381108" lon="6.649390538589054"><ele>58.0</ele><time>2026-04-12T08:47:14Z</time></trkpt><trkpt lat="43.383556503767956" lon="6.649527026860504"><ele>58.0</ele><time>2026-04-12T08:47:15Z</time></trkpt><trkpt lat="43.38358415873082" lon="6.64967264120409"><ele>58.599999999999994</ele><time>2026-04-12T08:47:16Z</time></trkpt><trkpt lat="43.383606556499586" lon="6.649783619437005"><ele>59.199999999999996</ele><time>2026-04-12T08:47:17Z</time></trkpt><trkpt lat="43.383676128897235" lon="6.64987669464286"><ele>59.8</ele><time>2026-04-12T08:47:18Z</time></trkpt><trkpt lat="43.38376862988726" lon="6.649945507487599"><ele>60.4</ele><time>2026-04-12T08:47:19Z</time></trkpt><trkpt lat="43.383858003819626" lon="6.650036399605929"><ele>61.0</ele><time>2026-04-12T08:47:20Z</time></trkpt><trkpt lat="43.38392578271615" lon="6.650157476632523"><ele>61.199999999999996</ele><time>2026-04-12T08:47:21Z</time></trkpt><trkpt lat="43.38399429577397" lon="6.650276813955457"><ele>61.39999999999999</ele><time>2026-04-12T08:47:22Z</time></trkpt><trkpt lat="43.384058417201665" lon="6.650402248627915"><ele>61.6</ele><time>2026-04-12T08:47:23Z</time></trkpt><trkpt lat="43.38405652007499" lon="6.650516875183891"><ele>61.8</ele><time>2026-04-12T08:47:24Z</time></trkpt><trkpt lat="43.38405579408622" lon="6.650630864193837"><ele>62.0</ele><time>2026-04-12T08:47:25Z</time></trkpt><trkpt lat="43.384130570957325" lon="6.65076163929008"><ele>62.00000000000001</ele><time>2026-04-12T08:47:27Z</time></trkpt><trkpt lat="43.3842201640171" lon="6.650893451329412"><ele>62.0</ele><time>2026-04-12T08:47:29Z</time></trkpt><trkpt lat="43.38422308297714" lon="6.650999642140761"><ele>62.0</ele><time>2026-04-12T08:47:30.001Z</time></trkpt><trkpt lat="43.38420780564435" lon="6.651117529928607"><ele>62.0</ele><time>2026-04-12T08:47:31.001Z</time></trkpt><trkpt lat="43.38416329272178" lon="6.651209390934922"><ele>62.00000000000001</ele><time>2026-04-12T08:47:32.001Z</time></trkpt><trkpt lat="43.38415638811577" lon="6.651302552497055"><ele>62.0</ele><time>2026-04-12T08:47:33.001Z</time></trkpt><trkpt lat="43.38416744747422" lon="6.65141693334614"><ele>62.16666666666667</ele><time>2026-04-12T08:47:34.001Z</time></trkpt><trkpt lat="43.384181842353826" lon="6.651529257691726"><ele>62.333333333333336</ele><time>2026-04-12T08:47:35.001Z</time></trkpt><trkpt lat="43.38422826548899" lon="6.651663212520832"><ele>62.5</ele><time>2026-04-12T08:47:36.001Z</time></trkpt><trkpt lat="43.38426308102223" lon="6.651751988609495"><ele>62.66666666666667</ele><time>2026-04-12T08:47:37.001Z</time></trkpt><trkpt lat="43.384274781083214" lon="6.651864900572431"><ele>62.833333333333336</ele><time>2026-04-12T08:47:38.001Z</time></trkpt><trkpt lat="43.384279949202394" lon="6.651983939417163"><ele>63.0</ele><time>2026-04-12T08:47:39.001Z</time></trkpt><trkpt lat="43.384286236165515" lon="6.652111810492568"><ele>62.5</ele><time>2026-04-12T08:47:40.001Z</time></trkpt><trkpt lat="43.384283316472306" lon="6.65221950717468"><ele>62.0</ele><time>2026-04-12T08:47:41.001Z</time></trkpt><trkpt lat="43.38427236151906" lon="6.6523125033181705"><ele>61.5</ele><time>2026-04-12T08:47:42.001Z</time></trkpt><trkpt lat="43.384287502933574" lon="6.652423920675482"><ele>61.0</ele><time>2026-04-12T08:47:43.001Z</time></trkpt><trkpt lat="43.384340527955594" lon="6.652529561440153"><ele>60.5</ele><time>2026-04-12T08:47:44.001Z</time></trkpt><trkpt lat="43.38440316669702" lon="6.65263454625624"><ele>60.0</ele><time>2026-04-12T08:47:45.001Z</time></trkpt><trkpt lat="43.384455789966296" lon="6.65276734804413"><ele>58.0</ele><time>2026-04-12T08:47:46.001Z</time></trkpt><trkpt lat="43.38448176367521" lon="6.652910184074701"><ele>56.0</ele><time>2026-04-12T08:47:47.001Z</time></trkpt><trkpt lat="43.384507845230566" lon="6.653058008030307"><ele>54.0</ele><time>2026-04-12T08:47:48.001Z</time></trkpt><trkpt lat="43.384540348182924" lon="6.65318822073136"><ele>52.0</ele><time>2026-04-12T08:47:49.001Z</time></trkpt><trkpt lat="43.3846031501864" lon="6.653356375746476"><ele>52.0</ele><time>2026-04-12T08:47:50.001Z</time></trkpt><trkpt lat="43.38465523661042" lon="6.6534906209099205"><ele>52.0</ele><time>2026-04-12T08:47:51.001Z</time></trkpt><trkpt lat="43.384699557810634" lon="6.653621362783518"><ele>52.0</ele><time>2026-04-12T08:47:52.001Z</time></trkpt><trkpt lat="43.38478009710984" lon="6.6537356104987495"><ele>52.0</ele><time>2026-04-12T08:47:54.001Z</time></trkpt><trkpt lat="43.384860171517936" lon="6.653804146190013"><ele>52.0</ele><time>2026-04-12T08:47:55.001Z</time></trkpt><trkpt lat="43.38494795139187" lon="6.653850881964569"><ele>54.6</ele><time>2026-04-12T08:47:56.001Z</time></trkpt><trkpt lat="43.38504651574278" lon="6.653925555999823"><ele>57.2</ele><time>2026-04-12T08:47:57.001Z</time></trkpt><trkpt lat="43.38513842139011" lon="6.654000495642731"><ele>59.8</ele><time>2026-04-12T08:47:58.001Z</time></trkpt><trkpt lat="43.38519676030648" lon="6.654069255869156"><ele>62.4</ele><time>2026-04-12T08:47:59.001Z</time></trkpt><trkpt lat="43.38525083597034" lon="6.654142318484171"><ele>65.0</ele><time>2026-04-12T08:48:00.001Z</time></trkpt><trkpt lat="43.385246075438744" lon="6.654319158943706"><ele>65.0</ele><time>2026-04-12T08:48:02.001Z</time></trkpt><trkpt lat="43.385192224669936" lon="6.654429791483557"><ele>65.0</ele><time>2026-04-12T08:48:03.001Z</time></trkpt><trkpt lat="43.38514189309938" lon="6.654535047638916"><ele>65.0</ele><time>2026-04-12T08:48:05.001Z</time></trkpt><trkpt lat="43.38531941946994" lon="6.654570970456496"><ele>65.0</ele><time>2026-04-12T08:48:09.001Z</time></trkpt><trkpt lat="43.38546534919445" lon="6.654470276967055"><ele>67.4</ele><time>2026-04-12T08:48:11.001Z</time></trkpt><trkpt lat="43.385566610112356" lon="6.654382606020395"><ele>69.8</ele><time>2026-04-12T08:48:12.001Z</time></trkpt><trkpt lat="43.38563037559042" lon="6.654295321295631"><ele>72.2</ele><time>2026-04-12T08:48:13.001Z</time></trkpt><trkpt lat="43.38567388172985" lon="6.654210001417272"><ele>74.6</ele><time>2026-04-12T08:48:14.001Z</time></trkpt><trkpt lat="43.38561441127441" lon="6.654100959885556"><ele>77.0</ele><time>2026-04-12T08:48:20.001Z</time></trkpt><trkpt lat="43.38559065442963" lon="6.653998110832543"><ele>77.0</ele><time>2026-04-12T08:48:22.001Z</time></trkpt><trkpt lat="43.385633016430404" lon="6.6539013965198395"><ele>77.0</ele><time>2026-04-12T08:48:24.001Z</time></trkpt><trkpt lat="43.38568194475434" lon="6.653786386941015"><ele>77.0</ele><time>2026-04-12T08:48:26.001Z</time></trkpt><trkpt lat="43.38571196404636" lon="6.653655584663695"><ele>77.0</ele><time>2026-04-12T08:48:28.001Z</time></trkpt><trkpt lat="43.385719827864214" lon="6.653560216498337"><ele>77.0</ele><time>2026-04-12T08:48:30.001Z</time></trkpt><trkpt lat="43.38570900937439" lon="6.653450959007884"><ele>77.0</ele><time>2026-04-12T08:48:35.001Z</time></trkpt><trkpt lat="43.38571665938446" lon="6.65335674771492"><ele>79.28571428571429</ele><time>2026-04-12T08:48:39.001Z</time></trkpt><trkpt lat="43.38572556523253" lon="6.653269232602233"><ele>81.57142857142857</ele><time>2026-04-12T08:49:30Z</time></trkpt><trkpt lat="43.38573157661328" lon="6.653179127742616"><ele>83.85714285714286</ele><time>2026-04-12T08:50:22.001Z</time></trkpt><trkpt lat="43.38576014997409" lon="6.653082798188994"><ele>86.14285714285714</ele><time>2026-04-12T08:50:53.001Z</time></trkpt><trkpt lat="43.38575433179313" lon="6.6529850704618525"><ele>88.42857142857143</ele><time>2026-04-12T08:50:56.001Z</time></trkpt><trkpt lat="43.38576341658051" lon="6.652877893715268"><ele>90.71428571428572</ele><time>2026-04-12T08:50:59Z</time></trkpt><trkpt lat="43.38574374145778" lon="6.6527781183936145"><ele>93.0</ele><time>2026-04-12T08:54:07Z</time></trkpt><trkpt lat="43.38571763281996" lon="6.6526703506654465"><ele>96.0</ele><time>2026-04-12T08:54:09Z</time></trkpt><trkpt lat="43.38566610816958" lon="6.6525323926917785"><ele>99.0</ele><time>2026-04-12T08:54:11Z</time></trkpt><trkpt lat="43.385699418870466" lon="6.652457154529691"><ele>102.0</ele><time>2026-04-12T08:54:13Z</time></trkpt><trkpt lat="43.38574309181839" lon="6.652371856000925"><ele>105.0</ele><time>2026-04-12T08:54:15Z</time></trkpt><trkpt lat="43.38578151578022" lon="6.652298382425951"><ele>108.0</ele><time>2026-04-12T08:54:17Z</time></trkpt><trkpt lat="43.38582821686707" lon="6.6522269228495725"><ele>111.0</ele><time>2026-04-12T08:54:19.001Z</time></trkpt><trkpt lat="43.38588265378353" lon="6.652173498077909"><ele>111.0</ele><time>2026-04-12T08:54:21.001Z</time></trkpt><trkpt lat="43.3859523993054" lon="6.65209674439276"><ele>111.0</ele><time>2026-04-12T08:54:23.001Z</time></trkpt><trkpt lat="43.386010156255786" lon="6.652057900720554"><ele>111.0</ele><time>2026-04-12T08:54:24.001Z</time></trkpt><trkpt lat="43.38606304805252" lon="6.6519921770125645"><ele>111.0</ele><time>2026-04-12T08:54:25.001Z</time></trkpt><trkpt lat="43.38609454195025" lon="6.65190427199706"><ele>111.0</ele><time>2026-04-12T08:54:26.001Z</time></trkpt><trkpt lat="43.386123751734694" lon="6.651823810431276"><ele>111.0</ele><time>2026-04-12T08:54:28.001Z</time></trkpt><trkpt lat="43.38617310282094" lon="6.6517559532735735"><ele>111.0</ele><time>2026-04-12T08:54:30.001Z</time></trkpt><trkpt lat="43.38624482883666" lon="6.651640175656904"><ele>111.8</ele><time>2026-04-12T08:54:32.001Z</time></trkpt><trkpt lat="43.386344081927795" lon="6.65155958996207"><ele>112.6</ele><time>2026-04-12T08:54:34.001Z</time></trkpt><trkpt lat="43.38645374605565" lon="6.651521436290568"><ele>113.4</ele><time>2026-04-12T08:54:36.001Z</time></trkpt><trkpt lat="43.38653207598945" lon="6.651495164265617"><ele>114.2</ele><time>2026-04-12T08:54:38.001Z</time></trkpt><trkpt lat="43.386601754167486" lon="6.651421179607762"><ele>115.0</ele><time>2026-04-12T08:54:40.001Z</time></trkpt><trkpt lat="43.38665143763672" lon="6.65134291694973"><ele>117.33333333333334</ele><time>2026-04-12T08:54:42.001Z</time></trkpt><trkpt lat="43.38674091910351" lon="6.651275397085862"><ele>119.66666666666667</ele><time>2026-04-12T08:54:44.001Z</time></trkpt><trkpt lat="43.386800852638494" lon="6.651201931998379"><ele>122.0</ele><time>2026-04-12T08:54:46.001Z</time></trkpt><trkpt lat="43.386834141164265" lon="6.65109467479538"><ele>124.33333333333334</ele><time>2026-04-12T08:54:48.001Z</time></trkpt><trkpt lat="43.386839885884875" lon="6.651007802942031"><ele>126.66666666666667</ele><time>2026-04-12T08:54:54.001Z</time></trkpt><trkpt lat="43.38686474861926" lon="6.650917218957869"><ele>129.0</ele><time>2026-04-12T08:55:07.001Z</time></trkpt><trkpt lat="43.38687603707863" lon="6.650828770335404"><ele>130.7142857142857</ele><time>2026-04-12T08:55:15.999Z</time></trkpt><trkpt lat="43.38689261802241" lon="6.650736187132726"><ele>132.42857142857142</ele><time>2026-04-12T08:55:17.999Z</time></trkpt><trkpt lat="43.3869411893076" lon="6.650672353991313"><ele>134.14285714285714</ele><time>2026-04-12T08:55:25Z</time></trkpt><trkpt lat="43.387000642908866" lon="6.650618612455127"><ele>135.85714285714283</ele><time>2026-04-12T08:55:59Z</time></trkpt><trkpt lat="43.38702037526388" lon="6.650529542263202"><ele>137.57142857142856</ele><time>2026-04-12T08:56:18Z</time></trkpt><trkpt lat="43.38705577583014" lon="6.65043838817353"><ele>139.28571428571428</ele><time>2026-04-12T08:56:23.001Z</time></trkpt><trkpt lat="43.38708869298291" lon="6.650363275065847"><ele>141.0</ele><time>2026-04-12T08:56:27.001Z</time></trkpt><trkpt lat="43.387123544145894" lon="6.650287022535528"><ele>142.0</ele><time>2026-04-12T08:56:30.001Z</time></trkpt><trkpt lat="43.38717402654673" lon="6.650207899472966"><ele>143.0</ele><time>2026-04-12T08:56:32.001Z</time></trkpt><trkpt lat="43.387215925228126" lon="6.650128463981977"><ele>144.0</ele><time>2026-04-12T08:56:34.001Z</time></trkpt><trkpt lat="43.38723852119465" lon="6.650046619331134"><ele>145.0</ele><time>2026-04-12T08:56:36.001Z</time></trkpt><trkpt lat="43.38731707289225" lon="6.649982793626992"><ele>146.0</ele><time>2026-04-12T08:56:38.001Z</time></trkpt><trkpt lat="43.3873829400311" lon="6.649972285371928"><ele>147.0</ele><time>2026-04-12T08:56:40.001Z</time></trkpt><trkpt lat="43.38744855320248" lon="6.649936497151338"><ele>148.0</ele><time>2026-04-12T08:56:52.001Z</time></trkpt><trkpt lat="43.387519751160305" lon="6.649879671385789"><ele>151.5</ele><time>2026-04-12T08:56:54.001Z</time></trkpt><trkpt lat="43.38759060568158" lon="6.649896633999981"><ele>155.0</ele><time>2026-04-12T08:56:55.001Z</time></trkpt><trkpt lat="43.38767051396452" lon="6.649912983821282"><ele>158.5</ele><time>2026-04-12T08:56:56.001Z</time></trkpt><trkpt lat="43.38774683346685" lon="6.649909656312885"><ele>162.0</ele><time>2026-04-12T08:56:57.001Z</time></trkpt><trkpt lat="43.38779230886922" lon="6.649814802433446"><ele>165.5</ele><time>2026-04-12T08:56:59.001Z</time></trkpt><trkpt lat="43.38781897154798" lon="6.6496709253438535"><ele>169.0</ele><time>2026-04-12T08:57:01.001Z</time></trkpt><trkpt lat="43.38790905584289" lon="6.649626134766969"><ele>169.0</ele><time>2026-04-12T08:57:03.001Z</time></trkpt><trkpt lat="43.38797763763089" lon="6.649611382510288"><ele>169.0</ele><time>2026-04-12T08:57:04.001Z</time></trkpt><trkpt lat="43.38806918886451" lon="6.649572992698049"><ele>169.0</ele><time>2026-04-12T08:57:05.001Z</time></trkpt><trkpt lat="43.38815390790662" lon="6.649532789975817"><ele>169.0</ele><time>2026-04-12T08:57:06.001Z</time></trkpt><trkpt lat="43.388247676961825" lon="6.649469662847197"><ele>169.0</ele><time>2026-04-12T08:57:07.001Z</time></trkpt><trkpt lat="43.388331898382944" lon="6.649394511003239"><ele>170.75</ele><time>2026-04-12T08:57:08.001Z</time></trkpt><trkpt lat="43.38843404877121" lon="6.6492774497586575"><ele>172.5</ele><time>2026-04-12T08:57:09.001Z</time></trkpt><trkpt lat="43.38854129167316" lon="6.649166679798752"><ele>174.25</ele><time>2026-04-12T08:57:10.001Z</time></trkpt><trkpt lat="43.38864579135793" lon="6.649073070963675"><ele>176.0</ele><time>2026-04-12T08:57:11.001Z</time></trkpt><trkpt lat="43.38874326424939" lon="6.648967183389988"><ele>176.0</ele><time>2026-04-12T08:57:12.001Z</time></trkpt><trkpt lat="43.388834958687184" lon="6.648867098582868"><ele>176.0</ele><time>2026-04-12T08:57:13.001Z</time></trkpt><trkpt lat="43.38889313942888" lon="6.64877631080984"><ele>176.0</ele><time>2026-04-12T08:57:14.001Z</time></trkpt><trkpt lat="43.388968712873066" lon="6.648729770175662"><ele>176.0</ele><time>2026-04-12T08:57:15.999Z</time></trkpt><trkpt lat="43.38909230265447" lon="6.648659711652448"><ele>176.0</ele><time>2026-04-12T08:57:17.999Z</time></trkpt><trkpt lat="43.38915815790664" lon="6.648618804434454"><ele>175.83333333333331</ele><time>2026-04-12T08:57:18.999Z</time></trkpt><trkpt lat="43.38923161136233" lon="6.648491972201241"><ele>175.66666666666666</ele><time>2026-04-12T08:57:20.999Z</time></trkpt><trkpt lat="43.3892843465082" lon="6.648421327598036"><ele>175.5</ele><time>2026-04-12T08:57:21.999Z</time></trkpt><trkpt lat="43.38933085654276" lon="6.6483547193839"><ele>175.33333333333334</ele><time>2026-04-12T08:57:22.999Z</time></trkpt><trkpt lat="43.389273691332896" lon="6.648407581156343"><ele>175.16666666666669</ele><time>2026-04-12T08:57:34Z</time></trkpt><trkpt lat="43.38922483458767" lon="6.648480178996843"><ele>175.0</ele><time>2026-04-12T08:57:35Z</time></trkpt><trkpt lat="43.38917977836565" lon="6.648564759986204"><ele>174.16666666666669</ele><time>2026-04-12T08:57:37Z</time></trkpt><trkpt lat="43.38920657433953" lon="6.648683410690383"><ele>173.33333333333334</ele><time>2026-04-12T08:57:41Z</time></trkpt><trkpt lat="43.38923064950334" lon="6.648777904834166"><ele>172.5</ele><time>2026-04-12T08:57:43Z</time></trkpt><trkpt lat="43.389242669958364" lon="6.648903035107458"><ele>171.66666666666666</ele><time>2026-04-12T08:57:45Z</time></trkpt><trkpt lat="43.38924484870579" lon="6.649009366201185"><ele>170.83333333333331</ele><time>2026-04-12T08:57:47Z</time></trkpt><trkpt lat="43.3893037647565" lon="6.649093964577222"><ele>170.0</ele><time>2026-04-12T08:57:50Z</time></trkpt><trkpt lat="43.38933235157952" lon="6.649210296096088"><ele>170.0</ele><time>2026-04-12T08:57:52Z</time></trkpt><trkpt lat="43.38936613055264" lon="6.649328982878325"><ele>170.0</ele><time>2026-04-12T08:57:55Z</time></trkpt><trkpt lat="43.38939216541565" lon="6.649460106046059"><ele>170.0</ele><time>2026-04-12T08:57:57Z</time></trkpt><trkpt lat="43.389404490517215" lon="6.649561557362984"><ele>170.0</ele><time>2026-04-12T08:57:59Z</time></trkpt><trkpt lat="43.38944408286524" lon="6.649667157166035"><ele>170.0</ele><time>2026-04-12T08:58:03Z</time></trkpt><trkpt lat="43.389476069370076" lon="6.64974733099648"><ele>170.0</ele><time>2026-04-12T08:58:07Z</time></trkpt><trkpt lat="43.38952581645003" lon="6.649823586908787"><ele>167.16666666666666</ele><time>2026-04-12T08:58:11Z</time></trkpt><trkpt lat="43.38954172998981" lon="6.649910476097479"><ele>164.33333333333331</ele><time>2026-04-12T08:58:13Z</time></trkpt><trkpt lat="43.3895688313714" lon="6.649997786500727"><ele>161.5</ele><time>2026-04-12T08:58:16Z</time></trkpt><trkpt lat="43.38962094378811" lon="6.650106702993868"><ele>158.66666666666666</ele><time>2026-04-12T08:58:19Z</time></trkpt><trkpt lat="43.38963998859258" lon="6.650198651260589"><ele>155.83333333333334</ele><time>2026-04-12T08:58:23.001Z</time></trkpt><trkpt lat="43.389657674455634" lon="6.6503141141358"><ele>153.0</ele><time>2026-04-12T08:58:28.001Z</time></trkpt><trkpt lat="43.389652864998574" lon="6.650408551227631"><ele>149.33333333333334</ele><time>2026-04-12T08:58:32.001Z</time></trkpt><trkpt lat="43.389656762718445" lon="6.650495603022665"><ele>145.66666666666666</ele><time>2026-04-12T08:58:36.001Z</time></trkpt><trkpt lat="43.389658522503844" lon="6.650584179345895"><ele>142.0</ele><time>2026-04-12T08:58:47.001Z</time></trkpt><trkpt lat="43.38961408324898" lon="6.650700796357654"><ele>138.33333333333331</ele><time>2026-04-12T08:58:51.001Z</time></trkpt><trkpt lat="43.38955983357083" lon="6.650812525980943"><ele>134.66666666666666</ele><time>2026-04-12T08:58:54.001Z</time></trkpt><trkpt lat="43.38952660522171" lon="6.650902116367941"><ele>131.0</ele><time>2026-04-12T08:58:57.001Z</time></trkpt><trkpt lat="43.38948874026758" lon="6.650972662183498"><ele>131.0</ele><time>2026-04-12T08:59:16.001Z</time></trkpt><trkpt lat="43.38944603231346" lon="6.6510547111000085"><ele>131.0</ele><time>2026-04-12T08:59:28Z</time></trkpt><trkpt lat="43.389421827331084" lon="6.651142759304326"><ele>131.0</ele><time>2026-04-12T08:59:34Z</time></trkpt><trkpt lat="43.389372558152665" lon="6.651227692515012"><ele>131.0</ele><time>2026-04-12T08:59:37Z</time></trkpt><trkpt lat="43.38935013330066" lon="6.651312262799145"><ele>131.0</ele><time>2026-04-12T08:59:39Z</time></trkpt><trkpt lat="43.38933492336397" lon="6.651416670978233"><ele>131.0</ele><time>2026-04-12T08:59:42Z</time></trkpt><trkpt lat="43.389335971257914" lon="6.651523179757906"><ele>131.0</ele><time>2026-04-12T08:59:47Z</time></trkpt><trkpt lat="43.38932836611379" lon="6.651612208430557"><ele>128.42857142857144</ele><time>2026-04-12T08:59:50Z</time></trkpt><trkpt lat="43.38933926601318" lon="6.651702431534772"><ele>125.85714285714286</ele><time>2026-04-12T08:59:52Z</time></trkpt><trkpt lat="43.389330394380536" lon="6.651815105589868"><ele>123.28571428571429</ele><time>2026-04-12T08:59:56Z</time></trkpt><trkpt lat="43.389316974167095" lon="6.651900775611164"><ele>120.71428571428572</ele><time>2026-04-12T08:59:59Z</time></trkpt><trkpt lat="43.38931714789907" lon="6.651987649912547"><ele>118.14285714285714</ele><time>2026-04-12T09:00:01Z</time></trkpt><trkpt lat="43.38931740900291" lon="6.652085702478587"><ele>115.57142857142858</ele><time>2026-04-12T09:00:03Z</time></trkpt><trkpt lat="43.38930400814169" lon="6.6521861374086955"><ele>113.0</ele><time>2026-04-12T09:00:06Z</time></trkpt><trkpt lat="43.38929408570302" lon="6.652273161331949"><ele>111.33333333333333</ele><time>2026-04-12T09:00:08Z</time></trkpt><trkpt lat="43.38927427841253" lon="6.65240510926135"><ele>109.66666666666666</ele><time>2026-04-12T09:00:10Z</time></trkpt><trkpt lat="43.38925964049116" lon="6.652525110988323"><ele>108.0</ele><time>2026-04-12T09:00:12.001Z</time></trkpt><trkpt lat="43.3892579732535" lon="6.6526123587728305"><ele>106.33333333333334</ele><time>2026-04-12T09:00:16.001Z</time></trkpt><trkpt lat="43.389273524920135" lon="6.6527165648872115"><ele>104.66666666666667</ele><time>2026-04-12T09:00:27.001Z</time></trkpt><trkpt lat="43.389317948148346" lon="6.652788912355039"><ele>103.0</ele><time>2026-04-12T09:00:38.001Z</time></trkpt><trkpt lat="43.389371236876805" lon="6.652836054700228"><ele>103.00000000000001</ele><time>2026-04-12T09:00:41.001Z</time></trkpt><trkpt lat="43.389432825299814" lon="6.652880728842955"><ele>103.0</ele><time>2026-04-12T09:00:46.001Z</time></trkpt><trkpt lat="43.389483107551726" lon="6.652961565659409"><ele>103.0</ele><time>2026-04-12T09:00:50.001Z</time></trkpt><trkpt lat="43.38941784814645" lon="6.652998061092355"><ele>103.0</ele><time>2026-04-12T09:00:52.001Z</time></trkpt><trkpt lat="43.389357718735845" lon="6.653033780804141"><ele>103.00000000000001</ele><time>2026-04-12T09:00:55.001Z</time></trkpt><trkpt lat="43.38928279417225" lon="6.653113800727441"><ele>103.0</ele><time>2026-04-12T09:00:59.001Z</time></trkpt><trkpt lat="43.38920650378192" lon="6.653160703904288"><ele>103.0</ele><time>2026-04-12T09:01:04.001Z</time></trkpt><trkpt lat="43.389093283780504" lon="6.65320336495443"><ele>103.0</ele><time>2026-04-12T09:01:07.001Z</time></trkpt><trkpt lat="43.38897836096948" lon="6.653240998754001"><ele>103.0</ele><time>2026-04-12T09:01:08.001Z</time></trkpt><trkpt lat="43.388892933118775" lon="6.653259632127106"><ele>103.0</ele><time>2026-04-12T09:01:09.001Z</time></trkpt><trkpt lat="43.38883067993472" lon="6.653301134907925"><ele>103.0</ele><time>2026-04-12T09:01:10.001Z</time></trkpt><trkpt lat="43.38877264365038" lon="6.6533675814354565"><ele>102.00000000000001</ele><time>2026-04-12T09:01:11.001Z</time></trkpt><trkpt lat="43.388715739470754" lon="6.653468235253023"><ele>101.0</ele><time>2026-04-12T09:01:12.001Z</time></trkpt><trkpt lat="43.388660934368765" lon="6.6535380698053475"><ele>100.0</ele><time>2026-04-12T09:01:13.001Z</time></trkpt><trkpt lat="43.388593720114976" lon="6.653578648569996"><ele>99.0</ele><time>2026-04-12T09:01:14.001Z</time></trkpt><trkpt lat="43.38850564492645" lon="6.653551301108635"><ele>98.00000000000001</ele><time>2026-04-12T09:01:15.001Z</time></trkpt><trkpt lat="43.38841344415989" lon="6.653543235230646"><ele>97.0</ele><time>2026-04-12T09:01:16.001Z</time></trkpt><trkpt lat="43.38831590498007" lon="6.653526013025076"><ele>97.0</ele><time>2026-04-12T09:01:17.001Z</time></trkpt><trkpt lat="43.388219002373496" lon="6.653493312765734"><ele>97.0</ele><time>2026-04-12T09:01:18.002Z</time></trkpt><trkpt lat="43.38812856009419" lon="6.653472760044537"><ele>97.0</ele><time>2026-04-12T09:01:19.002Z</time></trkpt><trkpt lat="43.38803472368308" lon="6.653452009851793"><ele>97.0</ele><time>2026-04-12T09:01:20.002Z</time></trkpt><trkpt lat="43.38793292517708" lon="6.653469397815872"><ele>97.0</ele><time>2026-04-12T09:01:21.002Z</time></trkpt><trkpt lat="43.38783825336843" lon="6.653464195366541"><ele>95.83333333333334</ele><time>2026-04-12T09:01:22.002Z</time></trkpt><trkpt lat="43.38773643308936" lon="6.653472836404785"><ele>94.66666666666667</ele><time>2026-04-12T09:01:23.002Z</time></trkpt><trkpt lat="43.387660621825326" lon="6.653424927262497"><ele>93.5</ele><time>2026-04-12T09:01:24.002Z</time></trkpt><trkpt lat="43.38755561713668" lon="6.653353874638817"><ele>92.33333333333334</ele><time>2026-04-12T09:01:26.002Z</time></trkpt><trkpt lat="43.38748625937506" lon="6.6533039970169074"><ele>91.16666666666667</ele><time>2026-04-12T09:01:27Z</time></trkpt><trkpt lat="43.38742126169849" lon="6.6532966819683175"><ele>90.0</ele><time>2026-04-12T09:01:28Z</time></trkpt><trkpt lat="43.38735597897721" lon="6.653336766597316"><ele>90.0</ele><time>2026-04-12T09:01:29Z</time></trkpt><trkpt lat="43.387287691340504" lon="6.653410286135303"><ele>90.0</ele><time>2026-04-12T09:01:30Z</time></trkpt><trkpt lat="43.387219031119734" lon="6.653505344457609"><ele>90.0</ele><time>2026-04-12T09:01:31Z</time></trkpt><trkpt lat="43.387159132622934" lon="6.653561626072586"><ele>90.0</ele><time>2026-04-12T09:01:32Z</time></trkpt><trkpt lat="43.38703994332344" lon="6.653619450477257"><ele>90.0</ele><time>2026-04-12T09:01:34Z</time></trkpt><trkpt lat="43.386945883514144" lon="6.653656086799057"><ele>88.83333333333333</ele><time>2026-04-12T09:01:36Z</time></trkpt><trkpt lat="43.38684227512186" lon="6.653685876975381"><ele>87.66666666666667</ele><time>2026-04-12T09:01:37Z</time></trkpt><trkpt lat="43.38675998866016" lon="6.653713454734895"><ele>86.5</ele><time>2026-04-12T09:01:38Z</time></trkpt><trkpt lat="43.38667831480528" lon="6.653737524501034"><ele>85.33333333333334</ele><time>2026-04-12T09:01:39Z</time></trkpt><trkpt lat="43.38660701972844" lon="6.653750823830453"><ele>84.16666666666667</ele><time>2026-04-12T09:01:40Z</time></trkpt><trkpt lat="43.38652567180927" lon="6.6537636165509815"><ele>83.0</ele><time>2026-04-12T09:01:41Z</time></trkpt><trkpt lat="43.38643993286252" lon="6.653759722940799"><ele>83.0</ele><time>2026-04-12T09:01:42Z</time></trkpt><trkpt lat="43.38635148931007" lon="6.653734826647674"><ele>83.0</ele><time>2026-04-12T09:01:43Z</time></trkpt><trkpt lat="43.38626185676559" lon="6.653729390589314"><ele>83.0</ele><time>2026-04-12T09:01:44Z</time></trkpt><trkpt lat="43.38618047199508" lon="6.653765251042473"><ele>83.0</ele><time>2026-04-12T09:01:45Z</time></trkpt><trkpt lat="43.386123007735684" lon="6.653835359354151"><ele>83.0</ele><time>2026-04-12T09:01:46Z</time></trkpt><trkpt lat="43.38606451189592" lon="6.653913474570626"><ele>83.0</ele><time>2026-04-12T09:01:47Z</time></trkpt><trkpt lat="43.386010956729706" lon="6.653983866180981"><ele>82.0</ele><time>2026-04-12T09:01:48Z</time></trkpt><trkpt lat="43.38595080834081" lon="6.654055067557473"><ele>81.0</ele><time>2026-04-12T09:01:49Z</time></trkpt><trkpt lat="43.38587304515535" lon="6.654107344655277"><ele>80.0</ele><time>2026-04-12T09:01:50Z</time></trkpt><trkpt lat="43.38578580147592" lon="6.654150184687485"><ele>79.0</ele><time>2026-04-12T09:01:51Z</time></trkpt><trkpt lat="43.385701377665484" lon="6.654203169206952"><ele>78.0</ele><time>2026-04-12T09:01:52Z</time></trkpt><trkpt lat="43.3856550220189" lon="6.654266617684779"><ele>77.0</ele><time>2026-04-12T09:01:53Z</time></trkpt><trkpt lat="43.385606747424994" lon="6.654350186621407"><ele>77.0</ele><time>2026-04-12T09:01:54Z</time></trkpt><trkpt lat="43.385560503977054" lon="6.654412703383371"><ele>77.0</ele><time>2026-04-12T09:01:55Z</time></trkpt><trkpt lat="43.385464734132206" lon="6.654519240213422"><ele>77.0</ele><time>2026-04-12T09:01:57Z</time></trkpt><trkpt lat="43.385346920048775" lon="6.65454127490799"><ele>77.0</ele><time>2026-04-12T09:01:59Z</time></trkpt><trkpt lat="43.38527539175924" lon="6.654551241307167"><ele>77.0</ele><time>2026-04-12T09:02:00Z</time></trkpt><trkpt lat="43.38519298630734" lon="6.654550840325995"><ele>74.66666666666667</ele><time>2026-04-12T09:02:01Z</time></trkpt><trkpt lat="43.385119042274724" lon="6.6545357322216505"><ele>72.33333333333334</ele><time>2026-04-12T09:02:02Z</time></trkpt><trkpt lat="43.38505432680278" lon="6.6546146488324345"><ele>70.0</ele><time>2026-04-12T09:02:05Z</time></trkpt><trkpt lat="43.38496118852576" lon="6.654695157411244"><ele>67.66666666666667</ele><time>2026-04-12T09:02:07Z</time></trkpt><trkpt lat="43.38490915300504" lon="6.654747469085569"><ele>65.33333333333333</ele><time>2026-04-12T09:02:08Z</time></trkpt><trkpt lat="43.384840338672554" lon="6.654837522266953"><ele>63.0</ele><time>2026-04-12T09:02:10.001Z</time></trkpt><trkpt lat="43.384767770668816" lon="6.654862285507624"><ele>63.0</ele><time>2026-04-12T09:02:13.001Z</time></trkpt><trkpt lat="43.38476520040962" lon="6.654956875646169"><ele>63.0</ele><time>2026-04-12T09:02:15.001Z</time></trkpt><trkpt lat="43.38469364660667" lon="6.655060425728493"><ele>63.0</ele><time>2026-04-12T09:02:18.001Z</time></trkpt><trkpt lat="43.38462813703649" lon="6.655103372327001"><ele>63.0</ele><time>2026-04-12T09:02:20.001Z</time></trkpt><trkpt lat="43.3845736288138" lon="6.6552316376939045"><ele>63.0</ele><time>2026-04-12T09:02:22.001Z</time></trkpt><trkpt lat="43.38449561280403" lon="6.6553655763208805"><ele>59.599999999999994</ele><time>2026-04-12T09:02:24.001Z</time></trkpt><trkpt lat="43.38446188434833" lon="6.6554477746274765"><ele>56.199999999999996</ele><time>2026-04-12T09:02:25.001Z</time></trkpt><trkpt lat="43.384464679529266" lon="6.655620391455567"><ele>52.8</ele><time>2026-04-12T09:02:27.001Z</time></trkpt><trkpt lat="43.38451534481984" lon="6.6557131725753935"><ele>49.4</ele><time>2026-04-12T09:02:28.001Z</time></trkpt><trkpt lat="43.38453601001315" lon="6.655851398875471"><ele>46.0</ele><time>2026-04-12T09:02:30.001Z</time></trkpt><trkpt lat="43.384512657601896" lon="6.656002083765259"><ele>46.0</ele><time>2026-04-12T09:02:32.001Z</time></trkpt><trkpt lat="43.38446142315331" lon="6.656102623503803"><ele>46.0</ele><time>2026-04-12T09:02:35.001Z</time></trkpt><trkpt lat="43.38443850899997" lon="6.656193175114972"><ele>46.0</ele><time>2026-04-12T09:02:37.001Z</time></trkpt><trkpt lat="43.384365790010186" lon="6.656228915900748"><ele>46.0</ele><time>2026-04-12T09:02:40.001Z</time></trkpt><trkpt lat="43.38428895528687" lon="6.656276897087303"><ele>46.0</ele><time>2026-04-12T09:02:43.001Z</time></trkpt><trkpt lat="43.384210138023626" lon="6.656332813458137"><ele>46.0</ele><time>2026-04-12T09:02:46.001Z</time></trkpt><trkpt lat="43.384162510964074" lon="6.656389604233286"><ele>45.833333333333336</ele><time>2026-04-12T09:02:48.001Z</time></trkpt><trkpt lat="43.38411692721929" lon="6.656451583125117"><ele>45.66666666666667</ele><time>2026-04-12T09:02:50.001Z</time></trkpt><trkpt lat="43.38405906594673" lon="6.656544847159468"><ele>45.5</ele><time>2026-04-12T09:02:53.001Z</time></trkpt><trkpt lat="43.3840077465647" lon="6.656636039044085"><ele>45.333333333333336</ele><time>2026-04-12T09:02:56.001Z</time></trkpt><trkpt lat="43.38394887304963" lon="6.656704735028145"><ele>45.166666666666664</ele><time>2026-04-12T09:02:59.001Z</time></trkpt><trkpt lat="43.38388501085636" lon="6.656775316234622"><ele>45.0</ele><time>2026-04-12T09:03:05.001Z</time></trkpt><trkpt lat="43.383820292426144" lon="6.656796411930799"><ele>45.0</ele><time>2026-04-12T09:08:47Z</time></trkpt><trkpt lat="43.38376234084722" lon="6.656726319005882"><ele>45.0</ele><time>2026-04-12T09:08:50.001Z</time></trkpt><trkpt lat="43.38370490618689" lon="6.656680992496876"><ele>45.0</ele><time>2026-04-12T09:08:53.001Z</time></trkpt><trkpt lat="43.38365501285573" lon="6.656733882444609"><ele>45.0</ele><time>2026-04-12T09:08:56.001Z</time></trkpt><trkpt lat="43.38359201698763" lon="6.6567797446535115"><ele>45.0</ele><time>2026-04-12T09:09:00.001Z</time></trkpt><trkpt lat="43.383520272474875" lon="6.656727566458152"><ele>45.0</ele><time>2026-04-12T09:09:03.001Z</time></trkpt><trkpt lat="43.38348523394584" lon="6.65660649262503"><ele>45.0</ele><time>2026-04-12T09:09:05.001Z</time></trkpt><trkpt lat="43.38345167697778" lon="6.6565212038584844"><ele>45.0</ele><time>2026-04-12T09:09:07.001Z</time></trkpt><trkpt lat="43.38341017603279" lon="6.6564160501944984"><ele>45.0</ele><time>2026-04-12T09:09:11.001Z</time></trkpt><trkpt lat="43.383380220350595" lon="6.656288581860434"><ele>45.0</ele><time>2026-04-12T09:09:13.001Z</time></trkpt><trkpt lat="43.38331179857866" lon="6.6562214569709335"><ele>45.0</ele><time>2026-04-12T09:09:15.001Z</time></trkpt><trkpt lat="43.383273613075914" lon="6.656053210930663"><ele>46.166666666666664</ele><time>2026-04-12T09:09:17.001Z</time></trkpt><trkpt lat="43.38325217702492" lon="6.655970643514098"><ele>47.33333333333333</ele><time>2026-04-12T09:09:18.001Z</time></trkpt><trkpt lat="43.383239369847" lon="6.65584274808883"><ele>48.5</ele><time>2026-04-12T09:09:20.001Z</time></trkpt><trkpt lat="43.38323021626159" lon="6.655719328245879"><ele>49.666666666666664</ele><time>2026-04-12T09:09:21.001Z</time></trkpt><trkpt lat="43.38321692482854" lon="6.655619900773866"><ele>50.83333333333333</ele><time>2026-04-12T09:09:22.001Z</time></trkpt><trkpt lat="43.3832077033437" lon="6.655502846499469"><ele>52.0</ele><time>2026-04-12T09:09:23.001Z</time></trkpt><trkpt lat="43.38318369638494" lon="6.6553553758356685"><ele>53.166666666666664</ele><time>2026-04-12T09:09:25.001Z</time></trkpt><trkpt lat="43.38314775480441" lon="6.655201291651125"><ele>54.33333333333333</ele><time>2026-04-12T09:09:27.001Z</time></trkpt><trkpt lat="43.383123736862956" lon="6.6551099877393405"><ele>55.5</ele><time>2026-04-12T09:09:28.001Z</time></trkpt><trkpt lat="43.383071118589434" lon="6.655010447174297"><ele>56.66666666666667</ele><time>2026-04-12T09:09:29.001Z</time></trkpt><trkpt lat="43.38301665119048" lon="6.654948688157887"><ele>57.833333333333336</ele><time>2026-04-12T09:09:30.001Z</time></trkpt><trkpt lat="43.38297987286764" lon="6.654860510218112"><ele>59.0</ele><time>2026-04-12T09:09:32.001Z</time></trkpt><trkpt lat="43.382877501390084" lon="6.654753384992275"><ele>60.800000000000004</ele><time>2026-04-12T09:09:34.001Z</time></trkpt><trkpt lat="43.382815404643424" lon="6.6546244294821575"><ele>62.60000000000001</ele><time>2026-04-12T09:09:36.001Z</time></trkpt><trkpt lat="43.3827427686419" lon="6.654516205707877"><ele>64.4</ele><time>2026-04-12T09:09:38.001Z</time></trkpt><trkpt lat="43.382635228356556" lon="6.654463335352728"><ele>66.2</ele><time>2026-04-12T09:09:40.001Z</time></trkpt><trkpt lat="43.38257715923511" lon="6.6544212385283705"><ele>68.0</ele><time>2026-04-12T09:09:41.001Z</time></trkpt><trkpt lat="43.382478690274844" lon="6.6544568962162955"><ele>67.99999999999999</ele><time>2026-04-12T09:09:43.001Z</time></trkpt><trkpt lat="43.38240249836886" lon="6.654463907013158"><ele>68.0</ele><time>2026-04-12T09:09:44.001Z</time></trkpt><trkpt lat="43.38233290860574" lon="6.6544494536988035"><ele>68.0</ele><time>2026-04-12T09:09:45.001Z</time></trkpt><trkpt lat="43.382265839159544" lon="6.65442820198261"><ele>68.0</ele><time>2026-04-12T09:09:46.001Z</time></trkpt><trkpt lat="43.38220916693462" lon="6.654386461975973"><ele>68.0</ele><time>2026-04-12T09:09:47.001Z</time></trkpt><trkpt lat="43.382162794414555" lon="6.654317237862232"><ele>67.99999999999999</ele><time>2026-04-12T09:09:48.001Z</time></trkpt><trkpt lat="43.382087430920656" lon="6.654311002009815"><ele>68.0</ele><time>2026-04-12T09:09:49.001Z</time></trkpt><trkpt lat="43.381993568138675" lon="6.654304294225391"><ele>71.0</ele><time>2026-04-12T09:09:50.001Z</time></trkpt><trkpt lat="43.381885442808375" lon="6.654298768874598"><ele>74.0</ele><time>2026-04-12T09:09:52Z</time></trkpt><trkpt lat="43.38178448833306" lon="6.654327492261187"><ele>77.0</ele><time>2026-04-12T09:09:54Z</time></trkpt><trkpt lat="43.38171448376612" lon="6.654226200710509"><ele>80.0</ele><time>2026-04-12T09:09:56Z</time></trkpt><trkpt lat="43.381624317371504" lon="6.654181925286493"><ele>83.0</ele><time>2026-04-12T09:10:01Z</time></trkpt><trkpt lat="43.38149748238896" lon="6.654185742887552"><ele>83.0</ele><time>2026-04-12T09:10:04Z</time></trkpt><trkpt lat="43.38139949241237" lon="6.6542148466865605"><ele>83.0</ele><time>2026-04-12T09:10:06Z</time></trkpt><trkpt lat="43.381321717165356" lon="6.6542423326246665"><ele>83.0</ele><time>2026-04-12T09:10:11Z</time></trkpt><trkpt lat="43.3812428378907" lon="6.654235872451143"><ele>83.0</ele><time>2026-04-12T09:10:13Z</time></trkpt><trkpt lat="43.3811508914683" lon="6.654248390830297"><ele>83.0</ele><time>2026-04-12T09:10:15Z</time></trkpt><trkpt lat="43.38108848308805" lon="6.654274532868282"><ele>83.0</ele><time>2026-04-12T09:10:16Z</time></trkpt><trkpt lat="43.3810380189066" lon="6.6543325384688226"><ele>85.80000000000001</ele><time>2026-04-12T09:10:17Z</time></trkpt><trkpt lat="43.380969166048466" lon="6.65440709481303"><ele>88.6</ele><time>2026-04-12T09:10:18Z</time></trkpt><trkpt lat="43.38089861350537" lon="6.654497912883849"><ele>91.4</ele><time>2026-04-12T09:10:19Z</time></trkpt><trkpt lat="43.380826553245676" lon="6.65459932367389"><ele>94.19999999999999</ele><time>2026-04-12T09:10:20Z</time></trkpt><trkpt lat="43.38076269211404" lon="6.654694063255729"><ele>97.0</ele><time>2026-04-12T09:10:21Z</time></trkpt><trkpt lat="43.38069336954582" lon="6.654762877357709"><ele>97.00000000000001</ele><time>2026-04-12T09:10:22Z</time></trkpt><trkpt lat="43.380624963904374" lon="6.654831242703781"><ele>97.0</ele><time>2026-04-12T09:10:23Z</time></trkpt><trkpt lat="43.38055551371686" lon="6.654895806805877"><ele>97.0</ele><time>2026-04-12T09:10:24Z</time></trkpt><trkpt lat="43.38048381875935" lon="6.654952881145992"><ele>97.0</ele><time>2026-04-12T09:10:25Z</time></trkpt><trkpt lat="43.3804490987763" lon="6.655064669509488"><ele>97.00000000000001</ele><time>2026-04-12T09:10:26Z</time></trkpt><trkpt lat="43.38043587226004" lon="6.655172448741127"><ele>97.0</ele><time>2026-04-12T09:10:27Z</time></trkpt><trkpt lat="43.3804458380863" lon="6.655351491390674"><ele>99.19999999999999</ele><time>2026-04-12T09:10:28Z</time></trkpt><trkpt lat="43.38044475877107" lon="6.655533048082286"><ele>101.4</ele><time>2026-04-12T09:10:30Z</time></trkpt><trkpt lat="43.380405520447745" lon="6.655607309234615"><ele>103.60000000000001</ele><time>2026-04-12T09:10:31Z</time></trkpt><trkpt lat="43.38033408703412" lon="6.655665167481231"><ele>105.80000000000001</ele><time>2026-04-12T09:10:32Z</time></trkpt><trkpt lat="43.38025788241492" lon="6.655720891622894"><ele>108.0</ele><time>2026-04-12T09:10:33Z</time></trkpt><trkpt lat="43.38016918556006" lon="6.655756466687132"><ele>108.0</ele><time>2026-04-12T09:10:34Z</time></trkpt><trkpt lat="43.380098811855795" lon="6.6557630499169385"><ele>108.0</ele><time>2026-04-12T09:10:35Z</time></trkpt><trkpt lat="43.380024071492265" lon="6.65574103604607"><ele>108.0</ele><time>2026-04-12T09:10:36Z</time></trkpt><trkpt lat="43.37995886614826" lon="6.655694601164786"><ele>108.0</ele><time>2026-04-12T09:10:37Z</time></trkpt><trkpt lat="43.37989878212505" lon="6.655631496451571"><ele>108.0</ele><time>2026-04-12T09:10:38Z</time></trkpt><trkpt lat="43.37982822678927" lon="6.655556390315213"><ele>108.0</ele><time>2026-04-12T09:10:39Z</time></trkpt><trkpt lat="43.3797531291754" lon="6.6554748127964"><ele>108.80000000000001</ele><time>2026-04-12T09:10:40Z</time></trkpt><trkpt lat="43.379665931306675" lon="6.655400444102978"><ele>109.60000000000001</ele><time>2026-04-12T09:10:41Z</time></trkpt><trkpt lat="43.379573499556365" lon="6.655374230320964"><ele>110.39999999999999</ele><time>2026-04-12T09:10:42Z</time></trkpt><trkpt lat="43.37949398620681" lon="6.655389038389803"><ele>111.19999999999999</ele><time>2026-04-12T09:10:43Z</time></trkpt><trkpt lat="43.37939449592881" lon="6.655430637397624"><ele>112.0</ele><time>2026-04-12T09:10:44Z</time></trkpt><trkpt lat="43.37930050122941" lon="6.655457396009326"><ele>112.0</ele><time>2026-04-12T09:10:45Z</time></trkpt><trkpt lat="43.37922547465894" lon="6.655487350608825"><ele>111.99999999999999</ele><time>2026-04-12T09:10:46Z</time></trkpt><trkpt lat="43.379168308425605" lon="6.6555258074989965"><ele>111.99999999999999</ele><time>2026-04-12T09:10:47Z</time></trkpt><trkpt lat="43.37908212741403" lon="6.655632257339517"><ele>112.0</ele><time>2026-04-12T09:10:49Z</time></trkpt><trkpt lat="43.37901983772588" lon="6.655800917678806"><ele>112.0</ele><time>2026-04-12T09:10:51Z</time></trkpt><trkpt lat="43.37896916414831" lon="6.655896732936413"><ele>112.00000000000001</ele><time>2026-04-12T09:10:53Z</time></trkpt><trkpt lat="43.37888183125675" lon="6.65594101185095"><ele>112.0</ele><time>2026-04-12T09:10:55Z</time></trkpt><trkpt lat="43.37877524176652" lon="6.656001355356929"><ele>112.0</ele><time>2026-04-12T09:10:57Z</time></trkpt><trkpt lat="43.378705860062624" lon="6.656058352562108"><ele>112.0</ele><time>2026-04-12T09:10:59Z</time></trkpt><trkpt lat="43.37864042301194" lon="6.656093315315373"><ele>112.00000000000001</ele><time>2026-04-12T09:11:01Z</time></trkpt><trkpt lat="43.378574428620446" lon="6.656143460230086"><ele>112.0</ele><time>2026-04-12T09:11:02.001Z</time></trkpt><trkpt lat="43.37848439349766" lon="6.656227062932644"><ele>109.50000000000001</ele><time>2026-04-12T09:11:04.001Z</time></trkpt><trkpt lat="43.37845649613813" lon="6.656330515012057"><ele>107.0</ele><time>2026-04-12T09:11:05.001Z</time></trkpt><trkpt lat="43.378441254969474" lon="6.65643234189481"><ele>104.5</ele><time>2026-04-12T09:11:06.001Z</time></trkpt><trkpt lat="43.37842422591304" lon="6.656547889646167"><ele>102.0</ele><time>2026-04-12T09:11:07.001Z</time></trkpt><trkpt lat="43.378412281372256" lon="6.656659315333463"><ele>99.50000000000001</ele><time>2026-04-12T09:11:08.001Z</time></trkpt><trkpt lat="43.37841109354759" lon="6.656777680735715"><ele>97.0</ele><time>2026-04-12T09:11:09.001Z</time></trkpt><trkpt lat="43.378404447079" lon="6.6569375010160945"><ele>95.19999999999999</ele><time>2026-04-12T09:11:11.001Z</time></trkpt><trkpt lat="43.378386542226224" lon="6.657032279153892"><ele>93.4</ele><time>2026-04-12T09:11:12.001Z</time></trkpt><trkpt lat="43.37834502591769" lon="6.657181211840903"><ele>91.6</ele><time>2026-04-12T09:11:14.001Z</time></trkpt><trkpt lat="43.37831938461304" lon="6.657342694874058"><ele>89.80000000000001</ele><time>2026-04-12T09:11:16.001Z</time></trkpt><trkpt lat="43.378315619375215" lon="6.657507928245139"><ele>88.0</ele><time>2026-04-12T09:11:18.001Z</time></trkpt><trkpt lat="43.37830813396311" lon="6.657603056184997"><ele>88.0</ele><time>2026-04-12T09:11:19.001Z</time></trkpt><trkpt lat="43.378307814791484" lon="6.6577129907362576"><ele>88.0</ele><time>2026-04-12T09:11:21.001Z</time></trkpt><trkpt lat="43.378288921843975" lon="6.657848955076382"><ele>88.0</ele><time>2026-04-12T09:11:23.001Z</time></trkpt><trkpt lat="43.37826993704238" lon="6.658018275867087"><ele>88.0</ele><time>2026-04-12T09:11:25.001Z</time></trkpt><trkpt lat="43.37823439762274" lon="6.658141776010201"><ele>88.0</ele><time>2026-04-12T09:11:27.001Z</time></trkpt><trkpt lat="43.378206322453195" lon="6.65825126833427"><ele>88.4</ele><time>2026-04-12T09:11:29.001Z</time></trkpt><trkpt lat="43.37814119785918" lon="6.6582694433112035"><ele>88.80000000000001</ele><time>2026-04-12T09:11:31.001Z</time></trkpt><trkpt lat="43.37806161025722" lon="6.65823002585454"><ele>89.2</ele><time>2026-04-12T09:11:33.001Z</time></trkpt><trkpt lat="43.37801643904568" lon="6.658298968894762"><ele>89.6</ele><time>2026-04-12T09:11:36.001Z</time></trkpt><trkpt lat="43.37808885254958" lon="6.658356767434517"><ele>90.0</ele><time>2026-04-12T09:11:43.001Z</time></trkpt><trkpt lat="43.37819684096319" lon="6.658509216119452"><ele>88.8</ele><time>2026-04-12T09:11:45.001Z</time></trkpt><trkpt lat="43.37825661081274" lon="6.65858677968605"><ele>87.6</ele><time>2026-04-12T09:11:46.001Z</time></trkpt><trkpt lat="43.37832848363801" lon="6.658661675698061"><ele>86.4</ele><time>2026-04-12T09:11:47.001Z</time></trkpt><trkpt lat="43.37841182412267" lon="6.658760150632706"><ele>85.2</ele><time>2026-04-12T09:11:48.001Z</time></trkpt><trkpt lat="43.37847750557971" lon="6.658859753599285"><ele>84.0</ele><time>2026-04-12T09:11:49.001Z</time></trkpt><trkpt lat="43.3785243843168" lon="6.6589385935690615"><ele>84.0</ele><time>2026-04-12T09:11:50.001Z</time></trkpt><trkpt lat="43.37860007846259" lon="6.659055244692381"><ele>84.0</ele><time>2026-04-12T09:11:52.001Z</time></trkpt><trkpt lat="43.37865194502857" lon="6.659163650098172"><ele>84.0</ele><time>2026-04-12T09:11:54.001Z</time></trkpt><trkpt lat="43.37869878347479" lon="6.659310177829737"><ele>84.0</ele><time>2026-04-12T09:11:56.001Z</time></trkpt><trkpt lat="43.37867920216856" lon="6.659510553160286"><ele>84.5</ele><time>2026-04-12T09:11:57.999Z</time></trkpt><trkpt lat="43.37869027049163" lon="6.659615395971211"><ele>85.0</ele><time>2026-04-12T09:11:59Z</time></trkpt><trkpt lat="43.37867084574526" lon="6.6597493860561645"><ele>85.5</ele><time>2026-04-12T09:12:00Z</time></trkpt><trkpt lat="43.37865963811905" lon="6.659857659853995"><ele>86.0</ele><time>2026-04-12T09:12:01Z</time></trkpt><trkpt lat="43.37864258988685" lon="6.659966171699976"><ele>86.5</ele><time>2026-04-12T09:12:02Z</time></trkpt><trkpt lat="43.378617364619416" lon="6.660064099337992"><ele>87.0</ele><time>2026-04-12T09:12:03Z</time></trkpt><trkpt lat="43.3785921971334" lon="6.660147402103535"><ele>86.0</ele><time>2026-04-12T09:12:04Z</time></trkpt><trkpt lat="43.37859321899624" lon="6.660284843020317"><ele>85.0</ele><time>2026-04-12T09:12:06Z</time></trkpt><trkpt lat="43.37855381696818" lon="6.660376445881404"><ele>84.0</ele><time>2026-04-12T09:12:08Z</time></trkpt><trkpt lat="43.37849468061051" lon="6.660451534589827"><ele>83.0</ele><time>2026-04-12T09:12:10Z</time></trkpt><trkpt lat="43.378392235129844" lon="6.660552130690557"><ele>82.0</ele><time>2026-04-12T09:12:12Z</time></trkpt><trkpt lat="43.378330779927666" lon="6.660607260750834"><ele>82.0</ele><time>2026-04-12T09:12:13Z</time></trkpt><trkpt lat="43.3782714261169" lon="6.660655666477166"><ele>82.0</ele><time>2026-04-12T09:12:14Z</time></trkpt><trkpt lat="43.37820456653608" lon="6.6606597219234915"><ele>82.0</ele><time>2026-04-12T09:12:15Z</time></trkpt><trkpt lat="43.378085931260166" lon="6.6606719750501915"><ele>82.0</ele><time>2026-04-12T09:12:17Z</time></trkpt><trkpt lat="43.378020724728025" lon="6.660711470646889"><ele>82.0</ele><time>2026-04-12T09:12:18Z</time></trkpt><trkpt lat="43.3779613907072" lon="6.660756601160886"><ele>82.0</ele><time>2026-04-12T09:12:19Z</time></trkpt><trkpt lat="43.37790002457619" lon="6.6608418203872555"><ele>82.39999999999999</ele><time>2026-04-12T09:12:21Z</time></trkpt><trkpt lat="43.377807969099656" lon="6.660979075808453"><ele>82.8</ele><time>2026-04-12T09:12:23Z</time></trkpt><trkpt lat="43.377732307973076" lon="6.6610470649728635"><ele>83.2</ele><time>2026-04-12T09:12:24Z</time></trkpt><trkpt lat="43.37766044774187" lon="6.661134781750579"><ele>83.6</ele><time>2026-04-12T09:12:25Z</time></trkpt><trkpt lat="43.37759320930352" lon="6.6612137532621665"><ele>84.0</ele><time>2026-04-12T09:12:26Z</time></trkpt><trkpt lat="43.37753537482448" lon="6.661258636050748"><ele>81.60000000000001</ele><time>2026-04-12T09:12:27Z</time></trkpt><trkpt lat="43.37745843700731" lon="6.6612622635370355"><ele>79.2</ele><time>2026-04-12T09:12:29Z</time></trkpt><trkpt lat="43.37734854931275" lon="6.661284838095085"><ele>76.80000000000001</ele><time>2026-04-12T09:12:31Z</time></trkpt><trkpt lat="43.37730377286141" lon="6.661400726223381"><ele>74.4</ele><time>2026-04-12T09:12:33Z</time></trkpt><trkpt lat="43.377301358839716" lon="6.661503072197552"><ele>72.0</ele><time>2026-04-12T09:12:34Z</time></trkpt><trkpt lat="43.377354123123375" lon="6.6616206214696145"><ele>72.0</ele><time>2026-04-12T09:12:36Z</time></trkpt><trkpt lat="43.37740375202268" lon="6.661677301137774"><ele>72.0</ele><time>2026-04-12T09:12:37Z</time></trkpt><trkpt lat="43.377473868028645" lon="6.661812310177664"><ele>72.0</ele><time>2026-04-12T09:12:39Z</time></trkpt><trkpt lat="43.37752273121964" lon="6.661938443292085"><ele>72.0</ele><time>2026-04-12T09:12:41Z</time></trkpt><trkpt lat="43.377451952170645" lon="6.661949484333494"><ele>72.0</ele><time>2026-04-12T09:12:43Z</time></trkpt><trkpt lat="43.37737741329974" lon="6.662052049848344"><ele>71.66666666666667</ele><time>2026-04-12T09:12:45Z</time></trkpt><trkpt lat="43.37732756641807" lon="6.662113647184504"><ele>71.33333333333333</ele><time>2026-04-12T09:12:47Z</time></trkpt><trkpt lat="43.377368571872964" lon="6.66220296612571"><ele>71.0</ele><time>2026-04-12T09:12:49Z</time></trkpt><trkpt lat="43.377417436666306" lon="6.662260537896827"><ele>70.66666666666666</ele><time>2026-04-12T09:12:50Z</time></trkpt><trkpt lat="43.37748455477117" lon="6.662342330346153"><ele>70.33333333333333</ele><time>2026-04-12T09:12:51Z</time></trkpt><trkpt lat="43.377534176087494" lon="6.6624243381313395"><ele>70.0</ele><time>2026-04-12T09:12:52Z</time></trkpt><trkpt lat="43.37759807313558" lon="6.662487463123672"><ele>70.0</ele><time>2026-04-12T09:12:54Z</time></trkpt><trkpt lat="43.3776126005555" lon="6.662580487917342"><ele>70.0</ele><time>2026-04-12T09:12:57Z</time></trkpt><trkpt lat="43.377740066166815" lon="6.662572461928912"><ele>70.0</ele><time>2026-04-12T09:12:59.001Z</time></trkpt><trkpt lat="43.37784082567747" lon="6.6626125746524725"><ele>70.0</ele><time>2026-04-12T09:13:00.001Z</time></trkpt><trkpt lat="43.37793126400372" lon="6.662673913286601"><ele>70.0</ele><time>2026-04-12T09:13:01.001Z</time></trkpt><trkpt lat="43.378030203114534" lon="6.662769993189065"><ele>69.6</ele><time>2026-04-12T09:13:02.001Z</time></trkpt><trkpt lat="43.37812577132786" lon="6.662837245795996"><ele>69.2</ele><time>2026-04-12T09:13:03.001Z</time></trkpt><trkpt lat="43.37823867842914" lon="6.662863297853543"><ele>68.8</ele><time>2026-04-12T09:13:04.001Z</time></trkpt><trkpt lat="43.37833001173451" lon="6.662947494238701"><ele>68.4</ele><time>2026-04-12T09:13:05.001Z</time></trkpt><trkpt lat="43.37839307525035" lon="6.6630282488579695"><ele>68.0</ele><time>2026-04-12T09:13:06.001Z</time></trkpt><trkpt lat="43.37847122912031" lon="6.6630996900876935"><ele>68.0</ele><time>2026-04-12T09:13:07.001Z</time></trkpt><trkpt lat="43.37854839469874" lon="6.66319385413613"><ele>68.0</ele><time>2026-04-12T09:13:08.001Z</time></trkpt><trkpt lat="43.37863960307981" lon="6.6632215385385924"><ele>68.0</ele><time>2026-04-12T09:13:11.001Z</time></trkpt><trkpt lat="43.37869514768585" lon="6.6631600491670175"><ele>68.0</ele><time>2026-04-12T09:13:12.001Z</time></trkpt><trkpt lat="43.37876325783002" lon="6.663094941654257"><ele>68.0</ele><time>2026-04-12T09:13:13.001Z</time></trkpt><trkpt lat="43.37885262282057" lon="6.663018322156783"><ele>68.0</ele><time>2026-04-12T09:13:14.001Z</time></trkpt><trkpt lat="43.37892752327174" lon="6.66295777163883"><ele>68.0</ele><time>2026-04-12T09:13:15.001Z</time></trkpt><trkpt lat="43.37903023953751" lon="6.6629592972524385"><ele>68.0</ele><time>2026-04-12T09:13:17.001Z</time></trkpt><trkpt lat="43.37910139375306" lon="6.663119151700026"><ele>68.0</ele><time>2026-04-12T09:13:19.001Z</time></trkpt><trkpt lat="43.3791126999709" lon="6.663232074816642"><ele>68.0</ele><time>2026-04-12T09:13:20.001Z</time></trkpt><trkpt lat="43.37910130670011" lon="6.663357233755239"><ele>68.0</ele><time>2026-04-12T09:13:21.001Z</time></trkpt><trkpt lat="43.37907787414358" lon="6.663492038222621"><ele>68.0</ele><time>2026-04-12T09:13:22.001Z</time></trkpt><trkpt lat="43.379057499081235" lon="6.663614609129877"><ele>68.0</ele><time>2026-04-12T09:13:23.001Z</time></trkpt><trkpt lat="43.37905915004726" lon="6.66374690693873"><ele>68.0</ele><time>2026-04-12T09:13:24.001Z</time></trkpt><trkpt lat="43.37906163224815" lon="6.663857306412976"><ele>68.0</ele><time>2026-04-12T09:13:25.001Z</time></trkpt><trkpt lat="43.37907592599418" lon="6.663959292084778"><ele>68.0</ele><time>2026-04-12T09:13:26.001Z</time></trkpt><trkpt lat="43.379119100219874" lon="6.664073241919018"><ele>71.0</ele><time>2026-04-12T09:13:27.001Z</time></trkpt><trkpt lat="43.37918296359182" lon="6.664208251819058"><ele>74.0</ele><time>2026-04-12T09:13:28.001Z</time></trkpt><trkpt lat="43.379239375659054" lon="6.66434839835743"><ele>77.0</ele><time>2026-04-12T09:13:29.001Z</time></trkpt><trkpt lat="43.37930659091947" lon="6.664484827584786"><ele>80.0</ele><time>2026-04-12T09:13:30.001Z</time></trkpt><trkpt lat="43.37939927593211" lon="6.664562830340604"><ele>79.66666666666667</ele><time>2026-04-12T09:13:31.001Z</time></trkpt><trkpt lat="43.37949183831321" lon="6.6646025666347"><ele>79.33333333333334</ele><time>2026-04-12T09:13:32.001Z</time></trkpt><trkpt lat="43.379557197676256" lon="6.664594509961655"><ele>79.0</ele><time>2026-04-12T09:13:33.001Z</time></trkpt><trkpt lat="43.37962987203647" lon="6.664531142313179"><ele>78.66666666666667</ele><time>2026-04-12T09:13:34.001Z</time></trkpt><trkpt lat="43.37969428835558" lon="6.664435179364842"><ele>78.33333333333333</ele><time>2026-04-12T09:13:35.001Z</time></trkpt><trkpt lat="43.37972564951994" lon="6.664325223412039"><ele>78.0</ele><time>2026-04-12T09:13:36.001Z</time></trkpt><trkpt lat="43.3797661189177" lon="6.664248537065792"><ele>78.0</ele><time>2026-04-12T09:13:37.001Z</time></trkpt><trkpt lat="43.379873336694374" lon="6.664283341708709"><ele>78.0</ele><time>2026-04-12T09:13:39.001Z</time></trkpt><trkpt lat="43.37993774355227" lon="6.664351609716368"><ele>78.0</ele><time>2026-04-12T09:13:40.001Z</time></trkpt><trkpt lat="43.37999301429828" lon="6.664459689189691"><ele>78.0</ele><time>2026-04-12T09:13:41.001Z</time></trkpt><trkpt lat="43.38001998361023" lon="6.664596786031197"><ele>78.0</ele><time>2026-04-12T09:13:42.001Z</time></trkpt><trkpt lat="43.38004406012559" lon="6.66473285057035"><ele>79.2</ele><time>2026-04-12T09:13:43.001Z</time></trkpt><trkpt lat="43.38004061938161" lon="6.664870352593067"><ele>80.4</ele><time>2026-04-12T09:13:44.001Z</time></trkpt><trkpt lat="43.380015557533895" lon="6.664996867900484"><ele>81.60000000000001</ele><time>2026-04-12T09:13:45.001Z</time></trkpt><trkpt lat="43.3799714713136" lon="6.665098845256675"><ele>82.8</ele><time>2026-04-12T09:13:46.001Z</time></trkpt><trkpt lat="43.37992374812183" lon="6.665222924656191"><ele>84.0</ele><time>2026-04-12T09:13:47.001Z</time></trkpt><trkpt lat="43.37992176091396" lon="6.665350078656063"><ele>86.2</ele><time>2026-04-12T09:13:48.001Z</time></trkpt><trkpt lat="43.379969949208395" lon="6.665473221756272"><ele>88.4</ele><time>2026-04-12T09:13:49.001Z</time></trkpt><trkpt lat="43.380032678454214" lon="6.665588897912269"><ele>90.6</ele><time>2026-04-12T09:13:50.001Z</time></trkpt><trkpt lat="43.38005847943746" lon="6.6657015338189325"><ele>92.8</ele><time>2026-04-12T09:13:51.001Z</time></trkpt><trkpt lat="43.38006148082371" lon="6.665829656153433"><ele>95.0</ele><time>2026-04-12T09:13:52.001Z</time></trkpt><trkpt lat="43.38005696532217" lon="6.6659875199771905"><ele>95.75</ele><time>2026-04-12T09:13:53.001Z</time></trkpt><trkpt lat="43.380041449098094" lon="6.666130244705449"><ele>96.5</ele><time>2026-04-12T09:13:54.001Z</time></trkpt><trkpt lat="43.37999005612964" lon="6.666281577592372"><ele>97.25</ele><time>2026-04-12T09:13:55.001Z</time></trkpt><trkpt lat="43.37996732302278" lon="6.666478050131329"><ele>98.0</ele><time>2026-04-12T09:13:56.001Z</time></trkpt><trkpt lat="43.379944481324145" lon="6.6666521667291905"><ele>97.99999999999999</ele><time>2026-04-12T09:13:57.001Z</time></trkpt><trkpt lat="43.37990451559875" lon="6.666780648713665"><ele>98.0</ele><time>2026-04-12T09:13:58.001Z</time></trkpt><trkpt lat="43.37982494930988" lon="6.666891327609416"><ele>98.0</ele><time>2026-04-12T09:13:59.001Z</time></trkpt><trkpt lat="43.379763969828325" lon="6.666946077508651"><ele>98.0</ele><time>2026-04-12T09:14:00.001Z</time></trkpt><trkpt lat="43.3796964563315" lon="6.6669513226737065"><ele>97.99999999999999</ele><time>2026-04-12T09:14:01.001Z</time></trkpt><trkpt lat="43.37961330269881" lon="6.666926075960946"><ele>98.0</ele><time>2026-04-12T09:14:02.001Z</time></trkpt><trkpt lat="43.379521936409304" lon="6.666896990846157"><ele>100.49999999999999</ele><time>2026-04-12T09:14:03Z</time></trkpt><trkpt lat="43.37943583180944" lon="6.666879886821687"><ele>103.0</ele><time>2026-04-12T09:14:04Z</time></trkpt><trkpt lat="43.37935580611375" lon="6.66685192949256"><ele>105.5</ele><time>2026-04-12T09:14:05Z</time></trkpt><trkpt lat="43.37930086415562" lon="6.666740997839786"><ele>108.0</ele><time>2026-04-12T09:14:07Z</time></trkpt><trkpt lat="43.379245950546014" lon="6.666630326496803"><ele>110.49999999999999</ele><time>2026-04-12T09:14:09Z</time></trkpt><trkpt lat="43.37921605598973" lon="6.6665470664129"><ele>113.0</ele><time>2026-04-12T09:14:10Z</time></trkpt><trkpt lat="43.379197969604384" lon="6.666443567858049"><ele>112.99999999999999</ele><time>2026-04-12T09:14:11Z</time></trkpt><trkpt lat="43.37916323397362" lon="6.66635462951734"><ele>113.0</ele><time>2026-04-12T09:14:12Z</time></trkpt><trkpt lat="43.37910214352853" lon="6.666269807731598"><ele>113.0</ele><time>2026-04-12T09:14:13Z</time></trkpt><trkpt lat="43.37903027096623" lon="6.6662042454778865"><ele>113.0</ele><time>2026-04-12T09:14:14Z</time></trkpt><trkpt lat="43.378966643325484" lon="6.6662039015403955"><ele>112.99999999999999</ele><time>2026-04-12T09:14:15Z</time></trkpt><trkpt lat="43.378918819640745" lon="6.6662998578026125"><ele>113.0</ele><time>2026-04-12T09:14:19Z</time></trkpt><trkpt lat="43.37870539709505" lon="6.666911218272224"><ele>114.75</ele><time>2026-04-12T09:14:22Z</time></trkpt><trkpt lat="43.37865466597403" lon="6.667102524226013"><ele>116.5</ele><time>2026-04-12T09:14:23Z</time></trkpt><trkpt lat="43.37864881730162" lon="6.66727002262874"><ele>118.25</ele><time>2026-04-12T09:14:24Z</time></trkpt><trkpt lat="43.378617977293274" lon="6.667429989741075"><ele>120.0</ele><time>2026-04-12T09:14:25Z</time></trkpt><trkpt lat="43.37858412882987" lon="6.667618011618899"><ele>120.0</ele><time>2026-04-12T09:14:26Z</time></trkpt><trkpt lat="43.378577974555334" lon="6.667764303760228"><ele>120.0</ele><time>2026-04-12T09:14:27Z</time></trkpt><trkpt lat="43.378643719724536" lon="6.667854326816611"><ele>120.0</ele><time>2026-04-12T09:14:28Z</time></trkpt><trkpt lat="43.37875223377214" lon="6.667989592991214"><ele>120.0</ele><time>2026-04-12T09:14:29Z</time></trkpt><trkpt lat="43.37882768132649" lon="6.668181061276302"><ele>120.25</ele><time>2026-04-12T09:14:30Z</time></trkpt><trkpt lat="43.378960221662595" lon="6.6683231164608845"><ele>120.5</ele><time>2026-04-12T09:14:31Z</time></trkpt><trkpt lat="43.37905293340339" lon="6.668430958212514"><ele>120.75</ele><time>2026-04-12T09:14:32Z</time></trkpt><trkpt lat="43.379186972798685" lon="6.668531861295145"><ele>121.0</ele><time>2026-04-12T09:14:33Z</time></trkpt><trkpt lat="43.37933721699024" lon="6.668664893913221"><ele>123.5</ele><time>2026-04-12T09:14:34Z</time></trkpt><trkpt lat="43.37945891304481" lon="6.66878454588933"><ele>126.0</ele><time>2026-04-12T09:14:35Z</time></trkpt><trkpt lat="43.37953428860374" lon="6.668894593873262"><ele>128.5</ele><time>2026-04-12T09:14:36Z</time></trkpt><trkpt lat="43.379536173255936" lon="6.669024960193758"><ele>131.0</ele><time>2026-04-12T09:14:37Z</time></trkpt><trkpt lat="43.379556292083166" lon="6.669155627786837"><ele>131.0</ele><time>2026-04-12T09:14:38Z</time></trkpt><trkpt lat="43.379539950711354" lon="6.6693270158065845"><ele>131.0</ele><time>2026-04-12T09:14:39Z</time></trkpt><trkpt lat="43.379566919903176" lon="6.669456278267682"><ele>131.0</ele><time>2026-04-12T09:14:40Z</time></trkpt><trkpt lat="43.37952241975912" lon="6.669642681557897"><ele>131.0</ele><time>2026-04-12T09:14:41Z</time></trkpt><trkpt lat="43.3794833984096" lon="6.669802075660663"><ele>133.25</ele><time>2026-04-12T09:14:42Z</time></trkpt><trkpt lat="43.379502581293394" lon="6.6699133368780155"><ele>135.5</ele><time>2026-04-12T09:14:43Z</time></trkpt><trkpt lat="43.379550192720814" lon="6.670008761896369"><ele>137.75</ele><time>2026-04-12T09:14:44Z</time></trkpt><trkpt lat="43.37964638627775" lon="6.670091564837486"><ele>140.0</ele><time>2026-04-12T09:14:45Z</time></trkpt><trkpt lat="43.37978761954044" lon="6.67022735184402"><ele>135.33333333333331</ele><time>2026-04-12T09:14:46Z</time></trkpt><trkpt lat="43.37993266878116" lon="6.67038178054028"><ele>130.66666666666666</ele><time>2026-04-12T09:14:47.001Z</time></trkpt><trkpt lat="43.380068989415484" lon="6.670498898347704"><ele>126.0</ele><time>2026-04-12T09:14:48.001Z</time></trkpt><trkpt lat="43.38015386309207" lon="6.67060666579263"><ele>126.0</ele><time>2026-04-12T09:14:49.001Z</time></trkpt><trkpt lat="43.38019521320173" lon="6.67069401168443"><ele>126.0</ele><time>2026-04-12T09:14:50.001Z</time></trkpt><trkpt lat="43.380234915023294" lon="6.670840245373335"><ele>126.0</ele><time>2026-04-12T09:14:51.001Z</time></trkpt><trkpt lat="43.38026394905712" lon="6.670969655935925"><ele>126.0</ele><time>2026-04-12T09:14:52.001Z</time></trkpt><trkpt lat="43.380359063679286" lon="6.6710348554478704"><ele>126.0</ele><time>2026-04-12T09:14:54.001Z</time></trkpt><trkpt lat="43.38046950351207" lon="6.671008431132716"><ele>124.75</ele><time>2026-04-12T09:14:55.001Z</time></trkpt><trkpt lat="43.380591476494395" lon="6.670992576106469"><ele>123.5</ele><time>2026-04-12T09:14:56.001Z</time></trkpt><trkpt lat="43.38071026744804" lon="6.670944429706223"><ele>122.25</ele><time>2026-04-12T09:14:57.001Z</time></trkpt><trkpt lat="43.380825780230204" lon="6.670817768626691"><ele>121.0</ele><time>2026-04-12T09:14:58.001Z</time></trkpt><trkpt lat="43.38095748802757" lon="6.670670374200927"><ele>121.0</ele><time>2026-04-12T09:14:59.001Z</time></trkpt><trkpt lat="43.38108399886335" lon="6.670559937286958"><ele>121.0</ele><time>2026-04-12T09:15:00.001Z</time></trkpt><trkpt lat="43.38118674746478" lon="6.670467432002013"><ele>121.0</ele><time>2026-04-12T09:15:01.001Z</time></trkpt><trkpt lat="43.38128196763412" lon="6.670401549068384"><ele>121.0</ele><time>2026-04-12T09:15:02.001Z</time></trkpt><trkpt lat="43.38136270969914" lon="6.670332253351458"><ele>121.50000000000001</ele><time>2026-04-12T09:15:03.001Z</time></trkpt><trkpt lat="43.38143735289569" lon="6.6702896975409125"><ele>122.0</ele><time>2026-04-12T09:15:04.001Z</time></trkpt><trkpt lat="43.38151275277102" lon="6.670269001286181"><ele>122.5</ele><time>2026-04-12T09:15:05.001Z</time></trkpt><trkpt lat="43.381592300593624" lon="6.670284177941022"><ele>123.0</ele><time>2026-04-12T09:15:06.001Z</time></trkpt><trkpt lat="43.38168804638735" lon="6.670292795932864"><ele>123.50000000000001</ele><time>2026-04-12T09:15:07.001Z</time></trkpt><trkpt lat="43.38174535879228" lon="6.6703411900678855"><ele>124.0</ele><time>2026-04-12T09:15:08.001Z</time></trkpt><trkpt lat="43.381862178971076" lon="6.670317783735747"><ele>122.6</ele><time>2026-04-12T09:15:09.001Z</time></trkpt><trkpt lat="43.38197750462987" lon="6.670296355344868"><ele>121.2</ele><time>2026-04-12T09:15:10.001Z</time></trkpt><trkpt lat="43.38208022788448" lon="6.670347134420948"><ele>119.79999999999998</ele><time>2026-04-12T09:15:11.001Z</time></trkpt><trkpt lat="43.38218047736213" lon="6.670413749300456"><ele>118.39999999999999</ele><time>2026-04-12T09:15:12.001Z</time></trkpt><trkpt lat="43.38227621954952" lon="6.670459415797255"><ele>117.0</ele><time>2026-04-12T09:15:13.001Z</time></trkpt><trkpt lat="43.38236579354334" lon="6.670492132426601"><ele>117.0</ele><time>2026-04-12T09:15:14.001Z</time></trkpt><trkpt lat="43.38245267281229" lon="6.6705497164325305"><ele>117.0</ele><time>2026-04-12T09:15:15.001Z</time></trkpt><trkpt lat="43.38252092268994" lon="6.67063406184359"><ele>117.0</ele><time>2026-04-12T09:15:16.001Z</time></trkpt><trkpt lat="43.38256373683057" lon="6.670719292823248"><ele>117.0</ele><time>2026-04-12T09:15:17.001Z</time></trkpt><trkpt lat="43.38256925528046" lon="6.670809630263706"><ele>117.0</ele><time>2026-04-12T09:15:20.001Z</time></trkpt><trkpt lat="43.38260738421089" lon="6.6708884228001315"><ele>117.0</ele><time>2026-04-12T09:15:23.001Z</time></trkpt><trkpt lat="43.382652901004214" lon="6.6710180242265515"><ele>116.66666666666667</ele><time>2026-04-12T09:15:26.001Z</time></trkpt><trkpt lat="43.38270139646294" lon="6.671113294859543"><ele>116.33333333333334</ele><time>2026-04-12T09:15:27.001Z</time></trkpt><trkpt lat="43.38275598684943" lon="6.671215056923579"><ele>116.0</ele><time>2026-04-12T09:15:28.001Z</time></trkpt><trkpt lat="43.382793578223826" lon="6.67131810147125"><ele>115.66666666666667</ele><time>2026-04-12T09:15:29.001Z</time></trkpt><trkpt lat="43.38280027311755" lon="6.6714325104187155"><ele>115.33333333333334</ele><time>2026-04-12T09:15:30.001Z</time></trkpt><trkpt lat="43.38278612564608" lon="6.671538610873049"><ele>115.0</ele><time>2026-04-12T09:15:31.001Z</time></trkpt><trkpt lat="43.38277546745979" lon="6.6716305277129955"><ele>115.0</ele><time>2026-04-12T09:15:32.001Z</time></trkpt><trkpt lat="43.38268377440704" lon="6.671735414648161"><ele>115.0</ele><time>2026-04-12T09:15:34.001Z</time></trkpt><trkpt lat="43.3826149276569" lon="6.671767554623651"><ele>115.0</ele><time>2026-04-12T09:15:35.001Z</time></trkpt><trkpt lat="43.382564201762676" lon="6.67184156782425"><ele>115.0</ele><time>2026-04-12T09:15:37.001Z</time></trkpt><trkpt lat="43.38251782032576" lon="6.671956567005296"><ele>115.0</ele><time>2026-04-12T09:15:39.001Z</time></trkpt><trkpt lat="43.38245830309044" lon="6.672046023026816"><ele>114.28571428571426</ele><time>2026-04-12T09:15:41.001Z</time></trkpt><trkpt lat="43.38244296326098" lon="6.672138759032887"><ele>113.57142857142857</ele><time>2026-04-12T09:15:42.001Z</time></trkpt><trkpt lat="43.38241673330993" lon="6.672248483945779"><ele>112.85714285714285</ele><time>2026-04-12T09:15:43.001Z</time></trkpt><trkpt lat="43.38239861739443" lon="6.672345909117142"><ele>112.14285714285714</ele><time>2026-04-12T09:15:44.001Z</time></trkpt><trkpt lat="43.38239075764911" lon="6.672448784082771"><ele>111.42857142857142</ele><time>2026-04-12T09:15:45.001Z</time></trkpt><trkpt lat="43.382361704101875" lon="6.672536387420583"><ele>110.71428571428571</ele><time>2026-04-12T09:15:46.001Z</time></trkpt><trkpt lat="43.38230911626838" lon="6.67260712283374"><ele>110.0</ele><time>2026-04-12T09:15:47.001Z</time></trkpt><trkpt lat="43.38224512165846" lon="6.672669194707002"><ele>107.33333333333333</ele><time>2026-04-12T09:15:48.001Z</time></trkpt><trkpt lat="43.382167112641355" lon="6.672732190146803"><ele>104.66666666666666</ele><time>2026-04-12T09:15:49.001Z</time></trkpt><trkpt lat="43.382084605542715" lon="6.672763917885086"><ele>102.0</ele><time>2026-04-12T09:15:50.001Z</time></trkpt><trkpt lat="43.382029466804475" lon="6.672840384278367"><ele>99.33333333333333</ele><time>2026-04-12T09:15:51.001Z</time></trkpt><trkpt lat="43.38200442743401" lon="6.672943576934975"><ele>96.66666666666666</ele><time>2026-04-12T09:15:53.001Z</time></trkpt><trkpt lat="43.381981111851076" lon="6.673040180799423"><ele>94.0</ele><time>2026-04-12T09:15:56.001Z</time></trkpt><trkpt lat="43.381948534564984" lon="6.6731648941139845"><ele>93.2</ele><time>2026-04-12T09:15:58.002Z</time></trkpt><trkpt lat="43.381880529005194" lon="6.673258391704527"><ele>92.4</ele><time>2026-04-12T09:16:00.002Z</time></trkpt><trkpt lat="43.381831638133924" lon="6.673322816597796"><ele>91.6</ele><time>2026-04-12T09:16:03.002Z</time></trkpt><trkpt lat="43.38180981065735" lon="6.6734238054086665"><ele>90.8</ele><time>2026-04-12T09:16:05.002Z</time></trkpt><trkpt lat="43.38176780334121" lon="6.673540546828288"><ele>90.0</ele><time>2026-04-12T09:16:07.002Z</time></trkpt><trkpt lat="43.38165917470788" lon="6.673634871214332"><ele>87.6</ele><time>2026-04-12T09:16:09Z</time></trkpt><trkpt lat="43.381607097475346" lon="6.673780788038611"><ele>85.2</ele><time>2026-04-12T09:16:11Z</time></trkpt><trkpt lat="43.38158173035312" lon="6.67386803243495"><ele>82.8</ele><time>2026-04-12T09:16:12Z</time></trkpt><trkpt lat="43.38153472352971" lon="6.674002210405874"><ele>80.4</ele><time>2026-04-12T09:16:14Z</time></trkpt><trkpt lat="43.381479588091594" lon="6.67413004425621"><ele>78.0</ele><time>2026-04-12T09:16:16Z</time></trkpt><trkpt lat="43.38144841476437" lon="6.674238433794259"><ele>78.0</ele><time>2026-04-12T09:16:18Z</time></trkpt><trkpt lat="43.38135580510915" lon="6.674308178448722"><ele>78.0</ele><time>2026-04-12T09:16:20Z</time></trkpt><trkpt lat="43.38123524178678" lon="6.674364220946582"><ele>78.0</ele><time>2026-04-12T09:16:22Z</time></trkpt><trkpt lat="43.381182290466796" lon="6.674421269630183"><ele>78.0</ele><time>2026-04-12T09:16:23Z</time></trkpt><trkpt lat="43.3810785331157" lon="6.674487493525086"><ele>78.0</ele><time>2026-04-12T09:16:25Z</time></trkpt><trkpt lat="43.38097045963503" lon="6.6744803995154545"><ele>76.0</ele><time>2026-04-12T09:16:27Z</time></trkpt><trkpt lat="43.38091285584353" lon="6.674431357833752"><ele>74.0</ele><time>2026-04-12T09:16:30Z</time></trkpt><trkpt lat="43.380834970313856" lon="6.674415838430787"><ele>72.0</ele><time>2026-04-12T09:16:34Z</time></trkpt><trkpt lat="43.38077644569208" lon="6.674489960046376"><ele>70.0</ele><time>2026-04-12T09:16:38Z</time></trkpt><trkpt lat="43.38069997430089" lon="6.6745035098938"><ele>68.0</ele><time>2026-04-12T09:16:43.001Z</time></trkpt><trkpt lat="43.38064061492043" lon="6.674617373735905"><ele>66.0</ele><time>2026-04-12T09:16:45.001Z</time></trkpt><trkpt lat="43.3805972454412" lon="6.6747229935365615"><ele>63.75</ele><time>2026-04-12T09:16:48.001Z</time></trkpt><trkpt lat="43.380627643202196" lon="6.674851650221035"><ele>61.5</ele><time>2026-04-12T09:16:50.001Z</time></trkpt><trkpt lat="43.380747108882574" lon="6.674945119690549"><ele>59.25</ele><time>2026-04-12T09:17:08.001Z</time></trkpt><trkpt lat="43.38084902000903" lon="6.675021205732227"><ele>57.0</ele><time>2026-04-12T09:17:09.001Z</time></trkpt><trkpt lat="43.38096188938894" lon="6.675103475043351"><ele>57.0</ele><time>2026-04-12T09:17:10.001Z</time></trkpt><trkpt lat="43.3810990870527" lon="6.675183478653423"><ele>57.0</ele><time>2026-04-12T09:17:11.001Z</time></trkpt><trkpt lat="43.38123245426367" lon="6.675269996932199"><ele>57.0</ele><time>2026-04-12T09:17:12.001Z</time></trkpt><trkpt lat="43.38136981640683" lon="6.67535476713112"><ele>57.0</ele><time>2026-04-12T09:17:13.001Z</time></trkpt><trkpt lat="43.38150233932408" lon="6.675436304136853"><ele>55.75</ele><time>2026-04-12T09:17:14.001Z</time></trkpt><trkpt lat="43.38162766520821" lon="6.675515625518127"><ele>54.5</ele><time>2026-04-12T09:17:15.001Z</time></trkpt><trkpt lat="43.381750277707944" lon="6.67559509032021"><ele>53.25</ele><time>2026-04-12T09:17:16.001Z</time></trkpt><trkpt lat="43.38187761629562" lon="6.675678941588716"><ele>52.0</ele><time>2026-04-12T09:17:17.001Z</time></trkpt><trkpt lat="43.38199334218612" lon="6.675757522200227"><ele>52.0</ele><time>2026-04-12T09:17:18.001Z</time></trkpt><trkpt lat="43.38211400472126" lon="6.675824122723545"><ele>52.0</ele><time>2026-04-12T09:17:19.001Z</time></trkpt><trkpt lat="43.382236347949124" lon="6.675880683327611"><ele>52.0</ele><time>2026-04-12T09:17:20.001Z</time></trkpt><trkpt lat="43.38236195368617" lon="6.675938156826718"><ele>52.0</ele><time>2026-04-12T09:17:21.001Z</time></trkpt><trkpt lat="43.38249705812063" lon="6.675989163227045"><ele>52.25</ele><time>2026-04-12T09:17:22.001Z</time></trkpt><trkpt lat="43.38262959147644" lon="6.676022128299515"><ele>52.5</ele><time>2026-04-12T09:17:23.001Z</time></trkpt><trkpt lat="43.38275379847366" lon="6.676039684382017"><ele>52.75</ele><time>2026-04-12T09:17:24.001Z</time></trkpt><trkpt lat="43.38287272589423" lon="6.676048537387982"><ele>53.0</ele><time>2026-04-12T09:17:25.001Z</time></trkpt><trkpt lat="43.382987465372615" lon="6.676042480474655"><ele>53.4</ele><time>2026-04-12T09:17:26.001Z</time></trkpt><trkpt lat="43.383096764818696" lon="6.67602205440429"><ele>53.8</ele><time>2026-04-12T09:17:27.001Z</time></trkpt><trkpt lat="43.38319154466877" lon="6.676011028437743"><ele>54.2</ele><time>2026-04-12T09:17:28.001Z</time></trkpt><trkpt lat="43.3832974466277" lon="6.675992508044434"><ele>54.6</ele><time>2026-04-12T09:17:29.001Z</time></trkpt><trkpt lat="43.38340397344108" lon="6.675970783408866"><ele>55.0</ele><time>2026-04-12T09:17:30.001Z</time></trkpt><trkpt lat="43.38350802559456" lon="6.675954978202613"><ele>55.0</ele><time>2026-04-12T09:17:31.001Z</time></trkpt><trkpt lat="43.38360472931679" lon="6.675946558520007"><ele>55.0</ele><time>2026-04-12T09:17:32.001Z</time></trkpt><trkpt lat="43.38369789449112" lon="6.675951213581834"><ele>55.0</ele><time>2026-04-12T09:17:33.001Z</time></trkpt><trkpt lat="43.38380389319736" lon="6.6759769768058765"><ele>55.0</ele><time>2026-04-12T09:17:34.001Z</time></trkpt><trkpt lat="43.38390791764366" lon="6.676015944885741"><ele>55.0</ele><time>2026-04-12T09:17:35.001Z</time></trkpt><trkpt lat="43.38399362019079" lon="6.676054934404339"><ele>54.49999999999999</ele><time>2026-04-12T09:17:36.001Z</time></trkpt><trkpt lat="43.384070748460694" lon="6.6760864864906475"><ele>54.0</ele><time>2026-04-12T09:17:37.001Z</time></trkpt><trkpt lat="43.38415449641012" lon="6.676120016832813"><ele>53.5</ele><time>2026-04-12T09:17:38.001Z</time></trkpt><trkpt lat="43.38424245539376" lon="6.67614886925986"><ele>53.0</ele><time>2026-04-12T09:17:39.001Z</time></trkpt><trkpt lat="43.38432302707479" lon="6.676199121918583"><ele>52.49999999999999</ele><time>2026-04-12T09:17:40.001Z</time></trkpt><trkpt lat="43.38440885237382" lon="6.6762166819703905"><ele>52.0</ele><time>2026-04-12T09:17:41.001Z</time></trkpt><trkpt lat="43.38447940110993" lon="6.6762416431531735"><ele>51.83333333333333</ele><time>2026-04-12T09:17:42.001Z</time></trkpt><trkpt lat="43.384547925671065" lon="6.676282723422791"><ele>51.666666666666664</ele><time>2026-04-12T09:17:43.001Z</time></trkpt><trkpt lat="43.38463440058902" lon="6.676276249121078"><ele>51.5</ele><time>2026-04-12T09:17:44.001Z</time></trkpt><trkpt lat="43.38472614405598" lon="6.676271094311083"><ele>51.33333333333333</ele><time>2026-04-12T09:17:45.001Z</time></trkpt><trkpt lat="43.38482139457871" lon="6.6762548247905"><ele>51.166666666666664</ele><time>2026-04-12T09:17:46.001Z</time></trkpt><trkpt lat="43.38491988821918" lon="6.676239414364064"><ele>51.0</ele><time>2026-04-12T09:17:47.001Z</time></trkpt><trkpt lat="43.3850193219957" lon="6.676213762087449"><ele>51.0</ele><time>2026-04-12T09:17:48.001Z</time></trkpt><trkpt lat="43.38511788029849" lon="6.676191770911806"><ele>51.0</ele><time>2026-04-12T09:17:49.001Z</time></trkpt><trkpt lat="43.38521613950495" lon="6.676170586901311"><ele>51.0</ele><time>2026-04-12T09:17:50.001Z</time></trkpt><trkpt lat="43.38532552045497" lon="6.676142789465585"><ele>51.0</ele><time>2026-04-12T09:17:51.001Z</time></trkpt><trkpt lat="43.385432353032016" lon="6.676118191073619"><ele>51.0</ele><time>2026-04-12T09:17:52.001Z</time></trkpt><trkpt lat="43.38553605295429" lon="6.676103564051599"><ele>49.8</ele><time>2026-04-12T09:17:53.001Z</time></trkpt><trkpt lat="43.38564431582816" lon="6.676117093877533"><ele>48.599999999999994</ele><time>2026-04-12T09:17:54.001Z</time></trkpt><trkpt lat="43.38574864207525" lon="6.676131268600632"><ele>47.4</ele><time>2026-04-12T09:17:55.001Z</time></trkpt><trkpt lat="43.385851276962114" lon="6.676150739310965"><ele>46.2</ele><time>2026-04-12T09:17:56.001Z</time></trkpt><trkpt lat="43.38595662721311" lon="6.6761724461560945"><ele>45.0</ele><time>2026-04-12T09:17:57.001Z</time></trkpt><trkpt lat="43.38607008436726" lon="6.676189952020455"><ele>45.0</ele><time>2026-04-12T09:17:58.001Z</time></trkpt><trkpt lat="43.3861865416425" lon="6.676217291183692"><ele>45.0</ele><time>2026-04-12T09:17:59.001Z</time></trkpt><trkpt lat="43.38629316448694" lon="6.676238599209155"><ele>45.0</ele><time>2026-04-12T09:18:00.001Z</time></trkpt><trkpt lat="43.38638937186238" lon="6.67626310768309"><ele>45.0</ele><time>2026-04-12T09:18:01.001Z</time></trkpt><trkpt lat="43.38648522958124" lon="6.676277677142814"><ele>45.0</ele><time>2026-04-12T09:18:02.002Z</time></trkpt><trkpt lat="43.386585579560986" lon="6.676298085960951"><ele>44.6</ele><time>2026-04-12T09:18:03.002Z</time></trkpt><trkpt lat="43.38668478593931" lon="6.676322139846592"><ele>44.2</ele><time>2026-04-12T09:18:04.002Z</time></trkpt><trkpt lat="43.38677911325529" lon="6.676350889900174"><ele>43.8</ele><time>2026-04-12T09:18:05.002Z</time></trkpt><trkpt lat="43.386874242184426" lon="6.676391721815657"><ele>43.4</ele><time>2026-04-12T09:18:06.002Z</time></trkpt><trkpt lat="43.38695804546401" lon="6.676443080947177"><ele>43.0</ele><time>2026-04-12T09:18:07.002Z</time></trkpt><trkpt lat="43.3870400547651" lon="6.676494982013483"><ele>43.0</ele><time>2026-04-12T09:18:08.002Z</time></trkpt><trkpt lat="43.38711917653826" lon="6.676547322860454"><ele>43.0</ele><time>2026-04-12T09:18:09.002Z</time></trkpt><trkpt lat="43.38720559419705" lon="6.676602444894292"><ele>43.0</ele><time>2026-04-12T09:18:10.002Z</time></trkpt><trkpt lat="43.387272565622126" lon="6.676647058882709"><ele>43.0</ele><time>2026-04-12T09:18:11.002Z</time></trkpt><trkpt lat="43.3873370163727" lon="6.676686265343297"><ele>43.0</ele><time>2026-04-12T09:18:12.002Z</time></trkpt><trkpt lat="43.38740559463191" lon="6.676722805975107"><ele>43.0</ele><time>2026-04-12T09:18:13.002Z</time></trkpt><trkpt lat="43.38758366847095" lon="6.676797311870746"><ele>43.5</ele><time>2026-04-12T09:18:16Z</time></trkpt><trkpt lat="43.38768211792356" lon="6.676834840493559"><ele>44.0</ele><time>2026-04-12T09:18:18Z</time></trkpt><trkpt lat="43.38773672423108" lon="6.676878339561763"><ele>44.5</ele><time>2026-04-12T09:18:26Z</time></trkpt><trkpt lat="43.38778222300588" lon="6.676954803948234"><ele>45.0</ele><time>2026-04-12T09:18:37Z</time></trkpt><trkpt lat="43.38779433696193" lon="6.677069925263458"><ele>45.5</ele><time>2026-04-12T09:18:44Z</time></trkpt><trkpt lat="43.387851405424996" lon="6.677138132949406"><ele>46.0</ele><time>2026-04-12T09:18:47Z</time></trkpt><trkpt lat="43.38792958530102" lon="6.677087644790835"><ele>46.0</ele><time>2026-04-12T09:18:49Z</time></trkpt><trkpt lat="43.387981229476324" lon="6.67702424868102"><ele>46.0</ele><time>2026-04-12T09:18:51Z</time></trkpt><trkpt lat="43.38804917112653" lon="6.676987238166842"><ele>46.0</ele><time>2026-04-12T09:18:53Z</time></trkpt><trkpt lat="43.388142415194594" lon="6.67693824266808"><ele>46.0</ele><time>2026-04-12T09:18:56Z</time></trkpt><trkpt lat="43.388218878309466" lon="6.676934800241721"><ele>46.0</ele><time>2026-04-12T09:18:58.001Z</time></trkpt><trkpt lat="43.388313384940936" lon="6.676898017511039"><ele>46.0</ele><time>2026-04-12T09:19:00.001Z</time></trkpt><trkpt lat="43.388399834300344" lon="6.676938775054918"><ele>45.833333333333336</ele><time>2026-04-12T09:19:02.001Z</time></trkpt><trkpt lat="43.388475592725996" lon="6.677008065805952"><ele>45.66666666666667</ele><time>2026-04-12T09:19:04.001Z</time></trkpt><trkpt lat="43.3884535447904" lon="6.677110464161207"><ele>45.5</ele><time>2026-04-12T09:19:06.001Z</time></trkpt><trkpt lat="43.38840338045152" lon="6.677166592078719"><ele>45.333333333333336</ele><time>2026-04-12T09:19:07.001Z</time></trkpt><trkpt lat="43.38831804515036" lon="6.677255893270856"><ele>45.166666666666664</ele><time>2026-04-12T09:19:09.001Z</time></trkpt><trkpt lat="43.38823714858445" lon="6.677324077444802"><ele>45.0</ele><time>2026-04-12T09:19:12.001Z</time></trkpt><trkpt lat="43.3881861390879" lon="6.67742437758039"><ele>45.0</ele><time>2026-04-12T09:19:14.001Z</time></trkpt><trkpt lat="43.3881215726535" lon="6.6775546398689025"><ele>45.0</ele><time>2026-04-12T09:19:15.001Z</time></trkpt><trkpt lat="43.388094100804516" lon="6.677645302502118"><ele>45.0</ele><time>2026-04-12T09:19:16.001Z</time></trkpt><trkpt lat="43.38806567268161" lon="6.677739707219421"><ele>45.0</ele><time>2026-04-12T09:19:17.001Z</time></trkpt><trkpt lat="43.38799993061641" lon="6.677878267294582"><ele>45.0</ele><time>2026-04-12T09:19:19.001Z</time></trkpt><trkpt lat="43.38796677224985" lon="6.677979788925947"><ele>46.8</ele><time>2026-04-12T09:19:20.001Z</time></trkpt><trkpt lat="43.38791278550809" lon="6.678082156328385"><ele>48.6</ele><time>2026-04-12T09:19:21.001Z</time></trkpt><trkpt lat="43.3878600237572" lon="6.678163849279064"><ele>50.400000000000006</ele><time>2026-04-12T09:19:22.001Z</time></trkpt><trkpt lat="43.38780333277417" lon="6.678314263942939"><ele>52.2</ele><time>2026-04-12T09:19:24.001Z</time></trkpt><trkpt lat="43.3877413774509" lon="6.678458594461259"><ele>54.0</ele><time>2026-04-12T09:19:26.001Z</time></trkpt><trkpt lat="43.38770601548938" lon="6.678540102597725"><ele>54.857142857142854</ele><time>2026-04-12T09:19:27.001Z</time></trkpt><trkpt lat="43.38767673308884" lon="6.6786282816004094"><ele>55.71428571428571</ele><time>2026-04-12T09:19:30.001Z</time></trkpt><trkpt lat="43.38765927588774" lon="6.678754681869628"><ele>56.57142857142857</ele><time>2026-04-12T09:20:24Z</time></trkpt><trkpt lat="43.38764145483783" lon="6.678838392794718"><ele>57.42857142857143</ele><time>2026-04-12T09:20:26Z</time></trkpt><trkpt lat="43.3876151430782" lon="6.67892407580603"><ele>58.285714285714285</ele><time>2026-04-12T09:20:28Z</time></trkpt><trkpt lat="43.387585792780044" lon="6.679003872151291"><ele>59.142857142857146</ele><time>2026-04-12T09:20:32Z</time></trkpt><trkpt lat="43.38758149191" lon="6.679103043922296"><ele>60.0</ele><time>2026-04-12T09:20:34Z</time></trkpt><trkpt lat="43.38756746688816" lon="6.67921028877021"><ele>60.0</ele><time>2026-04-12T09:20:36Z</time></trkpt><trkpt lat="43.38756045584545" lon="6.679342079232424"><ele>60.0</ele><time>2026-04-12T09:20:38Z</time></trkpt><trkpt lat="43.38756939636056" lon="6.679476292636636"><ele>60.0</ele><time>2026-04-12T09:20:41Z</time></trkpt><trkpt lat="43.38753959206634" lon="6.679594423991916"><ele>60.0</ele><time>2026-04-12T09:20:43Z</time></trkpt><trkpt lat="43.38751991088424" lon="6.679705761043772"><ele>60.0</ele><time>2026-04-12T09:20:45Z</time></trkpt><trkpt lat="43.38747603158752" lon="6.679781483994688"><ele>60.0</ele><time>2026-04-12T09:20:51Z</time></trkpt><trkpt lat="43.387458763556886" lon="6.679869559086215"><ele>61.166666666666664</ele><time>2026-04-12T09:20:53Z</time></trkpt><trkpt lat="43.38744325076102" lon="6.679988573399341"><ele>62.33333333333333</ele><time>2026-04-12T09:20:55Z</time></trkpt><trkpt lat="43.38745606701624" lon="6.680086339828928"><ele>63.5</ele><time>2026-04-12T09:20:57Z</time></trkpt><trkpt lat="43.38742974321602" lon="6.680176129368938"><ele>64.66666666666666</ele><time>2026-04-12T09:20:59Z</time></trkpt><trkpt lat="43.38737643612516" lon="6.680239267476088"><ele>65.83333333333333</ele><time>2026-04-12T09:21:01Z</time></trkpt><trkpt lat="43.387307817512266" lon="6.680306642200236"><ele>67.0</ele><time>2026-04-12T09:21:03Z</time></trkpt><trkpt lat="43.38725153510926" lon="6.680395995858759"><ele>67.83333333333333</ele><time>2026-04-12T09:21:05Z</time></trkpt><trkpt lat="43.387204659830125" lon="6.680468618862384"><ele>68.66666666666666</ele><time>2026-04-12T09:21:06.001Z</time></trkpt><trkpt lat="43.38714394259659" lon="6.6805537462956055"><ele>69.5</ele><time>2026-04-12T09:21:08.001Z</time></trkpt><trkpt lat="43.38716967538615" lon="6.680676646907325"><ele>70.33333333333333</ele><time>2026-04-12T09:21:10.001Z</time></trkpt><trkpt lat="43.38714337159722" lon="6.6807770471450985"><ele>71.16666666666667</ele><time>2026-04-12T09:21:13.001Z</time></trkpt><trkpt lat="43.38716735854298" lon="6.680882669695538"><ele>72.0</ele><time>2026-04-12T09:21:15.001Z</time></trkpt><trkpt lat="43.38718426145232" lon="6.680978965355618"><ele>72.83333333333333</ele><time>2026-04-12T09:21:17.001Z</time></trkpt><trkpt lat="43.38725790113348" lon="6.6810184115457005"><ele>73.66666666666667</ele><time>2026-04-12T09:21:19.001Z</time></trkpt><trkpt lat="43.38731195664741" lon="6.681078542576105"><ele>74.5</ele><time>2026-04-12T09:21:24.001Z</time></trkpt><trkpt lat="43.387360318150066" lon="6.681209474705647"><ele>75.33333333333334</ele><time>2026-04-12T09:21:26.001Z</time></trkpt><trkpt lat="43.387399248675784" lon="6.6813356315420025"><ele>76.16666666666667</ele><time>2026-04-12T09:21:28.001Z</time></trkpt><trkpt lat="43.38742058654858" lon="6.6814422381080085"><ele>77.0</ele><time>2026-04-12T09:21:32.001Z</time></trkpt><trkpt lat="43.38742588384103" lon="6.681562272770126"><ele>78.16666666666667</ele><time>2026-04-12T09:21:36.001Z</time></trkpt><trkpt lat="43.38741396041908" lon="6.681699626547155"><ele>79.33333333333334</ele><time>2026-04-12T09:21:39.001Z</time></trkpt><trkpt lat="43.387420032206016" lon="6.681792834080027"><ele>80.5</ele><time>2026-04-12T09:21:42.001Z</time></trkpt><trkpt lat="43.38744359022432" lon="6.681873383678431"><ele>81.66666666666667</ele><time>2026-04-12T09:21:44.001Z</time></trkpt><trkpt lat="43.38747338459013" lon="6.681969329127925"><ele>82.83333333333333</ele><time>2026-04-12T09:21:47.001Z</time></trkpt><trkpt lat="43.38746553685862" lon="6.682067236495494"><ele>84.0</ele><time>2026-04-12T09:21:49.001Z</time></trkpt><trkpt lat="43.38755549559935" lon="6.682245870160567"><ele>84.80000000000001</ele><time>2026-04-12T09:21:51.001Z</time></trkpt><trkpt lat="43.38763072697465" lon="6.682370994236744"><ele>85.60000000000001</ele><time>2026-04-12T09:21:52.001Z</time></trkpt><trkpt lat="43.38770062791004" lon="6.682451658583106"><ele>86.4</ele><time>2026-04-12T09:21:53.001Z</time></trkpt><trkpt lat="43.38778113003428" lon="6.682530110442102"><ele>87.2</ele><time>2026-04-12T09:21:54.001Z</time></trkpt><trkpt lat="43.38785562618722" lon="6.682591048321012"><ele>88.0</ele><time>2026-04-12T09:21:55.001Z</time></trkpt><trkpt lat="43.387936207325815" lon="6.682665844103134"><ele>88.0</ele><time>2026-04-12T09:21:56.001Z</time></trkpt><trkpt lat="43.388002213792774" lon="6.682758359577892"><ele>88.0</ele><time>2026-04-12T09:21:57.001Z</time></trkpt><trkpt lat="43.388063896678204" lon="6.682845232563751"><ele>88.0</ele><time>2026-04-12T09:21:58.001Z</time></trkpt><trkpt lat="43.38810253641265" lon="6.682939876355595"><ele>88.0</ele><time>2026-04-12T09:21:59.001Z</time></trkpt><trkpt lat="43.38816012498115" lon="6.68302729274369"><ele>88.0</ele><time>2026-04-12T09:22:00.001Z</time></trkpt><trkpt lat="43.38819753861993" lon="6.683116559793021"><ele>88.0</ele><time>2026-04-12T09:22:01.001Z</time></trkpt><trkpt lat="43.388232952376804" lon="6.683214108400889"><ele>91.16666666666666</ele><time>2026-04-12T09:22:02.001Z</time></trkpt><trkpt lat="43.38826301302365" lon="6.683306681882715"><ele>94.33333333333333</ele><time>2026-04-12T09:22:03.001Z</time></trkpt><trkpt lat="43.388310640727816" lon="6.6833700161710805"><ele>97.5</ele><time>2026-04-12T09:22:04.001Z</time></trkpt><trkpt lat="43.38843968502089" lon="6.683441571768517"><ele>100.66666666666666</ele><time>2026-04-12T09:22:06.001Z</time></trkpt><trkpt lat="43.38851668506988" lon="6.683502226275064"><ele>103.83333333333333</ele><time>2026-04-12T09:22:07.001Z</time></trkpt><trkpt lat="43.38855130189544" lon="6.6835865727605155"><ele>107.0</ele><time>2026-04-12T09:22:08.001Z</time></trkpt><trkpt lat="43.38860211242841" lon="6.683684414130607"><ele>110.19999999999999</ele><time>2026-04-12T09:22:09.001Z</time></trkpt><trkpt lat="43.388652086762214" lon="6.683751765222934"><ele>113.39999999999999</ele><time>2026-04-12T09:22:10.001Z</time></trkpt><trkpt lat="43.3887111269503" lon="6.683792417016645"><ele>116.60000000000001</ele><time>2026-04-12T09:22:11.001Z</time></trkpt><trkpt lat="43.388848552136075" lon="6.683845276708376"><ele>119.80000000000001</ele><time>2026-04-12T09:22:13.001Z</time></trkpt><trkpt lat="43.388957865764155" lon="6.6839138875925"><ele>123.0</ele><time>2026-04-12T09:22:15.001Z</time></trkpt><trkpt lat="43.389038517681016" lon="6.683920034817454"><ele>124.66666666666667</ele><time>2026-04-12T09:22:16.001Z</time></trkpt><trkpt lat="43.389120257340565" lon="6.683896944947694"><ele>126.33333333333334</ele><time>2026-04-12T09:22:17.001Z</time></trkpt><trkpt lat="43.389201808368284" lon="6.683884452973201"><ele>128.0</ele><time>2026-04-12T09:22:18.001Z</time></trkpt><trkpt lat="43.389280161181865" lon="6.68387942080596"><ele>129.66666666666669</ele><time>2026-04-12T09:22:19.001Z</time></trkpt><trkpt lat="43.389352153542355" lon="6.683950718770784"><ele>131.33333333333334</ele><time>2026-04-12T09:22:21.001Z</time></trkpt><trkpt lat="43.38937685892183" lon="6.684031077222723"><ele>133.0</ele><time>2026-04-12T09:22:22.001Z</time></trkpt><trkpt lat="43.38937043138457" lon="6.684212530483453"><ele>133.0</ele><time>2026-04-12T09:22:24.001Z</time></trkpt><trkpt lat="43.38934919103608" lon="6.684309021137926"><ele>133.0</ele><time>2026-04-12T09:22:25.001Z</time></trkpt><trkpt lat="43.389322214826805" lon="6.684417676477058"><ele>133.0</ele><time>2026-04-12T09:22:26.001Z</time></trkpt><trkpt lat="43.389256300379216" lon="6.684511950038018"><ele>133.0</ele><time>2026-04-12T09:22:27Z</time></trkpt><trkpt lat="43.3891840681667" lon="6.684615010087358"><ele>133.0</ele><time>2026-04-12T09:22:28Z</time></trkpt><trkpt lat="43.38912989367389" lon="6.68472112914344"><ele>135.0</ele><time>2026-04-12T09:22:29Z</time></trkpt><trkpt lat="43.38908914593867" lon="6.6848428223213405"><ele>137.0</ele><time>2026-04-12T09:22:30Z</time></trkpt><trkpt lat="43.389060367633846" lon="6.684983616004245"><ele>139.0</ele><time>2026-04-12T09:22:31Z</time></trkpt><trkpt lat="43.389022499147764" lon="6.685101837483822"><ele>141.0</ele><time>2026-04-12T09:22:32Z</time></trkpt><trkpt lat="43.38896723064078" lon="6.685202313669134"><ele>143.0</ele><time>2026-04-12T09:22:33Z</time></trkpt><trkpt lat="43.38889959478941" lon="6.685286005383185"><ele>145.66666666666666</ele><time>2026-04-12T09:22:34Z</time></trkpt><trkpt lat="43.388826645010354" lon="6.685349470988367"><ele>148.33333333333331</ele><time>2026-04-12T09:22:35Z</time></trkpt><trkpt lat="43.3887545793421" lon="6.685426316428415"><ele>151.0</ele><time>2026-04-12T09:22:36Z</time></trkpt><trkpt lat="43.388689823104464" lon="6.6855353394962345"><ele>153.66666666666666</ele><time>2026-04-12T09:22:37Z</time></trkpt><trkpt lat="43.38865084155924" lon="6.685615616971074"><ele>156.33333333333334</ele><time>2026-04-12T09:22:38Z</time></trkpt><trkpt lat="43.3886196750825" lon="6.6857378379067045"><ele>159.0</ele><time>2026-04-12T09:22:39Z</time></trkpt><trkpt lat="43.3885960942291" lon="6.685821586958958"><ele>159.0</ele><time>2026-04-12T09:22:40Z</time></trkpt><trkpt lat="43.38859905633096" lon="6.685928885115784"><ele>159.0</ele><time>2026-04-12T09:22:41Z</time></trkpt><trkpt lat="43.388583108099894" lon="6.686026144582698"><ele>159.0</ele><time>2026-04-12T09:22:42Z</time></trkpt><trkpt lat="43.388547602666854" lon="6.68612800415837"><ele>159.0</ele><time>2026-04-12T09:22:43Z</time></trkpt><trkpt lat="43.38850610396297" lon="6.686245508837598"><ele>159.0</ele><time>2026-04-12T09:22:44Z</time></trkpt><trkpt lat="43.388474912632944" lon="6.6863866089100945"><ele>159.0</ele><time>2026-04-12T09:22:45Z</time></trkpt><trkpt lat="43.38845348118409" lon="6.686541593306525"><ele>161.0</ele><time>2026-04-12T09:22:46Z</time></trkpt><trkpt lat="43.38843114309837" lon="6.686691309422015"><ele>163.0</ele><time>2026-04-12T09:22:47Z</time></trkpt><trkpt lat="43.38841540047321" lon="6.6868663442036285"><ele>165.0</ele><time>2026-04-12T09:22:48Z</time></trkpt><trkpt lat="43.38840620373484" lon="6.687011302336565"><ele>167.0</ele><time>2026-04-12T09:22:49Z</time></trkpt><trkpt lat="43.38842914198381" lon="6.68711934404803"><ele>169.0</ele><time>2026-04-12T09:22:50Z</time></trkpt><trkpt lat="43.38846859342711" lon="6.687238180721147"><ele>172.2</ele><time>2026-04-12T09:22:51Z</time></trkpt><trkpt lat="43.38850512552274" lon="6.687376292743389"><ele>175.39999999999998</ele><time>2026-04-12T09:22:52Z</time></trkpt><trkpt lat="43.38850720111177" lon="6.687501682189451"><ele>178.6</ele><time>2026-04-12T09:22:53Z</time></trkpt><trkpt lat="43.388497005808645" lon="6.687606755566405"><ele>181.8</ele><time>2026-04-12T09:22:54Z</time></trkpt><trkpt lat="43.38845199798875" lon="6.687733529307588"><ele>185.0</ele><time>2026-04-12T09:22:55Z</time></trkpt><trkpt lat="43.38844238420909" lon="6.687852722847154"><ele>187.6</ele><time>2026-04-12T09:22:56Z</time></trkpt><trkpt lat="43.388426860995295" lon="6.687966281874557"><ele>190.2</ele><time>2026-04-12T09:22:57Z</time></trkpt><trkpt lat="43.38844559038844" lon="6.688085114696899"><ele>192.8</ele><time>2026-04-12T09:22:58Z</time></trkpt><trkpt lat="43.388470834191786" lon="6.688213047411563"><ele>195.4</ele><time>2026-04-12T09:22:59Z</time></trkpt><trkpt lat="43.388490232948286" lon="6.688363797653964"><ele>198.0</ele><time>2026-04-12T09:23:00Z</time></trkpt><trkpt lat="43.38849021142515" lon="6.6885036287437885"><ele>201.60000000000002</ele><time>2026-04-12T09:23:01Z</time></trkpt><trkpt lat="43.388495969454205" lon="6.688632650771733"><ele>205.20000000000002</ele><time>2026-04-12T09:23:02Z</time></trkpt><trkpt lat="43.388488116948764" lon="6.688749539119256"><ele>208.8</ele><time>2026-04-12T09:23:03Z</time></trkpt><trkpt lat="43.38845482875199" lon="6.688848027470469"><ele>212.4</ele><time>2026-04-12T09:23:04Z</time></trkpt><trkpt lat="43.38838764843137" lon="6.688954816533344"><ele>216.0</ele><time>2026-04-12T09:23:05Z</time></trkpt><trkpt lat="43.38830474442784" lon="6.689076424685754"><ele>216.0</ele><time>2026-04-12T09:23:06Z</time></trkpt><trkpt lat="43.38822209819098" lon="6.689193003989516"><ele>216.00000000000003</ele><time>2026-04-12T09:23:07Z</time></trkpt><trkpt lat="43.38815496955673" lon="6.689285877917291"><ele>216.00000000000003</ele><time>2026-04-12T09:23:08Z</time></trkpt><trkpt lat="43.388083602399405" lon="6.689370565724063"><ele>216.0</ele><time>2026-04-12T09:23:10Z</time></trkpt><trkpt lat="43.388089786077764" lon="6.689510894655299"><ele>216.0</ele><time>2026-04-12T09:23:14Z</time></trkpt><trkpt lat="43.388103756892605" lon="6.689705023529373"><ele>217.60000000000002</ele><time>2026-04-12T09:23:16Z</time></trkpt><trkpt lat="43.38809700946772" lon="6.689844195616238"><ele>219.20000000000002</ele><time>2026-04-12T09:23:18Z</time></trkpt><trkpt lat="43.388078864128666" lon="6.689936876568637"><ele>220.79999999999998</ele><time>2026-04-12T09:23:19Z</time></trkpt><trkpt lat="43.38810080963092" lon="6.690090659263599"><ele>222.39999999999998</ele><time>2026-04-12T09:23:21.001Z</time></trkpt><trkpt lat="43.38811079671914" lon="6.690262984984427"><ele>224.0</ele><time>2026-04-12T09:23:22.001Z</time></trkpt><trkpt lat="43.388130126427534" lon="6.690393493691467"><ele>224.00000000000003</ele><time>2026-04-12T09:23:23.001Z</time></trkpt><trkpt lat="43.388186337305385" lon="6.690474256677641"><ele>224.0</ele><time>2026-04-12T09:23:24.001Z</time></trkpt><trkpt lat="43.38823932941807" lon="6.6905682406574405"><ele>224.0</ele><time>2026-04-12T09:23:25.001Z</time></trkpt><trkpt lat="43.38826151950977" lon="6.690673665765272"><ele>224.0</ele><time>2026-04-12T09:23:26.001Z</time></trkpt><trkpt lat="43.38826787648776" lon="6.690806754309587"><ele>224.00000000000003</ele><time>2026-04-12T09:23:27.001Z</time></trkpt><trkpt lat="43.38828904020887" lon="6.690913438074232"><ele>224.0</ele><time>2026-04-12T09:23:28.001Z</time></trkpt><trkpt lat="43.38830583604055" lon="6.691016564193438"><ele>222.00000000000003</ele><time>2026-04-12T09:23:29.001Z</time></trkpt><trkpt lat="43.388309057881955" lon="6.691120746354246"><ele>220.0</ele><time>2026-04-12T09:23:30.001Z</time></trkpt><trkpt lat="43.38830938926767" lon="6.691230449110868"><ele>218.0</ele><time>2026-04-12T09:23:31.001Z</time></trkpt><trkpt lat="43.3883063187339" lon="6.691355335595365"><ele>216.0</ele><time>2026-04-12T09:23:32.001Z</time></trkpt><trkpt lat="43.388327692839745" lon="6.691445184160477"><ele>214.00000000000003</ele><time>2026-04-12T09:23:33.001Z</time></trkpt><trkpt lat="43.38843707761144" lon="6.69150596133418"><ele>212.0</ele><time>2026-04-12T09:23:35.001Z</time></trkpt><trkpt lat="43.38851799389217" lon="6.691545561279422"><ele>212.0</ele><time>2026-04-12T09:23:36.001Z</time></trkpt><trkpt lat="43.38863111692083" lon="6.691621845494346"><ele>212.0</ele><time>2026-04-12T09:23:38.001Z</time></trkpt><trkpt lat="43.38872794693721" lon="6.691678888753929"><ele>212.0</ele><time>2026-04-12T09:23:39.001Z</time></trkpt><trkpt lat="43.388842218136176" lon="6.691710725733417"><ele>212.0</ele><time>2026-04-12T09:23:41.001Z</time></trkpt><trkpt lat="43.38889301521017" lon="6.69186934999399"><ele>207.0</ele><time>2026-04-12T09:23:43.001Z</time></trkpt><trkpt lat="43.38893129278824" lon="6.691992272860573"><ele>202.0</ele><time>2026-04-12T09:23:44.001Z</time></trkpt><trkpt lat="43.3889597514393" lon="6.692116796763809"><ele>197.0</ele><time>2026-04-12T09:23:45.001Z</time></trkpt><trkpt lat="43.38897985343703" lon="6.692256523310741"><ele>192.0</ele><time>2026-04-12T09:23:46.001Z</time></trkpt><trkpt lat="43.388998857345534" lon="6.692385919551154"><ele>187.0</ele><time>2026-04-12T09:23:47.001Z</time></trkpt><trkpt lat="43.38902761915356" lon="6.692502771086011"><ele>187.0</ele><time>2026-04-12T09:23:48.001Z</time></trkpt><trkpt lat="43.38901594354514" lon="6.692596016695484"><ele>187.0</ele><time>2026-04-12T09:23:49.001Z</time></trkpt><trkpt lat="43.389040181895574" lon="6.692703198902172"><ele>187.0</ele><time>2026-04-12T09:23:50.001Z</time></trkpt><trkpt lat="43.38910693450363" lon="6.692784666058902"><ele>187.0</ele><time>2026-04-12T09:23:51.001Z</time></trkpt><trkpt lat="43.3891643067031" lon="6.692868241009498"><ele>187.0</ele><time>2026-04-12T09:23:52.001Z</time></trkpt><trkpt lat="43.38922396469402" lon="6.692974236700804"><ele>187.0</ele><time>2026-04-12T09:23:53.001Z</time></trkpt><trkpt lat="43.38927900335738" lon="6.693081296150925"><ele>185.16666666666669</ele><time>2026-04-12T09:23:54.001Z</time></trkpt><trkpt lat="43.389317164241405" lon="6.693178143474034"><ele>183.33333333333334</ele><time>2026-04-12T09:23:55.001Z</time></trkpt><trkpt lat="43.38934607065751" lon="6.693263932783596"><ele>181.5</ele><time>2026-04-12T09:23:56.001Z</time></trkpt><trkpt lat="43.3893650001408" lon="6.693364713077174"><ele>179.66666666666666</ele><time>2026-04-12T09:23:57.001Z</time></trkpt><trkpt lat="43.389435999518746" lon="6.693447735986336"><ele>177.83333333333331</ele><time>2026-04-12T09:23:58.001Z</time></trkpt><trkpt lat="43.389535218938406" lon="6.693534253714737"><ele>176.0</ele><time>2026-04-12T09:23:59.001Z</time></trkpt><trkpt lat="43.38963984525783" lon="6.693596220551032"><ele>173.20000000000002</ele><time>2026-04-12T09:24:00.001Z</time></trkpt><trkpt lat="43.389719143905836" lon="6.693668756852385"><ele>170.4</ele><time>2026-04-12T09:24:01.001Z</time></trkpt><trkpt lat="43.389790305897364" lon="6.6937468802488755"><ele>167.6</ele><time>2026-04-12T09:24:02.001Z</time></trkpt><trkpt lat="43.389862940582084" lon="6.693842836924957"><ele>164.8</ele><time>2026-04-12T09:24:03.001Z</time></trkpt><trkpt lat="43.38991577051056" lon="6.693960334027676"><ele>162.0</ele><time>2026-04-12T09:24:04.001Z</time></trkpt><trkpt lat="43.389939085023514" lon="6.694104873414979"><ele>162.0</ele><time>2026-04-12T09:24:05.001Z</time></trkpt><trkpt lat="43.38996121839233" lon="6.694243341988145"><ele>162.0</ele><time>2026-04-12T09:24:06.001Z</time></trkpt><trkpt lat="43.389969015202645" lon="6.694379336848203"><ele>162.0</ele><time>2026-04-12T09:24:07.001Z</time></trkpt><trkpt lat="43.39001145475923" lon="6.694493641538837"><ele>162.0</ele><time>2026-04-12T09:24:08.001Z</time></trkpt><trkpt lat="43.39008156490189" lon="6.6945673251356315"><ele>162.0</ele><time>2026-04-12T09:24:09.001Z</time></trkpt><trkpt lat="43.390185441568505" lon="6.6946533289272505"><ele>159.6</ele><time>2026-04-12T09:24:10.001Z</time></trkpt><trkpt lat="43.390285240812105" lon="6.694758028707448"><ele>157.2</ele><time>2026-04-12T09:24:11.001Z</time></trkpt><trkpt lat="43.39037018848113" lon="6.694853056014918"><ele>154.8</ele><time>2026-04-12T09:24:12.001Z</time></trkpt><trkpt lat="43.39045401262494" lon="6.694913140723116"><ele>152.4</ele><time>2026-04-12T09:24:13.001Z</time></trkpt><trkpt lat="43.390539607026504" lon="6.6950081549753175"><ele>150.0</ele><time>2026-04-12T09:24:14.001Z</time></trkpt><trkpt lat="43.39063873704084" lon="6.695109039529878"><ele>149.2</ele><time>2026-04-12T09:24:15.001Z</time></trkpt><trkpt lat="43.39072668741831" lon="6.695186480908706"><ele>148.4</ele><time>2026-04-12T09:24:16.001Z</time></trkpt><trkpt lat="43.390799099728184" lon="6.695263092470816"><ele>147.6</ele><time>2026-04-12T09:24:17.001Z</time></trkpt><trkpt lat="43.39088991738478" lon="6.695336669740004"><ele>146.8</ele><time>2026-04-12T09:24:18.001Z</time></trkpt><trkpt lat="43.39100714969592" lon="6.695404364674416"><ele>146.0</ele><time>2026-04-12T09:24:19.001Z</time></trkpt><trkpt lat="43.391159010800415" lon="6.695486985916691"><ele>144.4</ele><time>2026-04-12T09:24:20.001Z</time></trkpt><trkpt lat="43.39127701663791" lon="6.695560366579716"><ele>142.8</ele><time>2026-04-12T09:24:21.001Z</time></trkpt><trkpt lat="43.3913412375229" lon="6.695643617292586"><ele>141.20000000000002</ele><time>2026-04-12T09:24:22.001Z</time></trkpt><trkpt lat="43.391381851564915" lon="6.6957545360106865"><ele>139.6</ele><time>2026-04-12T09:24:23.001Z</time></trkpt><trkpt lat="43.391417869653864" lon="6.695896078449707"><ele>138.0</ele><time>2026-04-12T09:24:24.001Z</time></trkpt><trkpt lat="43.39141839088136" lon="6.69601192473207"><ele>136.42857142857144</ele><time>2026-04-12T09:24:25.001Z</time></trkpt><trkpt lat="43.39140807515685" lon="6.696112090459655"><ele>134.85714285714286</ele><time>2026-04-12T09:24:26.001Z</time></trkpt><trkpt lat="43.39141804083702" lon="6.696204590875664"><ele>133.28571428571428</ele><time>2026-04-12T09:24:27.001Z</time></trkpt><trkpt lat="43.391415067473055" lon="6.696298070628282"><ele>131.71428571428572</ele><time>2026-04-12T09:24:28.001Z</time></trkpt><trkpt lat="43.3914097607794" lon="6.696394949010192"><ele>130.14285714285714</ele><time>2026-04-12T09:24:29.001Z</time></trkpt><trkpt lat="43.39141001082705" lon="6.696494795953226"><ele>128.57142857142858</ele><time>2026-04-12T09:24:30.001Z</time></trkpt><trkpt lat="43.39142842503485" lon="6.6966144003277845"><ele>127.0</ele><time>2026-04-12T09:24:31.001Z</time></trkpt><trkpt lat="43.39145617270204" lon="6.69675381340335"><ele>127.0</ele><time>2026-04-12T09:24:32.001Z</time></trkpt><trkpt lat="43.39147696796715" lon="6.6968885729618854"><ele>126.99999999999999</ele><time>2026-04-12T09:24:33Z</time></trkpt><trkpt lat="43.39150284961648" lon="6.69701855039895"><ele>126.99999999999999</ele><time>2026-04-12T09:24:34Z</time></trkpt><trkpt lat="43.39149217008466" lon="6.697163562807383"><ele>127.0</ele><time>2026-04-12T09:24:35Z</time></trkpt><trkpt lat="43.39147491067053" lon="6.69732671695929"><ele>127.0</ele><time>2026-04-12T09:24:36Z</time></trkpt><trkpt lat="43.39144371570292" lon="6.6974709045872665"><ele>124.5</ele><time>2026-04-12T09:24:37Z</time></trkpt><trkpt lat="43.391448808728" lon="6.697609043806257"><ele>122.0</ele><time>2026-04-12T09:24:38Z</time></trkpt><trkpt lat="43.39147415823106" lon="6.697740245407813"><ele>119.5</ele><time>2026-04-12T09:24:39Z</time></trkpt><trkpt lat="43.391518716129596" lon="6.697910268141097"><ele>117.0</ele><time>2026-04-12T09:24:40Z</time></trkpt><trkpt lat="43.39156595113123" lon="6.698063635136136"><ele>115.0</ele><time>2026-04-12T09:24:41Z</time></trkpt><trkpt lat="43.39161148003015" lon="6.698198651966345"><ele>113.0</ele><time>2026-04-12T09:24:42Z</time></trkpt><trkpt lat="43.39164802257275" lon="6.698324617576887"><ele>111.0</ele><time>2026-04-12T09:24:43Z</time></trkpt><trkpt lat="43.39171841215473" lon="6.69845299429804"><ele>109.0</ele><time>2026-04-12T09:24:45Z</time></trkpt><trkpt lat="43.39179389459827" lon="6.69859532327988"><ele>107.2</ele><time>2026-04-12T09:24:47Z</time></trkpt><trkpt lat="43.39188224713507" lon="6.69873479324514"><ele>105.4</ele><time>2026-04-12T09:24:49Z</time></trkpt><trkpt lat="43.39192592082112" lon="6.698805984794129"><ele>103.6</ele><time>2026-04-12T09:24:50Z</time></trkpt><trkpt lat="43.39197526036551" lon="6.698973387478369"><ele>101.8</ele><time>2026-04-12T09:24:52Z</time></trkpt><trkpt lat="43.391978444976665" lon="6.69907141967789"><ele>100.0</ele><time>2026-04-12T09:24:53Z</time></trkpt><trkpt lat="43.391977354201344" lon="6.699170573126807"><ele>100.00000000000001</ele><time>2026-04-12T09:24:54Z</time></trkpt><trkpt lat="43.391964417769934" lon="6.699256087212103"><ele>100.0</ele><time>2026-04-12T09:24:55Z</time></trkpt><trkpt lat="43.391963696952054" lon="6.69935428788871"><ele>100.0</ele><time>2026-04-12T09:24:56Z</time></trkpt><trkpt lat="43.39198740119605" lon="6.69945986621358"><ele>100.0</ele><time>2026-04-12T09:24:57Z</time></trkpt><trkpt lat="43.39202840996932" lon="6.699542164354034"><ele>100.00000000000001</ele><time>2026-04-12T09:24:58Z</time></trkpt><trkpt lat="43.392119995082865" lon="6.6996146263033545"><ele>100.0</ele><time>2026-04-12T09:25:00Z</time></trkpt><trkpt lat="43.39218332830304" lon="6.699644457380584"><ele>99.4</ele><time>2026-04-12T09:25:01Z</time></trkpt><trkpt lat="43.39230142102261" lon="6.6997353119712395"><ele>98.8</ele><time>2026-04-12T09:25:03Z</time></trkpt><trkpt lat="43.3923938839641" lon="6.699786924801181"><ele>98.19999999999999</ele><time>2026-04-12T09:25:05Z</time></trkpt><trkpt lat="43.39248851806806" lon="6.699785348443964"><ele>97.6</ele><time>2026-04-12T09:25:07Z</time></trkpt><trkpt lat="43.39258007349922" lon="6.6997857945433825"><ele>97.0</ele><time>2026-04-12T09:25:09Z</time></trkpt><trkpt lat="43.39267907422033" lon="6.699778250493654"><ele>97.0</ele><time>2026-04-12T09:25:11Z</time></trkpt><trkpt lat="43.39278401708254" lon="6.699772807514809"><ele>97.0</ele><time>2026-04-12T09:25:13Z</time></trkpt><trkpt lat="43.39284734265039" lon="6.6997865205892"><ele>97.0</ele><time>2026-04-12T09:25:14Z</time></trkpt><trkpt lat="43.392950500579666" lon="6.699850207216725"><ele>97.0</ele><time>2026-04-12T09:25:16Z</time></trkpt><trkpt lat="43.393015128635916" lon="6.699936834291479"><ele>97.0</ele><time>2026-04-12T09:25:18Z</time></trkpt><trkpt lat="43.393069376608224" lon="6.7000238121676485"><ele>97.0</ele><time>2026-04-12T09:25:20Z</time></trkpt><trkpt lat="43.39310406488517" lon="6.7000993608740815"><ele>97.0</ele><time>2026-04-12T09:25:22Z</time></trkpt><trkpt lat="43.39310716823746" lon="6.700006962849967"><ele>97.0</ele><time>2026-04-12T09:25:41.001Z</time></trkpt><trkpt lat="43.393046222386324" lon="6.699968951637495"><ele>97.0</ele><time>2026-04-12T09:25:42.001Z</time></trkpt><trkpt lat="43.39298924996551" lon="6.699917320887203"><ele>97.0</ele><time>2026-04-12T09:25:43.001Z</time></trkpt><trkpt lat="43.39294573882939" lon="6.699853691130305"><ele>97.0</ele><time>2026-04-12T09:25:44.001Z</time></trkpt><trkpt lat="43.39289453780628" lon="6.699723286000367"><ele>97.0</ele><time>2026-04-12T09:25:46.001Z</time></trkpt><trkpt lat="43.39287936145282" lon="6.699815331595185"><ele>97.0</ele><time>2026-04-12T09:25:48.001Z</time></trkpt><trkpt lat="43.39297906417199" lon="6.699913223197363"><ele>97.0</ele><time>2026-04-12T09:25:50.001Z</time></trkpt><trkpt lat="43.39302502846407" lon="6.699998308609013"><ele>97.0</ele><time>2026-04-12T09:25:51.001Z</time></trkpt><trkpt lat="43.393079093350465" lon="6.700126148065073"><ele>97.0</ele><time>2026-04-12T09:25:52.001Z</time></trkpt><trkpt lat="43.39310534550788" lon="6.700300969133097"><ele>97.0</ele><time>2026-04-12T09:25:53.001Z</time></trkpt><trkpt lat="43.39310754672733" lon="6.7004883155688235"><ele>97.16666666666667</ele><time>2026-04-12T09:25:54.001Z</time></trkpt><trkpt lat="43.39309806722535" lon="6.700652488792765"><ele>97.33333333333334</ele><time>2026-04-12T09:25:55.001Z</time></trkpt><trkpt lat="43.393105570280355" lon="6.700785341570105"><ele>97.5</ele><time>2026-04-12T09:25:56.001Z</time></trkpt><trkpt lat="43.3931165379836" lon="6.700884854535729"><ele>97.66666666666666</ele><time>2026-04-12T09:25:57.001Z</time></trkpt><trkpt lat="43.39315093545654" lon="6.70097647545836"><ele>97.83333333333333</ele><time>2026-04-12T09:25:58.001Z</time></trkpt><trkpt lat="43.393194382312814" lon="6.701070248892942"><ele>98.0</ele><time>2026-04-12T09:25:59.001Z</time></trkpt><trkpt lat="43.393245926409094" lon="6.70116543642781"><ele>98.0</ele><time>2026-04-12T09:26:00.001Z</time></trkpt><trkpt lat="43.39332839103129" lon="6.701263772725553"><ele>98.0</ele><time>2026-04-12T09:26:02.001Z</time></trkpt><trkpt lat="43.393401768512426" lon="6.701371199981655"><ele>98.0</ele><time>2026-04-12T09:26:04.001Z</time></trkpt><trkpt lat="43.39344355969852" lon="6.701448079733053"><ele>98.0</ele><time>2026-04-12T09:26:05.001Z</time></trkpt><trkpt lat="43.393505946640815" lon="6.70158383287964"><ele>98.0</ele><time>2026-04-12T09:26:07.001Z</time></trkpt><trkpt lat="43.39356956975283" lon="6.70171381376496"><ele>98.0</ele><time>2026-04-12T09:26:09.001Z</time></trkpt><trkpt lat="43.393587404917064" lon="6.701856527165533"><ele>98.0</ele><time>2026-04-12T09:26:11.001Z</time></trkpt><trkpt lat="43.39361883602566" lon="6.701955234728426"><ele>98.0</ele><time>2026-04-12T09:26:12.001Z</time></trkpt><trkpt lat="43.393669762596225" lon="6.702080023594845"><ele>98.0</ele><time>2026-04-12T09:26:14.001Z</time></trkpt><trkpt lat="43.39375535071954" lon="6.702226747971865"><ele>98.0</ele><time>2026-04-12T09:26:16.001Z</time></trkpt><trkpt lat="43.393821085664484" lon="6.702283272262253"><ele>96.0</ele><time>2026-04-12T09:26:17.001Z</time></trkpt><trkpt lat="43.39389335388965" lon="6.70233465336858"><ele>94.0</ele><time>2026-04-12T09:26:18.001Z</time></trkpt><trkpt lat="43.393993795841105" lon="6.702410510144909"><ele>92.0</ele><time>2026-04-12T09:26:20.001Z</time></trkpt><trkpt lat="43.394073394124185" lon="6.702477136124357"><ele>90.0</ele><time>2026-04-12T09:26:22.001Z</time></trkpt><trkpt lat="43.39409782623886" lon="6.702608359606437"><ele>88.0</ele><time>2026-04-12T09:26:24.001Z</time></trkpt><trkpt lat="43.39411693003541" lon="6.7027003566285215"><ele>87.16666666666666</ele><time>2026-04-12T09:26:25.001Z</time></trkpt><trkpt lat="43.39412610510985" lon="6.702805143971224"><ele>86.33333333333333</ele><time>2026-04-12T09:26:26.001Z</time></trkpt><trkpt lat="43.394140164032805" lon="6.702951167450185"><ele>85.5</ele><time>2026-04-12T09:26:27.001Z</time></trkpt><trkpt lat="43.39413667534948" lon="6.703093278115498"><ele>84.66666666666667</ele><time>2026-04-12T09:26:28.001Z</time></trkpt><trkpt lat="43.39417092496426" lon="6.703182097623459"><ele>83.83333333333334</ele><time>2026-04-12T09:26:30.001Z</time></trkpt><trkpt lat="43.394202494356215" lon="6.703286346748243"><ele>83.0</ele><time>2026-04-12T09:26:32.001Z</time></trkpt><trkpt lat="43.39423742902417" lon="6.7035359338324305"><ele>82.0</ele><time>2026-04-12T09:26:34.001Z</time></trkpt><trkpt lat="43.3942542438298" lon="6.70369283112228"><ele>81.0</ele><time>2026-04-12T09:26:35.001Z</time></trkpt><trkpt lat="43.3942904320966" lon="6.703881474354484"><ele>80.0</ele><time>2026-04-12T09:26:36.001Z</time></trkpt><trkpt lat="43.39430824469709" lon="6.704114355254578"><ele>79.0</ele><time>2026-04-12T09:26:37.001Z</time></trkpt><trkpt lat="43.39431415125828" lon="6.704261482261291"><ele>79.0</ele><time>2026-04-12T09:26:38.001Z</time></trkpt><trkpt lat="43.39433575152524" lon="6.704346527451856"><ele>79.0</ele><time>2026-04-12T09:26:39Z</time></trkpt><trkpt lat="43.39436385850243" lon="6.704457295265355"><ele>79.0</ele><time>2026-04-12T09:26:40Z</time></trkpt><trkpt lat="43.394392703752246" lon="6.704588162062701"><ele>79.0</ele><time>2026-04-12T09:26:41Z</time></trkpt><trkpt lat="43.394434155242784" lon="6.70469762869135"><ele>79.0</ele><time>2026-04-12T09:26:42Z</time></trkpt><trkpt lat="43.39443562850399" lon="6.704786740224577"><ele>79.0</ele><time>2026-04-12T09:26:43Z</time></trkpt><trkpt lat="43.39440188218152" lon="6.704869708824347"><ele>78.0</ele><time>2026-04-12T09:26:44Z</time></trkpt><trkpt lat="43.394368682305284" lon="6.704969434680817"><ele>77.0</ele><time>2026-04-12T09:26:45Z</time></trkpt><trkpt lat="43.39435156985669" lon="6.705176899491229"><ele>76.0</ele><time>2026-04-12T09:26:47Z</time></trkpt><trkpt lat="43.3943479295554" lon="6.705273161143926"><ele>75.0</ele><time>2026-04-12T09:26:48Z</time></trkpt><trkpt lat="43.39433953769353" lon="6.70536228504661"><ele>74.0</ele><time>2026-04-12T09:26:49Z</time></trkpt><trkpt lat="43.39425179301293" lon="6.705473396164752"><ele>72.60000000000001</ele><time>2026-04-12T09:26:51Z</time></trkpt><trkpt lat="43.39417603875538" lon="6.705466189481227"><ele>71.2</ele><time>2026-04-12T09:26:53Z</time></trkpt><trkpt lat="43.39407619699608" lon="6.70554142866583"><ele>69.80000000000001</ele><time>2026-04-12T09:26:55Z</time></trkpt><trkpt lat="43.39401935093515" lon="6.705586085521017"><ele>68.4</ele><time>2026-04-12T09:26:57Z</time></trkpt><trkpt lat="43.39395003239778" lon="6.705726916910135"><ele>67.0</ele><time>2026-04-12T09:26:59Z</time></trkpt><trkpt lat="43.39387630866732" lon="6.70570778674307"><ele>64.5</ele><time>2026-04-12T09:27:01Z</time></trkpt><trkpt lat="43.39381840237201" lon="6.705673641908301"><ele>62.0</ele><time>2026-04-12T09:27:04Z</time></trkpt><trkpt lat="43.39375326434678" lon="6.70571116383352"><ele>59.5</ele><time>2026-04-12T09:27:06Z</time></trkpt><trkpt lat="43.39368945764014" lon="6.705754706083086"><ele>57.0</ele><time>2026-04-12T09:27:08Z</time></trkpt><trkpt lat="43.39358670420348" lon="6.7058311255937095"><ele>54.49999999999999</ele><time>2026-04-12T09:27:11Z</time></trkpt><trkpt lat="43.393524231056645" lon="6.705859658508662"><ele>52.0</ele><time>2026-04-12T09:27:13Z</time></trkpt><trkpt lat="43.39344496291772" lon="6.705885339470812"><ele>51.99999999999999</ele><time>2026-04-12T09:27:15Z</time></trkpt><trkpt lat="43.3933432430243" lon="6.705887730129575"><ele>52.0</ele><time>2026-04-12T09:27:18Z</time></trkpt><trkpt lat="43.393280240768604" lon="6.705939218052798"><ele>52.0</ele><time>2026-04-12T09:27:20Z</time></trkpt><trkpt lat="43.393230607463295" lon="6.705993430496405"><ele>52.0</ele><time>2026-04-12T09:27:22Z</time></trkpt><trkpt lat="43.39316188263173" lon="6.706073132651777"><ele>51.99999999999999</ele><time>2026-04-12T09:27:25Z</time></trkpt><trkpt lat="43.3931144693382" lon="6.706136262784417"><ele>52.0</ele><time>2026-04-12T09:27:27Z</time></trkpt><trkpt lat="43.39308184754115" lon="6.706213411126883"><ele>50.400000000000006</ele><time>2026-04-12T09:27:29Z</time></trkpt><trkpt lat="43.39304486737445" lon="6.706331203445213"><ele>48.800000000000004</ele><time>2026-04-12T09:27:32.001Z</time></trkpt><trkpt lat="43.39298025588279" lon="6.706378894467205"><ele>47.2</ele><time>2026-04-12T09:27:34.001Z</time></trkpt><trkpt lat="43.39290355602997" lon="6.706436736066109"><ele>45.6</ele><time>2026-04-12T09:27:39.001Z</time></trkpt><trkpt lat="43.392780603487836" lon="6.706451330731733"><ele>44.0</ele><time>2026-04-12T09:27:41.001Z</time></trkpt><trkpt lat="43.39270932503697" lon="6.706479725061745"><ele>44.0</ele><time>2026-04-12T09:27:42.001Z</time></trkpt><trkpt lat="43.39263267778222" lon="6.706576629267758"><ele>44.0</ele><time>2026-04-12T09:27:44.001Z</time></trkpt><trkpt lat="43.392585233676726" lon="6.706672201089414"><ele>44.0</ele><time>2026-04-12T09:27:46.001Z</time></trkpt><trkpt lat="43.392627271317934" lon="6.7067707274783865"><ele>44.0</ele><time>2026-04-12T09:27:48.001Z</time></trkpt><trkpt lat="43.392686643974585" lon="6.706843027852912"><ele>44.0</ele><time>2026-04-12T09:27:50.001Z</time></trkpt><trkpt lat="43.39265717634019" lon="6.7069332535823305"><ele>44.0</ele><time>2026-04-12T09:27:53.001Z</time></trkpt><trkpt lat="43.392593774562535" lon="6.706963340056802"><ele>44.0</ele><time>2026-04-12T09:27:55.001Z</time></trkpt><trkpt lat="43.39252934258282" lon="6.706972119927031"><ele>44.0</ele><time>2026-04-12T09:27:57.001Z</time></trkpt><trkpt lat="43.39244022539342" lon="6.7069705826283705"><ele>44.0</ele><time>2026-04-12T09:27:59.001Z</time></trkpt><trkpt lat="43.3923560163876" lon="6.706952357191243"><ele>44.0</ele><time>2026-04-12T09:28:01.001Z</time></trkpt><trkpt lat="43.3922952913064" lon="6.706920230693263"><ele>44.0</ele><time>2026-04-12T09:28:04.001Z</time></trkpt><trkpt lat="43.3921741252328" lon="6.706896604150704"><ele>44.0</ele><time>2026-04-12T09:28:07.001Z</time></trkpt><trkpt lat="43.39178299807163" lon="6.706725801885732"><ele>45.400000000000006</ele><time>2026-04-12T09:28:10.001Z</time></trkpt><trkpt lat="43.39168926768353" lon="6.7067471083383845"><ele>46.8</ele><time>2026-04-12T09:28:12.001Z</time></trkpt><trkpt lat="43.39158532807192" lon="6.706733715766595"><ele>48.2</ele><time>2026-04-12T09:28:13.001Z</time></trkpt><trkpt lat="43.391514663351494" lon="6.706662715654212"><ele>49.599999999999994</ele><time>2026-04-12T09:28:14.001Z</time></trkpt><trkpt lat="43.39144475617682" lon="6.706614621355198"><ele>51.0</ele><time>2026-04-12T09:28:15.001Z</time></trkpt><trkpt lat="43.39139754130718" lon="6.7065074041109725"><ele>52.833333333333336</ele><time>2026-04-12T09:28:16.001Z</time></trkpt><trkpt lat="43.391329267930004" lon="6.706474692251571"><ele>54.66666666666667</ele><time>2026-04-12T09:28:17.001Z</time></trkpt><trkpt lat="43.39126418901466" lon="6.706428149267488"><ele>56.5</ele><time>2026-04-12T09:28:18.001Z</time></trkpt><trkpt lat="43.39120890232569" lon="6.706379604363627"><ele>58.333333333333336</ele><time>2026-04-12T09:28:19.001Z</time></trkpt><trkpt lat="43.39112030404401" lon="6.7063300910831485"><ele>60.16666666666667</ele><time>2026-04-12T09:28:21.001Z</time></trkpt><trkpt lat="43.39105314669395" lon="6.706425413195527"><ele>62.0</ele><time>2026-04-12T09:28:23.001Z</time></trkpt><trkpt lat="43.391056802035166" lon="6.706589498801773"><ele>62.0</ele><time>2026-04-12T09:28:26.001Z</time></trkpt><trkpt lat="43.391038511431404" lon="6.70669130036516"><ele>62.0</ele><time>2026-04-12T09:28:28.001Z</time></trkpt><trkpt lat="43.39096964785038" lon="6.706715043697968"><ele>62.0</ele><time>2026-04-12T09:29:07Z</time></trkpt><trkpt lat="43.390931030520726" lon="6.706624528202032"><ele>62.0</ele><time>2026-04-12T09:29:41.001Z</time></trkpt></trkseg></trk></gpx>